<?xml version="1.0" encoding="UTF-8" standalone="no" ?>
<gpx xmlns="http://www.topografix.com/GPX/1/1" xmlns:xsi="http://www.w3.org/2001/XMLSchema-instance" xsi:schemaLocation="http://www.topografix.com/GPX/1/1 http://www.topografix.com/GPX/1/1/gpx.xsd" version="1.1" creator="VisuGPX - https://www.visugpx.com">
  <metadata>
    <name>La montagnarde 2014</name>
    <desc><![CDATA[La Montagnarde]]></desc>
  </metadata>
  <trk>
    <name><![CDATA[La montagnarde 2014_1]]></name>
    <trkseg>
      <trkpt lat="50.11731" lon="3.54019">
        <ele>90.583618164062</ele>
        <time>2014-04-13T06:42:48.000Z</time>
      </trkpt>
      <trkpt lat="50.11731" lon="3.54024">
        <ele>90.814880371094</ele>
        <time>2014-04-13T06:42:50.000Z</time>
      </trkpt>
      <trkpt lat="50.1173" lon="3.54031">
        <ele>91.258422851562</ele>
        <time>2014-04-13T06:42:53.000Z</time>
      </trkpt>
      <trkpt lat="50.11731" lon="3.5404">
        <ele>91.174743652344</ele>
        <time>2014-04-13T06:42:55.000Z</time>
      </trkpt>
      <trkpt lat="50.11733" lon="3.54049">
        <ele>91.087936401367</ele>
        <time>2014-04-13T06:42:57.000Z</time>
      </trkpt>
      <trkpt lat="50.1174" lon="3.54073">
        <ele>90.73380279541</ele>
        <time>2014-04-13T06:43:00.000Z</time>
      </trkpt>
      <trkpt lat="50.11742" lon="3.54085">
        <ele>90.195434570312</ele>
        <time>2014-04-13T06:43:02.000Z</time>
      </trkpt>
      <trkpt lat="50.11749" lon="3.54099">
        <ele>89.32666015625</ele>
        <time>2014-04-13T06:43:05.000Z</time>
      </trkpt>
      <trkpt lat="50.1175" lon="3.5411">
        <ele>88.759201049805</ele>
        <time>2014-04-13T06:43:08.000Z</time>
      </trkpt>
      <trkpt lat="50.11754" lon="3.54119">
        <ele>88.286026000977</ele>
        <time>2014-04-13T06:43:11.000Z</time>
      </trkpt>
      <trkpt lat="50.11755" lon="3.54123">
        <ele>88.33203125</ele>
        <time>2014-04-13T06:43:13.000Z</time>
      </trkpt>
      <trkpt lat="50.11757" lon="3.54129">
        <ele>88.259422302246</ele>
        <time>2014-04-13T06:43:16.000Z</time>
      </trkpt>
      <trkpt lat="50.11756" lon="3.54131">
        <ele>88.187088012695</ele>
        <time>2014-04-13T06:43:19.000Z</time>
      </trkpt>
      <trkpt lat="50.11757" lon="3.54128">
        <ele>88.070030212402</ele>
        <time>2014-04-13T06:43:22.000Z</time>
      </trkpt>
      <trkpt lat="50.11758" lon="3.54129">
        <ele>87.837181091309</ele>
        <time>2014-04-13T06:43:25.000Z</time>
      </trkpt>
      <trkpt lat="50.11759" lon="3.54131">
        <ele>87.459678649902</ele>
        <time>2014-04-13T06:43:27.000Z</time>
      </trkpt>
      <trkpt lat="50.11761" lon="3.54133">
        <ele>87.597427368164</ele>
        <time>2014-04-13T06:43:30.000Z</time>
      </trkpt>
      <trkpt lat="50.1176" lon="3.54131">
        <ele>87.862442016602</ele>
        <time>2014-04-13T06:43:35.000Z</time>
      </trkpt>
      <trkpt lat="50.1176" lon="3.54133">
        <ele>87.480567932129</ele>
        <time>2014-04-13T06:43:41.000Z</time>
      </trkpt>
      <trkpt lat="50.11761" lon="3.54135">
        <ele>86.857727050781</ele>
        <time>2014-04-13T06:43:43.000Z</time>
      </trkpt>
      <trkpt lat="50.11784" lon="3.54142">
        <ele>86.398971557617</ele>
        <time>2014-04-13T06:43:52.000Z</time>
      </trkpt>
      <trkpt lat="50.11832" lon="3.54116">
        <ele>85.759239196777</ele>
        <time>2014-04-13T06:43:58.000Z</time>
      </trkpt>
      <trkpt lat="50.11842" lon="3.54113">
        <ele>85.17936706543</ele>
        <time>2014-04-13T06:44:00.000Z</time>
      </trkpt>
      <trkpt lat="50.11852" lon="3.54111">
        <ele>85.024940490723</ele>
        <time>2014-04-13T06:44:02.000Z</time>
      </trkpt>
      <trkpt lat="50.11869" lon="3.54108">
        <ele>84.968490600586</ele>
        <time>2014-04-13T06:44:05.000Z</time>
      </trkpt>
      <trkpt lat="50.11887" lon="3.54101">
        <ele>84.258583068848</ele>
        <time>2014-04-13T06:44:08.000Z</time>
      </trkpt>
      <trkpt lat="50.11905" lon="3.54096">
        <ele>83.774070739746</ele>
        <time>2014-04-13T06:44:11.000Z</time>
      </trkpt>
      <trkpt lat="50.11917" lon="3.54094">
        <ele>83.163070678711</ele>
        <time>2014-04-13T06:44:14.000Z</time>
      </trkpt>
      <trkpt lat="50.11936" lon="3.54106">
        <ele>82.737998962402</ele>
        <time>2014-04-13T06:44:17.000Z</time>
      </trkpt>
      <trkpt lat="50.11943" lon="3.54116">
        <ele>82.51473236084</ele>
        <time>2014-04-13T06:44:19.000Z</time>
      </trkpt>
      <trkpt lat="50.11952" lon="3.5413">
        <ele>82.82999420166</ele>
        <time>2014-04-13T06:44:22.000Z</time>
      </trkpt>
      <trkpt lat="50.11957" lon="3.54139">
        <ele>82.611221313477</ele>
        <time>2014-04-13T06:44:24.000Z</time>
      </trkpt>
      <trkpt lat="50.11966" lon="3.54154">
        <ele>82.569961547852</ele>
        <time>2014-04-13T06:44:27.000Z</time>
      </trkpt>
      <trkpt lat="50.11975" lon="3.54171">
        <ele>82.543235778809</ele>
        <time>2014-04-13T06:44:30.000Z</time>
      </trkpt>
      <trkpt lat="50.11983" lon="3.54182">
        <ele>82.602127075195</ele>
        <time>2014-04-13T06:44:32.000Z</time>
      </trkpt>
      <trkpt lat="50.11994" lon="3.54199">
        <ele>82.505409240723</ele>
        <time>2014-04-13T06:44:35.000Z</time>
      </trkpt>
      <trkpt lat="50.12001" lon="3.54206">
        <ele>82.783889770508</ele>
        <time>2014-04-13T06:44:37.000Z</time>
      </trkpt>
      <trkpt lat="50.12016" lon="3.54219">
        <ele>83.13419342041</ele>
        <time>2014-04-13T06:44:40.000Z</time>
      </trkpt>
      <trkpt lat="50.12029" lon="3.54226">
        <ele>83.410743713379</ele>
        <time>2014-04-13T06:44:43.000Z</time>
      </trkpt>
      <trkpt lat="50.12043" lon="3.54239">
        <ele>83.330421447754</ele>
        <time>2014-04-13T06:44:46.000Z</time>
      </trkpt>
      <trkpt lat="50.12047" lon="3.54243">
        <ele>83.57576751709</ele>
        <time>2014-04-13T06:44:50.000Z</time>
      </trkpt>
      <trkpt lat="50.12043" lon="3.54272">
        <ele>83.60897064209</ele>
        <time>2014-04-13T06:44:54.000Z</time>
      </trkpt>
      <trkpt lat="50.12041" lon="3.54288">
        <ele>83.533142089844</ele>
        <time>2014-04-13T06:44:56.000Z</time>
      </trkpt>
      <trkpt lat="50.12039" lon="3.54307">
        <ele>83.17854309082</ele>
        <time>2014-04-13T06:44:59.000Z</time>
      </trkpt>
      <trkpt lat="50.12037" lon="3.54326">
        <ele>83.093467712402</ele>
        <time>2014-04-13T06:45:02.000Z</time>
      </trkpt>
      <trkpt lat="50.12033" lon="3.54339">
        <ele>82.708778381348</ele>
        <time>2014-04-13T06:45:04.000Z</time>
      </trkpt>
      <trkpt lat="50.1203" lon="3.54347">
        <ele>82.504043579102</ele>
        <time>2014-04-13T06:45:07.000Z</time>
      </trkpt>
      <trkpt lat="50.12025" lon="3.54355">
        <ele>82.33528137207</ele>
        <time>2014-04-13T06:45:09.000Z</time>
      </trkpt>
      <trkpt lat="50.12018" lon="3.54362">
        <ele>82.418174743652</ele>
        <time>2014-04-13T06:45:11.000Z</time>
      </trkpt>
      <trkpt lat="50.12007" lon="3.54371">
        <ele>82.064292907715</ele>
        <time>2014-04-13T06:45:14.000Z</time>
      </trkpt>
      <trkpt lat="50.12" lon="3.54376">
        <ele>81.536239624023</ele>
        <time>2014-04-13T06:45:16.000Z</time>
      </trkpt>
      <trkpt lat="50.11988" lon="3.54381">
        <ele>80.918800354004</ele>
        <time>2014-04-13T06:45:19.000Z</time>
      </trkpt>
      <trkpt lat="50.11981" lon="3.54383">
        <ele>80.248863220215</ele>
        <time>2014-04-13T06:45:21.000Z</time>
      </trkpt>
      <trkpt lat="50.11971" lon="3.54387">
        <ele>79.533958435059</ele>
        <time>2014-04-13T06:45:24.000Z</time>
      </trkpt>
      <trkpt lat="50.1196" lon="3.54391">
        <ele>78.893966674805</ele>
        <time>2014-04-13T06:45:27.000Z</time>
      </trkpt>
      <trkpt lat="50.11951" lon="3.54395">
        <ele>78.542098999023</ele>
        <time>2014-04-13T06:45:30.000Z</time>
      </trkpt>
      <trkpt lat="50.11946" lon="3.54397">
        <ele>78.405517578125</ele>
        <time>2014-04-13T06:45:32.000Z</time>
      </trkpt>
      <trkpt lat="50.11944" lon="3.54398">
        <ele>77.97639465332</ele>
        <time>2014-04-13T06:45:34.000Z</time>
      </trkpt>
      <trkpt lat="50.11944" lon="3.54398">
        <ele>77.97639465332</ele>
        <time>2014-04-13T06:45:54.000Z</time>
      </trkpt>
      <trkpt lat="50.11943" lon="3.54399">
        <ele>79.315185546875</ele>
        <time>2014-04-13T06:45:56.000Z</time>
      </trkpt>
      <trkpt lat="50.11942" lon="3.544">
        <ele>81.098342895508</ele>
        <time>2014-04-13T06:45:58.000Z</time>
      </trkpt>
      <trkpt lat="50.11941" lon="3.54403">
        <ele>82.999168395996</ele>
        <time>2014-04-13T06:46:12.000Z</time>
      </trkpt>
      <trkpt lat="50.1194" lon="3.54404">
        <ele>84.79768371582</ele>
        <time>2014-04-13T06:46:19.000Z</time>
      </trkpt>
      <trkpt lat="50.11938" lon="3.54432">
        <ele>86.706848144531</ele>
        <time>2014-04-13T06:46:23.000Z</time>
      </trkpt>
      <trkpt lat="50.11937" lon="3.54449">
        <ele>87.129432678223</ele>
        <time>2014-04-13T06:46:26.000Z</time>
      </trkpt>
      <trkpt lat="50.11937" lon="3.5446">
        <ele>87.459754943848</ele>
        <time>2014-04-13T06:46:28.000Z</time>
      </trkpt>
      <trkpt lat="50.11936" lon="3.54473">
        <ele>87.475379943848</ele>
        <time>2014-04-13T06:46:31.000Z</time>
      </trkpt>
      <trkpt lat="50.11936" lon="3.54481">
        <ele>87.403335571289</ele>
        <time>2014-04-13T06:46:33.000Z</time>
      </trkpt>
      <trkpt lat="50.11936" lon="3.5449">
        <ele>87.398155212402</ele>
        <time>2014-04-13T06:46:35.000Z</time>
      </trkpt>
      <trkpt lat="50.11935" lon="3.54506">
        <ele>87.103210449219</ele>
        <time>2014-04-13T06:46:38.000Z</time>
      </trkpt>
      <trkpt lat="50.11935" lon="3.54518">
        <ele>86.827674865723</ele>
        <time>2014-04-13T06:46:40.000Z</time>
      </trkpt>
      <trkpt lat="50.11934" lon="3.54539">
        <ele>86.585494995117</ele>
        <time>2014-04-13T06:46:43.000Z</time>
      </trkpt>
      <trkpt lat="50.11934" lon="3.54553">
        <ele>86.228149414062</ele>
        <time>2014-04-13T06:46:45.000Z</time>
      </trkpt>
      <trkpt lat="50.11934" lon="3.54568">
        <ele>85.904029846191</ele>
        <time>2014-04-13T06:46:47.000Z</time>
      </trkpt>
      <trkpt lat="50.11934" lon="3.5459">
        <ele>85.473281860352</ele>
        <time>2014-04-13T06:46:50.000Z</time>
      </trkpt>
      <trkpt lat="50.11935" lon="3.54611">
        <ele>85.172134399414</ele>
        <time>2014-04-13T06:46:53.000Z</time>
      </trkpt>
      <trkpt lat="50.11935" lon="3.54624">
        <ele>84.862075805664</ele>
        <time>2014-04-13T06:46:55.000Z</time>
      </trkpt>
      <trkpt lat="50.11939" lon="3.54641">
        <ele>84.542358398438</ele>
        <time>2014-04-13T06:46:58.000Z</time>
      </trkpt>
      <trkpt lat="50.11943" lon="3.54652">
        <ele>84.275695800781</ele>
        <time>2014-04-13T06:47:00.000Z</time>
      </trkpt>
      <trkpt lat="50.11947" lon="3.54665">
        <ele>84.188430786133</ele>
        <time>2014-04-13T06:47:02.000Z</time>
      </trkpt>
      <trkpt lat="50.11953" lon="3.5468">
        <ele>83.610778808594</ele>
        <time>2014-04-13T06:47:05.000Z</time>
      </trkpt>
      <trkpt lat="50.11961" lon="3.54698">
        <ele>82.659683227539</ele>
        <time>2014-04-13T06:47:08.000Z</time>
      </trkpt>
      <trkpt lat="50.11968" lon="3.54711">
        <ele>82.128517150879</ele>
        <time>2014-04-13T06:47:11.000Z</time>
      </trkpt>
      <trkpt lat="50.11977" lon="3.54728">
        <ele>81.720153808594</ele>
        <time>2014-04-13T06:47:14.000Z</time>
      </trkpt>
      <trkpt lat="50.11982" lon="3.54737">
        <ele>81.208473205566</ele>
        <time>2014-04-13T06:47:16.000Z</time>
      </trkpt>
      <trkpt lat="50.1199" lon="3.54751">
        <ele>81.199340820312</ele>
        <time>2014-04-13T06:47:19.000Z</time>
      </trkpt>
      <trkpt lat="50.11998" lon="3.54764">
        <ele>81.564590454102</ele>
        <time>2014-04-13T06:47:22.000Z</time>
      </trkpt>
      <trkpt lat="50.12005" lon="3.54775">
        <ele>81.772705078125</ele>
        <time>2014-04-13T06:47:25.000Z</time>
      </trkpt>
      <trkpt lat="50.12009" lon="3.54782">
        <ele>81.936157226562</ele>
        <time>2014-04-13T06:47:27.000Z</time>
      </trkpt>
      <trkpt lat="50.12016" lon="3.54795">
        <ele>82.350143432617</ele>
        <time>2014-04-13T06:47:30.000Z</time>
      </trkpt>
      <trkpt lat="50.1202" lon="3.54804">
        <ele>82.625900268555</ele>
        <time>2014-04-13T06:47:32.000Z</time>
      </trkpt>
      <trkpt lat="50.12025" lon="3.54818">
        <ele>83.134643554688</ele>
        <time>2014-04-13T06:47:35.000Z</time>
      </trkpt>
      <trkpt lat="50.12029" lon="3.54827">
        <ele>83.486206054688</ele>
        <time>2014-04-13T06:47:37.000Z</time>
      </trkpt>
      <trkpt lat="50.12034" lon="3.54844">
        <ele>83.822875976562</ele>
        <time>2014-04-13T06:47:40.000Z</time>
      </trkpt>
      <trkpt lat="50.12038" lon="3.54855">
        <ele>83.974327087402</ele>
        <time>2014-04-13T06:47:42.000Z</time>
      </trkpt>
      <trkpt lat="50.12043" lon="3.54872">
        <ele>83.91535949707</ele>
        <time>2014-04-13T06:47:45.000Z</time>
      </trkpt>
      <trkpt lat="50.12046" lon="3.54883">
        <ele>83.882949829102</ele>
        <time>2014-04-13T06:47:47.000Z</time>
      </trkpt>
      <trkpt lat="50.12051" lon="3.54899">
        <ele>84.010963439941</ele>
        <time>2014-04-13T06:47:50.000Z</time>
      </trkpt>
      <trkpt lat="50.12055" lon="3.54916">
        <ele>83.802612304688</ele>
        <time>2014-04-13T06:47:53.000Z</time>
      </trkpt>
      <trkpt lat="50.12057" lon="3.54927">
        <ele>83.766929626465</ele>
        <time>2014-04-13T06:47:55.000Z</time>
      </trkpt>
      <trkpt lat="50.1206" lon="3.54938">
        <ele>84.004531860352</ele>
        <time>2014-04-13T06:47:57.000Z</time>
      </trkpt>
      <trkpt lat="50.12062" lon="3.54949">
        <ele>84.198776245117</ele>
        <time>2014-04-13T06:47:59.000Z</time>
      </trkpt>
      <trkpt lat="50.12064" lon="3.5496">
        <ele>84.180809020996</ele>
        <time>2014-04-13T06:48:01.000Z</time>
      </trkpt>
      <trkpt lat="50.12068" lon="3.54977">
        <ele>84.363235473633</ele>
        <time>2014-04-13T06:48:04.000Z</time>
      </trkpt>
      <trkpt lat="50.12071" lon="3.54992">
        <ele>84.564956665039</ele>
        <time>2014-04-13T06:48:07.000Z</time>
      </trkpt>
      <trkpt lat="50.12073" lon="3.55004">
        <ele>84.653991699219</ele>
        <time>2014-04-13T06:48:09.000Z</time>
      </trkpt>
      <trkpt lat="50.12076" lon="3.5502">
        <ele>84.676391601562</ele>
        <time>2014-04-13T06:48:12.000Z</time>
      </trkpt>
      <trkpt lat="50.12078" lon="3.5503">
        <ele>84.406265258789</ele>
        <time>2014-04-13T06:48:14.000Z</time>
      </trkpt>
      <trkpt lat="50.12081" lon="3.55046">
        <ele>84.291053771973</ele>
        <time>2014-04-13T06:48:17.000Z</time>
      </trkpt>
      <trkpt lat="50.12083" lon="3.55058">
        <ele>84.230003356934</ele>
        <time>2014-04-13T06:48:19.000Z</time>
      </trkpt>
      <trkpt lat="50.12086" lon="3.55076">
        <ele>84.248779296875</ele>
        <time>2014-04-13T06:48:22.000Z</time>
      </trkpt>
      <trkpt lat="50.12088" lon="3.55087">
        <ele>84.425399780273</ele>
        <time>2014-04-13T06:48:24.000Z</time>
      </trkpt>
      <trkpt lat="50.1209" lon="3.551">
        <ele>84.80891418457</ele>
        <time>2014-04-13T06:48:26.000Z</time>
      </trkpt>
      <trkpt lat="50.12094" lon="3.55118">
        <ele>84.981956481934</ele>
        <time>2014-04-13T06:48:29.000Z</time>
      </trkpt>
      <trkpt lat="50.12096" lon="3.55131">
        <ele>85.029006958008</ele>
        <time>2014-04-13T06:48:31.000Z</time>
      </trkpt>
      <trkpt lat="50.121" lon="3.5515">
        <ele>84.831687927246</ele>
        <time>2014-04-13T06:48:34.000Z</time>
      </trkpt>
      <trkpt lat="50.12102" lon="3.55164">
        <ele>84.408340454102</ele>
        <time>2014-04-13T06:48:36.000Z</time>
      </trkpt>
      <trkpt lat="50.12106" lon="3.55183">
        <ele>83.946105957031</ele>
        <time>2014-04-13T06:48:39.000Z</time>
      </trkpt>
      <trkpt lat="50.12108" lon="3.55197">
        <ele>83.559730529785</ele>
        <time>2014-04-13T06:48:41.000Z</time>
      </trkpt>
      <trkpt lat="50.12112" lon="3.55218">
        <ele>83.152000427246</ele>
        <time>2014-04-13T06:48:44.000Z</time>
      </trkpt>
      <trkpt lat="50.12114" lon="3.5523">
        <ele>82.964027404785</ele>
        <time>2014-04-13T06:48:46.000Z</time>
      </trkpt>
      <trkpt lat="50.12117" lon="3.55249">
        <ele>83.068397521973</ele>
        <time>2014-04-13T06:48:49.000Z</time>
      </trkpt>
      <trkpt lat="50.12119" lon="3.55261">
        <ele>83.279235839844</ele>
        <time>2014-04-13T06:48:51.000Z</time>
      </trkpt>
      <trkpt lat="50.12122" lon="3.55282">
        <ele>83.594970703125</ele>
        <time>2014-04-13T06:48:54.000Z</time>
      </trkpt>
      <trkpt lat="50.12124" lon="3.55295">
        <ele>83.949783325195</ele>
        <time>2014-04-13T06:48:56.000Z</time>
      </trkpt>
      <trkpt lat="50.12126" lon="3.55308">
        <ele>84.262367248535</ele>
        <time>2014-04-13T06:48:58.000Z</time>
      </trkpt>
      <trkpt lat="50.12128" lon="3.55328">
        <ele>84.384536743164</ele>
        <time>2014-04-13T06:49:01.000Z</time>
      </trkpt>
      <trkpt lat="50.1213" lon="3.5535">
        <ele>83.97208404541</ele>
        <time>2014-04-13T06:49:04.000Z</time>
      </trkpt>
      <trkpt lat="50.1213" lon="3.55371">
        <ele>84.002784729004</ele>
        <time>2014-04-13T06:49:07.000Z</time>
      </trkpt>
      <trkpt lat="50.12131" lon="3.55385">
        <ele>83.964477539062</ele>
        <time>2014-04-13T06:49:09.000Z</time>
      </trkpt>
      <trkpt lat="50.12131" lon="3.55397">
        <ele>83.687721252441</ele>
        <time>2014-04-13T06:49:11.000Z</time>
      </trkpt>
      <trkpt lat="50.1213" lon="3.55413">
        <ele>83.857810974121</ele>
        <time>2014-04-13T06:49:14.000Z</time>
      </trkpt>
      <trkpt lat="50.1213" lon="3.55425">
        <ele>83.904502868652</ele>
        <time>2014-04-13T06:49:17.000Z</time>
      </trkpt>
      <trkpt lat="50.12124" lon="3.55426">
        <ele>83.539535522461</ele>
        <time>2014-04-13T06:49:19.000Z</time>
      </trkpt>
      <trkpt lat="50.12108" lon="3.55438">
        <ele>83.17204284668</ele>
        <time>2014-04-13T06:49:22.000Z</time>
      </trkpt>
      <trkpt lat="50.12098" lon="3.55444">
        <ele>82.940879821777</ele>
        <time>2014-04-13T06:49:24.000Z</time>
      </trkpt>
      <trkpt lat="50.12082" lon="3.55446">
        <ele>82.197158813477</ele>
        <time>2014-04-13T06:49:27.000Z</time>
      </trkpt>
      <trkpt lat="50.12068" lon="3.55444">
        <ele>82.051132202148</ele>
        <time>2014-04-13T06:49:30.000Z</time>
      </trkpt>
      <trkpt lat="50.12058" lon="3.55442">
        <ele>81.690536499023</ele>
        <time>2014-04-13T06:49:32.000Z</time>
      </trkpt>
      <trkpt lat="50.12043" lon="3.55439">
        <ele>81.364273071289</ele>
        <time>2014-04-13T06:49:35.000Z</time>
      </trkpt>
      <trkpt lat="50.12036" lon="3.55437">
        <ele>81.289016723633</ele>
        <time>2014-04-13T06:49:37.000Z</time>
      </trkpt>
      <trkpt lat="50.12027" lon="3.55435">
        <ele>81.16463470459</ele>
        <time>2014-04-13T06:49:39.000Z</time>
      </trkpt>
      <trkpt lat="50.12017" lon="3.55433">
        <ele>81.2548828125</ele>
        <time>2014-04-13T06:49:42.000Z</time>
      </trkpt>
      <trkpt lat="50.12009" lon="3.55431">
        <ele>81.491928100586</ele>
        <time>2014-04-13T06:49:44.000Z</time>
      </trkpt>
      <trkpt lat="50.11996" lon="3.55428">
        <ele>81.909217834473</ele>
        <time>2014-04-13T06:49:47.000Z</time>
      </trkpt>
      <trkpt lat="50.11985" lon="3.55425">
        <ele>82.401062011719</ele>
        <time>2014-04-13T06:49:50.000Z</time>
      </trkpt>
      <trkpt lat="50.11973" lon="3.55423">
        <ele>83.103233337402</ele>
        <time>2014-04-13T06:49:53.000Z</time>
      </trkpt>
      <trkpt lat="50.11963" lon="3.5542">
        <ele>83.953269958496</ele>
        <time>2014-04-13T06:49:56.000Z</time>
      </trkpt>
      <trkpt lat="50.11955" lon="3.55419">
        <ele>84.795860290527</ele>
        <time>2014-04-13T06:49:58.000Z</time>
      </trkpt>
      <trkpt lat="50.11945" lon="3.55416">
        <ele>85.623001098633</ele>
        <time>2014-04-13T06:50:01.000Z</time>
      </trkpt>
      <trkpt lat="50.11934" lon="3.55414">
        <ele>86.297607421875</ele>
        <time>2014-04-13T06:50:04.000Z</time>
      </trkpt>
      <trkpt lat="50.11925" lon="3.55411">
        <ele>86.975234985352</ele>
        <time>2014-04-13T06:50:07.000Z</time>
      </trkpt>
      <trkpt lat="50.11918" lon="3.5541">
        <ele>87.43620300293</ele>
        <time>2014-04-13T06:50:09.000Z</time>
      </trkpt>
      <trkpt lat="50.11908" lon="3.55407">
        <ele>87.986000061035</ele>
        <time>2014-04-13T06:50:12.000Z</time>
      </trkpt>
      <trkpt lat="50.11899" lon="3.55405">
        <ele>88.375160217285</ele>
        <time>2014-04-13T06:50:15.000Z</time>
      </trkpt>
      <trkpt lat="50.11888" lon="3.55402">
        <ele>88.788558959961</ele>
        <time>2014-04-13T06:50:18.000Z</time>
      </trkpt>
      <trkpt lat="50.11879" lon="3.55399">
        <ele>89.188537597656</ele>
        <time>2014-04-13T06:50:21.000Z</time>
      </trkpt>
      <trkpt lat="50.11869" lon="3.55396">
        <ele>89.52360534668</ele>
        <time>2014-04-13T06:50:24.000Z</time>
      </trkpt>
      <trkpt lat="50.11862" lon="3.55394">
        <ele>89.845420837402</ele>
        <time>2014-04-13T06:50:26.000Z</time>
      </trkpt>
      <trkpt lat="50.11855" lon="3.55392">
        <ele>90.217247009277</ele>
        <time>2014-04-13T06:50:28.000Z</time>
      </trkpt>
      <trkpt lat="50.11848" lon="3.5539">
        <ele>90.555053710938</ele>
        <time>2014-04-13T06:50:30.000Z</time>
      </trkpt>
      <trkpt lat="50.11834" lon="3.55386">
        <ele>90.973533630371</ele>
        <time>2014-04-13T06:50:33.000Z</time>
      </trkpt>
      <trkpt lat="50.11826" lon="3.55384">
        <ele>91.550254821777</ele>
        <time>2014-04-13T06:50:35.000Z</time>
      </trkpt>
      <trkpt lat="50.11814" lon="3.5538">
        <ele>92.18546295166</ele>
        <time>2014-04-13T06:50:38.000Z</time>
      </trkpt>
      <trkpt lat="50.11809" lon="3.55378">
        <ele>93.07772064209</ele>
        <time>2014-04-13T06:50:40.000Z</time>
      </trkpt>
      <trkpt lat="50.11795" lon="3.55374">
        <ele>94.379898071289</ele>
        <time>2014-04-13T06:50:43.000Z</time>
      </trkpt>
      <trkpt lat="50.11787" lon="3.55371">
        <ele>95.435409545898</ele>
        <time>2014-04-13T06:50:45.000Z</time>
      </trkpt>
      <trkpt lat="50.1178" lon="3.55369">
        <ele>96.336387634277</ele>
        <time>2014-04-13T06:50:47.000Z</time>
      </trkpt>
      <trkpt lat="50.11768" lon="3.55366">
        <ele>97.000839233398</ele>
        <time>2014-04-13T06:50:50.000Z</time>
      </trkpt>
      <trkpt lat="50.11757" lon="3.55362">
        <ele>97.378517150879</ele>
        <time>2014-04-13T06:50:53.000Z</time>
      </trkpt>
      <trkpt lat="50.11746" lon="3.55359">
        <ele>97.357833862305</ele>
        <time>2014-04-13T06:50:56.000Z</time>
      </trkpt>
      <trkpt lat="50.11739" lon="3.55356">
        <ele>97.54670715332</ele>
        <time>2014-04-13T06:50:58.000Z</time>
      </trkpt>
      <trkpt lat="50.11729" lon="3.55353">
        <ele>97.864295959473</ele>
        <time>2014-04-13T06:51:01.000Z</time>
      </trkpt>
      <trkpt lat="50.11721" lon="3.5535">
        <ele>98.38370513916</ele>
        <time>2014-04-13T06:51:03.000Z</time>
      </trkpt>
      <trkpt lat="50.11711" lon="3.55346">
        <ele>99.207992553711</ele>
        <time>2014-04-13T06:51:06.000Z</time>
      </trkpt>
      <trkpt lat="50.11704" lon="3.55343">
        <ele>99.74600982666</ele>
        <time>2014-04-13T06:51:08.000Z</time>
      </trkpt>
      <trkpt lat="50.11697" lon="3.55339">
        <ele>99.924034118652</ele>
        <time>2014-04-13T06:51:10.000Z</time>
      </trkpt>
      <trkpt lat="50.11686" lon="3.55334">
        <ele>99.794860839844</ele>
        <time>2014-04-13T06:51:13.000Z</time>
      </trkpt>
      <trkpt lat="50.11679" lon="3.55331">
        <ele>99.649574279785</ele>
        <time>2014-04-13T06:51:15.000Z</time>
      </trkpt>
      <trkpt lat="50.11668" lon="3.55325">
        <ele>99.5087890625</ele>
        <time>2014-04-13T06:51:18.000Z</time>
      </trkpt>
      <trkpt lat="50.11658" lon="3.5532">
        <ele>99.728576660156</ele>
        <time>2014-04-13T06:51:21.000Z</time>
      </trkpt>
      <trkpt lat="50.11651" lon="3.55316">
        <ele>100.26229095459</ele>
        <time>2014-04-13T06:51:23.000Z</time>
      </trkpt>
      <trkpt lat="50.11641" lon="3.55309">
        <ele>100.7473526001</ele>
        <time>2014-04-13T06:51:26.000Z</time>
      </trkpt>
      <trkpt lat="50.11634" lon="3.55305">
        <ele>101.1248626709</ele>
        <time>2014-04-13T06:51:28.000Z</time>
      </trkpt>
      <trkpt lat="50.11628" lon="3.55301">
        <ele>101.29411315918</ele>
        <time>2014-04-13T06:51:30.000Z</time>
      </trkpt>
      <trkpt lat="50.11617" lon="3.55295">
        <ele>101.30818939209</ele>
        <time>2014-04-13T06:51:33.000Z</time>
      </trkpt>
      <trkpt lat="50.11607" lon="3.55289">
        <ele>101.49894714355</ele>
        <time>2014-04-13T06:51:36.000Z</time>
      </trkpt>
      <trkpt lat="50.116" lon="3.55284">
        <ele>101.80796813965</ele>
        <time>2014-04-13T06:51:38.000Z</time>
      </trkpt>
      <trkpt lat="50.11589" lon="3.55278">
        <ele>102.16220855713</ele>
        <time>2014-04-13T06:51:41.000Z</time>
      </trkpt>
      <trkpt lat="50.11582" lon="3.55273">
        <ele>102.46221923828</ele>
        <time>2014-04-13T06:51:43.000Z</time>
      </trkpt>
      <trkpt lat="50.11575" lon="3.55269">
        <ele>102.83842468262</ele>
        <time>2014-04-13T06:51:45.000Z</time>
      </trkpt>
      <trkpt lat="50.11568" lon="3.55264">
        <ele>102.76798248291</ele>
        <time>2014-04-13T06:51:47.000Z</time>
      </trkpt>
      <trkpt lat="50.11558" lon="3.55254">
        <ele>102.76922607422</ele>
        <time>2014-04-13T06:51:50.000Z</time>
      </trkpt>
      <trkpt lat="50.11546" lon="3.55249">
        <ele>102.64753723145</ele>
        <time>2014-04-13T06:51:53.000Z</time>
      </trkpt>
      <trkpt lat="50.11538" lon="3.55244">
        <ele>102.17646789551</ele>
        <time>2014-04-13T06:51:55.000Z</time>
      </trkpt>
      <trkpt lat="50.11529" lon="3.55237">
        <ele>101.5344619751</ele>
        <time>2014-04-13T06:51:57.000Z</time>
      </trkpt>
      <trkpt lat="50.11517" lon="3.55229">
        <ele>101.13330078125</ele>
        <time>2014-04-13T06:52:00.000Z</time>
      </trkpt>
      <trkpt lat="50.11506" lon="3.5522">
        <ele>100.60481262207</ele>
        <time>2014-04-13T06:52:03.000Z</time>
      </trkpt>
      <trkpt lat="50.11497" lon="3.55214">
        <ele>100.20198059082</ele>
        <time>2014-04-13T06:52:05.000Z</time>
      </trkpt>
      <trkpt lat="50.11484" lon="3.55205">
        <ele>99.955520629883</ele>
        <time>2014-04-13T06:52:08.000Z</time>
      </trkpt>
      <trkpt lat="50.11472" lon="3.55196">
        <ele>99.903671264648</ele>
        <time>2014-04-13T06:52:11.000Z</time>
      </trkpt>
      <trkpt lat="50.1146" lon="3.55187">
        <ele>99.763877868652</ele>
        <time>2014-04-13T06:52:14.000Z</time>
      </trkpt>
      <trkpt lat="50.11448" lon="3.55178">
        <ele>99.629173278809</ele>
        <time>2014-04-13T06:52:17.000Z</time>
      </trkpt>
      <trkpt lat="50.11435" lon="3.55168">
        <ele>99.485961914062</ele>
        <time>2014-04-13T06:52:20.000Z</time>
      </trkpt>
      <trkpt lat="50.11428" lon="3.55162">
        <ele>99.505264282227</ele>
        <time>2014-04-13T06:52:22.000Z</time>
      </trkpt>
      <trkpt lat="50.11415" lon="3.55152">
        <ele>99.283508300781</ele>
        <time>2014-04-13T06:52:25.000Z</time>
      </trkpt>
      <trkpt lat="50.11391" lon="3.55138">
        <ele>99.083419799805</ele>
        <time>2014-04-13T06:52:33.000Z</time>
      </trkpt>
      <trkpt lat="50.11383" lon="3.55135">
        <ele>100.29835510254</ele>
        <time>2014-04-13T06:52:36.000Z</time>
      </trkpt>
      <trkpt lat="50.1138" lon="3.55133">
        <ele>101.42308044434</ele>
        <time>2014-04-13T06:52:38.000Z</time>
      </trkpt>
      <trkpt lat="50.11375" lon="3.55138">
        <ele>102.39872741699</ele>
        <time>2014-04-13T06:52:41.000Z</time>
      </trkpt>
      <trkpt lat="50.11368" lon="3.55144">
        <ele>103.75687408447</ele>
        <time>2014-04-13T06:52:44.000Z</time>
      </trkpt>
      <trkpt lat="50.11363" lon="3.55148">
        <ele>105.13157653809</ele>
        <time>2014-04-13T06:52:46.000Z</time>
      </trkpt>
      <trkpt lat="50.11356" lon="3.55152">
        <ele>105.35258483887</ele>
        <time>2014-04-13T06:52:48.000Z</time>
      </trkpt>
      <trkpt lat="50.11346" lon="3.5516">
        <ele>105.75124359131</ele>
        <time>2014-04-13T06:52:51.000Z</time>
      </trkpt>
      <trkpt lat="50.11336" lon="3.55168">
        <ele>105.70420074463</ele>
        <time>2014-04-13T06:52:54.000Z</time>
      </trkpt>
      <trkpt lat="50.11329" lon="3.55174">
        <ele>105.45609283447</ele>
        <time>2014-04-13T06:52:56.000Z</time>
      </trkpt>
      <trkpt lat="50.11319" lon="3.55184">
        <ele>105.25331878662</ele>
        <time>2014-04-13T06:52:59.000Z</time>
      </trkpt>
      <trkpt lat="50.11309" lon="3.55192">
        <ele>104.79853820801</ele>
        <time>2014-04-13T06:53:02.000Z</time>
      </trkpt>
      <trkpt lat="50.11302" lon="3.55197">
        <ele>104.24282073975</ele>
        <time>2014-04-13T06:53:04.000Z</time>
      </trkpt>
      <trkpt lat="50.11292" lon="3.55205">
        <ele>104.28340148926</ele>
        <time>2014-04-13T06:53:07.000Z</time>
      </trkpt>
      <trkpt lat="50.11281" lon="3.55213">
        <ele>104.25608062744</ele>
        <time>2014-04-13T06:53:10.000Z</time>
      </trkpt>
      <trkpt lat="50.11274" lon="3.55217">
        <ele>104.22972106934</ele>
        <time>2014-04-13T06:53:12.000Z</time>
      </trkpt>
      <trkpt lat="50.11267" lon="3.5522">
        <ele>104.16701507568</ele>
        <time>2014-04-13T06:53:14.000Z</time>
      </trkpt>
      <trkpt lat="50.1126" lon="3.55224">
        <ele>104.02522277832</ele>
        <time>2014-04-13T06:53:16.000Z</time>
      </trkpt>
      <trkpt lat="50.11254" lon="3.55228">
        <ele>103.65171051025</ele>
        <time>2014-04-13T06:53:18.000Z</time>
      </trkpt>
      <trkpt lat="50.11243" lon="3.55233">
        <ele>103.20283508301</ele>
        <time>2014-04-13T06:53:21.000Z</time>
      </trkpt>
      <trkpt lat="50.11233" lon="3.55237">
        <ele>102.64073181152</ele>
        <time>2014-04-13T06:53:24.000Z</time>
      </trkpt>
      <trkpt lat="50.11223" lon="3.55241">
        <ele>102.16263580322</ele>
        <time>2014-04-13T06:53:27.000Z</time>
      </trkpt>
      <trkpt lat="50.11213" lon="3.55245">
        <ele>101.72982025146</ele>
        <time>2014-04-13T06:53:30.000Z</time>
      </trkpt>
      <trkpt lat="50.11205" lon="3.55247">
        <ele>101.57094573975</ele>
        <time>2014-04-13T06:53:32.000Z</time>
      </trkpt>
      <trkpt lat="50.11198" lon="3.5525">
        <ele>101.47678375244</ele>
        <time>2014-04-13T06:53:34.000Z</time>
      </trkpt>
      <trkpt lat="50.11186" lon="3.55254">
        <ele>101.45597076416</ele>
        <time>2014-04-13T06:53:37.000Z</time>
      </trkpt>
      <trkpt lat="50.11178" lon="3.55256">
        <ele>101.50225830078</ele>
        <time>2014-04-13T06:53:39.000Z</time>
      </trkpt>
      <trkpt lat="50.1117" lon="3.55258">
        <ele>101.53145599365</ele>
        <time>2014-04-13T06:53:41.000Z</time>
      </trkpt>
      <trkpt lat="50.11159" lon="3.55261">
        <ele>101.2211151123</ele>
        <time>2014-04-13T06:53:44.000Z</time>
      </trkpt>
      <trkpt lat="50.11148" lon="3.55263">
        <ele>100.80588531494</ele>
        <time>2014-04-13T06:53:47.000Z</time>
      </trkpt>
      <trkpt lat="50.11137" lon="3.55265">
        <ele>100.3703994751</ele>
        <time>2014-04-13T06:53:50.000Z</time>
      </trkpt>
      <trkpt lat="50.11126" lon="3.55267">
        <ele>99.912704467773</ele>
        <time>2014-04-13T06:53:53.000Z</time>
      </trkpt>
      <trkpt lat="50.11115" lon="3.55269">
        <ele>99.430992126465</ele>
        <time>2014-04-13T06:53:56.000Z</time>
      </trkpt>
      <trkpt lat="50.11107" lon="3.5527">
        <ele>99.430625915527</ele>
        <time>2014-04-13T06:53:58.000Z</time>
      </trkpt>
      <trkpt lat="50.111" lon="3.55272">
        <ele>99.430358886719</ele>
        <time>2014-04-13T06:54:00.000Z</time>
      </trkpt>
      <trkpt lat="50.11092" lon="3.55272">
        <ele>99.385887145996</ele>
        <time>2014-04-13T06:54:02.000Z</time>
      </trkpt>
      <trkpt lat="50.11085" lon="3.55273">
        <ele>99.377830505371</ele>
        <time>2014-04-13T06:54:04.000Z</time>
      </trkpt>
      <trkpt lat="50.11077" lon="3.55273">
        <ele>99.405067443848</ele>
        <time>2014-04-13T06:54:06.000Z</time>
      </trkpt>
      <trkpt lat="50.11066" lon="3.55273">
        <ele>99.313735961914</ele>
        <time>2014-04-13T06:54:09.000Z</time>
      </trkpt>
      <trkpt lat="50.11058" lon="3.55274">
        <ele>99.398376464844</ele>
        <time>2014-04-13T06:54:11.000Z</time>
      </trkpt>
      <trkpt lat="50.11047" lon="3.55275">
        <ele>99.477577209473</ele>
        <time>2014-04-13T06:54:14.000Z</time>
      </trkpt>
      <trkpt lat="50.1104" lon="3.55275">
        <ele>99.559898376465</ele>
        <time>2014-04-13T06:54:16.000Z</time>
      </trkpt>
      <trkpt lat="50.11032" lon="3.55274">
        <ele>99.633445739746</ele>
        <time>2014-04-13T06:54:18.000Z</time>
      </trkpt>
      <trkpt lat="50.11021" lon="3.55273">
        <ele>99.339416503906</ele>
        <time>2014-04-13T06:54:21.000Z</time>
      </trkpt>
      <trkpt lat="50.1101" lon="3.55271">
        <ele>98.949913024902</ele>
        <time>2014-04-13T06:54:24.000Z</time>
      </trkpt>
      <trkpt lat="50.10999" lon="3.5527">
        <ele>99.01456451416</ele>
        <time>2014-04-13T06:54:27.000Z</time>
      </trkpt>
      <trkpt lat="50.10987" lon="3.55268">
        <ele>98.964462280273</ele>
        <time>2014-04-13T06:54:30.000Z</time>
      </trkpt>
      <trkpt lat="50.10979" lon="3.55266">
        <ele>98.727317810059</ele>
        <time>2014-04-13T06:54:32.000Z</time>
      </trkpt>
      <trkpt lat="50.10967" lon="3.55265">
        <ele>98.865646362305</ele>
        <time>2014-04-13T06:54:35.000Z</time>
      </trkpt>
      <trkpt lat="50.10958" lon="3.55263">
        <ele>99.000289916992</ele>
        <time>2014-04-13T06:54:37.000Z</time>
      </trkpt>
      <trkpt lat="50.1095" lon="3.55263">
        <ele>98.841575622559</ele>
        <time>2014-04-13T06:54:39.000Z</time>
      </trkpt>
      <trkpt lat="50.10942" lon="3.55262">
        <ele>98.737716674805</ele>
        <time>2014-04-13T06:54:41.000Z</time>
      </trkpt>
      <trkpt lat="50.10931" lon="3.5526">
        <ele>98.598167419434</ele>
        <time>2014-04-13T06:54:44.000Z</time>
      </trkpt>
      <trkpt lat="50.10923" lon="3.55259">
        <ele>98.36824798584</ele>
        <time>2014-04-13T06:54:46.000Z</time>
      </trkpt>
      <trkpt lat="50.1091" lon="3.55255">
        <ele>98.443496704102</ele>
        <time>2014-04-13T06:54:49.000Z</time>
      </trkpt>
      <trkpt lat="50.10898" lon="3.55253">
        <ele>98.684875488281</ele>
        <time>2014-04-13T06:54:52.000Z</time>
      </trkpt>
      <trkpt lat="50.10886" lon="3.55252">
        <ele>98.869857788086</ele>
        <time>2014-04-13T06:54:55.000Z</time>
      </trkpt>
      <trkpt lat="50.10874" lon="3.55252">
        <ele>99.277114868164</ele>
        <time>2014-04-13T06:54:58.000Z</time>
      </trkpt>
      <trkpt lat="50.10863" lon="3.5525">
        <ele>99.61653137207</ele>
        <time>2014-04-13T06:55:01.000Z</time>
      </trkpt>
      <trkpt lat="50.10852" lon="3.55248">
        <ele>100.32704162598</ele>
        <time>2014-04-13T06:55:04.000Z</time>
      </trkpt>
      <trkpt lat="50.10844" lon="3.55246">
        <ele>100.66278076172</ele>
        <time>2014-04-13T06:55:06.000Z</time>
      </trkpt>
      <trkpt lat="50.10836" lon="3.55244">
        <ele>101.16042327881</ele>
        <time>2014-04-13T06:55:08.000Z</time>
      </trkpt>
      <trkpt lat="50.10823" lon="3.55242">
        <ele>101.51239013672</ele>
        <time>2014-04-13T06:55:11.000Z</time>
      </trkpt>
      <trkpt lat="50.1081" lon="3.5524">
        <ele>102.21522521973</ele>
        <time>2014-04-13T06:55:14.000Z</time>
      </trkpt>
      <trkpt lat="50.10797" lon="3.55239">
        <ele>102.16255187988</ele>
        <time>2014-04-13T06:55:17.000Z</time>
      </trkpt>
      <trkpt lat="50.10784" lon="3.55238">
        <ele>101.82401275635</ele>
        <time>2014-04-13T06:55:20.000Z</time>
      </trkpt>
      <trkpt lat="50.10772" lon="3.55236">
        <ele>101.61560058594</ele>
        <time>2014-04-13T06:55:23.000Z</time>
      </trkpt>
      <trkpt lat="50.1076" lon="3.55234">
        <ele>101.7596206665</ele>
        <time>2014-04-13T06:55:26.000Z</time>
      </trkpt>
      <trkpt lat="50.10752" lon="3.55232">
        <ele>101.26839447021</ele>
        <time>2014-04-13T06:55:28.000Z</time>
      </trkpt>
      <trkpt lat="50.10744" lon="3.55231">
        <ele>101.2781829834</ele>
        <time>2014-04-13T06:55:30.000Z</time>
      </trkpt>
      <trkpt lat="50.10738" lon="3.5523">
        <ele>101.92546081543</ele>
        <time>2014-04-13T06:55:32.000Z</time>
      </trkpt>
      <trkpt lat="50.10728" lon="3.55229">
        <ele>102.66777038574</ele>
        <time>2014-04-13T06:55:35.000Z</time>
      </trkpt>
      <trkpt lat="50.1072" lon="3.55227">
        <ele>103.48374938965</ele>
        <time>2014-04-13T06:55:38.000Z</time>
      </trkpt>
      <trkpt lat="50.10715" lon="3.55227">
        <ele>104.34774017334</ele>
        <time>2014-04-13T06:55:40.000Z</time>
      </trkpt>
      <trkpt lat="50.10711" lon="3.55226">
        <ele>104.80625152588</ele>
        <time>2014-04-13T06:55:42.000Z</time>
      </trkpt>
      <trkpt lat="50.10705" lon="3.55226">
        <ele>105.35109710693</ele>
        <time>2014-04-13T06:55:45.000Z</time>
      </trkpt>
      <trkpt lat="50.10699" lon="3.55225">
        <ele>105.84136962891</ele>
        <time>2014-04-13T06:55:48.000Z</time>
      </trkpt>
      <trkpt lat="50.10695" lon="3.55224">
        <ele>106.2560043335</ele>
        <time>2014-04-13T06:55:50.000Z</time>
      </trkpt>
      <trkpt lat="50.10693" lon="3.55224">
        <ele>106.68542480469</ele>
        <time>2014-04-13T06:55:53.000Z</time>
      </trkpt>
      <trkpt lat="50.10696" lon="3.55226">
        <ele>107.34366607666</ele>
        <time>2014-04-13T06:55:59.000Z</time>
      </trkpt>
      <trkpt lat="50.10695" lon="3.55224">
        <ele>107.69549560547</ele>
        <time>2014-04-13T06:56:01.000Z</time>
      </trkpt>
      <trkpt lat="50.10688" lon="3.55221">
        <ele>108.03825378418</ele>
        <time>2014-04-13T06:56:04.000Z</time>
      </trkpt>
      <trkpt lat="50.10679" lon="3.5522">
        <ele>108.27565765381</ele>
        <time>2014-04-13T06:56:07.000Z</time>
      </trkpt>
      <trkpt lat="50.10674" lon="3.5522">
        <ele>108.51863098145</ele>
        <time>2014-04-13T06:56:09.000Z</time>
      </trkpt>
      <trkpt lat="50.10665" lon="3.55218">
        <ele>108.73156738281</ele>
        <time>2014-04-13T06:56:12.000Z</time>
      </trkpt>
      <trkpt lat="50.10659" lon="3.55217">
        <ele>109.04189300537</ele>
        <time>2014-04-13T06:56:14.000Z</time>
      </trkpt>
      <trkpt lat="50.1065" lon="3.55215">
        <ele>108.67938232422</ele>
        <time>2014-04-13T06:56:17.000Z</time>
      </trkpt>
      <trkpt lat="50.10643" lon="3.55215">
        <ele>108.03304290771</ele>
        <time>2014-04-13T06:56:19.000Z</time>
      </trkpt>
      <trkpt lat="50.10637" lon="3.55214">
        <ele>107.75660705566</ele>
        <time>2014-04-13T06:56:21.000Z</time>
      </trkpt>
      <trkpt lat="50.10629" lon="3.55212">
        <ele>107.7537689209</ele>
        <time>2014-04-13T06:56:24.000Z</time>
      </trkpt>
      <trkpt lat="50.10624" lon="3.55211">
        <ele>107.82110595703</ele>
        <time>2014-04-13T06:56:26.000Z</time>
      </trkpt>
      <trkpt lat="50.10618" lon="3.55209">
        <ele>108.55403900146</ele>
        <time>2014-04-13T06:56:28.000Z</time>
      </trkpt>
      <trkpt lat="50.1061" lon="3.55208">
        <ele>109.71539306641</ele>
        <time>2014-04-13T06:56:31.000Z</time>
      </trkpt>
      <trkpt lat="50.10602" lon="3.55206">
        <ele>110.43099212646</ele>
        <time>2014-04-13T06:56:34.000Z</time>
      </trkpt>
      <trkpt lat="50.10598" lon="3.55205">
        <ele>110.70446777344</ele>
        <time>2014-04-13T06:56:36.000Z</time>
      </trkpt>
      <trkpt lat="50.10596" lon="3.55203">
        <ele>110.44013977051</ele>
        <time>2014-04-13T06:56:39.000Z</time>
      </trkpt>
      <trkpt lat="50.10596" lon="3.55203">
        <ele>110.44013977051</ele>
        <time>2014-04-13T06:56:59.000Z</time>
      </trkpt>
      <trkpt lat="50.10595" lon="3.55203">
        <ele>110.44085693359</ele>
        <time>2014-04-13T06:57:05.000Z</time>
      </trkpt>
      <trkpt lat="50.10593" lon="3.55203">
        <ele>109.80731201172</ele>
        <time>2014-04-13T06:57:07.000Z</time>
      </trkpt>
      <trkpt lat="50.10582" lon="3.55202">
        <ele>109.67281341553</ele>
        <time>2014-04-13T06:57:10.000Z</time>
      </trkpt>
      <trkpt lat="50.10572" lon="3.552">
        <ele>110.24391174316</ele>
        <time>2014-04-13T06:57:12.000Z</time>
      </trkpt>
      <trkpt lat="50.10561" lon="3.552">
        <ele>110.83618164062</ele>
        <time>2014-04-13T06:57:14.000Z</time>
      </trkpt>
      <trkpt lat="50.10551" lon="3.55199">
        <ele>110.966796875</ele>
        <time>2014-04-13T06:57:16.000Z</time>
      </trkpt>
      <trkpt lat="50.10538" lon="3.55196">
        <ele>111.95078277588</ele>
        <time>2014-04-13T06:57:19.000Z</time>
      </trkpt>
      <trkpt lat="50.10529" lon="3.55195">
        <ele>113.15238189697</ele>
        <time>2014-04-13T06:57:21.000Z</time>
      </trkpt>
      <trkpt lat="50.10519" lon="3.55192">
        <ele>113.14719390869</ele>
        <time>2014-04-13T06:57:24.000Z</time>
      </trkpt>
      <trkpt lat="50.10505" lon="3.5519">
        <ele>113.63655853271</ele>
        <time>2014-04-13T06:57:27.000Z</time>
      </trkpt>
      <trkpt lat="50.10494" lon="3.55189">
        <ele>114.80722808838</ele>
        <time>2014-04-13T06:57:30.000Z</time>
      </trkpt>
      <trkpt lat="50.10487" lon="3.55187">
        <ele>115.07501220703</ele>
        <time>2014-04-13T06:57:32.000Z</time>
      </trkpt>
      <trkpt lat="50.10474" lon="3.55184">
        <ele>114.61722564697</ele>
        <time>2014-04-13T06:57:35.000Z</time>
      </trkpt>
      <trkpt lat="50.10464" lon="3.55174">
        <ele>114.99320220947</ele>
        <time>2014-04-13T06:57:38.000Z</time>
      </trkpt>
      <trkpt lat="50.10459" lon="3.55173">
        <ele>115.46077728271</ele>
        <time>2014-04-13T06:57:40.000Z</time>
      </trkpt>
      <trkpt lat="50.10449" lon="3.55171">
        <ele>115.41931152344</ele>
        <time>2014-04-13T06:57:43.000Z</time>
      </trkpt>
      <trkpt lat="50.10439" lon="3.55173">
        <ele>116.11682128906</ele>
        <time>2014-04-13T06:57:46.000Z</time>
      </trkpt>
      <trkpt lat="50.10433" lon="3.55174">
        <ele>116.94653320312</ele>
        <time>2014-04-13T06:57:48.000Z</time>
      </trkpt>
      <trkpt lat="50.10428" lon="3.55175">
        <ele>117.49995422363</ele>
        <time>2014-04-13T06:57:50.000Z</time>
      </trkpt>
      <trkpt lat="50.10423" lon="3.55179">
        <ele>117.39128112793</ele>
        <time>2014-04-13T06:57:53.000Z</time>
      </trkpt>
      <trkpt lat="50.10419" lon="3.55186">
        <ele>117.27140808105</ele>
        <time>2014-04-13T06:57:56.000Z</time>
      </trkpt>
      <trkpt lat="50.10417" lon="3.55191">
        <ele>116.9638671875</ele>
        <time>2014-04-13T06:57:58.000Z</time>
      </trkpt>
      <trkpt lat="50.10411" lon="3.55194">
        <ele>116.38901519775</ele>
        <time>2014-04-13T06:58:01.000Z</time>
      </trkpt>
      <trkpt lat="50.10402" lon="3.55192">
        <ele>115.86457824707</ele>
        <time>2014-04-13T06:58:04.000Z</time>
      </trkpt>
      <trkpt lat="50.10393" lon="3.5519">
        <ele>115.41949462891</ele>
        <time>2014-04-13T06:58:06.000Z</time>
      </trkpt>
      <trkpt lat="50.10383" lon="3.55187">
        <ele>114.64544677734</ele>
        <time>2014-04-13T06:58:08.000Z</time>
      </trkpt>
      <trkpt lat="50.10367" lon="3.55186">
        <ele>113.29597473145</ele>
        <time>2014-04-13T06:58:11.000Z</time>
      </trkpt>
      <trkpt lat="50.1035" lon="3.55183">
        <ele>112.29437255859</ele>
        <time>2014-04-13T06:58:14.000Z</time>
      </trkpt>
      <trkpt lat="50.1034" lon="3.5518">
        <ele>110.67695617676</ele>
        <time>2014-04-13T06:58:16.000Z</time>
      </trkpt>
      <trkpt lat="50.10332" lon="3.55172">
        <ele>109.09936523438</ele>
        <time>2014-04-13T06:58:18.000Z</time>
      </trkpt>
      <trkpt lat="50.10332" lon="3.55152">
        <ele>107.79135894775</ele>
        <time>2014-04-13T06:58:21.000Z</time>
      </trkpt>
      <trkpt lat="50.10332" lon="3.5514">
        <ele>106.97758483887</ele>
        <time>2014-04-13T06:58:23.000Z</time>
      </trkpt>
      <trkpt lat="50.10329" lon="3.55128">
        <ele>106.35573577881</ele>
        <time>2014-04-13T06:58:25.000Z</time>
      </trkpt>
      <trkpt lat="50.10326" lon="3.55116">
        <ele>106.12955474854</ele>
        <time>2014-04-13T06:58:28.000Z</time>
      </trkpt>
      <trkpt lat="50.10321" lon="3.55114">
        <ele>106.50313568115</ele>
        <time>2014-04-13T06:58:30.000Z</time>
      </trkpt>
      <trkpt lat="50.10316" lon="3.55113">
        <ele>107.00106048584</ele>
        <time>2014-04-13T06:58:32.000Z</time>
      </trkpt>
      <trkpt lat="50.10306" lon="3.5511">
        <ele>107.73045349121</ele>
        <time>2014-04-13T06:58:35.000Z</time>
      </trkpt>
      <trkpt lat="50.10295" lon="3.55105">
        <ele>108.13822937012</ele>
        <time>2014-04-13T06:58:38.000Z</time>
      </trkpt>
      <trkpt lat="50.10288" lon="3.55101">
        <ele>108.87892150879</ele>
        <time>2014-04-13T06:58:40.000Z</time>
      </trkpt>
      <trkpt lat="50.10274" lon="3.55093">
        <ele>109.83433532715</ele>
        <time>2014-04-13T06:58:43.000Z</time>
      </trkpt>
      <trkpt lat="50.10251" lon="3.55082">
        <ele>110.21067047119</ele>
        <time>2014-04-13T06:58:46.000Z</time>
      </trkpt>
      <trkpt lat="50.10241" lon="3.55073">
        <ele>110.72276306152</ele>
        <time>2014-04-13T06:58:48.000Z</time>
      </trkpt>
      <trkpt lat="50.10228" lon="3.55062">
        <ele>111.5020904541</ele>
        <time>2014-04-13T06:58:51.000Z</time>
      </trkpt>
      <trkpt lat="50.10223" lon="3.55058">
        <ele>112.29158782959</ele>
        <time>2014-04-13T06:58:53.000Z</time>
      </trkpt>
      <trkpt lat="50.10216" lon="3.55055">
        <ele>112.62232971191</ele>
        <time>2014-04-13T06:58:55.000Z</time>
      </trkpt>
      <trkpt lat="50.10208" lon="3.55053">
        <ele>114.08166503906</ele>
        <time>2014-04-13T06:58:58.000Z</time>
      </trkpt>
      <trkpt lat="50.10203" lon="3.55052">
        <ele>115.00284576416</ele>
        <time>2014-04-13T06:59:00.000Z</time>
      </trkpt>
      <trkpt lat="50.10198" lon="3.5505">
        <ele>115.78145599365</ele>
        <time>2014-04-13T06:59:02.000Z</time>
      </trkpt>
      <trkpt lat="50.10192" lon="3.5505">
        <ele>116.45589447021</ele>
        <time>2014-04-13T06:59:04.000Z</time>
      </trkpt>
      <trkpt lat="50.10184" lon="3.55055">
        <ele>117.22613525391</ele>
        <time>2014-04-13T06:59:07.000Z</time>
      </trkpt>
      <trkpt lat="50.10182" lon="3.55069">
        <ele>117.1555557251</ele>
        <time>2014-04-13T06:59:10.000Z</time>
      </trkpt>
      <trkpt lat="50.10182" lon="3.55087">
        <ele>117.15641021729</ele>
        <time>2014-04-13T06:59:13.000Z</time>
      </trkpt>
      <trkpt lat="50.10181" lon="3.55099">
        <ele>117.28713226318</ele>
        <time>2014-04-13T06:59:15.000Z</time>
      </trkpt>
      <trkpt lat="50.10181" lon="3.55111">
        <ele>117.38227844238</ele>
        <time>2014-04-13T06:59:17.000Z</time>
      </trkpt>
      <trkpt lat="50.10181" lon="3.55124">
        <ele>117.30372619629</ele>
        <time>2014-04-13T06:59:19.000Z</time>
      </trkpt>
      <trkpt lat="50.10181" lon="3.55142">
        <ele>117.01084899902</ele>
        <time>2014-04-13T06:59:22.000Z</time>
      </trkpt>
      <trkpt lat="50.10181" lon="3.55154">
        <ele>116.6736907959</ele>
        <time>2014-04-13T06:59:24.000Z</time>
      </trkpt>
      <trkpt lat="50.1018" lon="3.55173">
        <ele>116.00239562988</ele>
        <time>2014-04-13T06:59:27.000Z</time>
      </trkpt>
      <trkpt lat="50.10179" lon="3.55187">
        <ele>115.16188049316</ele>
        <time>2014-04-13T06:59:29.000Z</time>
      </trkpt>
      <trkpt lat="50.10179" lon="3.55201">
        <ele>114.43872070312</ele>
        <time>2014-04-13T06:59:31.000Z</time>
      </trkpt>
      <trkpt lat="50.10178" lon="3.55221">
        <ele>114.1194229126</ele>
        <time>2014-04-13T06:59:34.000Z</time>
      </trkpt>
      <trkpt lat="50.10178" lon="3.55241">
        <ele>113.7712020874</ele>
        <time>2014-04-13T06:59:37.000Z</time>
      </trkpt>
      <trkpt lat="50.10178" lon="3.55261">
        <ele>113.94472503662</ele>
        <time>2014-04-13T06:59:40.000Z</time>
      </trkpt>
      <trkpt lat="50.10177" lon="3.55281">
        <ele>114.37623596191</ele>
        <time>2014-04-13T06:59:43.000Z</time>
      </trkpt>
      <trkpt lat="50.10175" lon="3.55294">
        <ele>114.71003723145</ele>
        <time>2014-04-13T06:59:45.000Z</time>
      </trkpt>
      <trkpt lat="50.10172" lon="3.55313">
        <ele>114.80391693115</ele>
        <time>2014-04-13T06:59:48.000Z</time>
      </trkpt>
      <trkpt lat="50.10168" lon="3.55332">
        <ele>114.94480895996</ele>
        <time>2014-04-13T06:59:51.000Z</time>
      </trkpt>
      <trkpt lat="50.10163" lon="3.55351">
        <ele>115.29579925537</ele>
        <time>2014-04-13T06:59:54.000Z</time>
      </trkpt>
      <trkpt lat="50.1016" lon="3.55364">
        <ele>115.61183929443</ele>
        <time>2014-04-13T06:59:56.000Z</time>
      </trkpt>
      <trkpt lat="50.10154" lon="3.55382">
        <ele>115.75496673584</ele>
        <time>2014-04-13T06:59:59.000Z</time>
      </trkpt>
      <trkpt lat="50.10147" lon="3.554">
        <ele>116.41981506348</ele>
        <time>2014-04-13T07:00:02.000Z</time>
      </trkpt>
      <trkpt lat="50.10138" lon="3.55418">
        <ele>116.96136474609</ele>
        <time>2014-04-13T07:00:05.000Z</time>
      </trkpt>
      <trkpt lat="50.10135" lon="3.5543">
        <ele>117.64909362793</ele>
        <time>2014-04-13T07:00:07.000Z</time>
      </trkpt>
      <trkpt lat="50.10132" lon="3.55445">
        <ele>119.57447814941</ele>
        <time>2014-04-13T07:00:10.000Z</time>
      </trkpt>
      <trkpt lat="50.10122" lon="3.55459">
        <ele>120.98386383057</ele>
        <time>2014-04-13T07:00:13.000Z</time>
      </trkpt>
      <trkpt lat="50.10115" lon="3.55467">
        <ele>121.38382720947</ele>
        <time>2014-04-13T07:00:15.000Z</time>
      </trkpt>
      <trkpt lat="50.10111" lon="3.55472">
        <ele>122.35597991943</ele>
        <time>2014-04-13T07:00:17.000Z</time>
      </trkpt>
      <trkpt lat="50.10106" lon="3.55482">
        <ele>123.20971679688</ele>
        <time>2014-04-13T07:00:20.000Z</time>
      </trkpt>
      <trkpt lat="50.10103" lon="3.55492">
        <ele>122.33744049072</ele>
        <time>2014-04-13T07:00:22.000Z</time>
      </trkpt>
      <trkpt lat="50.10098" lon="3.55506">
        <ele>122.22944641113</ele>
        <time>2014-04-13T07:00:25.000Z</time>
      </trkpt>
      <trkpt lat="50.10092" lon="3.55519">
        <ele>123.05393218994</ele>
        <time>2014-04-13T07:00:28.000Z</time>
      </trkpt>
      <trkpt lat="50.10087" lon="3.55526">
        <ele>123.51756286621</ele>
        <time>2014-04-13T07:00:30.000Z</time>
      </trkpt>
      <trkpt lat="50.10079" lon="3.55538">
        <ele>123.64888763428</ele>
        <time>2014-04-13T07:00:33.000Z</time>
      </trkpt>
      <trkpt lat="50.10072" lon="3.55551">
        <ele>123.94584655762</ele>
        <time>2014-04-13T07:00:36.000Z</time>
      </trkpt>
      <trkpt lat="50.10065" lon="3.55564">
        <ele>123.80537414551</ele>
        <time>2014-04-13T07:00:39.000Z</time>
      </trkpt>
      <trkpt lat="50.1006" lon="3.55572">
        <ele>123.20761871338</ele>
        <time>2014-04-13T07:00:41.000Z</time>
      </trkpt>
      <trkpt lat="50.1005" lon="3.55583">
        <ele>122.100730896</ele>
        <time>2014-04-13T07:00:44.000Z</time>
      </trkpt>
      <trkpt lat="50.10043" lon="3.5559">
        <ele>121.11838531494</ele>
        <time>2014-04-13T07:00:46.000Z</time>
      </trkpt>
      <trkpt lat="50.10035" lon="3.55596">
        <ele>120.51091003418</ele>
        <time>2014-04-13T07:00:48.000Z</time>
      </trkpt>
      <trkpt lat="50.10024" lon="3.55604">
        <ele>120.13548278809</ele>
        <time>2014-04-13T07:00:51.000Z</time>
      </trkpt>
      <trkpt lat="50.10013" lon="3.55613">
        <ele>119.91394042969</ele>
        <time>2014-04-13T07:00:54.000Z</time>
      </trkpt>
      <trkpt lat="50.10006" lon="3.5562">
        <ele>120.27900695801</ele>
        <time>2014-04-13T07:00:56.000Z</time>
      </trkpt>
      <trkpt lat="50.09996" lon="3.5563">
        <ele>121.31889343262</ele>
        <time>2014-04-13T07:00:59.000Z</time>
      </trkpt>
      <trkpt lat="50.0999" lon="3.55638">
        <ele>122.32118988037</ele>
        <time>2014-04-13T07:01:01.000Z</time>
      </trkpt>
      <trkpt lat="50.0998" lon="3.55649">
        <ele>123.50551605225</ele>
        <time>2014-04-13T07:01:04.000Z</time>
      </trkpt>
      <trkpt lat="50.09971" lon="3.55661">
        <ele>124.95452880859</ele>
        <time>2014-04-13T07:01:07.000Z</time>
      </trkpt>
      <trkpt lat="50.09963" lon="3.55672">
        <ele>126.479637146</ele>
        <time>2014-04-13T07:01:10.000Z</time>
      </trkpt>
      <trkpt lat="50.09954" lon="3.55684">
        <ele>127.24299621582</ele>
        <time>2014-04-13T07:01:13.000Z</time>
      </trkpt>
      <trkpt lat="50.09948" lon="3.55692">
        <ele>128.12850952148</ele>
        <time>2014-04-13T07:01:15.000Z</time>
      </trkpt>
      <trkpt lat="50.0994" lon="3.55704">
        <ele>129.0322265625</ele>
        <time>2014-04-13T07:01:18.000Z</time>
      </trkpt>
      <trkpt lat="50.09934" lon="3.55713">
        <ele>129.71450805664</ele>
        <time>2014-04-13T07:01:20.000Z</time>
      </trkpt>
      <trkpt lat="50.09925" lon="3.55725">
        <ele>130.29110717773</ele>
        <time>2014-04-13T07:01:23.000Z</time>
      </trkpt>
      <trkpt lat="50.09917" lon="3.55739">
        <ele>130.75357055664</ele>
        <time>2014-04-13T07:01:26.000Z</time>
      </trkpt>
      <trkpt lat="50.09912" lon="3.55747">
        <ele>131.14653015137</ele>
        <time>2014-04-13T07:01:28.000Z</time>
      </trkpt>
      <trkpt lat="50.09904" lon="3.5576">
        <ele>131.49572753906</ele>
        <time>2014-04-13T07:01:31.000Z</time>
      </trkpt>
      <trkpt lat="50.099" lon="3.55769">
        <ele>131.79904174805</ele>
        <time>2014-04-13T07:01:33.000Z</time>
      </trkpt>
      <trkpt lat="50.09892" lon="3.55782">
        <ele>131.96768188477</ele>
        <time>2014-04-13T07:01:36.000Z</time>
      </trkpt>
      <trkpt lat="50.09884" lon="3.55797">
        <ele>131.66931152344</ele>
        <time>2014-04-13T07:01:39.000Z</time>
      </trkpt>
      <trkpt lat="50.09879" lon="3.55808">
        <ele>131.10897827148</ele>
        <time>2014-04-13T07:01:41.000Z</time>
      </trkpt>
      <trkpt lat="50.09874" lon="3.55818">
        <ele>130.50756835938</ele>
        <time>2014-04-13T07:01:43.000Z</time>
      </trkpt>
      <trkpt lat="50.09868" lon="3.55831">
        <ele>130.03515625</ele>
        <time>2014-04-13T07:01:45.000Z</time>
      </trkpt>
      <trkpt lat="50.09863" lon="3.5584">
        <ele>129.74812316895</ele>
        <time>2014-04-13T07:01:47.000Z</time>
      </trkpt>
      <trkpt lat="50.09858" lon="3.55853">
        <ele>130.05146789551</ele>
        <time>2014-04-13T07:01:50.000Z</time>
      </trkpt>
      <trkpt lat="50.09854" lon="3.55868">
        <ele>130.62748718262</ele>
        <time>2014-04-13T07:01:53.000Z</time>
      </trkpt>
      <trkpt lat="50.09848" lon="3.5588">
        <ele>130.9948425293</ele>
        <time>2014-04-13T07:01:56.000Z</time>
      </trkpt>
      <trkpt lat="50.09843" lon="3.55894">
        <ele>131.47944641113</ele>
        <time>2014-04-13T07:01:59.000Z</time>
      </trkpt>
      <trkpt lat="50.09839" lon="3.55903">
        <ele>132.04263305664</ele>
        <time>2014-04-13T07:02:01.000Z</time>
      </trkpt>
      <trkpt lat="50.09835" lon="3.55918">
        <ele>132.71420288086</ele>
        <time>2014-04-13T07:02:04.000Z</time>
      </trkpt>
      <trkpt lat="50.09832" lon="3.55928">
        <ele>133.15878295898</ele>
        <time>2014-04-13T07:02:06.000Z</time>
      </trkpt>
      <trkpt lat="50.09829" lon="3.55943">
        <ele>133.79658508301</ele>
        <time>2014-04-13T07:02:09.000Z</time>
      </trkpt>
      <trkpt lat="50.09827" lon="3.55953">
        <ele>134.18002319336</ele>
        <time>2014-04-13T07:02:11.000Z</time>
      </trkpt>
      <trkpt lat="50.09824" lon="3.55968">
        <ele>134.38468933105</ele>
        <time>2014-04-13T07:02:14.000Z</time>
      </trkpt>
      <trkpt lat="50.0982" lon="3.55983">
        <ele>134.57083129883</ele>
        <time>2014-04-13T07:02:17.000Z</time>
      </trkpt>
      <trkpt lat="50.09818" lon="3.55993">
        <ele>134.89042663574</ele>
        <time>2014-04-13T07:02:19.000Z</time>
      </trkpt>
      <trkpt lat="50.09813" lon="3.56009">
        <ele>135.31819152832</ele>
        <time>2014-04-13T07:02:22.000Z</time>
      </trkpt>
      <trkpt lat="50.09809" lon="3.56025">
        <ele>135.76322937012</ele>
        <time>2014-04-13T07:02:25.000Z</time>
      </trkpt>
      <trkpt lat="50.09805" lon="3.56042">
        <ele>136.43315124512</ele>
        <time>2014-04-13T07:02:28.000Z</time>
      </trkpt>
      <trkpt lat="50.09801" lon="3.56054">
        <ele>137.02334594727</ele>
        <time>2014-04-13T07:02:30.000Z</time>
      </trkpt>
      <trkpt lat="50.09796" lon="3.56069">
        <ele>137.56115722656</ele>
        <time>2014-04-13T07:02:33.000Z</time>
      </trkpt>
      <trkpt lat="50.09792" lon="3.56078">
        <ele>138.04081726074</ele>
        <time>2014-04-13T07:02:35.000Z</time>
      </trkpt>
      <trkpt lat="50.09788" lon="3.56091">
        <ele>138.54708862305</ele>
        <time>2014-04-13T07:02:38.000Z</time>
      </trkpt>
      <trkpt lat="50.09787" lon="3.56101">
        <ele>138.83764648438</ele>
        <time>2014-04-13T07:02:40.000Z</time>
      </trkpt>
      <trkpt lat="50.09786" lon="3.5611">
        <ele>139.09931945801</ele>
        <time>2014-04-13T07:02:42.000Z</time>
      </trkpt>
      <trkpt lat="50.09785" lon="3.56125">
        <ele>139.40145874023</ele>
        <time>2014-04-13T07:02:45.000Z</time>
      </trkpt>
      <trkpt lat="50.09784" lon="3.56136">
        <ele>139.63729858398</ele>
        <time>2014-04-13T07:02:47.000Z</time>
      </trkpt>
      <trkpt lat="50.0978" lon="3.56152">
        <ele>139.84162902832</ele>
        <time>2014-04-13T07:02:50.000Z</time>
      </trkpt>
      <trkpt lat="50.09774" lon="3.56167">
        <ele>139.92822265625</ele>
        <time>2014-04-13T07:02:53.000Z</time>
      </trkpt>
      <trkpt lat="50.0977" lon="3.56183">
        <ele>139.98905944824</ele>
        <time>2014-04-13T07:02:56.000Z</time>
      </trkpt>
      <trkpt lat="50.09768" lon="3.56199">
        <ele>139.87077331543</ele>
        <time>2014-04-13T07:02:59.000Z</time>
      </trkpt>
      <trkpt lat="50.09766" lon="3.56215">
        <ele>139.80236816406</ele>
        <time>2014-04-13T07:03:02.000Z</time>
      </trkpt>
      <trkpt lat="50.09765" lon="3.56226">
        <ele>139.7373046875</ele>
        <time>2014-04-13T07:03:04.000Z</time>
      </trkpt>
      <trkpt lat="50.09763" lon="3.56243">
        <ele>139.76374816895</ele>
        <time>2014-04-13T07:03:07.000Z</time>
      </trkpt>
      <trkpt lat="50.09762" lon="3.5626">
        <ele>139.7805480957</ele>
        <time>2014-04-13T07:03:10.000Z</time>
      </trkpt>
      <trkpt lat="50.09762" lon="3.56277">
        <ele>140.06127929688</ele>
        <time>2014-04-13T07:03:13.000Z</time>
      </trkpt>
      <trkpt lat="50.09762" lon="3.56294">
        <ele>140.45280456543</ele>
        <time>2014-04-13T07:03:16.000Z</time>
      </trkpt>
      <trkpt lat="50.09762" lon="3.56305">
        <ele>140.56802368164</ele>
        <time>2014-04-13T07:03:18.000Z</time>
      </trkpt>
      <trkpt lat="50.09762" lon="3.56316">
        <ele>140.90328979492</ele>
        <time>2014-04-13T07:03:20.000Z</time>
      </trkpt>
      <trkpt lat="50.09762" lon="3.56332">
        <ele>141.15530395508</ele>
        <time>2014-04-13T07:03:23.000Z</time>
      </trkpt>
      <trkpt lat="50.09762" lon="3.56347">
        <ele>141.17182922363</ele>
        <time>2014-04-13T07:03:26.000Z</time>
      </trkpt>
      <trkpt lat="50.09763" lon="3.56357">
        <ele>141.25570678711</ele>
        <time>2014-04-13T07:03:28.000Z</time>
      </trkpt>
      <trkpt lat="50.09764" lon="3.56367">
        <ele>141.67399597168</ele>
        <time>2014-04-13T07:03:30.000Z</time>
      </trkpt>
      <trkpt lat="50.0976" lon="3.56371">
        <ele>142.00552368164</ele>
        <time>2014-04-13T07:03:32.000Z</time>
      </trkpt>
      <trkpt lat="50.09753" lon="3.56369">
        <ele>142.30224609375</ele>
        <time>2014-04-13T07:03:35.000Z</time>
      </trkpt>
      <trkpt lat="50.09745" lon="3.56361">
        <ele>142.60610961914</ele>
        <time>2014-04-13T07:03:38.000Z</time>
      </trkpt>
      <trkpt lat="50.09739" lon="3.56357">
        <ele>142.51965332031</ele>
        <time>2014-04-13T07:03:40.000Z</time>
      </trkpt>
      <trkpt lat="50.09729" lon="3.56353">
        <ele>142.20858764648</ele>
        <time>2014-04-13T07:03:43.000Z</time>
      </trkpt>
      <trkpt lat="50.09718" lon="3.56348">
        <ele>141.67001342773</ele>
        <time>2014-04-13T07:03:46.000Z</time>
      </trkpt>
      <trkpt lat="50.09707" lon="3.56342">
        <ele>140.85586547852</ele>
        <time>2014-04-13T07:03:49.000Z</time>
      </trkpt>
      <trkpt lat="50.09697" lon="3.56337">
        <ele>139.82832336426</ele>
        <time>2014-04-13T07:03:52.000Z</time>
      </trkpt>
      <trkpt lat="50.0969" lon="3.56334">
        <ele>138.99137878418</ele>
        <time>2014-04-13T07:03:54.000Z</time>
      </trkpt>
      <trkpt lat="50.0968" lon="3.56332">
        <ele>138.43176269531</ele>
        <time>2014-04-13T07:03:57.000Z</time>
      </trkpt>
      <trkpt lat="50.09674" lon="3.56337">
        <ele>138.17597961426</ele>
        <time>2014-04-13T07:03:59.000Z</time>
      </trkpt>
      <trkpt lat="50.09668" lon="3.56352">
        <ele>138.32734680176</ele>
        <time>2014-04-13T07:04:02.000Z</time>
      </trkpt>
      <trkpt lat="50.09663" lon="3.5636">
        <ele>138.98152160645</ele>
        <time>2014-04-13T07:04:04.000Z</time>
      </trkpt>
      <trkpt lat="50.09653" lon="3.56362">
        <ele>139.84225463867</ele>
        <time>2014-04-13T07:04:07.000Z</time>
      </trkpt>
      <trkpt lat="50.09643" lon="3.56358">
        <ele>140.78503417969</ele>
        <time>2014-04-13T07:04:10.000Z</time>
      </trkpt>
      <trkpt lat="50.09637" lon="3.56354">
        <ele>141.70883178711</ele>
        <time>2014-04-13T07:04:12.000Z</time>
      </trkpt>
      <trkpt lat="50.09627" lon="3.56349">
        <ele>142.62911987305</ele>
        <time>2014-04-13T07:04:15.000Z</time>
      </trkpt>
      <trkpt lat="50.09621" lon="3.56346">
        <ele>143.35359191895</ele>
        <time>2014-04-13T07:04:17.000Z</time>
      </trkpt>
      <trkpt lat="50.09613" lon="3.56343">
        <ele>143.84162902832</ele>
        <time>2014-04-13T07:04:19.000Z</time>
      </trkpt>
      <trkpt lat="50.09603" lon="3.56338">
        <ele>144.1169128418</ele>
        <time>2014-04-13T07:04:22.000Z</time>
      </trkpt>
      <trkpt lat="50.09592" lon="3.56333">
        <ele>144.27067565918</ele>
        <time>2014-04-13T07:04:25.000Z</time>
      </trkpt>
      <trkpt lat="50.09581" lon="3.56328">
        <ele>144.35653686523</ele>
        <time>2014-04-13T07:04:28.000Z</time>
      </trkpt>
      <trkpt lat="50.09571" lon="3.56324">
        <ele>144.37954711914</ele>
        <time>2014-04-13T07:04:31.000Z</time>
      </trkpt>
      <trkpt lat="50.0956" lon="3.56319">
        <ele>144.45529174805</ele>
        <time>2014-04-13T07:04:34.000Z</time>
      </trkpt>
      <trkpt lat="50.09549" lon="3.56316">
        <ele>144.46464538574</ele>
        <time>2014-04-13T07:04:37.000Z</time>
      </trkpt>
      <trkpt lat="50.09541" lon="3.56314">
        <ele>144.62821960449</ele>
        <time>2014-04-13T07:04:39.000Z</time>
      </trkpt>
      <trkpt lat="50.09529" lon="3.5631">
        <ele>144.80166625977</ele>
        <time>2014-04-13T07:04:42.000Z</time>
      </trkpt>
      <trkpt lat="50.09521" lon="3.56307">
        <ele>145.04104614258</ele>
        <time>2014-04-13T07:04:44.000Z</time>
      </trkpt>
      <trkpt lat="50.09513" lon="3.56305">
        <ele>145.37210083008</ele>
        <time>2014-04-13T07:04:46.000Z</time>
      </trkpt>
      <trkpt lat="50.09506" lon="3.56302">
        <ele>145.69807434082</ele>
        <time>2014-04-13T07:04:48.000Z</time>
      </trkpt>
      <trkpt lat="50.09496" lon="3.56297">
        <ele>145.66345214844</ele>
        <time>2014-04-13T07:04:51.000Z</time>
      </trkpt>
      <trkpt lat="50.09489" lon="3.56293">
        <ele>145.64985656738</ele>
        <time>2014-04-13T07:04:53.000Z</time>
      </trkpt>
      <trkpt lat="50.09479" lon="3.56289">
        <ele>145.36087036133</ele>
        <time>2014-04-13T07:04:56.000Z</time>
      </trkpt>
      <trkpt lat="50.09468" lon="3.56284">
        <ele>144.79873657227</ele>
        <time>2014-04-13T07:04:59.000Z</time>
      </trkpt>
      <trkpt lat="50.09461" lon="3.5628">
        <ele>144.3737487793</ele>
        <time>2014-04-13T07:05:01.000Z</time>
      </trkpt>
      <trkpt lat="50.0945" lon="3.56274">
        <ele>144.10562133789</ele>
        <time>2014-04-13T07:05:04.000Z</time>
      </trkpt>
      <trkpt lat="50.09442" lon="3.5627">
        <ele>143.9662322998</ele>
        <time>2014-04-13T07:05:06.000Z</time>
      </trkpt>
      <trkpt lat="50.0943" lon="3.56265">
        <ele>143.97061157227</ele>
        <time>2014-04-13T07:05:09.000Z</time>
      </trkpt>
      <trkpt lat="50.09423" lon="3.56261">
        <ele>144.09016418457</ele>
        <time>2014-04-13T07:05:11.000Z</time>
      </trkpt>
      <trkpt lat="50.09411" lon="3.56257">
        <ele>143.91059875488</ele>
        <time>2014-04-13T07:05:14.000Z</time>
      </trkpt>
      <trkpt lat="50.09403" lon="3.56255">
        <ele>143.91305541992</ele>
        <time>2014-04-13T07:05:16.000Z</time>
      </trkpt>
      <trkpt lat="50.09391" lon="3.5625">
        <ele>143.80270385742</ele>
        <time>2014-04-13T07:05:19.000Z</time>
      </trkpt>
      <trkpt lat="50.09383" lon="3.56246">
        <ele>143.65864562988</ele>
        <time>2014-04-13T07:05:21.000Z</time>
      </trkpt>
      <trkpt lat="50.09375" lon="3.56243">
        <ele>143.54934692383</ele>
        <time>2014-04-13T07:05:23.000Z</time>
      </trkpt>
      <trkpt lat="50.09367" lon="3.5624">
        <ele>143.61669921875</ele>
        <time>2014-04-13T07:05:25.000Z</time>
      </trkpt>
      <trkpt lat="50.09355" lon="3.56235">
        <ele>143.51281738281</ele>
        <time>2014-04-13T07:05:28.000Z</time>
      </trkpt>
      <trkpt lat="50.09344" lon="3.5623">
        <ele>143.31942749023</ele>
        <time>2014-04-13T07:05:31.000Z</time>
      </trkpt>
      <trkpt lat="50.09336" lon="3.56227">
        <ele>143.25430297852</ele>
        <time>2014-04-13T07:05:33.000Z</time>
      </trkpt>
      <trkpt lat="50.09325" lon="3.56223">
        <ele>143.33944702148</ele>
        <time>2014-04-13T07:05:36.000Z</time>
      </trkpt>
      <trkpt lat="50.09318" lon="3.56221">
        <ele>143.54794311523</ele>
        <time>2014-04-13T07:05:38.000Z</time>
      </trkpt>
      <trkpt lat="50.09307" lon="3.56216">
        <ele>143.71992492676</ele>
        <time>2014-04-13T07:05:41.000Z</time>
      </trkpt>
      <trkpt lat="50.09296" lon="3.56211">
        <ele>144.04472351074</ele>
        <time>2014-04-13T07:05:44.000Z</time>
      </trkpt>
      <trkpt lat="50.0929" lon="3.56207">
        <ele>144.27420043945</ele>
        <time>2014-04-13T07:05:46.000Z</time>
      </trkpt>
      <trkpt lat="50.09283" lon="3.56203">
        <ele>144.43371582031</ele>
        <time>2014-04-13T07:05:48.000Z</time>
      </trkpt>
      <trkpt lat="50.09272" lon="3.56199">
        <ele>144.37370300293</ele>
        <time>2014-04-13T07:05:51.000Z</time>
      </trkpt>
      <trkpt lat="50.09265" lon="3.56196">
        <ele>144.28715515137</ele>
        <time>2014-04-13T07:05:53.000Z</time>
      </trkpt>
      <trkpt lat="50.09254" lon="3.56192">
        <ele>143.75215148926</ele>
        <time>2014-04-13T07:05:56.000Z</time>
      </trkpt>
      <trkpt lat="50.09244" lon="3.56188">
        <ele>143.31340026855</ele>
        <time>2014-04-13T07:05:59.000Z</time>
      </trkpt>
      <trkpt lat="50.09234" lon="3.56184">
        <ele>142.7038269043</ele>
        <time>2014-04-13T07:06:02.000Z</time>
      </trkpt>
      <trkpt lat="50.09227" lon="3.56182">
        <ele>142.21432495117</ele>
        <time>2014-04-13T07:06:04.000Z</time>
      </trkpt>
      <trkpt lat="50.09221" lon="3.56188">
        <ele>142.06741333008</ele>
        <time>2014-04-13T07:06:06.000Z</time>
      </trkpt>
      <trkpt lat="50.09217" lon="3.56214">
        <ele>142.11210632324</ele>
        <time>2014-04-13T07:06:09.000Z</time>
      </trkpt>
      <trkpt lat="50.09212" lon="3.56226">
        <ele>142.20658874512</ele>
        <time>2014-04-13T07:06:11.000Z</time>
      </trkpt>
      <trkpt lat="50.09207" lon="3.56239">
        <ele>142.34118652344</ele>
        <time>2014-04-13T07:06:13.000Z</time>
      </trkpt>
      <trkpt lat="50.09203" lon="3.56259">
        <ele>142.63439941406</ele>
        <time>2014-04-13T07:06:16.000Z</time>
      </trkpt>
      <trkpt lat="50.09196" lon="3.56277">
        <ele>142.53178405762</ele>
        <time>2014-04-13T07:06:19.000Z</time>
      </trkpt>
      <trkpt lat="50.0919" lon="3.56296">
        <ele>142.77099609375</ele>
        <time>2014-04-13T07:06:22.000Z</time>
      </trkpt>
      <trkpt lat="50.09184" lon="3.56315">
        <ele>143.15434265137</ele>
        <time>2014-04-13T07:06:25.000Z</time>
      </trkpt>
      <trkpt lat="50.09179" lon="3.56326">
        <ele>143.8568572998</ele>
        <time>2014-04-13T07:06:27.000Z</time>
      </trkpt>
      <trkpt lat="50.09173" lon="3.56343">
        <ele>144.45820617676</ele>
        <time>2014-04-13T07:06:30.000Z</time>
      </trkpt>
      <trkpt lat="50.09169" lon="3.56355">
        <ele>145.38578796387</ele>
        <time>2014-04-13T07:06:32.000Z</time>
      </trkpt>
      <trkpt lat="50.09165" lon="3.56366">
        <ele>145.98886108398</ele>
        <time>2014-04-13T07:06:34.000Z</time>
      </trkpt>
      <trkpt lat="50.09158" lon="3.56383">
        <ele>146.2998046875</ele>
        <time>2014-04-13T07:06:37.000Z</time>
      </trkpt>
      <trkpt lat="50.09154" lon="3.56394">
        <ele>146.22734069824</ele>
        <time>2014-04-13T07:06:39.000Z</time>
      </trkpt>
      <trkpt lat="50.09147" lon="3.56414">
        <ele>146.01123046875</ele>
        <time>2014-04-13T07:06:42.000Z</time>
      </trkpt>
      <trkpt lat="50.09141" lon="3.56433">
        <ele>145.54219055176</ele>
        <time>2014-04-13T07:06:45.000Z</time>
      </trkpt>
      <trkpt lat="50.09138" lon="3.56446">
        <ele>145.13696289062</ele>
        <time>2014-04-13T07:06:47.000Z</time>
      </trkpt>
      <trkpt lat="50.09134" lon="3.56461">
        <ele>144.7802734375</ele>
        <time>2014-04-13T07:06:49.000Z</time>
      </trkpt>
      <trkpt lat="50.09126" lon="3.56483">
        <ele>144.2834777832</ele>
        <time>2014-04-13T07:06:52.000Z</time>
      </trkpt>
      <trkpt lat="50.09119" lon="3.56505">
        <ele>143.515625</ele>
        <time>2014-04-13T07:06:55.000Z</time>
      </trkpt>
      <trkpt lat="50.09115" lon="3.56519">
        <ele>142.73803710938</ele>
        <time>2014-04-13T07:06:57.000Z</time>
      </trkpt>
      <trkpt lat="50.09109" lon="3.56534">
        <ele>141.88400268555</ele>
        <time>2014-04-13T07:06:59.000Z</time>
      </trkpt>
      <trkpt lat="50.09102" lon="3.56556">
        <ele>141.07983398438</ele>
        <time>2014-04-13T07:07:02.000Z</time>
      </trkpt>
      <trkpt lat="50.09094" lon="3.56578">
        <ele>140.3115234375</ele>
        <time>2014-04-13T07:07:05.000Z</time>
      </trkpt>
      <trkpt lat="50.09087" lon="3.56601">
        <ele>139.99653625488</ele>
        <time>2014-04-13T07:07:08.000Z</time>
      </trkpt>
      <trkpt lat="50.09079" lon="3.56625">
        <ele>139.93444824219</ele>
        <time>2014-04-13T07:07:11.000Z</time>
      </trkpt>
      <trkpt lat="50.09074" lon="3.56641">
        <ele>139.9397277832</ele>
        <time>2014-04-13T07:07:13.000Z</time>
      </trkpt>
      <trkpt lat="50.09069" lon="3.56657">
        <ele>139.77819824219</ele>
        <time>2014-04-13T07:07:15.000Z</time>
      </trkpt>
      <trkpt lat="50.09061" lon="3.56681">
        <ele>139.7956237793</ele>
        <time>2014-04-13T07:07:18.000Z</time>
      </trkpt>
      <trkpt lat="50.09055" lon="3.56696">
        <ele>139.79634094238</ele>
        <time>2014-04-13T07:07:20.000Z</time>
      </trkpt>
      <trkpt lat="50.09049" lon="3.56719">
        <ele>139.57901000977</ele>
        <time>2014-04-13T07:07:23.000Z</time>
      </trkpt>
      <trkpt lat="50.09042" lon="3.56741">
        <ele>139.55732727051</ele>
        <time>2014-04-13T07:07:26.000Z</time>
      </trkpt>
      <trkpt lat="50.09035" lon="3.56764">
        <ele>139.51460266113</ele>
        <time>2014-04-13T07:07:29.000Z</time>
      </trkpt>
      <trkpt lat="50.09028" lon="3.56787">
        <ele>139.60244750977</ele>
        <time>2014-04-13T07:07:32.000Z</time>
      </trkpt>
      <trkpt lat="50.09024" lon="3.56802">
        <ele>139.74320983887</ele>
        <time>2014-04-13T07:07:34.000Z</time>
      </trkpt>
      <trkpt lat="50.09017" lon="3.56824">
        <ele>140.04792785645</ele>
        <time>2014-04-13T07:07:37.000Z</time>
      </trkpt>
      <trkpt lat="50.09012" lon="3.56838">
        <ele>140.30683898926</ele>
        <time>2014-04-13T07:07:39.000Z</time>
      </trkpt>
      <trkpt lat="50.09004" lon="3.56858">
        <ele>140.75410461426</ele>
        <time>2014-04-13T07:07:42.000Z</time>
      </trkpt>
      <trkpt lat="50.08999" lon="3.5687">
        <ele>140.94856262207</ele>
        <time>2014-04-13T07:07:44.000Z</time>
      </trkpt>
      <trkpt lat="50.08991" lon="3.5689">
        <ele>141.13667297363</ele>
        <time>2014-04-13T07:07:47.000Z</time>
      </trkpt>
      <trkpt lat="50.08988" lon="3.56899">
        <ele>141.26440429688</ele>
        <time>2014-04-13T07:07:49.000Z</time>
      </trkpt>
      <trkpt lat="50.08984" lon="3.5692">
        <ele>141.33847045898</ele>
        <time>2014-04-13T07:07:52.000Z</time>
      </trkpt>
      <trkpt lat="50.0898" lon="3.56932">
        <ele>141.52359008789</ele>
        <time>2014-04-13T07:07:54.000Z</time>
      </trkpt>
      <trkpt lat="50.08978" lon="3.56945">
        <ele>142.08883666992</ele>
        <time>2014-04-13T07:07:56.000Z</time>
      </trkpt>
      <trkpt lat="50.08974" lon="3.56956">
        <ele>142.68334960938</ele>
        <time>2014-04-13T07:07:58.000Z</time>
      </trkpt>
      <trkpt lat="50.0897" lon="3.56969">
        <ele>143.25338745117</ele>
        <time>2014-04-13T07:08:00.000Z</time>
      </trkpt>
      <trkpt lat="50.08966" lon="3.56981">
        <ele>143.84301757812</ele>
        <time>2014-04-13T07:08:02.000Z</time>
      </trkpt>
      <trkpt lat="50.0896" lon="3.56997">
        <ele>144.3119354248</ele>
        <time>2014-04-13T07:08:05.000Z</time>
      </trkpt>
      <trkpt lat="50.08957" lon="3.57008">
        <ele>144.53930664062</ele>
        <time>2014-04-13T07:08:07.000Z</time>
      </trkpt>
      <trkpt lat="50.08953" lon="3.57025">
        <ele>144.55773925781</ele>
        <time>2014-04-13T07:08:10.000Z</time>
      </trkpt>
      <trkpt lat="50.08946" lon="3.57043">
        <ele>144.49060058594</ele>
        <time>2014-04-13T07:08:13.000Z</time>
      </trkpt>
      <trkpt lat="50.08939" lon="3.57062">
        <ele>144.1822052002</ele>
        <time>2014-04-13T07:08:16.000Z</time>
      </trkpt>
      <trkpt lat="50.08934" lon="3.57075">
        <ele>143.83444213867</ele>
        <time>2014-04-13T07:08:18.000Z</time>
      </trkpt>
      <trkpt lat="50.08928" lon="3.57095">
        <ele>143.32795715332</ele>
        <time>2014-04-13T07:08:21.000Z</time>
      </trkpt>
      <trkpt lat="50.08924" lon="3.57108">
        <ele>142.99467468262</ele>
        <time>2014-04-13T07:08:23.000Z</time>
      </trkpt>
      <trkpt lat="50.0892" lon="3.57128">
        <ele>142.67935180664</ele>
        <time>2014-04-13T07:08:26.000Z</time>
      </trkpt>
      <trkpt lat="50.08915" lon="3.5715">
        <ele>142.32807922363</ele>
        <time>2014-04-13T07:08:29.000Z</time>
      </trkpt>
      <trkpt lat="50.08911" lon="3.57164">
        <ele>141.95874023438</ele>
        <time>2014-04-13T07:08:31.000Z</time>
      </trkpt>
      <trkpt lat="50.08907" lon="3.57178">
        <ele>141.72937011719</ele>
        <time>2014-04-13T07:08:33.000Z</time>
      </trkpt>
      <trkpt lat="50.089" lon="3.57199">
        <ele>141.36929321289</ele>
        <time>2014-04-13T07:08:36.000Z</time>
      </trkpt>
      <trkpt lat="50.08894" lon="3.57223">
        <ele>141.0542755127</ele>
        <time>2014-04-13T07:08:39.000Z</time>
      </trkpt>
      <trkpt lat="50.08886" lon="3.57246">
        <ele>140.91333007812</ele>
        <time>2014-04-13T07:08:42.000Z</time>
      </trkpt>
      <trkpt lat="50.08879" lon="3.57268">
        <ele>140.97135925293</ele>
        <time>2014-04-13T07:08:45.000Z</time>
      </trkpt>
      <trkpt lat="50.08872" lon="3.5729">
        <ele>141.24743652344</ele>
        <time>2014-04-13T07:08:48.000Z</time>
      </trkpt>
      <trkpt lat="50.08867" lon="3.5731">
        <ele>141.75834655762</ele>
        <time>2014-04-13T07:08:51.000Z</time>
      </trkpt>
      <trkpt lat="50.08865" lon="3.57325">
        <ele>142.20544433594</ele>
        <time>2014-04-13T07:08:54.000Z</time>
      </trkpt>
      <trkpt lat="50.08871" lon="3.57333">
        <ele>142.9326171875</ele>
        <time>2014-04-13T07:08:56.000Z</time>
      </trkpt>
      <trkpt lat="50.08881" lon="3.57341">
        <ele>143.22827148438</ele>
        <time>2014-04-13T07:08:59.000Z</time>
      </trkpt>
      <trkpt lat="50.08891" lon="3.57346">
        <ele>143.43395996094</ele>
        <time>2014-04-13T07:09:02.000Z</time>
      </trkpt>
      <trkpt lat="50.08898" lon="3.5735">
        <ele>143.62454223633</ele>
        <time>2014-04-13T07:09:04.000Z</time>
      </trkpt>
      <trkpt lat="50.08909" lon="3.57354">
        <ele>143.58430480957</ele>
        <time>2014-04-13T07:09:07.000Z</time>
      </trkpt>
      <trkpt lat="50.0892" lon="3.5736">
        <ele>143.41816711426</ele>
        <time>2014-04-13T07:09:10.000Z</time>
      </trkpt>
      <trkpt lat="50.0893" lon="3.57367">
        <ele>143.67971801758</ele>
        <time>2014-04-13T07:09:13.000Z</time>
      </trkpt>
      <trkpt lat="50.08937" lon="3.57373">
        <ele>143.54035949707</ele>
        <time>2014-04-13T07:09:15.000Z</time>
      </trkpt>
      <trkpt lat="50.08947" lon="3.57381">
        <ele>143.21133422852</ele>
        <time>2014-04-13T07:09:18.000Z</time>
      </trkpt>
      <trkpt lat="50.08958" lon="3.57389">
        <ele>143.13357543945</ele>
        <time>2014-04-13T07:09:21.000Z</time>
      </trkpt>
      <trkpt lat="50.08965" lon="3.57395">
        <ele>142.98364257812</ele>
        <time>2014-04-13T07:09:23.000Z</time>
      </trkpt>
      <trkpt lat="50.08973" lon="3.57401">
        <ele>142.67947387695</ele>
        <time>2014-04-13T07:09:25.000Z</time>
      </trkpt>
      <trkpt lat="50.0898" lon="3.57406">
        <ele>142.76473999023</ele>
        <time>2014-04-13T07:09:27.000Z</time>
      </trkpt>
      <trkpt lat="50.08992" lon="3.57413">
        <ele>142.85595703125</ele>
        <time>2014-04-13T07:09:30.000Z</time>
      </trkpt>
      <trkpt lat="50.09" lon="3.57417">
        <ele>142.95915222168</ele>
        <time>2014-04-13T07:09:32.000Z</time>
      </trkpt>
      <trkpt lat="50.09017" lon="3.57425">
        <ele>143.0788269043</ele>
        <time>2014-04-13T07:09:35.000Z</time>
      </trkpt>
      <trkpt lat="50.09026" lon="3.57429">
        <ele>143.31604003906</ele>
        <time>2014-04-13T07:09:37.000Z</time>
      </trkpt>
      <trkpt lat="50.09037" lon="3.57437">
        <ele>143.40957641602</ele>
        <time>2014-04-13T07:09:40.000Z</time>
      </trkpt>
      <trkpt lat="50.09045" lon="3.57441">
        <ele>143.47445678711</ele>
        <time>2014-04-13T07:09:42.000Z</time>
      </trkpt>
      <trkpt lat="50.09058" lon="3.57447">
        <ele>143.64889526367</ele>
        <time>2014-04-13T07:09:45.000Z</time>
      </trkpt>
      <trkpt lat="50.09064" lon="3.57452">
        <ele>143.70468139648</ele>
        <time>2014-04-13T07:09:47.000Z</time>
      </trkpt>
      <trkpt lat="50.09076" lon="3.57455">
        <ele>143.89692687988</ele>
        <time>2014-04-13T07:09:50.000Z</time>
      </trkpt>
      <trkpt lat="50.09089" lon="3.57461">
        <ele>143.93081665039</ele>
        <time>2014-04-13T07:09:53.000Z</time>
      </trkpt>
      <trkpt lat="50.09102" lon="3.57463">
        <ele>143.91264343262</ele>
        <time>2014-04-13T07:09:56.000Z</time>
      </trkpt>
      <trkpt lat="50.0911" lon="3.57465">
        <ele>143.66877746582</ele>
        <time>2014-04-13T07:09:58.000Z</time>
      </trkpt>
      <trkpt lat="50.09119" lon="3.57467">
        <ele>143.68229675293</ele>
        <time>2014-04-13T07:10:00.000Z</time>
      </trkpt>
      <trkpt lat="50.09127" lon="3.57469">
        <ele>143.61999511719</ele>
        <time>2014-04-13T07:10:02.000Z</time>
      </trkpt>
      <trkpt lat="50.0914" lon="3.57472">
        <ele>143.71455383301</ele>
        <time>2014-04-13T07:10:05.000Z</time>
      </trkpt>
      <trkpt lat="50.09153" lon="3.57477">
        <ele>143.6767578125</ele>
        <time>2014-04-13T07:10:08.000Z</time>
      </trkpt>
      <trkpt lat="50.09169" lon="3.57482">
        <ele>143.69807434082</ele>
        <time>2014-04-13T07:10:11.000Z</time>
      </trkpt>
      <trkpt lat="50.09181" lon="3.57486">
        <ele>143.54318237305</ele>
        <time>2014-04-13T07:10:13.000Z</time>
      </trkpt>
      <trkpt lat="50.09192" lon="3.5749">
        <ele>142.92028808594</ele>
        <time>2014-04-13T07:10:15.000Z</time>
      </trkpt>
      <trkpt lat="50.09203" lon="3.57492">
        <ele>142.22261047363</ele>
        <time>2014-04-13T07:10:17.000Z</time>
      </trkpt>
      <trkpt lat="50.09217" lon="3.57493">
        <ele>141.52458190918</ele>
        <time>2014-04-13T07:10:20.000Z</time>
      </trkpt>
      <trkpt lat="50.09227" lon="3.57497">
        <ele>140.50651550293</ele>
        <time>2014-04-13T07:10:22.000Z</time>
      </trkpt>
      <trkpt lat="50.09243" lon="3.57504">
        <ele>139.5308380127</ele>
        <time>2014-04-13T07:10:25.000Z</time>
      </trkpt>
      <trkpt lat="50.0926" lon="3.57506">
        <ele>138.85563659668</ele>
        <time>2014-04-13T07:10:28.000Z</time>
      </trkpt>
      <trkpt lat="50.0927" lon="3.57505">
        <ele>138.50444030762</ele>
        <time>2014-04-13T07:10:30.000Z</time>
      </trkpt>
      <trkpt lat="50.09278" lon="3.57505">
        <ele>138.2571105957</ele>
        <time>2014-04-13T07:10:32.000Z</time>
      </trkpt>
      <trkpt lat="50.09293" lon="3.57506">
        <ele>138.15417480469</ele>
        <time>2014-04-13T07:10:35.000Z</time>
      </trkpt>
      <trkpt lat="50.09309" lon="3.57505">
        <ele>138.05078125</ele>
        <time>2014-04-13T07:10:38.000Z</time>
      </trkpt>
      <trkpt lat="50.09318" lon="3.5751">
        <ele>137.78215026855</ele>
        <time>2014-04-13T07:10:40.000Z</time>
      </trkpt>
      <trkpt lat="50.09333" lon="3.57513">
        <ele>137.38830566406</ele>
        <time>2014-04-13T07:10:43.000Z</time>
      </trkpt>
      <trkpt lat="50.09343" lon="3.57513">
        <ele>137.10380554199</ele>
        <time>2014-04-13T07:10:45.000Z</time>
      </trkpt>
      <trkpt lat="50.09354" lon="3.57514">
        <ele>136.86198425293</ele>
        <time>2014-04-13T07:10:47.000Z</time>
      </trkpt>
      <trkpt lat="50.09365" lon="3.57516">
        <ele>136.51741027832</ele>
        <time>2014-04-13T07:10:49.000Z</time>
      </trkpt>
      <trkpt lat="50.09378" lon="3.57517">
        <ele>136.32353210449</ele>
        <time>2014-04-13T07:10:52.000Z</time>
      </trkpt>
      <trkpt lat="50.09388" lon="3.57519">
        <ele>135.9977722168</ele>
        <time>2014-04-13T07:10:54.000Z</time>
      </trkpt>
      <trkpt lat="50.09401" lon="3.57521">
        <ele>135.71333312988</ele>
        <time>2014-04-13T07:10:57.000Z</time>
      </trkpt>
      <trkpt lat="50.09417" lon="3.57524">
        <ele>135.38456726074</ele>
        <time>2014-04-13T07:11:00.000Z</time>
      </trkpt>
      <trkpt lat="50.09423" lon="3.57529">
        <ele>135.25395202637</ele>
        <time>2014-04-13T07:11:02.000Z</time>
      </trkpt>
      <trkpt lat="50.0943" lon="3.57541">
        <ele>135.01651000977</ele>
        <time>2014-04-13T07:11:04.000Z</time>
      </trkpt>
      <trkpt lat="50.09439" lon="3.57559">
        <ele>134.77670288086</ele>
        <time>2014-04-13T07:11:07.000Z</time>
      </trkpt>
      <trkpt lat="50.09444" lon="3.57571">
        <ele>134.5972442627</ele>
        <time>2014-04-13T07:11:09.000Z</time>
      </trkpt>
      <trkpt lat="50.09449" lon="3.57582">
        <ele>134.76655578613</ele>
        <time>2014-04-13T07:11:11.000Z</time>
      </trkpt>
      <trkpt lat="50.09458" lon="3.57597">
        <ele>134.75723266602</ele>
        <time>2014-04-13T07:11:14.000Z</time>
      </trkpt>
      <trkpt lat="50.09465" lon="3.57608">
        <ele>135.10929870605</ele>
        <time>2014-04-13T07:11:16.000Z</time>
      </trkpt>
      <trkpt lat="50.09471" lon="3.57619">
        <ele>135.34367370605</ele>
        <time>2014-04-13T07:11:18.000Z</time>
      </trkpt>
      <trkpt lat="50.0948" lon="3.57637">
        <ele>135.46340942383</ele>
        <time>2014-04-13T07:11:21.000Z</time>
      </trkpt>
      <trkpt lat="50.09486" lon="3.57651">
        <ele>135.45016479492</ele>
        <time>2014-04-13T07:11:23.000Z</time>
      </trkpt>
      <trkpt lat="50.09497" lon="3.57674">
        <ele>135.54983520508</ele>
        <time>2014-04-13T07:11:26.000Z</time>
      </trkpt>
      <trkpt lat="50.09508" lon="3.57696">
        <ele>135.13681030273</ele>
        <time>2014-04-13T07:11:29.000Z</time>
      </trkpt>
      <trkpt lat="50.09517" lon="3.57709">
        <ele>134.8655090332</ele>
        <time>2014-04-13T07:11:31.000Z</time>
      </trkpt>
      <trkpt lat="50.09525" lon="3.57721">
        <ele>134.55337524414</ele>
        <time>2014-04-13T07:11:33.000Z</time>
      </trkpt>
      <trkpt lat="50.09534" lon="3.57731">
        <ele>134.08915710449</ele>
        <time>2014-04-13T07:11:36.000Z</time>
      </trkpt>
      <trkpt lat="50.0954" lon="3.57729">
        <ele>133.4691619873</ele>
        <time>2014-04-13T07:11:38.000Z</time>
      </trkpt>
      <trkpt lat="50.09546" lon="3.57725">
        <ele>133.06497192383</ele>
        <time>2014-04-13T07:11:40.000Z</time>
      </trkpt>
      <trkpt lat="50.09556" lon="3.57721">
        <ele>132.6247253418</ele>
        <time>2014-04-13T07:11:43.000Z</time>
      </trkpt>
      <trkpt lat="50.09559" lon="3.57679">
        <ele>132.18807983398</ele>
        <time>2014-04-13T07:11:47.000Z</time>
      </trkpt>
      <trkpt lat="50.09561" lon="3.57664">
        <ele>131.95791625977</ele>
        <time>2014-04-13T07:11:49.000Z</time>
      </trkpt>
      <trkpt lat="50.09568" lon="3.57643">
        <ele>132.0075378418</ele>
        <time>2014-04-13T07:11:52.000Z</time>
      </trkpt>
      <trkpt lat="50.09573" lon="3.57633">
        <ele>132.09378051758</ele>
        <time>2014-04-13T07:11:54.000Z</time>
      </trkpt>
      <trkpt lat="50.09578" lon="3.57619">
        <ele>132.23603820801</ele>
        <time>2014-04-13T07:11:56.000Z</time>
      </trkpt>
      <trkpt lat="50.09583" lon="3.57604">
        <ele>132.41423034668</ele>
        <time>2014-04-13T07:11:59.000Z</time>
      </trkpt>
      <trkpt lat="50.09587" lon="3.57594">
        <ele>132.64736938477</ele>
        <time>2014-04-13T07:12:01.000Z</time>
      </trkpt>
      <trkpt lat="50.09591" lon="3.57577">
        <ele>132.83969116211</ele>
        <time>2014-04-13T07:12:04.000Z</time>
      </trkpt>
      <trkpt lat="50.09596" lon="3.57562">
        <ele>133.29130554199</ele>
        <time>2014-04-13T07:12:07.000Z</time>
      </trkpt>
      <trkpt lat="50.0959" lon="3.57566">
        <ele>133.95156860352</ele>
        <time>2014-04-13T07:12:10.000Z</time>
      </trkpt>
      <trkpt lat="50.09612" lon="3.57585">
        <ele>134.37519836426</ele>
        <time>2014-04-13T07:12:14.000Z</time>
      </trkpt>
      <trkpt lat="50.09622" lon="3.57605">
        <ele>134.45776367188</ele>
        <time>2014-04-13T07:12:17.000Z</time>
      </trkpt>
      <trkpt lat="50.09628" lon="3.57615">
        <ele>134.48843383789</ele>
        <time>2014-04-13T07:12:19.000Z</time>
      </trkpt>
      <trkpt lat="50.09635" lon="3.57628">
        <ele>134.20878601074</ele>
        <time>2014-04-13T07:12:21.000Z</time>
      </trkpt>
      <trkpt lat="50.09645" lon="3.57645">
        <ele>133.80278015137</ele>
        <time>2014-04-13T07:12:24.000Z</time>
      </trkpt>
      <trkpt lat="50.0965" lon="3.57654">
        <ele>133.49597167969</ele>
        <time>2014-04-13T07:12:26.000Z</time>
      </trkpt>
      <trkpt lat="50.0966" lon="3.57673">
        <ele>133.41018676758</ele>
        <time>2014-04-13T07:12:29.000Z</time>
      </trkpt>
      <trkpt lat="50.09667" lon="3.57684">
        <ele>133.30798339844</ele>
        <time>2014-04-13T07:12:31.000Z</time>
      </trkpt>
      <trkpt lat="50.09675" lon="3.57698">
        <ele>133.19445800781</ele>
        <time>2014-04-13T07:12:34.000Z</time>
      </trkpt>
      <trkpt lat="50.09683" lon="3.57712">
        <ele>132.90759277344</ele>
        <time>2014-04-13T07:12:37.000Z</time>
      </trkpt>
      <trkpt lat="50.09692" lon="3.57728">
        <ele>132.93794250488</ele>
        <time>2014-04-13T07:12:40.000Z</time>
      </trkpt>
      <trkpt lat="50.09699" lon="3.5774">
        <ele>133.0005645752</ele>
        <time>2014-04-13T07:12:42.000Z</time>
      </trkpt>
      <trkpt lat="50.09711" lon="3.57759">
        <ele>132.9439239502</ele>
        <time>2014-04-13T07:12:45.000Z</time>
      </trkpt>
      <trkpt lat="50.09719" lon="3.57773">
        <ele>132.84927368164</ele>
        <time>2014-04-13T07:12:47.000Z</time>
      </trkpt>
      <trkpt lat="50.09731" lon="3.57792">
        <ele>132.50341796875</ele>
        <time>2014-04-13T07:12:50.000Z</time>
      </trkpt>
      <trkpt lat="50.09743" lon="3.57813">
        <ele>131.88021850586</ele>
        <time>2014-04-13T07:12:53.000Z</time>
      </trkpt>
      <trkpt lat="50.09751" lon="3.57826">
        <ele>131.19421386719</ele>
        <time>2014-04-13T07:12:56.000Z</time>
      </trkpt>
      <trkpt lat="50.0976" lon="3.57846">
        <ele>130.62609863281</ele>
        <time>2014-04-13T07:13:00.000Z</time>
      </trkpt>
      <trkpt lat="50.09757" lon="3.57817">
        <ele>130.27749633789</ele>
        <time>2014-04-13T07:13:03.000Z</time>
      </trkpt>
      <trkpt lat="50.09763" lon="3.57807">
        <ele>130.58723449707</ele>
        <time>2014-04-13T07:13:06.000Z</time>
      </trkpt>
      <trkpt lat="50.09771" lon="3.57794">
        <ele>131.08711242676</ele>
        <time>2014-04-13T07:13:09.000Z</time>
      </trkpt>
      <trkpt lat="50.0978" lon="3.57781">
        <ele>131.73469543457</ele>
        <time>2014-04-13T07:13:12.000Z</time>
      </trkpt>
      <trkpt lat="50.09785" lon="3.57773">
        <ele>132.47636413574</ele>
        <time>2014-04-13T07:13:14.000Z</time>
      </trkpt>
      <trkpt lat="50.0979" lon="3.57765">
        <ele>133.19458007812</ele>
        <time>2014-04-13T07:13:16.000Z</time>
      </trkpt>
      <trkpt lat="50.09798" lon="3.57754">
        <ele>133.64595031738</ele>
        <time>2014-04-13T07:13:19.000Z</time>
      </trkpt>
      <trkpt lat="50.09806" lon="3.57744">
        <ele>134.37434387207</ele>
        <time>2014-04-13T07:13:22.000Z</time>
      </trkpt>
      <trkpt lat="50.09811" lon="3.57736">
        <ele>135.14865112305</ele>
        <time>2014-04-13T07:13:25.000Z</time>
      </trkpt>
      <trkpt lat="50.09821" lon="3.57738">
        <ele>135.55073547363</ele>
        <time>2014-04-13T07:13:28.000Z</time>
      </trkpt>
      <trkpt lat="50.09825" lon="3.57734">
        <ele>135.93632507324</ele>
        <time>2014-04-13T07:13:30.000Z</time>
      </trkpt>
      <trkpt lat="50.0983" lon="3.57725">
        <ele>136.2642364502</ele>
        <time>2014-04-13T07:13:33.000Z</time>
      </trkpt>
      <trkpt lat="50.09835" lon="3.57719">
        <ele>136.27165222168</ele>
        <time>2014-04-13T07:13:35.000Z</time>
      </trkpt>
      <trkpt lat="50.09842" lon="3.5771">
        <ele>136.2123260498</ele>
        <time>2014-04-13T07:13:38.000Z</time>
      </trkpt>
      <trkpt lat="50.09846" lon="3.57705">
        <ele>136.33467102051</ele>
        <time>2014-04-13T07:13:40.000Z</time>
      </trkpt>
      <trkpt lat="50.09851" lon="3.57698">
        <ele>136.55290222168</ele>
        <time>2014-04-13T07:13:43.000Z</time>
      </trkpt>
      <trkpt lat="50.09854" lon="3.57694">
        <ele>136.80709838867</ele>
        <time>2014-04-13T07:13:45.000Z</time>
      </trkpt>
      <trkpt lat="50.09856" lon="3.5769">
        <ele>137.05940246582</ele>
        <time>2014-04-13T07:13:47.000Z</time>
      </trkpt>
      <trkpt lat="50.09858" lon="3.57688">
        <ele>137.26733398438</ele>
        <time>2014-04-13T07:13:49.000Z</time>
      </trkpt>
      <trkpt lat="50.09863" lon="3.57683">
        <ele>137.45307922363</ele>
        <time>2014-04-13T07:13:52.000Z</time>
      </trkpt>
      <trkpt lat="50.09868" lon="3.57676">
        <ele>137.51008605957</ele>
        <time>2014-04-13T07:13:54.000Z</time>
      </trkpt>
      <trkpt lat="50.09877" lon="3.57662">
        <ele>137.61129760742</ele>
        <time>2014-04-13T07:13:57.000Z</time>
      </trkpt>
      <trkpt lat="50.09882" lon="3.57655">
        <ele>137.86087036133</ele>
        <time>2014-04-13T07:13:59.000Z</time>
      </trkpt>
      <trkpt lat="50.09889" lon="3.57644">
        <ele>138.18374633789</ele>
        <time>2014-04-13T07:14:02.000Z</time>
      </trkpt>
      <trkpt lat="50.09895" lon="3.57635">
        <ele>138.46199035645</ele>
        <time>2014-04-13T07:14:05.000Z</time>
      </trkpt>
      <trkpt lat="50.09901" lon="3.57626">
        <ele>138.45182800293</ele>
        <time>2014-04-13T07:14:08.000Z</time>
      </trkpt>
      <trkpt lat="50.09903" lon="3.57623">
        <ele>138.39807128906</ele>
        <time>2014-04-13T07:14:10.000Z</time>
      </trkpt>
      <trkpt lat="50.09906" lon="3.57618">
        <ele>137.9937286377</ele>
        <time>2014-04-13T07:14:12.000Z</time>
      </trkpt>
      <trkpt lat="50.0991" lon="3.5761">
        <ele>137.47262573242</ele>
        <time>2014-04-13T07:14:15.000Z</time>
      </trkpt>
      <trkpt lat="50.09915" lon="3.57601">
        <ele>136.96098327637</ele>
        <time>2014-04-13T07:14:18.000Z</time>
      </trkpt>
      <trkpt lat="50.09917" lon="3.57586">
        <ele>136.56059265137</ele>
        <time>2014-04-13T07:14:21.000Z</time>
      </trkpt>
      <trkpt lat="50.09919" lon="3.57584">
        <ele>136.05172729492</ele>
        <time>2014-04-13T07:14:23.000Z</time>
      </trkpt>
      <trkpt lat="50.0994" lon="3.57558">
        <ele>135.6376953125</ele>
        <time>2014-04-13T07:14:31.000Z</time>
      </trkpt>
      <trkpt lat="50.09944" lon="3.57552">
        <ele>135.15994262695</ele>
        <time>2014-04-13T07:14:33.000Z</time>
      </trkpt>
      <trkpt lat="50.0995" lon="3.57541">
        <ele>134.91938781738</ele>
        <time>2014-04-13T07:14:36.000Z</time>
      </trkpt>
      <trkpt lat="50.09959" lon="3.57529">
        <ele>134.74934387207</ele>
        <time>2014-04-13T07:14:39.000Z</time>
      </trkpt>
      <trkpt lat="50.09966" lon="3.5752">
        <ele>134.66011047363</ele>
        <time>2014-04-13T07:14:41.000Z</time>
      </trkpt>
      <trkpt lat="50.09977" lon="3.57507">
        <ele>134.32336425781</ele>
        <time>2014-04-13T07:14:44.000Z</time>
      </trkpt>
      <trkpt lat="50.09984" lon="3.57497">
        <ele>134.12646484375</ele>
        <time>2014-04-13T07:14:46.000Z</time>
      </trkpt>
      <trkpt lat="50.09992" lon="3.57486">
        <ele>133.71719360352</ele>
        <time>2014-04-13T07:14:48.000Z</time>
      </trkpt>
      <trkpt lat="50.10004" lon="3.57469">
        <ele>133.30354309082</ele>
        <time>2014-04-13T07:14:51.000Z</time>
      </trkpt>
      <trkpt lat="50.10014" lon="3.57456">
        <ele>132.99702453613</ele>
        <time>2014-04-13T07:14:53.000Z</time>
      </trkpt>
      <trkpt lat="50.10028" lon="3.57436">
        <ele>132.81596374512</ele>
        <time>2014-04-13T07:14:56.000Z</time>
      </trkpt>
      <trkpt lat="50.10038" lon="3.57425">
        <ele>132.47277832031</ele>
        <time>2014-04-13T07:14:58.000Z</time>
      </trkpt>
      <trkpt lat="50.1005" lon="3.57414">
        <ele>131.86392211914</ele>
        <time>2014-04-13T07:15:00.000Z</time>
      </trkpt>
      <trkpt lat="50.10068" lon="3.57402">
        <ele>131.31420898438</ele>
        <time>2014-04-13T07:15:03.000Z</time>
      </trkpt>
      <trkpt lat="50.10085" lon="3.5739">
        <ele>130.66047668457</ele>
        <time>2014-04-13T07:15:06.000Z</time>
      </trkpt>
      <trkpt lat="50.10101" lon="3.57378">
        <ele>130.05740356445</ele>
        <time>2014-04-13T07:15:09.000Z</time>
      </trkpt>
      <trkpt lat="50.10111" lon="3.57371">
        <ele>129.70193481445</ele>
        <time>2014-04-13T07:15:11.000Z</time>
      </trkpt>
      <trkpt lat="50.10126" lon="3.57361">
        <ele>129.54699707031</ele>
        <time>2014-04-13T07:15:14.000Z</time>
      </trkpt>
      <trkpt lat="50.10141" lon="3.57351">
        <ele>129.06127929688</ele>
        <time>2014-04-13T07:15:17.000Z</time>
      </trkpt>
      <trkpt lat="50.10154" lon="3.57341">
        <ele>128.58915710449</ele>
        <time>2014-04-13T07:15:20.000Z</time>
      </trkpt>
      <trkpt lat="50.10167" lon="3.57326">
        <ele>128.43344116211</ele>
        <time>2014-04-13T07:15:23.000Z</time>
      </trkpt>
      <trkpt lat="50.10173" lon="3.57314">
        <ele>127.90818023682</ele>
        <time>2014-04-13T07:15:25.000Z</time>
      </trkpt>
      <trkpt lat="50.10181" lon="3.57301">
        <ele>127.2967300415</ele>
        <time>2014-04-13T07:15:28.000Z</time>
      </trkpt>
      <trkpt lat="50.10185" lon="3.573">
        <ele>127.1595916748</ele>
        <time>2014-04-13T07:15:30.000Z</time>
      </trkpt>
      <trkpt lat="50.10188" lon="3.57312">
        <ele>127.00730133057</ele>
        <time>2014-04-13T07:15:33.000Z</time>
      </trkpt>
      <trkpt lat="50.10186" lon="3.57324">
        <ele>126.72001647949</ele>
        <time>2014-04-13T07:15:35.000Z</time>
      </trkpt>
      <trkpt lat="50.10184" lon="3.57344">
        <ele>126.82051086426</ele>
        <time>2014-04-13T07:15:38.000Z</time>
      </trkpt>
      <trkpt lat="50.10182" lon="3.5737">
        <ele>127.39794921875</ele>
        <time>2014-04-13T07:15:41.000Z</time>
      </trkpt>
      <trkpt lat="50.1018" lon="3.57388">
        <ele>128.10498046875</ele>
        <time>2014-04-13T07:15:43.000Z</time>
      </trkpt>
      <trkpt lat="50.10176" lon="3.57417">
        <ele>128.38638305664</ele>
        <time>2014-04-13T07:15:46.000Z</time>
      </trkpt>
      <trkpt lat="50.10165" lon="3.57435">
        <ele>128.3011932373</ele>
        <time>2014-04-13T07:15:48.000Z</time>
      </trkpt>
      <trkpt lat="50.10163" lon="3.57453">
        <ele>128.294921875</ele>
        <time>2014-04-13T07:15:50.000Z</time>
      </trkpt>
      <trkpt lat="50.1016" lon="3.57476">
        <ele>127.81703948975</ele>
        <time>2014-04-13T07:15:53.000Z</time>
      </trkpt>
      <trkpt lat="50.10158" lon="3.57493">
        <ele>127.14426422119</ele>
        <time>2014-04-13T07:15:55.000Z</time>
      </trkpt>
      <trkpt lat="50.10154" lon="3.57518">
        <ele>126.48732757568</ele>
        <time>2014-04-13T07:15:58.000Z</time>
      </trkpt>
      <trkpt lat="50.10151" lon="3.57542">
        <ele>126.45104980469</ele>
        <time>2014-04-13T07:16:01.000Z</time>
      </trkpt>
      <trkpt lat="50.10147" lon="3.57567">
        <ele>126.49072265625</ele>
        <time>2014-04-13T07:16:04.000Z</time>
      </trkpt>
      <trkpt lat="50.10144" lon="3.57592">
        <ele>127.59841156006</ele>
        <time>2014-04-13T07:16:07.000Z</time>
      </trkpt>
      <trkpt lat="50.10141" lon="3.5762">
        <ele>127.12368011475</ele>
        <time>2014-04-13T07:16:10.000Z</time>
      </trkpt>
      <trkpt lat="50.10139" lon="3.57634">
        <ele>127.72509765625</ele>
        <time>2014-04-13T07:16:12.000Z</time>
      </trkpt>
      <trkpt lat="50.10139" lon="3.57661">
        <ele>127.70361328125</ele>
        <time>2014-04-13T07:16:15.000Z</time>
      </trkpt>
      <trkpt lat="50.10141" lon="3.57685">
        <ele>126.55007171631</ele>
        <time>2014-04-13T07:16:18.000Z</time>
      </trkpt>
      <trkpt lat="50.10145" lon="3.5771">
        <ele>124.36413574219</ele>
        <time>2014-04-13T07:16:21.000Z</time>
      </trkpt>
      <trkpt lat="50.10151" lon="3.57726">
        <ele>123.53232574463</ele>
        <time>2014-04-13T07:16:23.000Z</time>
      </trkpt>
      <trkpt lat="50.10159" lon="3.57746">
        <ele>121.85263824463</ele>
        <time>2014-04-13T07:16:25.000Z</time>
      </trkpt>
      <trkpt lat="50.10167" lon="3.57766">
        <ele>119.96640777588</ele>
        <time>2014-04-13T07:16:27.000Z</time>
      </trkpt>
      <trkpt lat="50.1018" lon="3.57798">
        <ele>118.8203125</ele>
        <time>2014-04-13T07:16:30.000Z</time>
      </trkpt>
      <trkpt lat="50.10189" lon="3.57821">
        <ele>117.74723815918</ele>
        <time>2014-04-13T07:16:32.000Z</time>
      </trkpt>
      <trkpt lat="50.10202" lon="3.57852">
        <ele>116.93481445312</ele>
        <time>2014-04-13T07:16:35.000Z</time>
      </trkpt>
      <trkpt lat="50.1021" lon="3.57874">
        <ele>116.03000640869</ele>
        <time>2014-04-13T07:16:37.000Z</time>
      </trkpt>
      <trkpt lat="50.10221" lon="3.579">
        <ele>115.69184875488</ele>
        <time>2014-04-13T07:16:40.000Z</time>
      </trkpt>
      <trkpt lat="50.10223" lon="3.57908">
        <ele>115.38718414307</ele>
        <time>2014-04-13T07:16:42.000Z</time>
      </trkpt>
      <trkpt lat="50.10224" lon="3.57912">
        <ele>115.09587097168</ele>
        <time>2014-04-13T07:16:44.000Z</time>
      </trkpt>
      <trkpt lat="50.1022" lon="3.57949">
        <ele>114.59558105469</ele>
        <time>2014-04-13T07:16:48.000Z</time>
      </trkpt>
      <trkpt lat="50.10217" lon="3.57966">
        <ele>114.40309906006</ele>
        <time>2014-04-13T07:16:51.000Z</time>
      </trkpt>
      <trkpt lat="50.10213" lon="3.57978">
        <ele>115.03877258301</ele>
        <time>2014-04-13T07:16:54.000Z</time>
      </trkpt>
      <trkpt lat="50.10204" lon="3.58002">
        <ele>114.93264007568</ele>
        <time>2014-04-13T07:16:57.000Z</time>
      </trkpt>
      <trkpt lat="50.10203" lon="3.58007">
        <ele>113.6142578125</ele>
        <time>2014-04-13T07:17:00.000Z</time>
      </trkpt>
      <trkpt lat="50.10201" lon="3.58015">
        <ele>112.43251800537</ele>
        <time>2014-04-13T07:17:03.000Z</time>
      </trkpt>
      <trkpt lat="50.10202" lon="3.58011">
        <ele>111.24377441406</ele>
        <time>2014-04-13T07:17:05.000Z</time>
      </trkpt>
      <trkpt lat="50.10202" lon="3.58011">
        <ele>111.24377441406</ele>
        <time>2014-04-13T07:17:15.000Z</time>
      </trkpt>
      <trkpt lat="50.10204" lon="3.58006">
        <ele>109.7693862915</ele>
        <time>2014-04-13T07:17:25.000Z</time>
      </trkpt>
      <trkpt lat="50.10203" lon="3.58005">
        <ele>108.94087219238</ele>
        <time>2014-04-13T07:17:28.000Z</time>
      </trkpt>
      <trkpt lat="50.10203" lon="3.58005">
        <ele>108.94087219238</ele>
        <time>2014-04-13T07:17:38.000Z</time>
      </trkpt>
      <trkpt lat="50.10203" lon="3.58011">
        <ele>109.80141448975</ele>
        <time>2014-04-13T07:17:49.000Z</time>
      </trkpt>
      <trkpt lat="50.10203" lon="3.58005">
        <ele>110.90571594238</ele>
        <time>2014-04-13T07:17:51.000Z</time>
      </trkpt>
      <trkpt lat="50.10203" lon="3.58005">
        <ele>110.90571594238</ele>
        <time>2014-04-13T07:18:01.000Z</time>
      </trkpt>
      <trkpt lat="50.10205" lon="3.58004">
        <ele>111.68896484375</ele>
        <time>2014-04-13T07:18:35.000Z</time>
      </trkpt>
      <trkpt lat="50.10203" lon="3.58006">
        <ele>111.44548034668</ele>
        <time>2014-04-13T07:18:37.000Z</time>
      </trkpt>
      <trkpt lat="50.10199" lon="3.58021">
        <ele>111.17358398438</ele>
        <time>2014-04-13T07:18:40.000Z</time>
      </trkpt>
      <trkpt lat="50.10198" lon="3.58035">
        <ele>110.67665863037</ele>
        <time>2014-04-13T07:18:42.000Z</time>
      </trkpt>
      <trkpt lat="50.10197" lon="3.58048">
        <ele>110.41660308838</ele>
        <time>2014-04-13T07:18:44.000Z</time>
      </trkpt>
      <trkpt lat="50.10197" lon="3.58065">
        <ele>110.413230896</ele>
        <time>2014-04-13T07:18:47.000Z</time>
      </trkpt>
      <trkpt lat="50.10198" lon="3.5808">
        <ele>110.49824523926</ele>
        <time>2014-04-13T07:18:50.000Z</time>
      </trkpt>
      <trkpt lat="50.10199" lon="3.58095">
        <ele>110.64250183105</ele>
        <time>2014-04-13T07:18:53.000Z</time>
      </trkpt>
      <trkpt lat="50.102" lon="3.58114">
        <ele>110.63716125488</ele>
        <time>2014-04-13T07:18:56.000Z</time>
      </trkpt>
      <trkpt lat="50.10201" lon="3.58121">
        <ele>110.26139831543</ele>
        <time>2014-04-13T07:18:58.000Z</time>
      </trkpt>
      <trkpt lat="50.10202" lon="3.58136">
        <ele>109.9412612915</ele>
        <time>2014-04-13T07:19:01.000Z</time>
      </trkpt>
      <trkpt lat="50.10202" lon="3.58151">
        <ele>109.98564147949</ele>
        <time>2014-04-13T07:19:04.000Z</time>
      </trkpt>
      <trkpt lat="50.10202" lon="3.58167">
        <ele>109.99160003662</ele>
        <time>2014-04-13T07:19:07.000Z</time>
      </trkpt>
      <trkpt lat="50.10202" lon="3.58183">
        <ele>110.3050994873</ele>
        <time>2014-04-13T07:19:10.000Z</time>
      </trkpt>
      <trkpt lat="50.10202" lon="3.58197">
        <ele>110.3558807373</ele>
        <time>2014-04-13T07:19:12.000Z</time>
      </trkpt>
      <trkpt lat="50.10201" lon="3.5821">
        <ele>110.94651031494</ele>
        <time>2014-04-13T07:19:15.000Z</time>
      </trkpt>
      <trkpt lat="50.10199" lon="3.58221">
        <ele>111.84745788574</ele>
        <time>2014-04-13T07:19:17.000Z</time>
      </trkpt>
      <trkpt lat="50.10197" lon="3.5824">
        <ele>113.6490020752</ele>
        <time>2014-04-13T07:19:20.000Z</time>
      </trkpt>
      <trkpt lat="50.10195" lon="3.58257">
        <ele>115.53788757324</ele>
        <time>2014-04-13T07:19:23.000Z</time>
      </trkpt>
      <trkpt lat="50.10192" lon="3.58276">
        <ele>117.84792327881</ele>
        <time>2014-04-13T07:19:26.000Z</time>
      </trkpt>
      <trkpt lat="50.10191" lon="3.58287">
        <ele>119.83471679688</ele>
        <time>2014-04-13T07:19:28.000Z</time>
      </trkpt>
      <trkpt lat="50.10188" lon="3.58305">
        <ele>121.54296875</ele>
        <time>2014-04-13T07:19:31.000Z</time>
      </trkpt>
      <trkpt lat="50.10184" lon="3.58322">
        <ele>122.58198547363</ele>
        <time>2014-04-13T07:19:34.000Z</time>
      </trkpt>
      <trkpt lat="50.10181" lon="3.5834">
        <ele>123.01135253906</ele>
        <time>2014-04-13T07:19:37.000Z</time>
      </trkpt>
      <trkpt lat="50.10179" lon="3.58352">
        <ele>123.05940246582</ele>
        <time>2014-04-13T07:19:39.000Z</time>
      </trkpt>
      <trkpt lat="50.10177" lon="3.58364">
        <ele>123.01679992676</ele>
        <time>2014-04-13T07:19:41.000Z</time>
      </trkpt>
      <trkpt lat="50.10175" lon="3.58375">
        <ele>123.1499786377</ele>
        <time>2014-04-13T07:19:43.000Z</time>
      </trkpt>
      <trkpt lat="50.10173" lon="3.58387">
        <ele>122.89316558838</ele>
        <time>2014-04-13T07:19:45.000Z</time>
      </trkpt>
      <trkpt lat="50.1017" lon="3.58404">
        <ele>123.18479156494</ele>
        <time>2014-04-13T07:19:48.000Z</time>
      </trkpt>
      <trkpt lat="50.10167" lon="3.58418">
        <ele>123.44882965088</ele>
        <time>2014-04-13T07:19:51.000Z</time>
      </trkpt>
      <trkpt lat="50.10168" lon="3.58418">
        <ele>123.90256500244</ele>
        <time>2014-04-13T07:19:54.000Z</time>
      </trkpt>
      <trkpt lat="50.10194" lon="3.58409">
        <ele>124.41208648682</ele>
        <time>2014-04-13T07:19:59.000Z</time>
      </trkpt>
      <trkpt lat="50.10201" lon="3.58407">
        <ele>125.05107116699</ele>
        <time>2014-04-13T07:20:01.000Z</time>
      </trkpt>
      <trkpt lat="50.10211" lon="3.58404">
        <ele>125.072265625</ele>
        <time>2014-04-13T07:20:04.000Z</time>
      </trkpt>
      <trkpt lat="50.1022" lon="3.58401">
        <ele>125.28000640869</ele>
        <time>2014-04-13T07:20:07.000Z</time>
      </trkpt>
      <trkpt lat="50.1023" lon="3.58398">
        <ele>125.18664550781</ele>
        <time>2014-04-13T07:20:10.000Z</time>
      </trkpt>
      <trkpt lat="50.10238" lon="3.58395">
        <ele>125.28964996338</ele>
        <time>2014-04-13T07:20:12.000Z</time>
      </trkpt>
      <trkpt lat="50.10244" lon="3.58393">
        <ele>125.77470397949</ele>
        <time>2014-04-13T07:20:14.000Z</time>
      </trkpt>
      <trkpt lat="50.10254" lon="3.5839">
        <ele>126.96211242676</ele>
        <time>2014-04-13T07:20:17.000Z</time>
      </trkpt>
      <trkpt lat="50.1026" lon="3.58388">
        <ele>127.89990234375</ele>
        <time>2014-04-13T07:20:19.000Z</time>
      </trkpt>
      <trkpt lat="50.10271" lon="3.58385">
        <ele>129.11589050293</ele>
        <time>2014-04-13T07:20:22.000Z</time>
      </trkpt>
      <trkpt lat="50.10278" lon="3.58383">
        <ele>130.01379394531</ele>
        <time>2014-04-13T07:20:24.000Z</time>
      </trkpt>
      <trkpt lat="50.1029" lon="3.58379">
        <ele>131.04507446289</ele>
        <time>2014-04-13T07:20:27.000Z</time>
      </trkpt>
      <trkpt lat="50.10297" lon="3.58376">
        <ele>131.40298461914</ele>
        <time>2014-04-13T07:20:29.000Z</time>
      </trkpt>
      <trkpt lat="50.10306" lon="3.58374">
        <ele>131.71789550781</ele>
        <time>2014-04-13T07:20:31.000Z</time>
      </trkpt>
      <trkpt lat="50.10318" lon="3.5837">
        <ele>131.44653320312</ele>
        <time>2014-04-13T07:20:34.000Z</time>
      </trkpt>
      <trkpt lat="50.10331" lon="3.58366">
        <ele>130.9338684082</ele>
        <time>2014-04-13T07:20:37.000Z</time>
      </trkpt>
      <trkpt lat="50.10338" lon="3.58363">
        <ele>129.9800567627</ele>
        <time>2014-04-13T07:20:39.000Z</time>
      </trkpt>
      <trkpt lat="50.10346" lon="3.58361">
        <ele>129.22970581055</ele>
        <time>2014-04-13T07:20:41.000Z</time>
      </trkpt>
      <trkpt lat="50.10354" lon="3.58358">
        <ele>128.93246459961</ele>
        <time>2014-04-13T07:20:43.000Z</time>
      </trkpt>
      <trkpt lat="50.10365" lon="3.58355">
        <ele>128.80490112305</ele>
        <time>2014-04-13T07:20:46.000Z</time>
      </trkpt>
      <trkpt lat="50.10375" lon="3.58352">
        <ele>128.80297851562</ele>
        <time>2014-04-13T07:20:49.000Z</time>
      </trkpt>
      <trkpt lat="50.10382" lon="3.58349">
        <ele>129.08181762695</ele>
        <time>2014-04-13T07:20:51.000Z</time>
      </trkpt>
      <trkpt lat="50.10394" lon="3.58346">
        <ele>129.07992553711</ele>
        <time>2014-04-13T07:20:54.000Z</time>
      </trkpt>
      <trkpt lat="50.10405" lon="3.58342">
        <ele>128.7551574707</ele>
        <time>2014-04-13T07:20:57.000Z</time>
      </trkpt>
      <trkpt lat="50.10415" lon="3.58339">
        <ele>128.84028625488</ele>
        <time>2014-04-13T07:21:00.000Z</time>
      </trkpt>
      <trkpt lat="50.10426" lon="3.58336">
        <ele>129.26188659668</ele>
        <time>2014-04-13T07:21:03.000Z</time>
      </trkpt>
      <trkpt lat="50.10437" lon="3.58333">
        <ele>129.14065551758</ele>
        <time>2014-04-13T07:21:06.000Z</time>
      </trkpt>
      <trkpt lat="50.10443" lon="3.58331">
        <ele>129.22001647949</ele>
        <time>2014-04-13T07:21:08.000Z</time>
      </trkpt>
      <trkpt lat="50.10451" lon="3.58329">
        <ele>128.98376464844</ele>
        <time>2014-04-13T07:21:10.000Z</time>
      </trkpt>
      <trkpt lat="50.10463" lon="3.58325">
        <ele>128.48030090332</ele>
        <time>2014-04-13T07:21:13.000Z</time>
      </trkpt>
      <trkpt lat="50.1047" lon="3.58323">
        <ele>127.52449035645</ele>
        <time>2014-04-13T07:21:15.000Z</time>
      </trkpt>
      <trkpt lat="50.10482" lon="3.5832">
        <ele>127.01222991943</ele>
        <time>2014-04-13T07:21:18.000Z</time>
      </trkpt>
      <trkpt lat="50.10489" lon="3.58318">
        <ele>126.58251953125</ele>
        <time>2014-04-13T07:21:20.000Z</time>
      </trkpt>
      <trkpt lat="50.10496" lon="3.58316">
        <ele>126.51737976074</ele>
        <time>2014-04-13T07:21:22.000Z</time>
      </trkpt>
      <trkpt lat="50.10503" lon="3.58314">
        <ele>126.80239105225</ele>
        <time>2014-04-13T07:21:25.000Z</time>
      </trkpt>
      <trkpt lat="50.10503" lon="3.58337">
        <ele>127.42834472656</ele>
        <time>2014-04-13T07:21:28.000Z</time>
      </trkpt>
      <trkpt lat="50.10502" lon="3.58355">
        <ele>128.08212280273</ele>
        <time>2014-04-13T07:21:31.000Z</time>
      </trkpt>
      <trkpt lat="50.10501" lon="3.58368">
        <ele>128.5601348877</ele>
        <time>2014-04-13T07:21:33.000Z</time>
      </trkpt>
      <trkpt lat="50.10502" lon="3.58386">
        <ele>129.38642883301</ele>
        <time>2014-04-13T07:21:36.000Z</time>
      </trkpt>
      <trkpt lat="50.10502" lon="3.58403">
        <ele>129.61694335938</ele>
        <time>2014-04-13T07:21:39.000Z</time>
      </trkpt>
      <trkpt lat="50.10503" lon="3.58415">
        <ele>129.78707885742</ele>
        <time>2014-04-13T07:21:41.000Z</time>
      </trkpt>
      <trkpt lat="50.10503" lon="3.58428">
        <ele>130.05456542969</ele>
        <time>2014-04-13T07:21:43.000Z</time>
      </trkpt>
      <trkpt lat="50.10505" lon="3.58439">
        <ele>131.0009765625</ele>
        <time>2014-04-13T07:21:45.000Z</time>
      </trkpt>
      <trkpt lat="50.10505" lon="3.58451">
        <ele>131.41946411133</ele>
        <time>2014-04-13T07:21:47.000Z</time>
      </trkpt>
      <trkpt lat="50.10505" lon="3.58467">
        <ele>132.04756164551</ele>
        <time>2014-04-13T07:21:50.000Z</time>
      </trkpt>
      <trkpt lat="50.10508" lon="3.58482">
        <ele>132.1711730957</ele>
        <time>2014-04-13T07:21:53.000Z</time>
      </trkpt>
      <trkpt lat="50.10509" lon="3.58497">
        <ele>132.33415222168</ele>
        <time>2014-04-13T07:21:56.000Z</time>
      </trkpt>
      <trkpt lat="50.10511" lon="3.58506">
        <ele>131.97793579102</ele>
        <time>2014-04-13T07:21:58.000Z</time>
      </trkpt>
      <trkpt lat="50.10512" lon="3.58522">
        <ele>131.97286987305</ele>
        <time>2014-04-13T07:22:01.000Z</time>
      </trkpt>
      <trkpt lat="50.10513" lon="3.58537">
        <ele>133.16464233398</ele>
        <time>2014-04-13T07:22:04.000Z</time>
      </trkpt>
      <trkpt lat="50.10518" lon="3.5855">
        <ele>135.30937194824</ele>
        <time>2014-04-13T07:22:07.000Z</time>
      </trkpt>
      <trkpt lat="50.10521" lon="3.58564">
        <ele>136.83435058594</ele>
        <time>2014-04-13T07:22:10.000Z</time>
      </trkpt>
      <trkpt lat="50.10523" lon="3.58578">
        <ele>138.32339477539</ele>
        <time>2014-04-13T07:22:13.000Z</time>
      </trkpt>
      <trkpt lat="50.10524" lon="3.58587">
        <ele>139.67086791992</ele>
        <time>2014-04-13T07:22:15.000Z</time>
      </trkpt>
      <trkpt lat="50.10524" lon="3.58596">
        <ele>139.99584960938</ele>
        <time>2014-04-13T07:22:17.000Z</time>
      </trkpt>
      <trkpt lat="50.10526" lon="3.58609">
        <ele>139.75491333008</ele>
        <time>2014-04-13T07:22:20.000Z</time>
      </trkpt>
      <trkpt lat="50.10525" lon="3.58622">
        <ele>139.45901489258</ele>
        <time>2014-04-13T07:22:23.000Z</time>
      </trkpt>
      <trkpt lat="50.10525" lon="3.58635">
        <ele>139.24868774414</ele>
        <time>2014-04-13T07:22:26.000Z</time>
      </trkpt>
      <trkpt lat="50.10525" lon="3.58644">
        <ele>137.85678100586</ele>
        <time>2014-04-13T07:22:28.000Z</time>
      </trkpt>
      <trkpt lat="50.10525" lon="3.58658">
        <ele>136.57431030273</ele>
        <time>2014-04-13T07:22:31.000Z</time>
      </trkpt>
      <trkpt lat="50.10526" lon="3.58666">
        <ele>135.34065246582</ele>
        <time>2014-04-13T07:22:33.000Z</time>
      </trkpt>
      <trkpt lat="50.10528" lon="3.58675">
        <ele>134.85334777832</ele>
        <time>2014-04-13T07:22:35.000Z</time>
      </trkpt>
      <trkpt lat="50.10531" lon="3.58687">
        <ele>134.60005187988</ele>
        <time>2014-04-13T07:22:38.000Z</time>
      </trkpt>
      <trkpt lat="50.10534" lon="3.587">
        <ele>136.02221679688</ele>
        <time>2014-04-13T07:22:41.000Z</time>
      </trkpt>
      <trkpt lat="50.10536" lon="3.58708">
        <ele>137.6393737793</ele>
        <time>2014-04-13T07:22:43.000Z</time>
      </trkpt>
      <trkpt lat="50.10538" lon="3.58717">
        <ele>139.33418273926</ele>
        <time>2014-04-13T07:22:45.000Z</time>
      </trkpt>
      <trkpt lat="50.1054" lon="3.5873">
        <ele>141.00898742676</ele>
        <time>2014-04-13T07:22:48.000Z</time>
      </trkpt>
      <trkpt lat="50.10543" lon="3.58743">
        <ele>142.30795288086</ele>
        <time>2014-04-13T07:22:51.000Z</time>
      </trkpt>
      <trkpt lat="50.10545" lon="3.58752">
        <ele>143.19673156738</ele>
        <time>2014-04-13T07:22:53.000Z</time>
      </trkpt>
      <trkpt lat="50.10546" lon="3.58765">
        <ele>143.63542175293</ele>
        <time>2014-04-13T07:22:56.000Z</time>
      </trkpt>
      <trkpt lat="50.10547" lon="3.58793">
        <ele>144.15603637695</ele>
        <time>2014-04-13T07:22:59.000Z</time>
      </trkpt>
      <trkpt lat="50.10548" lon="3.58796">
        <ele>144.49844360352</ele>
        <time>2014-04-13T07:23:03.000Z</time>
      </trkpt>
      <trkpt lat="50.1055" lon="3.58808">
        <ele>144.80033874512</ele>
        <time>2014-04-13T07:23:06.000Z</time>
      </trkpt>
      <trkpt lat="50.10552" lon="3.58821">
        <ele>144.43794250488</ele>
        <time>2014-04-13T07:23:09.000Z</time>
      </trkpt>
      <trkpt lat="50.10554" lon="3.58832">
        <ele>144.17202758789</ele>
        <time>2014-04-13T07:23:12.000Z</time>
      </trkpt>
      <trkpt lat="50.10555" lon="3.58839">
        <ele>143.44094848633</ele>
        <time>2014-04-13T07:23:14.000Z</time>
      </trkpt>
      <trkpt lat="50.10556" lon="3.5885">
        <ele>142.18818664551</ele>
        <time>2014-04-13T07:23:17.000Z</time>
      </trkpt>
      <trkpt lat="50.10558" lon="3.58863">
        <ele>140.97428894043</ele>
        <time>2014-04-13T07:23:20.000Z</time>
      </trkpt>
      <trkpt lat="50.1056" lon="3.58874">
        <ele>140.47554016113</ele>
        <time>2014-04-13T07:23:23.000Z</time>
      </trkpt>
      <trkpt lat="50.10561" lon="3.58882">
        <ele>140.07620239258</ele>
        <time>2014-04-13T07:23:25.000Z</time>
      </trkpt>
      <trkpt lat="50.10563" lon="3.58893">
        <ele>139.33613586426</ele>
        <time>2014-04-13T07:23:28.000Z</time>
      </trkpt>
      <trkpt lat="50.10564" lon="3.589">
        <ele>139.53353881836</ele>
        <time>2014-04-13T07:23:30.000Z</time>
      </trkpt>
      <trkpt lat="50.10565" lon="3.58911">
        <ele>139.59579467773</ele>
        <time>2014-04-13T07:23:33.000Z</time>
      </trkpt>
      <trkpt lat="50.10566" lon="3.58923">
        <ele>139.35034179688</ele>
        <time>2014-04-13T07:23:36.000Z</time>
      </trkpt>
      <trkpt lat="50.10567" lon="3.58937">
        <ele>139.00131225586</ele>
        <time>2014-04-13T07:23:39.000Z</time>
      </trkpt>
      <trkpt lat="50.10569" lon="3.5895">
        <ele>139.41159057617</ele>
        <time>2014-04-13T07:23:42.000Z</time>
      </trkpt>
      <trkpt lat="50.1057" lon="3.58964">
        <ele>139.49523925781</ele>
        <time>2014-04-13T07:23:45.000Z</time>
      </trkpt>
      <trkpt lat="50.10571" lon="3.58973">
        <ele>139.91767883301</ele>
        <time>2014-04-13T07:23:47.000Z</time>
      </trkpt>
      <trkpt lat="50.10571" lon="3.58982">
        <ele>140.45230102539</ele>
        <time>2014-04-13T07:23:49.000Z</time>
      </trkpt>
      <trkpt lat="50.10572" lon="3.58996">
        <ele>140.93765258789</ele>
        <time>2014-04-13T07:23:52.000Z</time>
      </trkpt>
      <trkpt lat="50.10573" lon="3.59005">
        <ele>141.15881347656</ele>
        <time>2014-04-13T07:23:54.000Z</time>
      </trkpt>
      <trkpt lat="50.10574" lon="3.59014">
        <ele>141.1314239502</ele>
        <time>2014-04-13T07:23:56.000Z</time>
      </trkpt>
      <trkpt lat="50.10575" lon="3.59024">
        <ele>140.69779968262</ele>
        <time>2014-04-13T07:23:58.000Z</time>
      </trkpt>
      <trkpt lat="50.10576" lon="3.59039">
        <ele>140.85342407227</ele>
        <time>2014-04-13T07:24:01.000Z</time>
      </trkpt>
      <trkpt lat="50.10577" lon="3.59056">
        <ele>140.29968261719</ele>
        <time>2014-04-13T07:24:04.000Z</time>
      </trkpt>
      <trkpt lat="50.10579" lon="3.59072">
        <ele>140.17192077637</ele>
        <time>2014-04-13T07:24:07.000Z</time>
      </trkpt>
      <trkpt lat="50.1058" lon="3.59088">
        <ele>140.16271972656</ele>
        <time>2014-04-13T07:24:09.000Z</time>
      </trkpt>
      <trkpt lat="50.10583" lon="3.59106">
        <ele>140.3851776123</ele>
        <time>2014-04-13T07:24:12.000Z</time>
      </trkpt>
      <trkpt lat="50.1059" lon="3.59131">
        <ele>140.18588256836</ele>
        <time>2014-04-13T07:24:15.000Z</time>
      </trkpt>
      <trkpt lat="50.106" lon="3.59154">
        <ele>139.94551086426</ele>
        <time>2014-04-13T07:24:18.000Z</time>
      </trkpt>
      <trkpt lat="50.10605" lon="3.59175">
        <ele>139.05354309082</ele>
        <time>2014-04-13T07:24:21.000Z</time>
      </trkpt>
      <trkpt lat="50.10609" lon="3.59189">
        <ele>138.08264160156</ele>
        <time>2014-04-13T07:24:23.000Z</time>
      </trkpt>
      <trkpt lat="50.10614" lon="3.59209">
        <ele>137.41702270508</ele>
        <time>2014-04-13T07:24:26.000Z</time>
      </trkpt>
      <trkpt lat="50.1062" lon="3.59227">
        <ele>136.32470703125</ele>
        <time>2014-04-13T07:24:29.000Z</time>
      </trkpt>
      <trkpt lat="50.10623" lon="3.59244">
        <ele>136.01281738281</ele>
        <time>2014-04-13T07:24:32.000Z</time>
      </trkpt>
      <trkpt lat="50.10625" lon="3.59253">
        <ele>136.01681518555</ele>
        <time>2014-04-13T07:24:34.000Z</time>
      </trkpt>
      <trkpt lat="50.10629" lon="3.59267">
        <ele>136.11096191406</ele>
        <time>2014-04-13T07:24:37.000Z</time>
      </trkpt>
      <trkpt lat="50.10632" lon="3.59282">
        <ele>136.06436157227</ele>
        <time>2014-04-13T07:24:40.000Z</time>
      </trkpt>
      <trkpt lat="50.10633" lon="3.59294">
        <ele>135.89692687988</ele>
        <time>2014-04-13T07:24:42.000Z</time>
      </trkpt>
      <trkpt lat="50.10635" lon="3.59311">
        <ele>135.1286315918</ele>
        <time>2014-04-13T07:24:45.000Z</time>
      </trkpt>
      <trkpt lat="50.10639" lon="3.59328">
        <ele>134.61291503906</ele>
        <time>2014-04-13T07:24:48.000Z</time>
      </trkpt>
      <trkpt lat="50.10642" lon="3.59339">
        <ele>133.9984588623</ele>
        <time>2014-04-13T07:24:50.000Z</time>
      </trkpt>
      <trkpt lat="50.10645" lon="3.59357">
        <ele>133.490234375</ele>
        <time>2014-04-13T07:24:53.000Z</time>
      </trkpt>
      <trkpt lat="50.10646" lon="3.59369">
        <ele>133.84049987793</ele>
        <time>2014-04-13T07:24:55.000Z</time>
      </trkpt>
      <trkpt lat="50.10647" lon="3.5938">
        <ele>135.10054016113</ele>
        <time>2014-04-13T07:24:57.000Z</time>
      </trkpt>
      <trkpt lat="50.10646" lon="3.59391">
        <ele>136.03515625</ele>
        <time>2014-04-13T07:24:59.000Z</time>
      </trkpt>
      <trkpt lat="50.10647" lon="3.59408">
        <ele>137.53569030762</ele>
        <time>2014-04-13T07:25:02.000Z</time>
      </trkpt>
      <trkpt lat="50.10648" lon="3.59425">
        <ele>138.57014465332</ele>
        <time>2014-04-13T07:25:05.000Z</time>
      </trkpt>
      <trkpt lat="50.10651" lon="3.5944">
        <ele>139.02803039551</ele>
        <time>2014-04-13T07:25:08.000Z</time>
      </trkpt>
      <trkpt lat="50.10655" lon="3.59455">
        <ele>138.96394348145</ele>
        <time>2014-04-13T07:25:11.000Z</time>
      </trkpt>
      <trkpt lat="50.10658" lon="3.59465">
        <ele>138.92607116699</ele>
        <time>2014-04-13T07:25:13.000Z</time>
      </trkpt>
      <trkpt lat="50.10662" lon="3.59479">
        <ele>138.59956359863</ele>
        <time>2014-04-13T07:25:16.000Z</time>
      </trkpt>
      <trkpt lat="50.10666" lon="3.59488">
        <ele>139.03366088867</ele>
        <time>2014-04-13T07:25:18.000Z</time>
      </trkpt>
      <trkpt lat="50.10671" lon="3.59501">
        <ele>139.55062866211</ele>
        <time>2014-04-13T07:25:21.000Z</time>
      </trkpt>
      <trkpt lat="50.10675" lon="3.59514">
        <ele>140.42903137207</ele>
        <time>2014-04-13T07:25:24.000Z</time>
      </trkpt>
      <trkpt lat="50.10675" lon="3.59524">
        <ele>141.28799438477</ele>
        <time>2014-04-13T07:25:26.000Z</time>
      </trkpt>
      <trkpt lat="50.10675" lon="3.59534">
        <ele>141.78315734863</ele>
        <time>2014-04-13T07:25:28.000Z</time>
      </trkpt>
      <trkpt lat="50.10678" lon="3.59548">
        <ele>141.93989562988</ele>
        <time>2014-04-13T07:25:31.000Z</time>
      </trkpt>
      <trkpt lat="50.10681" lon="3.59557">
        <ele>142.63354492188</ele>
        <time>2014-04-13T07:25:33.000Z</time>
      </trkpt>
      <trkpt lat="50.10685" lon="3.59573">
        <ele>143.32113647461</ele>
        <time>2014-04-13T07:25:36.000Z</time>
      </trkpt>
      <trkpt lat="50.10686" lon="3.59583">
        <ele>144.34101867676</ele>
        <time>2014-04-13T07:25:38.000Z</time>
      </trkpt>
      <trkpt lat="50.10689" lon="3.59594">
        <ele>145.73300170898</ele>
        <time>2014-04-13T07:25:40.000Z</time>
      </trkpt>
      <trkpt lat="50.10692" lon="3.59604">
        <ele>147.05746459961</ele>
        <time>2014-04-13T07:25:42.000Z</time>
      </trkpt>
      <trkpt lat="50.10695" lon="3.59614">
        <ele>148.01078796387</ele>
        <time>2014-04-13T07:25:44.000Z</time>
      </trkpt>
      <trkpt lat="50.10699" lon="3.59628">
        <ele>148.77201843262</ele>
        <time>2014-04-13T07:25:47.000Z</time>
      </trkpt>
      <trkpt lat="50.10701" lon="3.59638">
        <ele>149.24467468262</ele>
        <time>2014-04-13T07:25:49.000Z</time>
      </trkpt>
      <trkpt lat="50.10704" lon="3.59648">
        <ele>149.59199523926</ele>
        <time>2014-04-13T07:25:51.000Z</time>
      </trkpt>
      <trkpt lat="50.10713" lon="3.59658">
        <ele>151.0422668457</ele>
        <time>2014-04-13T07:25:54.000Z</time>
      </trkpt>
      <trkpt lat="50.10723" lon="3.59664">
        <ele>152.26179504395</ele>
        <time>2014-04-13T07:25:57.000Z</time>
      </trkpt>
      <trkpt lat="50.1073" lon="3.59667">
        <ele>153.55874633789</ele>
        <time>2014-04-13T07:25:59.000Z</time>
      </trkpt>
      <trkpt lat="50.10741" lon="3.59674">
        <ele>154.52627563477</ele>
        <time>2014-04-13T07:26:02.000Z</time>
      </trkpt>
      <trkpt lat="50.10747" lon="3.59679">
        <ele>155.02420043945</ele>
        <time>2014-04-13T07:26:04.000Z</time>
      </trkpt>
      <trkpt lat="50.10756" lon="3.59686">
        <ele>154.35244750977</ele>
        <time>2014-04-13T07:26:07.000Z</time>
      </trkpt>
      <trkpt lat="50.10761" lon="3.59692">
        <ele>153.86935424805</ele>
        <time>2014-04-13T07:26:09.000Z</time>
      </trkpt>
      <trkpt lat="50.1077" lon="3.59702">
        <ele>153.27990722656</ele>
        <time>2014-04-13T07:26:12.000Z</time>
      </trkpt>
      <trkpt lat="50.10775" lon="3.59708">
        <ele>152.92304992676</ele>
        <time>2014-04-13T07:26:14.000Z</time>
      </trkpt>
      <trkpt lat="50.1078" lon="3.59716">
        <ele>152.80012512207</ele>
        <time>2014-04-13T07:26:16.000Z</time>
      </trkpt>
      <trkpt lat="50.10785" lon="3.59723">
        <ele>152.84497070312</ele>
        <time>2014-04-13T07:26:18.000Z</time>
      </trkpt>
      <trkpt lat="50.10791" lon="3.59735">
        <ele>153.13415527344</ele>
        <time>2014-04-13T07:26:21.000Z</time>
      </trkpt>
      <trkpt lat="50.10795" lon="3.59742">
        <ele>153.40267944336</ele>
        <time>2014-04-13T07:26:23.000Z</time>
      </trkpt>
      <trkpt lat="50.10802" lon="3.59753">
        <ele>153.50793457031</ele>
        <time>2014-04-13T07:26:26.000Z</time>
      </trkpt>
      <trkpt lat="50.10805" lon="3.59759">
        <ele>153.81967163086</ele>
        <time>2014-04-13T07:26:28.000Z</time>
      </trkpt>
      <trkpt lat="50.10807" lon="3.59764">
        <ele>153.89761352539</ele>
        <time>2014-04-13T07:26:31.000Z</time>
      </trkpt>
      <trkpt lat="50.10809" lon="3.59767">
        <ele>153.76266479492</ele>
        <time>2014-04-13T07:26:34.000Z</time>
      </trkpt>
      <trkpt lat="50.10793" lon="3.59776">
        <ele>153.67761230469</ele>
        <time>2014-04-13T07:26:38.000Z</time>
      </trkpt>
      <trkpt lat="50.10788" lon="3.59777">
        <ele>153.92309570312</ele>
        <time>2014-04-13T07:26:41.000Z</time>
      </trkpt>
      <trkpt lat="50.10786" lon="3.59779">
        <ele>154.00979614258</ele>
        <time>2014-04-13T07:26:43.000Z</time>
      </trkpt>
      <trkpt lat="50.10784" lon="3.5978">
        <ele>154.00215148926</ele>
        <time>2014-04-13T07:26:45.000Z</time>
      </trkpt>
      <trkpt lat="50.10781" lon="3.59782">
        <ele>154.29116821289</ele>
        <time>2014-04-13T07:26:47.000Z</time>
      </trkpt>
      <trkpt lat="50.10765" lon="3.59793">
        <ele>152.02363586426</ele>
        <time>2014-04-13T07:26:56.000Z</time>
      </trkpt>
      <trkpt lat="50.10751" lon="3.59805">
        <ele>150.93075561523</ele>
        <time>2014-04-13T07:26:59.000Z</time>
      </trkpt>
      <trkpt lat="50.1074" lon="3.59815">
        <ele>149.72479248047</ele>
        <time>2014-04-13T07:27:02.000Z</time>
      </trkpt>
      <trkpt lat="50.10733" lon="3.59821">
        <ele>148.66944885254</ele>
        <time>2014-04-13T07:27:04.000Z</time>
      </trkpt>
      <trkpt lat="50.10724" lon="3.59829">
        <ele>146.89070129395</ele>
        <time>2014-04-13T07:27:07.000Z</time>
      </trkpt>
      <trkpt lat="50.10715" lon="3.59835">
        <ele>147.49848937988</ele>
        <time>2014-04-13T07:27:10.000Z</time>
      </trkpt>
      <trkpt lat="50.10709" lon="3.59839">
        <ele>146.7088470459</ele>
        <time>2014-04-13T07:27:12.000Z</time>
      </trkpt>
      <trkpt lat="50.10703" lon="3.5985">
        <ele>146.1467590332</ele>
        <time>2014-04-13T07:27:15.000Z</time>
      </trkpt>
      <trkpt lat="50.10704" lon="3.59862">
        <ele>145.56117248535</ele>
        <time>2014-04-13T07:27:17.000Z</time>
      </trkpt>
      <trkpt lat="50.10707" lon="3.59878">
        <ele>145.1075592041</ele>
        <time>2014-04-13T07:27:20.000Z</time>
      </trkpt>
      <trkpt lat="50.10711" lon="3.59892">
        <ele>144.61305236816</ele>
        <time>2014-04-13T07:27:23.000Z</time>
      </trkpt>
      <trkpt lat="50.10713" lon="3.59902">
        <ele>144.08715820312</ele>
        <time>2014-04-13T07:27:25.000Z</time>
      </trkpt>
      <trkpt lat="50.10715" lon="3.59916">
        <ele>143.37507629395</ele>
        <time>2014-04-13T07:27:28.000Z</time>
      </trkpt>
      <trkpt lat="50.10717" lon="3.59931">
        <ele>143.12948608398</ele>
        <time>2014-04-13T07:27:31.000Z</time>
      </trkpt>
      <trkpt lat="50.10722" lon="3.59945">
        <ele>143.40841674805</ele>
        <time>2014-04-13T07:27:33.000Z</time>
      </trkpt>
      <trkpt lat="50.10727" lon="3.59967">
        <ele>143.79470825195</ele>
        <time>2014-04-13T07:27:36.000Z</time>
      </trkpt>
      <trkpt lat="50.10732" lon="3.5999">
        <ele>144.37715148926</ele>
        <time>2014-04-13T07:27:39.000Z</time>
      </trkpt>
      <trkpt lat="50.10737" lon="3.60013">
        <ele>145.21447753906</ele>
        <time>2014-04-13T07:27:42.000Z</time>
      </trkpt>
      <trkpt lat="50.1074" lon="3.60028">
        <ele>145.30014038086</ele>
        <time>2014-04-13T07:27:44.000Z</time>
      </trkpt>
      <trkpt lat="50.10745" lon="3.60052">
        <ele>145.23135375977</ele>
        <time>2014-04-13T07:27:47.000Z</time>
      </trkpt>
      <trkpt lat="50.10747" lon="3.60064">
        <ele>144.51371765137</ele>
        <time>2014-04-13T07:27:49.000Z</time>
      </trkpt>
      <trkpt lat="50.10748" lon="3.60069">
        <ele>143.66326904297</ele>
        <time>2014-04-13T07:27:51.000Z</time>
      </trkpt>
      <trkpt lat="50.10784" lon="3.6006">
        <ele>142.64433288574</ele>
        <time>2014-04-13T07:27:56.000Z</time>
      </trkpt>
      <trkpt lat="50.10795" lon="3.60059">
        <ele>142.21597290039</ele>
        <time>2014-04-13T07:27:58.000Z</time>
      </trkpt>
      <trkpt lat="50.10806" lon="3.60057">
        <ele>141.72189331055</ele>
        <time>2014-04-13T07:28:00.000Z</time>
      </trkpt>
      <trkpt lat="50.10822" lon="3.60057">
        <ele>142.19125366211</ele>
        <time>2014-04-13T07:28:03.000Z</time>
      </trkpt>
      <trkpt lat="50.10831" lon="3.60058">
        <ele>142.81698608398</ele>
        <time>2014-04-13T07:28:05.000Z</time>
      </trkpt>
      <trkpt lat="50.10846" lon="3.60057">
        <ele>143.32832336426</ele>
        <time>2014-04-13T07:28:08.000Z</time>
      </trkpt>
      <trkpt lat="50.10858" lon="3.60057">
        <ele>143.20152282715</ele>
        <time>2014-04-13T07:28:11.000Z</time>
      </trkpt>
      <trkpt lat="50.10873" lon="3.60054">
        <ele>143.57299804688</ele>
        <time>2014-04-13T07:28:14.000Z</time>
      </trkpt>
      <trkpt lat="50.10882" lon="3.60053">
        <ele>143.90199279785</ele>
        <time>2014-04-13T07:28:16.000Z</time>
      </trkpt>
      <trkpt lat="50.10896" lon="3.60051">
        <ele>144.41017150879</ele>
        <time>2014-04-13T07:28:19.000Z</time>
      </trkpt>
      <trkpt lat="50.10908" lon="3.60049">
        <ele>145.2989654541</ele>
        <time>2014-04-13T07:28:22.000Z</time>
      </trkpt>
      <trkpt lat="50.10922" lon="3.60045">
        <ele>146.8246307373</ele>
        <time>2014-04-13T07:28:25.000Z</time>
      </trkpt>
      <trkpt lat="50.1093" lon="3.60044">
        <ele>148.21444702148</ele>
        <time>2014-04-13T07:28:27.000Z</time>
      </trkpt>
      <trkpt lat="50.10942" lon="3.60041">
        <ele>149.51217651367</ele>
        <time>2014-04-13T07:28:30.000Z</time>
      </trkpt>
      <trkpt lat="50.10949" lon="3.60036">
        <ele>150.57972717285</ele>
        <time>2014-04-13T07:28:32.000Z</time>
      </trkpt>
      <trkpt lat="50.1096" lon="3.60032">
        <ele>151.23777770996</ele>
        <time>2014-04-13T07:28:35.000Z</time>
      </trkpt>
      <trkpt lat="50.10972" lon="3.60028">
        <ele>151.61549377441</ele>
        <time>2014-04-13T07:28:38.000Z</time>
      </trkpt>
      <trkpt lat="50.10984" lon="3.60026">
        <ele>151.33961486816</ele>
        <time>2014-04-13T07:28:41.000Z</time>
      </trkpt>
      <trkpt lat="50.10991" lon="3.60024">
        <ele>151.23530578613</ele>
        <time>2014-04-13T07:28:43.000Z</time>
      </trkpt>
      <trkpt lat="50.11003" lon="3.60018">
        <ele>151.3151550293</ele>
        <time>2014-04-13T07:28:46.000Z</time>
      </trkpt>
      <trkpt lat="50.11013" lon="3.60007">
        <ele>151.60816955566</ele>
        <time>2014-04-13T07:28:49.000Z</time>
      </trkpt>
      <trkpt lat="50.1102" lon="3.6">
        <ele>151.37428283691</ele>
        <time>2014-04-13T07:28:51.000Z</time>
      </trkpt>
      <trkpt lat="50.1103" lon="3.59987">
        <ele>151.1589050293</ele>
        <time>2014-04-13T07:28:54.000Z</time>
      </trkpt>
      <trkpt lat="50.11041" lon="3.59976">
        <ele>149.73681640625</ele>
        <time>2014-04-13T07:28:57.000Z</time>
      </trkpt>
      <trkpt lat="50.11049" lon="3.59968">
        <ele>147.86442565918</ele>
        <time>2014-04-13T07:28:59.000Z</time>
      </trkpt>
      <trkpt lat="50.11061" lon="3.59957">
        <ele>145.95799255371</ele>
        <time>2014-04-13T07:29:02.000Z</time>
      </trkpt>
      <trkpt lat="50.11068" lon="3.59947">
        <ele>144.71450805664</ele>
        <time>2014-04-13T07:29:04.000Z</time>
      </trkpt>
      <trkpt lat="50.11081" lon="3.59937">
        <ele>144.33642578125</ele>
        <time>2014-04-13T07:29:07.000Z</time>
      </trkpt>
      <trkpt lat="50.11092" lon="3.59937">
        <ele>144.29237365723</ele>
        <time>2014-04-13T07:29:10.000Z</time>
      </trkpt>
      <trkpt lat="50.11099" lon="3.5995">
        <ele>144.28904724121</ele>
        <time>2014-04-13T07:29:12.000Z</time>
      </trkpt>
      <trkpt lat="50.1111" lon="3.59966">
        <ele>144.25009155273</ele>
        <time>2014-04-13T07:29:15.000Z</time>
      </trkpt>
      <trkpt lat="50.11119" lon="3.59974">
        <ele>144.1522064209</ele>
        <time>2014-04-13T07:29:17.000Z</time>
      </trkpt>
      <trkpt lat="50.11131" lon="3.59993">
        <ele>143.50624084473</ele>
        <time>2014-04-13T07:29:20.000Z</time>
      </trkpt>
      <trkpt lat="50.1114" lon="3.60009">
        <ele>143.40194702148</ele>
        <time>2014-04-13T07:29:23.000Z</time>
      </trkpt>
      <trkpt lat="50.11148" lon="3.60024">
        <ele>143.64974975586</ele>
        <time>2014-04-13T07:29:26.000Z</time>
      </trkpt>
      <trkpt lat="50.11154" lon="3.60035">
        <ele>143.96548461914</ele>
        <time>2014-04-13T07:29:28.000Z</time>
      </trkpt>
      <trkpt lat="50.1116" lon="3.60047">
        <ele>144.30465698242</ele>
        <time>2014-04-13T07:29:31.000Z</time>
      </trkpt>
      <trkpt lat="50.11162" lon="3.60053">
        <ele>144.8179473877</ele>
        <time>2014-04-13T07:29:34.000Z</time>
      </trkpt>
      <trkpt lat="50.11163" lon="3.60057">
        <ele>145.39895629883</ele>
        <time>2014-04-13T07:29:37.000Z</time>
      </trkpt>
      <trkpt lat="50.11163" lon="3.60057">
        <ele>145.39895629883</ele>
        <time>2014-04-13T07:29:47.000Z</time>
      </trkpt>
      <trkpt lat="50.11118" lon="3.60167">
        <ele>149.58950805664</ele>
        <time>2014-04-13T07:37:50.000Z</time>
      </trkpt>
      <trkpt lat="50.11093" lon="3.60229">
        <ele>155.57217407227</ele>
        <time>2014-04-13T07:37:57.000Z</time>
      </trkpt>
      <trkpt lat="50.1109" lon="3.60246">
        <ele>158.88916015625</ele>
        <time>2014-04-13T07:38:00.000Z</time>
      </trkpt>
      <trkpt lat="50.11088" lon="3.60255">
        <ele>165.87643432617</ele>
        <time>2014-04-13T07:38:02.000Z</time>
      </trkpt>
      <trkpt lat="50.11073" lon="3.60253">
        <ele>171.13818359375</ele>
        <time>2014-04-13T07:38:05.000Z</time>
      </trkpt>
      <trkpt lat="50.11066" lon="3.60276">
        <ele>168.4422454834</ele>
        <time>2014-04-13T07:38:07.000Z</time>
      </trkpt>
      <trkpt lat="50.11058" lon="3.60285">
        <ele>162.05737304688</ele>
        <time>2014-04-13T07:38:10.000Z</time>
      </trkpt>
      <trkpt lat="50.11054" lon="3.60289">
        <ele>159.12846374512</ele>
        <time>2014-04-13T07:38:12.000Z</time>
      </trkpt>
      <trkpt lat="50.11051" lon="3.60293">
        <ele>152.11834716797</ele>
        <time>2014-04-13T07:38:15.000Z</time>
      </trkpt>
      <trkpt lat="50.11044" lon="3.60302">
        <ele>146.53091430664</ele>
        <time>2014-04-13T07:38:17.000Z</time>
      </trkpt>
      <trkpt lat="50.11036" lon="3.60308">
        <ele>145.08969116211</ele>
        <time>2014-04-13T07:38:19.000Z</time>
      </trkpt>
      <trkpt lat="50.11029" lon="3.60312">
        <ele>145.09237670898</ele>
        <time>2014-04-13T07:38:21.000Z</time>
      </trkpt>
      <trkpt lat="50.11016" lon="3.60321">
        <ele>144.10275268555</ele>
        <time>2014-04-13T07:38:24.000Z</time>
      </trkpt>
      <trkpt lat="50.10983" lon="3.60326">
        <ele>143.21780395508</ele>
        <time>2014-04-13T07:38:28.000Z</time>
      </trkpt>
      <trkpt lat="50.10968" lon="3.60324">
        <ele>142.86982727051</ele>
        <time>2014-04-13T07:38:30.000Z</time>
      </trkpt>
      <trkpt lat="50.10954" lon="3.60318">
        <ele>142.73851013184</ele>
        <time>2014-04-13T07:38:32.000Z</time>
      </trkpt>
      <trkpt lat="50.10944" lon="3.60314">
        <ele>143.18090820312</ele>
        <time>2014-04-13T07:38:34.000Z</time>
      </trkpt>
      <trkpt lat="50.10933" lon="3.60307">
        <ele>143.41079711914</ele>
        <time>2014-04-13T07:38:37.000Z</time>
      </trkpt>
      <trkpt lat="50.10921" lon="3.60302">
        <ele>144.00186157227</ele>
        <time>2014-04-13T07:38:39.000Z</time>
      </trkpt>
      <trkpt lat="50.10905" lon="3.603">
        <ele>143.85148620605</ele>
        <time>2014-04-13T07:38:42.000Z</time>
      </trkpt>
      <trkpt lat="50.10897" lon="3.60292">
        <ele>143.74685668945</ele>
        <time>2014-04-13T07:38:44.000Z</time>
      </trkpt>
      <trkpt lat="50.10885" lon="3.60282">
        <ele>143.14836120605</ele>
        <time>2014-04-13T07:38:46.000Z</time>
      </trkpt>
      <trkpt lat="50.10878" lon="3.60278">
        <ele>142.69821166992</ele>
        <time>2014-04-13T07:38:48.000Z</time>
      </trkpt>
      <trkpt lat="50.10868" lon="3.60275">
        <ele>142.00155639648</ele>
        <time>2014-04-13T07:38:50.000Z</time>
      </trkpt>
      <trkpt lat="50.10851" lon="3.60275">
        <ele>141.73948669434</ele>
        <time>2014-04-13T07:38:53.000Z</time>
      </trkpt>
      <trkpt lat="50.1084" lon="3.60272">
        <ele>140.59124755859</ele>
        <time>2014-04-13T07:38:55.000Z</time>
      </trkpt>
      <trkpt lat="50.10829" lon="3.60274">
        <ele>139.57832336426</ele>
        <time>2014-04-13T07:38:58.000Z</time>
      </trkpt>
      <trkpt lat="50.10827" lon="3.60281">
        <ele>138.72811889648</ele>
        <time>2014-04-13T07:39:00.000Z</time>
      </trkpt>
      <trkpt lat="50.10825" lon="3.60287">
        <ele>137.45587158203</ele>
        <time>2014-04-13T07:39:02.000Z</time>
      </trkpt>
      <trkpt lat="50.10813" lon="3.60316">
        <ele>136.28045654297</ele>
        <time>2014-04-13T07:39:10.000Z</time>
      </trkpt>
      <trkpt lat="50.10791" lon="3.60338">
        <ele>136.44584655762</ele>
        <time>2014-04-13T07:39:14.000Z</time>
      </trkpt>
      <trkpt lat="50.10782" lon="3.60344">
        <ele>136.15296936035</ele>
        <time>2014-04-13T07:39:16.000Z</time>
      </trkpt>
      <trkpt lat="50.1077" lon="3.60356">
        <ele>136.64996337891</ele>
        <time>2014-04-13T07:39:19.000Z</time>
      </trkpt>
      <trkpt lat="50.10744" lon="3.60382">
        <ele>137.10214233398</ele>
        <time>2014-04-13T07:39:23.000Z</time>
      </trkpt>
      <trkpt lat="50.10731" lon="3.60401">
        <ele>137.53329467773</ele>
        <time>2014-04-13T07:39:26.000Z</time>
      </trkpt>
      <trkpt lat="50.10726" lon="3.6041">
        <ele>138.12083435059</ele>
        <time>2014-04-13T07:39:28.000Z</time>
      </trkpt>
      <trkpt lat="50.10719" lon="3.60423">
        <ele>139.13986206055</ele>
        <time>2014-04-13T07:39:31.000Z</time>
      </trkpt>
      <trkpt lat="50.10715" lon="3.60434">
        <ele>139.0432434082</ele>
        <time>2014-04-13T07:39:33.000Z</time>
      </trkpt>
      <trkpt lat="50.10714" lon="3.60445">
        <ele>139.85330200195</ele>
        <time>2014-04-13T07:39:35.000Z</time>
      </trkpt>
      <trkpt lat="50.10708" lon="3.60463">
        <ele>140.38914489746</ele>
        <time>2014-04-13T07:39:38.000Z</time>
      </trkpt>
      <trkpt lat="50.107" lon="3.6048">
        <ele>140.02296447754</ele>
        <time>2014-04-13T07:39:41.000Z</time>
      </trkpt>
      <trkpt lat="50.10695" lon="3.60497">
        <ele>140.35749816895</ele>
        <time>2014-04-13T07:39:44.000Z</time>
      </trkpt>
      <trkpt lat="50.10692" lon="3.60508">
        <ele>140.94314575195</ele>
        <time>2014-04-13T07:39:46.000Z</time>
      </trkpt>
      <trkpt lat="50.10683" lon="3.60526">
        <ele>140.72399902344</ele>
        <time>2014-04-13T07:39:49.000Z</time>
      </trkpt>
      <trkpt lat="50.10676" lon="3.60545">
        <ele>141.37411499023</ele>
        <time>2014-04-13T07:39:52.000Z</time>
      </trkpt>
      <trkpt lat="50.1067" lon="3.60563">
        <ele>142.08261108398</ele>
        <time>2014-04-13T07:39:55.000Z</time>
      </trkpt>
      <trkpt lat="50.10664" lon="3.60575">
        <ele>142.18099975586</ele>
        <time>2014-04-13T07:39:57.000Z</time>
      </trkpt>
      <trkpt lat="50.10651" lon="3.60597">
        <ele>141.31134033203</ele>
        <time>2014-04-13T07:40:00.000Z</time>
      </trkpt>
      <trkpt lat="50.10646" lon="3.60611">
        <ele>140.83311462402</ele>
        <time>2014-04-13T07:40:03.000Z</time>
      </trkpt>
      <trkpt lat="50.10639" lon="3.60625">
        <ele>139.18717956543</ele>
        <time>2014-04-13T07:40:05.000Z</time>
      </trkpt>
      <trkpt lat="50.10637" lon="3.60638">
        <ele>137.40463256836</ele>
        <time>2014-04-13T07:40:07.000Z</time>
      </trkpt>
      <trkpt lat="50.10633" lon="3.6065">
        <ele>135.7585144043</ele>
        <time>2014-04-13T07:40:09.000Z</time>
      </trkpt>
      <trkpt lat="50.10629" lon="3.6067">
        <ele>135.58102416992</ele>
        <time>2014-04-13T07:40:12.000Z</time>
      </trkpt>
      <trkpt lat="50.10626" lon="3.60687">
        <ele>134.96145629883</ele>
        <time>2014-04-13T07:40:14.000Z</time>
      </trkpt>
      <trkpt lat="50.10617" lon="3.60704">
        <ele>135.0835723877</ele>
        <time>2014-04-13T07:40:17.000Z</time>
      </trkpt>
      <trkpt lat="50.10612" lon="3.60722">
        <ele>136.37873840332</ele>
        <time>2014-04-13T07:40:20.000Z</time>
      </trkpt>
      <trkpt lat="50.10613" lon="3.60739">
        <ele>137.44451904297</ele>
        <time>2014-04-13T07:40:23.000Z</time>
      </trkpt>
      <trkpt lat="50.1061" lon="3.60752">
        <ele>137.56814575195</ele>
        <time>2014-04-13T07:40:25.000Z</time>
      </trkpt>
      <trkpt lat="50.10604" lon="3.60769">
        <ele>137.73059082031</ele>
        <time>2014-04-13T07:40:28.000Z</time>
      </trkpt>
      <trkpt lat="50.10603" lon="3.60787">
        <ele>137.05618286133</ele>
        <time>2014-04-13T07:40:31.000Z</time>
      </trkpt>
      <trkpt lat="50.10598" lon="3.60796">
        <ele>134.98516845703</ele>
        <time>2014-04-13T07:40:33.000Z</time>
      </trkpt>
      <trkpt lat="50.10593" lon="3.60811">
        <ele>132.80686950684</ele>
        <time>2014-04-13T07:40:36.000Z</time>
      </trkpt>
      <trkpt lat="50.10589" lon="3.60826">
        <ele>130.45288085938</ele>
        <time>2014-04-13T07:40:38.000Z</time>
      </trkpt>
      <trkpt lat="50.10583" lon="3.60845">
        <ele>128.50149536133</ele>
        <time>2014-04-13T07:40:41.000Z</time>
      </trkpt>
      <trkpt lat="50.10582" lon="3.60858">
        <ele>127.59510803223</ele>
        <time>2014-04-13T07:40:43.000Z</time>
      </trkpt>
      <trkpt lat="50.10582" lon="3.60878">
        <ele>127.81240081787</ele>
        <time>2014-04-13T07:40:46.000Z</time>
      </trkpt>
      <trkpt lat="50.10577" lon="3.60898">
        <ele>128.34210205078</ele>
        <time>2014-04-13T07:40:49.000Z</time>
      </trkpt>
      <trkpt lat="50.10571" lon="3.60913">
        <ele>129.43751525879</ele>
        <time>2014-04-13T07:40:52.000Z</time>
      </trkpt>
      <trkpt lat="50.1056" lon="3.60915">
        <ele>130.26731872559</ele>
        <time>2014-04-13T07:40:55.000Z</time>
      </trkpt>
      <trkpt lat="50.10553" lon="3.60909">
        <ele>130.53860473633</ele>
        <time>2014-04-13T07:40:57.000Z</time>
      </trkpt>
      <trkpt lat="50.10542" lon="3.60902">
        <ele>130.05868530273</ele>
        <time>2014-04-13T07:41:00.000Z</time>
      </trkpt>
      <trkpt lat="50.10532" lon="3.60893">
        <ele>129.49369812012</ele>
        <time>2014-04-13T07:41:03.000Z</time>
      </trkpt>
      <trkpt lat="50.10523" lon="3.60885">
        <ele>129.04544067383</ele>
        <time>2014-04-13T07:41:06.000Z</time>
      </trkpt>
      <trkpt lat="50.10514" lon="3.60877">
        <ele>128.81988525391</ele>
        <time>2014-04-13T07:41:09.000Z</time>
      </trkpt>
      <trkpt lat="50.10508" lon="3.60872">
        <ele>129.18725585938</ele>
        <time>2014-04-13T07:41:11.000Z</time>
      </trkpt>
      <trkpt lat="50.10502" lon="3.60868">
        <ele>129.91091918945</ele>
        <time>2014-04-13T07:41:13.000Z</time>
      </trkpt>
      <trkpt lat="50.10495" lon="3.60865">
        <ele>130.7428894043</ele>
        <time>2014-04-13T07:41:15.000Z</time>
      </trkpt>
      <trkpt lat="50.1049" lon="3.6086">
        <ele>131.68353271484</ele>
        <time>2014-04-13T07:41:17.000Z</time>
      </trkpt>
      <trkpt lat="50.10482" lon="3.60851">
        <ele>132.6861114502</ele>
        <time>2014-04-13T07:41:20.000Z</time>
      </trkpt>
      <trkpt lat="50.10474" lon="3.60844">
        <ele>133.46298217773</ele>
        <time>2014-04-13T07:41:23.000Z</time>
      </trkpt>
      <trkpt lat="50.10468" lon="3.6084">
        <ele>133.68772888184</ele>
        <time>2014-04-13T07:41:25.000Z</time>
      </trkpt>
      <trkpt lat="50.1046" lon="3.60836">
        <ele>133.57583618164</ele>
        <time>2014-04-13T07:41:28.000Z</time>
      </trkpt>
      <trkpt lat="50.10458" lon="3.60833">
        <ele>133.62724304199</ele>
        <time>2014-04-13T07:41:31.000Z</time>
      </trkpt>
      <trkpt lat="50.10458" lon="3.60831">
        <ele>134.04983520508</ele>
        <time>2014-04-13T07:41:33.000Z</time>
      </trkpt>
      <trkpt lat="50.10457" lon="3.60829">
        <ele>133.81030273438</ele>
        <time>2014-04-13T07:41:36.000Z</time>
      </trkpt>
      <trkpt lat="50.10457" lon="3.60829">
        <ele>133.81030273438</ele>
        <time>2014-04-13T07:41:46.000Z</time>
      </trkpt>
      <trkpt lat="50.10458" lon="3.60831">
        <ele>133.89991760254</ele>
        <time>2014-04-13T07:41:49.000Z</time>
      </trkpt>
      <trkpt lat="50.10457" lon="3.60827">
        <ele>133.46391296387</ele>
        <time>2014-04-13T07:41:52.000Z</time>
      </trkpt>
      <trkpt lat="50.10459" lon="3.60819">
        <ele>132.08676147461</ele>
        <time>2014-04-13T07:41:55.000Z</time>
      </trkpt>
      <trkpt lat="50.10463" lon="3.60811">
        <ele>130.2341003418</ele>
        <time>2014-04-13T07:41:58.000Z</time>
      </trkpt>
      <trkpt lat="50.10462" lon="3.60797">
        <ele>128.69915771484</ele>
        <time>2014-04-13T07:42:01.000Z</time>
      </trkpt>
      <trkpt lat="50.10459" lon="3.60789">
        <ele>127.16091156006</ele>
        <time>2014-04-13T07:42:03.000Z</time>
      </trkpt>
      <trkpt lat="50.10459" lon="3.6078">
        <ele>126.87412261963</ele>
        <time>2014-04-13T07:42:05.000Z</time>
      </trkpt>
      <trkpt lat="50.10462" lon="3.60772">
        <ele>127.29878234863</ele>
        <time>2014-04-13T07:42:07.000Z</time>
      </trkpt>
      <trkpt lat="50.10467" lon="3.60767">
        <ele>127.61502838135</ele>
        <time>2014-04-13T07:42:09.000Z</time>
      </trkpt>
      <trkpt lat="50.10474" lon="3.60756">
        <ele>128.41046142578</ele>
        <time>2014-04-13T07:42:12.000Z</time>
      </trkpt>
      <trkpt lat="50.10479" lon="3.60739">
        <ele>129.03861999512</ele>
        <time>2014-04-13T07:42:15.000Z</time>
      </trkpt>
      <trkpt lat="50.10484" lon="3.60729">
        <ele>129.94247436523</ele>
        <time>2014-04-13T07:42:17.000Z</time>
      </trkpt>
      <trkpt lat="50.1049" lon="3.60719">
        <ele>131.12948608398</ele>
        <time>2014-04-13T07:42:20.000Z</time>
      </trkpt>
      <trkpt lat="50.10492" lon="3.6071">
        <ele>132.63916015625</ele>
        <time>2014-04-13T07:42:22.000Z</time>
      </trkpt>
      <trkpt lat="50.10501" lon="3.6068">
        <ele>133.63198852539</ele>
        <time>2014-04-13T07:42:26.000Z</time>
      </trkpt>
      <trkpt lat="50.10507" lon="3.60661">
        <ele>134.98603820801</ele>
        <time>2014-04-13T07:42:29.000Z</time>
      </trkpt>
      <trkpt lat="50.10511" lon="3.60655">
        <ele>135.57699584961</ele>
        <time>2014-04-13T07:42:31.000Z</time>
      </trkpt>
      <trkpt lat="50.10511" lon="3.60637">
        <ele>135.89666748047</ele>
        <time>2014-04-13T07:42:34.000Z</time>
      </trkpt>
      <trkpt lat="50.10508" lon="3.60627">
        <ele>136.29544067383</ele>
        <time>2014-04-13T07:42:36.000Z</time>
      </trkpt>
      <trkpt lat="50.10504" lon="3.60617">
        <ele>137.45349121094</ele>
        <time>2014-04-13T07:42:38.000Z</time>
      </trkpt>
      <trkpt lat="50.105" lon="3.60609">
        <ele>138.27934265137</ele>
        <time>2014-04-13T07:42:40.000Z</time>
      </trkpt>
      <trkpt lat="50.10497" lon="3.60593">
        <ele>139.32846069336</ele>
        <time>2014-04-13T07:42:43.000Z</time>
      </trkpt>
      <trkpt lat="50.10496" lon="3.60583">
        <ele>140.06855773926</ele>
        <time>2014-04-13T07:42:45.000Z</time>
      </trkpt>
      <trkpt lat="50.1049" lon="3.60567">
        <ele>140.83271789551</ele>
        <time>2014-04-13T07:42:48.000Z</time>
      </trkpt>
      <trkpt lat="50.10483" lon="3.60555">
        <ele>141.98806762695</ele>
        <time>2014-04-13T07:42:51.000Z</time>
      </trkpt>
      <trkpt lat="50.10478" lon="3.60549">
        <ele>143.9877166748</ele>
        <time>2014-04-13T07:42:53.000Z</time>
      </trkpt>
      <trkpt lat="50.10472" lon="3.60542">
        <ele>146.06379699707</ele>
        <time>2014-04-13T07:42:55.000Z</time>
      </trkpt>
      <trkpt lat="50.10466" lon="3.60528">
        <ele>148.13745117188</ele>
        <time>2014-04-13T07:42:58.000Z</time>
      </trkpt>
      <trkpt lat="50.10461" lon="3.60518">
        <ele>149.99169921875</ele>
        <time>2014-04-13T07:43:00.000Z</time>
      </trkpt>
      <trkpt lat="50.10456" lon="3.60502">
        <ele>150.00712585449</ele>
        <time>2014-04-13T07:43:03.000Z</time>
      </trkpt>
      <trkpt lat="50.10453" lon="3.60495">
        <ele>148.92922973633</ele>
        <time>2014-04-13T07:43:05.000Z</time>
      </trkpt>
      <trkpt lat="50.10448" lon="3.60485">
        <ele>147.39981079102</ele>
        <time>2014-04-13T07:43:08.000Z</time>
      </trkpt>
      <trkpt lat="50.10442" lon="3.60477">
        <ele>145.78823852539</ele>
        <time>2014-04-13T07:43:11.000Z</time>
      </trkpt>
      <trkpt lat="50.10438" lon="3.60472">
        <ele>143.8791809082</ele>
        <time>2014-04-13T07:43:13.000Z</time>
      </trkpt>
      <trkpt lat="50.10432" lon="3.60462">
        <ele>143.34379577637</ele>
        <time>2014-04-13T07:43:16.000Z</time>
      </trkpt>
      <trkpt lat="50.10425" lon="3.6045">
        <ele>143.05522155762</ele>
        <time>2014-04-13T07:43:19.000Z</time>
      </trkpt>
      <trkpt lat="50.10419" lon="3.60441">
        <ele>142.88043212891</ele>
        <time>2014-04-13T07:43:21.000Z</time>
      </trkpt>
      <trkpt lat="50.10412" lon="3.60428">
        <ele>142.52583312988</ele>
        <time>2014-04-13T07:43:24.000Z</time>
      </trkpt>
      <trkpt lat="50.10406" lon="3.6042">
        <ele>141.89617919922</ele>
        <time>2014-04-13T07:43:26.000Z</time>
      </trkpt>
      <trkpt lat="50.10398" lon="3.60407">
        <ele>140.44486999512</ele>
        <time>2014-04-13T07:43:29.000Z</time>
      </trkpt>
      <trkpt lat="50.10377" lon="3.60372">
        <ele>139.37771606445</ele>
        <time>2014-04-13T07:43:38.000Z</time>
      </trkpt>
      <trkpt lat="50.10371" lon="3.60361">
        <ele>139.53414916992</ele>
        <time>2014-04-13T07:43:40.000Z</time>
      </trkpt>
      <trkpt lat="50.10369" lon="3.60357">
        <ele>140.13502502441</ele>
        <time>2014-04-13T07:43:42.000Z</time>
      </trkpt>
      <trkpt lat="50.10366" lon="3.60352">
        <ele>141.8487701416</ele>
        <time>2014-04-13T07:43:44.000Z</time>
      </trkpt>
      <trkpt lat="50.10358" lon="3.60342">
        <ele>143.25317382812</ele>
        <time>2014-04-13T07:43:47.000Z</time>
      </trkpt>
      <trkpt lat="50.10353" lon="3.60331">
        <ele>144.82913208008</ele>
        <time>2014-04-13T07:43:50.000Z</time>
      </trkpt>
      <trkpt lat="50.10349" lon="3.60324">
        <ele>144.04104614258</ele>
        <time>2014-04-13T07:43:52.000Z</time>
      </trkpt>
      <trkpt lat="50.10342" lon="3.60315">
        <ele>143.33808898926</ele>
        <time>2014-04-13T07:43:55.000Z</time>
      </trkpt>
      <trkpt lat="50.10336" lon="3.60316">
        <ele>142.40225219727</ele>
        <time>2014-04-13T07:43:57.000Z</time>
      </trkpt>
      <trkpt lat="50.1033" lon="3.60317">
        <ele>141.67028808594</ele>
        <time>2014-04-13T07:43:59.000Z</time>
      </trkpt>
      <trkpt lat="50.1032" lon="3.60318">
        <ele>139.09619140625</ele>
        <time>2014-04-13T07:44:02.000Z</time>
      </trkpt>
      <trkpt lat="50.10315" lon="3.60318">
        <ele>138.10725402832</ele>
        <time>2014-04-13T07:44:05.000Z</time>
      </trkpt>
      <trkpt lat="50.10306" lon="3.60321">
        <ele>137.05824279785</ele>
        <time>2014-04-13T07:44:08.000Z</time>
      </trkpt>
      <trkpt lat="50.10302" lon="3.60324">
        <ele>135.38192749023</ele>
        <time>2014-04-13T07:44:10.000Z</time>
      </trkpt>
      <trkpt lat="50.10294" lon="3.60329">
        <ele>133.93101501465</ele>
        <time>2014-04-13T07:44:13.000Z</time>
      </trkpt>
      <trkpt lat="50.10288" lon="3.60335">
        <ele>133.74821472168</ele>
        <time>2014-04-13T07:44:15.000Z</time>
      </trkpt>
      <trkpt lat="50.10279" lon="3.6034">
        <ele>132.83964538574</ele>
        <time>2014-04-13T07:44:17.000Z</time>
      </trkpt>
      <trkpt lat="50.10266" lon="3.60338">
        <ele>132.32731628418</ele>
        <time>2014-04-13T07:44:20.000Z</time>
      </trkpt>
      <trkpt lat="50.10261" lon="3.60335">
        <ele>131.57106018066</ele>
        <time>2014-04-13T07:44:22.000Z</time>
      </trkpt>
      <trkpt lat="50.10256" lon="3.60329">
        <ele>131.32382202148</ele>
        <time>2014-04-13T07:44:24.000Z</time>
      </trkpt>
      <trkpt lat="50.10248" lon="3.60314">
        <ele>132.77816772461</ele>
        <time>2014-04-13T07:44:27.000Z</time>
      </trkpt>
      <trkpt lat="50.10238" lon="3.60287">
        <ele>134.12466430664</ele>
        <time>2014-04-13T07:44:30.000Z</time>
      </trkpt>
      <trkpt lat="50.10232" lon="3.60274">
        <ele>134.59765625</ele>
        <time>2014-04-13T07:44:32.000Z</time>
      </trkpt>
      <trkpt lat="50.10225" lon="3.60256">
        <ele>134.54890441895</ele>
        <time>2014-04-13T07:44:35.000Z</time>
      </trkpt>
      <trkpt lat="50.10224" lon="3.60242">
        <ele>134.40405273438</ele>
        <time>2014-04-13T07:44:38.000Z</time>
      </trkpt>
      <trkpt lat="50.10221" lon="3.60237">
        <ele>132.51686096191</ele>
        <time>2014-04-13T07:44:40.000Z</time>
      </trkpt>
      <trkpt lat="50.10214" lon="3.60231">
        <ele>132.18266296387</ele>
        <time>2014-04-13T07:44:43.000Z</time>
      </trkpt>
      <trkpt lat="50.10205" lon="3.60226">
        <ele>131.98831176758</ele>
        <time>2014-04-13T07:44:46.000Z</time>
      </trkpt>
      <trkpt lat="50.10195" lon="3.60217">
        <ele>132.3450012207</ele>
        <time>2014-04-13T07:44:49.000Z</time>
      </trkpt>
      <trkpt lat="50.10181" lon="3.60208">
        <ele>132.87406921387</ele>
        <time>2014-04-13T07:44:52.000Z</time>
      </trkpt>
      <trkpt lat="50.10173" lon="3.60202">
        <ele>133.67398071289</ele>
        <time>2014-04-13T07:44:54.000Z</time>
      </trkpt>
      <trkpt lat="50.10165" lon="3.60196">
        <ele>133.49745178223</ele>
        <time>2014-04-13T07:44:56.000Z</time>
      </trkpt>
      <trkpt lat="50.10157" lon="3.60188">
        <ele>134.12969970703</ele>
        <time>2014-04-13T07:44:58.000Z</time>
      </trkpt>
      <trkpt lat="50.10146" lon="3.60178">
        <ele>134.42584228516</ele>
        <time>2014-04-13T07:45:01.000Z</time>
      </trkpt>
      <trkpt lat="50.1014" lon="3.6017">
        <ele>134.21841430664</ele>
        <time>2014-04-13T07:45:03.000Z</time>
      </trkpt>
      <trkpt lat="50.10131" lon="3.60157">
        <ele>133.80397033691</ele>
        <time>2014-04-13T07:45:06.000Z</time>
      </trkpt>
      <trkpt lat="50.10125" lon="3.60147">
        <ele>133.04098510742</ele>
        <time>2014-04-13T07:45:08.000Z</time>
      </trkpt>
      <trkpt lat="50.10116" lon="3.60133">
        <ele>132.1594543457</ele>
        <time>2014-04-13T07:45:11.000Z</time>
      </trkpt>
      <trkpt lat="50.10105" lon="3.60118">
        <ele>131.69763183594</ele>
        <time>2014-04-13T07:45:14.000Z</time>
      </trkpt>
      <trkpt lat="50.10098" lon="3.60107">
        <ele>131.0217590332</ele>
        <time>2014-04-13T07:45:16.000Z</time>
      </trkpt>
      <trkpt lat="50.10097" lon="3.60093">
        <ele>130.31425476074</ele>
        <time>2014-04-13T07:45:18.000Z</time>
      </trkpt>
      <trkpt lat="50.10097" lon="3.60079">
        <ele>130.25907897949</ele>
        <time>2014-04-13T07:45:20.000Z</time>
      </trkpt>
      <trkpt lat="50.1009" lon="3.60062">
        <ele>129.15840148926</ele>
        <time>2014-04-13T07:45:23.000Z</time>
      </trkpt>
      <trkpt lat="50.10082" lon="3.60051">
        <ele>128.1882019043</ele>
        <time>2014-04-13T07:45:25.000Z</time>
      </trkpt>
      <trkpt lat="50.10073" lon="3.60041">
        <ele>127.5830078125</ele>
        <time>2014-04-13T07:45:27.000Z</time>
      </trkpt>
      <trkpt lat="50.10066" lon="3.60033">
        <ele>127.53901672363</ele>
        <time>2014-04-13T07:45:29.000Z</time>
      </trkpt>
      <trkpt lat="50.10057" lon="3.60026">
        <ele>127.37021636963</ele>
        <time>2014-04-13T07:45:32.000Z</time>
      </trkpt>
      <trkpt lat="50.10048" lon="3.60016">
        <ele>127.85205078125</ele>
        <time>2014-04-13T07:45:35.000Z</time>
      </trkpt>
      <trkpt lat="50.10036" lon="3.6001">
        <ele>128.76689147949</ele>
        <time>2014-04-13T07:45:38.000Z</time>
      </trkpt>
      <trkpt lat="50.10028" lon="3.60004">
        <ele>129.48115539551</ele>
        <time>2014-04-13T07:45:40.000Z</time>
      </trkpt>
      <trkpt lat="50.10019" lon="3.59994">
        <ele>129.48405456543</ele>
        <time>2014-04-13T07:45:43.000Z</time>
      </trkpt>
      <trkpt lat="50.10017" lon="3.59992">
        <ele>129.53280639648</ele>
        <time>2014-04-13T07:45:45.000Z</time>
      </trkpt>
      <trkpt lat="50.10015" lon="3.59991">
        <ele>129.75</ele>
        <time>2014-04-13T07:45:47.000Z</time>
      </trkpt>
      <trkpt lat="50.10011" lon="3.5999">
        <ele>129.45381164551</ele>
        <time>2014-04-13T07:45:49.000Z</time>
      </trkpt>
      <trkpt lat="50.09999" lon="3.59991">
        <ele>128.3928527832</ele>
        <time>2014-04-13T07:45:52.000Z</time>
      </trkpt>
      <trkpt lat="50.09986" lon="3.59996">
        <ele>129.22201538086</ele>
        <time>2014-04-13T07:45:55.000Z</time>
      </trkpt>
      <trkpt lat="50.09978" lon="3.6">
        <ele>129.63977050781</ele>
        <time>2014-04-13T07:45:57.000Z</time>
      </trkpt>
      <trkpt lat="50.09967" lon="3.60013">
        <ele>129.93879699707</ele>
        <time>2014-04-13T07:46:00.000Z</time>
      </trkpt>
      <trkpt lat="50.09961" lon="3.60021">
        <ele>130.68603515625</ele>
        <time>2014-04-13T07:46:02.000Z</time>
      </trkpt>
      <trkpt lat="50.09956" lon="3.60029">
        <ele>132.63110351562</ele>
        <time>2014-04-13T07:46:04.000Z</time>
      </trkpt>
      <trkpt lat="50.09953" lon="3.60038">
        <ele>132.59451293945</ele>
        <time>2014-04-13T07:46:06.000Z</time>
      </trkpt>
      <trkpt lat="50.09942" lon="3.60059">
        <ele>132.99795532227</ele>
        <time>2014-04-13T07:46:09.000Z</time>
      </trkpt>
      <trkpt lat="50.09935" lon="3.6007">
        <ele>133.2995300293</ele>
        <time>2014-04-13T07:46:11.000Z</time>
      </trkpt>
      <trkpt lat="50.09924" lon="3.60088">
        <ele>133.58451843262</ele>
        <time>2014-04-13T07:46:14.000Z</time>
      </trkpt>
      <trkpt lat="50.09916" lon="3.60098">
        <ele>133.75717163086</ele>
        <time>2014-04-13T07:46:16.000Z</time>
      </trkpt>
      <trkpt lat="50.09905" lon="3.60115">
        <ele>134.13998413086</ele>
        <time>2014-04-13T07:46:19.000Z</time>
      </trkpt>
      <trkpt lat="50.099" lon="3.60124">
        <ele>134.20101928711</ele>
        <time>2014-04-13T07:46:21.000Z</time>
      </trkpt>
      <trkpt lat="50.09897" lon="3.60136">
        <ele>134.49880981445</ele>
        <time>2014-04-13T07:46:24.000Z</time>
      </trkpt>
      <trkpt lat="50.09897" lon="3.60145">
        <ele>134.10232543945</ele>
        <time>2014-04-13T07:46:26.000Z</time>
      </trkpt>
      <trkpt lat="50.09898" lon="3.6016">
        <ele>133.7942199707</ele>
        <time>2014-04-13T07:46:29.000Z</time>
      </trkpt>
      <trkpt lat="50.09899" lon="3.6017">
        <ele>134.06999206543</ele>
        <time>2014-04-13T07:46:31.000Z</time>
      </trkpt>
      <trkpt lat="50.099" lon="3.6018">
        <ele>134.41841125488</ele>
        <time>2014-04-13T07:46:33.000Z</time>
      </trkpt>
      <trkpt lat="50.09902" lon="3.60194">
        <ele>135.00473022461</ele>
        <time>2014-04-13T07:46:36.000Z</time>
      </trkpt>
      <trkpt lat="50.09902" lon="3.60202">
        <ele>136.26411437988</ele>
        <time>2014-04-13T07:46:38.000Z</time>
      </trkpt>
      <trkpt lat="50.09904" lon="3.60218">
        <ele>137.27084350586</ele>
        <time>2014-04-13T07:46:41.000Z</time>
      </trkpt>
      <trkpt lat="50.09906" lon="3.60229">
        <ele>137.80358886719</ele>
        <time>2014-04-13T07:46:43.000Z</time>
      </trkpt>
      <trkpt lat="50.09911" lon="3.60243">
        <ele>138.37255859375</ele>
        <time>2014-04-13T07:46:46.000Z</time>
      </trkpt>
      <trkpt lat="50.09916" lon="3.60259">
        <ele>138.68867492676</ele>
        <time>2014-04-13T07:46:49.000Z</time>
      </trkpt>
      <trkpt lat="50.0992" lon="3.60278">
        <ele>138.95007324219</ele>
        <time>2014-04-13T07:46:52.000Z</time>
      </trkpt>
      <trkpt lat="50.09918" lon="3.60296">
        <ele>139.29409790039</ele>
        <time>2014-04-13T07:46:55.000Z</time>
      </trkpt>
      <trkpt lat="50.09916" lon="3.60306">
        <ele>139.64865112305</ele>
        <time>2014-04-13T07:46:57.000Z</time>
      </trkpt>
      <trkpt lat="50.09913" lon="3.60323">
        <ele>140.37251281738</ele>
        <time>2014-04-13T07:47:00.000Z</time>
      </trkpt>
      <trkpt lat="50.09911" lon="3.6033">
        <ele>141.11967468262</ele>
        <time>2014-04-13T07:47:02.000Z</time>
      </trkpt>
      <trkpt lat="50.09909" lon="3.60341">
        <ele>141.73596191406</ele>
        <time>2014-04-13T07:47:05.000Z</time>
      </trkpt>
      <trkpt lat="50.09907" lon="3.60349">
        <ele>142.31489562988</ele>
        <time>2014-04-13T07:47:07.000Z</time>
      </trkpt>
      <trkpt lat="50.09902" lon="3.60363">
        <ele>142.97370910645</ele>
        <time>2014-04-13T07:47:10.000Z</time>
      </trkpt>
      <trkpt lat="50.09897" lon="3.60376">
        <ele>143.26760864258</ele>
        <time>2014-04-13T07:47:13.000Z</time>
      </trkpt>
      <trkpt lat="50.09899" lon="3.6039">
        <ele>143.56901550293</ele>
        <time>2014-04-13T07:47:16.000Z</time>
      </trkpt>
      <trkpt lat="50.09904" lon="3.60402">
        <ele>144.0542755127</ele>
        <time>2014-04-13T07:47:19.000Z</time>
      </trkpt>
      <trkpt lat="50.09907" lon="3.60413">
        <ele>144.67636108398</ele>
        <time>2014-04-13T07:47:22.000Z</time>
      </trkpt>
      <trkpt lat="50.09909" lon="3.60421">
        <ele>145.05746459961</ele>
        <time>2014-04-13T07:47:24.000Z</time>
      </trkpt>
      <trkpt lat="50.09908" lon="3.60431">
        <ele>145.33207702637</ele>
        <time>2014-04-13T07:47:26.000Z</time>
      </trkpt>
      <trkpt lat="50.09905" lon="3.60441">
        <ele>145.49758911133</ele>
        <time>2014-04-13T07:47:28.000Z</time>
      </trkpt>
      <trkpt lat="50.09899" lon="3.60454">
        <ele>145.69296264648</ele>
        <time>2014-04-13T07:47:31.000Z</time>
      </trkpt>
      <trkpt lat="50.09893" lon="3.60467">
        <ele>145.82707214355</ele>
        <time>2014-04-13T07:47:34.000Z</time>
      </trkpt>
      <trkpt lat="50.09889" lon="3.6048">
        <ele>146.0552520752</ele>
        <time>2014-04-13T07:47:37.000Z</time>
      </trkpt>
      <trkpt lat="50.09883" lon="3.6049">
        <ele>146.05053710938</ele>
        <time>2014-04-13T07:47:40.000Z</time>
      </trkpt>
      <trkpt lat="50.0988" lon="3.60499">
        <ele>146.18643188477</ele>
        <time>2014-04-13T07:47:42.000Z</time>
      </trkpt>
      <trkpt lat="50.09872" lon="3.60514">
        <ele>146.30693054199</ele>
        <time>2014-04-13T07:47:45.000Z</time>
      </trkpt>
      <trkpt lat="50.09868" lon="3.60521">
        <ele>146.31925964355</ele>
        <time>2014-04-13T07:47:47.000Z</time>
      </trkpt>
      <trkpt lat="50.09862" lon="3.60525">
        <ele>146.31575012207</ele>
        <time>2014-04-13T07:47:50.000Z</time>
      </trkpt>
      <trkpt lat="50.0986" lon="3.60529">
        <ele>146.5592956543</ele>
        <time>2014-04-13T07:47:52.000Z</time>
      </trkpt>
      <trkpt lat="50.09852" lon="3.6054">
        <ele>146.52224731445</ele>
        <time>2014-04-13T07:47:55.000Z</time>
      </trkpt>
      <trkpt lat="50.09846" lon="3.60546">
        <ele>146.36660766602</ele>
        <time>2014-04-13T07:47:57.000Z</time>
      </trkpt>
      <trkpt lat="50.09834" lon="3.60546">
        <ele>146.29643249512</ele>
        <time>2014-04-13T07:48:00.000Z</time>
      </trkpt>
      <trkpt lat="50.09826" lon="3.60541">
        <ele>146.16357421875</ele>
        <time>2014-04-13T07:48:02.000Z</time>
      </trkpt>
      <trkpt lat="50.09816" lon="3.60535">
        <ele>145.93977355957</ele>
        <time>2014-04-13T07:48:05.000Z</time>
      </trkpt>
      <trkpt lat="50.0981" lon="3.60537">
        <ele>145.78555297852</ele>
        <time>2014-04-13T07:48:07.000Z</time>
      </trkpt>
      <trkpt lat="50.09801" lon="3.60545">
        <ele>145.69198608398</ele>
        <time>2014-04-13T07:48:10.000Z</time>
      </trkpt>
      <trkpt lat="50.09796" lon="3.60552">
        <ele>145.56204223633</ele>
        <time>2014-04-13T07:48:12.000Z</time>
      </trkpt>
      <trkpt lat="50.09789" lon="3.60563">
        <ele>145.45658874512</ele>
        <time>2014-04-13T07:48:15.000Z</time>
      </trkpt>
      <trkpt lat="50.0978" lon="3.60572">
        <ele>145.16633605957</ele>
        <time>2014-04-13T07:48:18.000Z</time>
      </trkpt>
      <trkpt lat="50.09773" lon="3.60585">
        <ele>145.16482543945</ele>
        <time>2014-04-13T07:48:20.000Z</time>
      </trkpt>
      <trkpt lat="50.0976" lon="3.60615">
        <ele>145.263671875</ele>
        <time>2014-04-13T07:48:23.000Z</time>
      </trkpt>
      <trkpt lat="50.09756" lon="3.60627">
        <ele>145.32717895508</ele>
        <time>2014-04-13T07:48:25.000Z</time>
      </trkpt>
      <trkpt lat="50.09751" lon="3.60636">
        <ele>145.45532226562</ele>
        <time>2014-04-13T07:48:27.000Z</time>
      </trkpt>
      <trkpt lat="50.09745" lon="3.6065">
        <ele>145.79653930664</ele>
        <time>2014-04-13T07:48:30.000Z</time>
      </trkpt>
      <trkpt lat="50.09741" lon="3.60662">
        <ele>146.04638671875</ele>
        <time>2014-04-13T07:48:32.000Z</time>
      </trkpt>
      <trkpt lat="50.09735" lon="3.6068">
        <ele>146.24893188477</ele>
        <time>2014-04-13T07:48:35.000Z</time>
      </trkpt>
      <trkpt lat="50.09732" lon="3.60692">
        <ele>146.20962524414</ele>
        <time>2014-04-13T07:48:37.000Z</time>
      </trkpt>
      <trkpt lat="50.09726" lon="3.60711">
        <ele>146.39611816406</ele>
        <time>2014-04-13T07:48:40.000Z</time>
      </trkpt>
      <trkpt lat="50.09721" lon="3.60724">
        <ele>146.76277160645</ele>
        <time>2014-04-13T07:48:42.000Z</time>
      </trkpt>
      <trkpt lat="50.09714" lon="3.60742">
        <ele>146.79495239258</ele>
        <time>2014-04-13T07:48:45.000Z</time>
      </trkpt>
      <trkpt lat="50.09707" lon="3.60758">
        <ele>146.88578796387</ele>
        <time>2014-04-13T07:48:48.000Z</time>
      </trkpt>
      <trkpt lat="50.09703" lon="3.60769">
        <ele>147.18061828613</ele>
        <time>2014-04-13T07:48:50.000Z</time>
      </trkpt>
      <trkpt lat="50.097" lon="3.60788">
        <ele>147.2447052002</ele>
        <time>2014-04-13T07:48:53.000Z</time>
      </trkpt>
      <trkpt lat="50.09698" lon="3.608">
        <ele>147.17292785645</ele>
        <time>2014-04-13T07:48:55.000Z</time>
      </trkpt>
      <trkpt lat="50.09692" lon="3.60816">
        <ele>147.31159973145</ele>
        <time>2014-04-13T07:48:58.000Z</time>
      </trkpt>
      <trkpt lat="50.09688" lon="3.60827">
        <ele>147.1838684082</ele>
        <time>2014-04-13T07:49:00.000Z</time>
      </trkpt>
      <trkpt lat="50.09683" lon="3.60839">
        <ele>146.87734985352</ele>
        <time>2014-04-13T07:49:03.000Z</time>
      </trkpt>
      <trkpt lat="50.09677" lon="3.60845">
        <ele>146.73420715332</ele>
        <time>2014-04-13T07:49:05.000Z</time>
      </trkpt>
      <trkpt lat="50.09666" lon="3.60854">
        <ele>146.57499694824</ele>
        <time>2014-04-13T07:49:08.000Z</time>
      </trkpt>
      <trkpt lat="50.09659" lon="3.60861">
        <ele>146.24775695801</ele>
        <time>2014-04-13T07:49:10.000Z</time>
      </trkpt>
      <trkpt lat="50.09648" lon="3.6087">
        <ele>145.8264465332</ele>
        <time>2014-04-13T07:49:13.000Z</time>
      </trkpt>
      <trkpt lat="50.09642" lon="3.60876">
        <ele>145.63815307617</ele>
        <time>2014-04-13T07:49:15.000Z</time>
      </trkpt>
      <trkpt lat="50.0963" lon="3.60883">
        <ele>145.21867370605</ele>
        <time>2014-04-13T07:49:18.000Z</time>
      </trkpt>
      <trkpt lat="50.09621" lon="3.60886">
        <ele>144.77255249023</ele>
        <time>2014-04-13T07:49:20.000Z</time>
      </trkpt>
      <trkpt lat="50.09606" lon="3.60892">
        <ele>144.31652832031</ele>
        <time>2014-04-13T07:49:23.000Z</time>
      </trkpt>
      <trkpt lat="50.09597" lon="3.60899">
        <ele>143.96882629395</ele>
        <time>2014-04-13T07:49:25.000Z</time>
      </trkpt>
      <trkpt lat="50.09592" lon="3.6091">
        <ele>143.64468383789</ele>
        <time>2014-04-13T07:49:27.000Z</time>
      </trkpt>
      <trkpt lat="50.09593" lon="3.60924">
        <ele>143.43838500977</ele>
        <time>2014-04-13T07:49:29.000Z</time>
      </trkpt>
      <trkpt lat="50.09598" lon="3.60953">
        <ele>143.36787414551</ele>
        <time>2014-04-13T07:49:32.000Z</time>
      </trkpt>
      <trkpt lat="50.09599" lon="3.60971">
        <ele>143.25495910645</ele>
        <time>2014-04-13T07:49:35.000Z</time>
      </trkpt>
      <trkpt lat="50.09603" lon="3.60986">
        <ele>142.65744018555</ele>
        <time>2014-04-13T07:49:38.000Z</time>
      </trkpt>
      <trkpt lat="50.09605" lon="3.61004">
        <ele>142.54653930664</ele>
        <time>2014-04-13T07:49:40.000Z</time>
      </trkpt>
      <trkpt lat="50.09608" lon="3.61014">
        <ele>142.41653442383</ele>
        <time>2014-04-13T07:49:42.000Z</time>
      </trkpt>
      <trkpt lat="50.09612" lon="3.61027">
        <ele>142.48388671875</ele>
        <time>2014-04-13T07:49:45.000Z</time>
      </trkpt>
      <trkpt lat="50.09615" lon="3.61039">
        <ele>142.99128723145</ele>
        <time>2014-04-13T07:49:48.000Z</time>
      </trkpt>
      <trkpt lat="50.09616" lon="3.61046">
        <ele>144.08354187012</ele>
        <time>2014-04-13T07:49:50.000Z</time>
      </trkpt>
      <trkpt lat="50.09618" lon="3.61055">
        <ele>144.5412902832</ele>
        <time>2014-04-13T07:49:52.000Z</time>
      </trkpt>
      <trkpt lat="50.09621" lon="3.61066">
        <ele>144.9361114502</ele>
        <time>2014-04-13T07:49:54.000Z</time>
      </trkpt>
      <trkpt lat="50.09625" lon="3.61082">
        <ele>145.02046203613</ele>
        <time>2014-04-13T07:49:57.000Z</time>
      </trkpt>
      <trkpt lat="50.09626" lon="3.61092">
        <ele>145.0544128418</ele>
        <time>2014-04-13T07:49:59.000Z</time>
      </trkpt>
      <trkpt lat="50.09628" lon="3.611">
        <ele>145.20129394531</ele>
        <time>2014-04-13T07:50:01.000Z</time>
      </trkpt>
      <trkpt lat="50.09631" lon="3.61112">
        <ele>145.68423461914</ele>
        <time>2014-04-13T07:50:04.000Z</time>
      </trkpt>
      <trkpt lat="50.09632" lon="3.61121">
        <ele>146.03215026855</ele>
        <time>2014-04-13T07:50:07.000Z</time>
      </trkpt>
      <trkpt lat="50.09635" lon="3.61129">
        <ele>146.55192565918</ele>
        <time>2014-04-13T07:50:09.000Z</time>
      </trkpt>
      <trkpt lat="50.09639" lon="3.6114">
        <ele>146.87844848633</ele>
        <time>2014-04-13T07:50:11.000Z</time>
      </trkpt>
      <trkpt lat="50.09645" lon="3.61156">
        <ele>147.15737915039</ele>
        <time>2014-04-13T07:50:14.000Z</time>
      </trkpt>
      <trkpt lat="50.09649" lon="3.61173">
        <ele>146.95561218262</ele>
        <time>2014-04-13T07:50:17.000Z</time>
      </trkpt>
      <trkpt lat="50.09651" lon="3.61183">
        <ele>147.0100402832</ele>
        <time>2014-04-13T07:50:19.000Z</time>
      </trkpt>
      <trkpt lat="50.09656" lon="3.61197">
        <ele>146.98159790039</ele>
        <time>2014-04-13T07:50:22.000Z</time>
      </trkpt>
      <trkpt lat="50.09661" lon="3.61211">
        <ele>146.91732788086</ele>
        <time>2014-04-13T07:50:25.000Z</time>
      </trkpt>
      <trkpt lat="50.09663" lon="3.6122">
        <ele>146.76351928711</ele>
        <time>2014-04-13T07:50:27.000Z</time>
      </trkpt>
      <trkpt lat="50.09663" lon="3.61234">
        <ele>146.85441589355</ele>
        <time>2014-04-13T07:50:30.000Z</time>
      </trkpt>
      <trkpt lat="50.09664" lon="3.61244">
        <ele>146.88464355469</ele>
        <time>2014-04-13T07:50:32.000Z</time>
      </trkpt>
      <trkpt lat="50.09666" lon="3.6126">
        <ele>146.78982543945</ele>
        <time>2014-04-13T07:50:35.000Z</time>
      </trkpt>
      <trkpt lat="50.09668" lon="3.61272">
        <ele>146.78645324707</ele>
        <time>2014-04-13T07:50:37.000Z</time>
      </trkpt>
      <trkpt lat="50.09673" lon="3.61293">
        <ele>146.76850891113</ele>
        <time>2014-04-13T07:50:40.000Z</time>
      </trkpt>
      <trkpt lat="50.09677" lon="3.61306">
        <ele>146.80221557617</ele>
        <time>2014-04-13T07:50:42.000Z</time>
      </trkpt>
      <trkpt lat="50.09681" lon="3.61322">
        <ele>146.62370300293</ele>
        <time>2014-04-13T07:50:45.000Z</time>
      </trkpt>
      <trkpt lat="50.09685" lon="3.61332">
        <ele>146.50524902344</ele>
        <time>2014-04-13T07:50:47.000Z</time>
      </trkpt>
      <trkpt lat="50.0969" lon="3.61347">
        <ele>146.06828308105</ele>
        <time>2014-04-13T07:50:50.000Z</time>
      </trkpt>
      <trkpt lat="50.09695" lon="3.61361">
        <ele>145.69987487793</ele>
        <time>2014-04-13T07:50:53.000Z</time>
      </trkpt>
      <trkpt lat="50.097" lon="3.61375">
        <ele>145.39334106445</ele>
        <time>2014-04-13T07:50:56.000Z</time>
      </trkpt>
      <trkpt lat="50.09706" lon="3.61389">
        <ele>145.44137573242</ele>
        <time>2014-04-13T07:50:59.000Z</time>
      </trkpt>
      <trkpt lat="50.0971" lon="3.614">
        <ele>145.51420593262</ele>
        <time>2014-04-13T07:51:01.000Z</time>
      </trkpt>
      <trkpt lat="50.09716" lon="3.61416">
        <ele>145.74508666992</ele>
        <time>2014-04-13T07:51:04.000Z</time>
      </trkpt>
      <trkpt lat="50.09721" lon="3.61429">
        <ele>146.01692199707</ele>
        <time>2014-04-13T07:51:07.000Z</time>
      </trkpt>
      <trkpt lat="50.09725" lon="3.61441">
        <ele>146.17842102051</ele>
        <time>2014-04-13T07:51:09.000Z</time>
      </trkpt>
      <trkpt lat="50.09729" lon="3.61459">
        <ele>146.3833770752</ele>
        <time>2014-04-13T07:51:12.000Z</time>
      </trkpt>
      <trkpt lat="50.09737" lon="3.61475">
        <ele>146.41946411133</ele>
        <time>2014-04-13T07:51:15.000Z</time>
      </trkpt>
      <trkpt lat="50.09743" lon="3.61491">
        <ele>146.4810333252</ele>
        <time>2014-04-13T07:51:18.000Z</time>
      </trkpt>
      <trkpt lat="50.09752" lon="3.615">
        <ele>146.591796875</ele>
        <time>2014-04-13T07:51:20.000Z</time>
      </trkpt>
      <trkpt lat="50.09756" lon="3.61486">
        <ele>146.82035827637</ele>
        <time>2014-04-13T07:51:23.000Z</time>
      </trkpt>
      <trkpt lat="50.09759" lon="3.61479">
        <ele>146.84008789062</ele>
        <time>2014-04-13T07:51:25.000Z</time>
      </trkpt>
      <trkpt lat="50.09762" lon="3.61472">
        <ele>147.06803894043</ele>
        <time>2014-04-13T07:51:27.000Z</time>
      </trkpt>
      <trkpt lat="50.0977" lon="3.61461">
        <ele>147.57418823242</ele>
        <time>2014-04-13T07:51:30.000Z</time>
      </trkpt>
      <trkpt lat="50.09774" lon="3.61456">
        <ele>147.94546508789</ele>
        <time>2014-04-13T07:51:32.000Z</time>
      </trkpt>
      <trkpt lat="50.09781" lon="3.61449">
        <ele>148.12983703613</ele>
        <time>2014-04-13T07:51:35.000Z</time>
      </trkpt>
      <trkpt lat="50.09787" lon="3.61441">
        <ele>148.38204956055</ele>
        <time>2014-04-13T07:51:37.000Z</time>
      </trkpt>
      <trkpt lat="50.09797" lon="3.61432">
        <ele>148.5152130127</ele>
        <time>2014-04-13T07:51:40.000Z</time>
      </trkpt>
      <trkpt lat="50.09807" lon="3.61421">
        <ele>148.45104980469</ele>
        <time>2014-04-13T07:51:43.000Z</time>
      </trkpt>
      <trkpt lat="50.0981" lon="3.61412">
        <ele>148.27438354492</ele>
        <time>2014-04-13T07:51:45.000Z</time>
      </trkpt>
      <trkpt lat="50.09815" lon="3.61396">
        <ele>148.17472839355</ele>
        <time>2014-04-13T07:51:48.000Z</time>
      </trkpt>
      <trkpt lat="50.09818" lon="3.61386">
        <ele>148.04626464844</ele>
        <time>2014-04-13T07:51:50.000Z</time>
      </trkpt>
      <trkpt lat="50.09819" lon="3.61367">
        <ele>147.8921661377</ele>
        <time>2014-04-13T07:51:53.000Z</time>
      </trkpt>
      <trkpt lat="50.09819" lon="3.6135">
        <ele>147.76875305176</ele>
        <time>2014-04-13T07:51:56.000Z</time>
      </trkpt>
      <trkpt lat="50.09817" lon="3.61333">
        <ele>147.81686401367</ele>
        <time>2014-04-13T07:51:58.000Z</time>
      </trkpt>
      <trkpt lat="50.09816" lon="3.6132">
        <ele>148.04748535156</ele>
        <time>2014-04-13T07:52:00.000Z</time>
      </trkpt>
      <trkpt lat="50.09821" lon="3.61299">
        <ele>147.99853515625</ele>
        <time>2014-04-13T07:52:03.000Z</time>
      </trkpt>
      <trkpt lat="50.09824" lon="3.61288">
        <ele>148.00793457031</ele>
        <time>2014-04-13T07:52:05.000Z</time>
      </trkpt>
      <trkpt lat="50.09831" lon="3.61277">
        <ele>148.14608764648</ele>
        <time>2014-04-13T07:52:08.000Z</time>
      </trkpt>
      <trkpt lat="50.09834" lon="3.61268">
        <ele>148.12399291992</ele>
        <time>2014-04-13T07:52:10.000Z</time>
      </trkpt>
      <trkpt lat="50.0984" lon="3.6125">
        <ele>147.86544799805</ele>
        <time>2014-04-13T07:52:13.000Z</time>
      </trkpt>
      <trkpt lat="50.09848" lon="3.61232">
        <ele>147.77267456055</ele>
        <time>2014-04-13T07:52:16.000Z</time>
      </trkpt>
      <trkpt lat="50.09857" lon="3.61217">
        <ele>147.88557434082</ele>
        <time>2014-04-13T07:52:19.000Z</time>
      </trkpt>
      <trkpt lat="50.09861" lon="3.61211">
        <ele>147.87617492676</ele>
        <time>2014-04-13T07:52:21.000Z</time>
      </trkpt>
      <trkpt lat="50.09866" lon="3.61206">
        <ele>148.02865600586</ele>
        <time>2014-04-13T07:52:23.000Z</time>
      </trkpt>
      <trkpt lat="50.09871" lon="3.61201">
        <ele>148.30331420898</ele>
        <time>2014-04-13T07:52:25.000Z</time>
      </trkpt>
      <trkpt lat="50.09881" lon="3.61198">
        <ele>148.65263366699</ele>
        <time>2014-04-13T07:52:28.000Z</time>
      </trkpt>
      <trkpt lat="50.09888" lon="3.61198">
        <ele>148.74380493164</ele>
        <time>2014-04-13T07:52:30.000Z</time>
      </trkpt>
      <trkpt lat="50.099" lon="3.61197">
        <ele>148.7585144043</ele>
        <time>2014-04-13T07:52:33.000Z</time>
      </trkpt>
      <trkpt lat="50.09908" lon="3.61196">
        <ele>148.70861816406</ele>
        <time>2014-04-13T07:52:35.000Z</time>
      </trkpt>
      <trkpt lat="50.09916" lon="3.61193">
        <ele>148.69555664062</ele>
        <time>2014-04-13T07:52:37.000Z</time>
      </trkpt>
      <trkpt lat="50.09924" lon="3.6119">
        <ele>148.63595581055</ele>
        <time>2014-04-13T07:52:39.000Z</time>
      </trkpt>
      <trkpt lat="50.09936" lon="3.61191">
        <ele>148.55717468262</ele>
        <time>2014-04-13T07:52:42.000Z</time>
      </trkpt>
      <trkpt lat="50.09945" lon="3.61193">
        <ele>148.68893432617</ele>
        <time>2014-04-13T07:52:44.000Z</time>
      </trkpt>
      <trkpt lat="50.09959" lon="3.61192">
        <ele>148.65805053711</ele>
        <time>2014-04-13T07:52:47.000Z</time>
      </trkpt>
      <trkpt lat="50.0997" lon="3.61189">
        <ele>148.50773620605</ele>
        <time>2014-04-13T07:52:49.000Z</time>
      </trkpt>
      <trkpt lat="50.0998" lon="3.61191">
        <ele>148.12719726562</ele>
        <time>2014-04-13T07:52:51.000Z</time>
      </trkpt>
      <trkpt lat="50.0999" lon="3.61202">
        <ele>147.8715057373</ele>
        <time>2014-04-13T07:52:54.000Z</time>
      </trkpt>
      <trkpt lat="50.09991" lon="3.61231">
        <ele>147.38082885742</ele>
        <time>2014-04-13T07:52:57.000Z</time>
      </trkpt>
      <trkpt lat="50.09994" lon="3.61249">
        <ele>146.92170715332</ele>
        <time>2014-04-13T07:52:59.000Z</time>
      </trkpt>
      <trkpt lat="50.09996" lon="3.61268">
        <ele>146.28324890137</ele>
        <time>2014-04-13T07:53:01.000Z</time>
      </trkpt>
      <trkpt lat="50.09995" lon="3.61285">
        <ele>146.07229614258</ele>
        <time>2014-04-13T07:53:04.000Z</time>
      </trkpt>
      <trkpt lat="50.09996" lon="3.61295">
        <ele>145.58992004395</ele>
        <time>2014-04-13T07:53:06.000Z</time>
      </trkpt>
      <trkpt lat="50.09998" lon="3.61309">
        <ele>145.25119018555</ele>
        <time>2014-04-13T07:53:09.000Z</time>
      </trkpt>
      <trkpt lat="50.10001" lon="3.61318">
        <ele>144.96537780762</ele>
        <time>2014-04-13T07:53:11.000Z</time>
      </trkpt>
      <trkpt lat="50.10003" lon="3.61333">
        <ele>145.07626342773</ele>
        <time>2014-04-13T07:53:13.000Z</time>
      </trkpt>
      <trkpt lat="50.09998" lon="3.61359">
        <ele>145.20536804199</ele>
        <time>2014-04-13T07:53:16.000Z</time>
      </trkpt>
      <trkpt lat="50.09997" lon="3.61379">
        <ele>145.36791992188</ele>
        <time>2014-04-13T07:53:19.000Z</time>
      </trkpt>
      <trkpt lat="50.09996" lon="3.6139">
        <ele>145.51333618164</ele>
        <time>2014-04-13T07:53:21.000Z</time>
      </trkpt>
      <trkpt lat="50.09994" lon="3.61401">
        <ele>145.68070983887</ele>
        <time>2014-04-13T07:53:23.000Z</time>
      </trkpt>
      <trkpt lat="50.0999" lon="3.61412">
        <ele>145.67448425293</ele>
        <time>2014-04-13T07:53:25.000Z</time>
      </trkpt>
      <trkpt lat="50.09989" lon="3.6143">
        <ele>145.63528442383</ele>
        <time>2014-04-13T07:53:28.000Z</time>
      </trkpt>
      <trkpt lat="50.09988" lon="3.61448">
        <ele>145.9482421875</ele>
        <time>2014-04-13T07:53:31.000Z</time>
      </trkpt>
      <trkpt lat="50.09987" lon="3.61465">
        <ele>146.21015930176</ele>
        <time>2014-04-13T07:53:34.000Z</time>
      </trkpt>
      <trkpt lat="50.09987" lon="3.61475">
        <ele>146.67422485352</ele>
        <time>2014-04-13T07:53:36.000Z</time>
      </trkpt>
      <trkpt lat="50.09987" lon="3.61486">
        <ele>147.08605957031</ele>
        <time>2014-04-13T07:53:38.000Z</time>
      </trkpt>
      <trkpt lat="50.09987" lon="3.61501">
        <ele>147.30097961426</ele>
        <time>2014-04-13T07:53:41.000Z</time>
      </trkpt>
      <trkpt lat="50.09988" lon="3.61514">
        <ele>147.39018249512</ele>
        <time>2014-04-13T07:53:44.000Z</time>
      </trkpt>
      <trkpt lat="50.09989" lon="3.61525">
        <ele>147.30648803711</ele>
        <time>2014-04-13T07:53:47.000Z</time>
      </trkpt>
      <trkpt lat="50.09991" lon="3.61537">
        <ele>146.99067687988</ele>
        <time>2014-04-13T07:53:50.000Z</time>
      </trkpt>
      <trkpt lat="50.09993" lon="3.6155">
        <ele>146.9593963623</ele>
        <time>2014-04-13T07:53:53.000Z</time>
      </trkpt>
      <trkpt lat="50.09995" lon="3.6156">
        <ele>146.73449707031</ele>
        <time>2014-04-13T07:53:55.000Z</time>
      </trkpt>
      <trkpt lat="50.09996" lon="3.61575">
        <ele>146.11502075195</ele>
        <time>2014-04-13T07:53:58.000Z</time>
      </trkpt>
      <trkpt lat="50.09997" lon="3.61585">
        <ele>146.22062683105</ele>
        <time>2014-04-13T07:54:00.000Z</time>
      </trkpt>
      <trkpt lat="50.1" lon="3.61601">
        <ele>146.66191101074</ele>
        <time>2014-04-13T07:54:03.000Z</time>
      </trkpt>
      <trkpt lat="50.10002" lon="3.61617">
        <ele>146.85787963867</ele>
        <time>2014-04-13T07:54:06.000Z</time>
      </trkpt>
      <trkpt lat="50.10004" lon="3.61628">
        <ele>147.09712219238</ele>
        <time>2014-04-13T07:54:08.000Z</time>
      </trkpt>
      <trkpt lat="50.10008" lon="3.61644">
        <ele>147.70471191406</ele>
        <time>2014-04-13T07:54:11.000Z</time>
      </trkpt>
      <trkpt lat="50.1001" lon="3.61656">
        <ele>147.82511901855</ele>
        <time>2014-04-13T07:54:13.000Z</time>
      </trkpt>
      <trkpt lat="50.10012" lon="3.6167">
        <ele>147.50354003906</ele>
        <time>2014-04-13T07:54:15.000Z</time>
      </trkpt>
      <trkpt lat="50.10017" lon="3.61698">
        <ele>147.1911315918</ele>
        <time>2014-04-13T07:54:18.000Z</time>
      </trkpt>
      <trkpt lat="50.1002" lon="3.6172">
        <ele>146.98640441895</ele>
        <time>2014-04-13T07:54:21.000Z</time>
      </trkpt>
      <trkpt lat="50.10023" lon="3.61745">
        <ele>146.38943481445</ele>
        <time>2014-04-13T07:54:24.000Z</time>
      </trkpt>
      <trkpt lat="50.10026" lon="3.61768">
        <ele>145.86665344238</ele>
        <time>2014-04-13T07:54:27.000Z</time>
      </trkpt>
      <trkpt lat="50.10027" lon="3.61789">
        <ele>145.42208862305</ele>
        <time>2014-04-13T07:54:30.000Z</time>
      </trkpt>
      <trkpt lat="50.10028" lon="3.61806">
        <ele>144.83491516113</ele>
        <time>2014-04-13T07:54:32.000Z</time>
      </trkpt>
      <trkpt lat="50.10031" lon="3.61829">
        <ele>144.19841003418</ele>
        <time>2014-04-13T07:54:35.000Z</time>
      </trkpt>
      <trkpt lat="50.10037" lon="3.61854">
        <ele>144.14213562012</ele>
        <time>2014-04-13T07:54:38.000Z</time>
      </trkpt>
      <trkpt lat="50.1004" lon="3.61876">
        <ele>144.09658813477</ele>
        <time>2014-04-13T07:54:41.000Z</time>
      </trkpt>
      <trkpt lat="50.10042" lon="3.61891">
        <ele>144.19123840332</ele>
        <time>2014-04-13T07:54:43.000Z</time>
      </trkpt>
      <trkpt lat="50.10045" lon="3.6191">
        <ele>144.27517700195</ele>
        <time>2014-04-13T07:54:46.000Z</time>
      </trkpt>
      <trkpt lat="50.10047" lon="3.61931">
        <ele>144.49629211426</ele>
        <time>2014-04-13T07:54:49.000Z</time>
      </trkpt>
      <trkpt lat="50.1005" lon="3.61946">
        <ele>144.54043579102</ele>
        <time>2014-04-13T07:54:51.000Z</time>
      </trkpt>
      <trkpt lat="50.10052" lon="3.61964">
        <ele>144.52018737793</ele>
        <time>2014-04-13T07:54:54.000Z</time>
      </trkpt>
      <trkpt lat="50.10056" lon="3.61978">
        <ele>144.25981140137</ele>
        <time>2014-04-13T07:54:56.000Z</time>
      </trkpt>
      <trkpt lat="50.10059" lon="3.61991">
        <ele>144.16120910645</ele>
        <time>2014-04-13T07:54:58.000Z</time>
      </trkpt>
      <trkpt lat="50.10064" lon="3.6201">
        <ele>144.17761230469</ele>
        <time>2014-04-13T07:55:01.000Z</time>
      </trkpt>
      <trkpt lat="50.10068" lon="3.62022">
        <ele>144.07180786133</ele>
        <time>2014-04-13T07:55:03.000Z</time>
      </trkpt>
      <trkpt lat="50.10071" lon="3.62035">
        <ele>144.03439331055</ele>
        <time>2014-04-13T07:55:05.000Z</time>
      </trkpt>
      <trkpt lat="50.10076" lon="3.62052">
        <ele>143.67459106445</ele>
        <time>2014-04-13T07:55:08.000Z</time>
      </trkpt>
      <trkpt lat="50.10078" lon="3.62065">
        <ele>143.1734161377</ele>
        <time>2014-04-13T07:55:10.000Z</time>
      </trkpt>
      <trkpt lat="50.10081" lon="3.62086">
        <ele>142.7912902832</ele>
        <time>2014-04-13T07:55:13.000Z</time>
      </trkpt>
      <trkpt lat="50.10085" lon="3.62106">
        <ele>142.50500488281</ele>
        <time>2014-04-13T07:55:16.000Z</time>
      </trkpt>
      <trkpt lat="50.10088" lon="3.62118">
        <ele>142.2816619873</ele>
        <time>2014-04-13T07:55:18.000Z</time>
      </trkpt>
      <trkpt lat="50.10092" lon="3.62132">
        <ele>142.55944824219</ele>
        <time>2014-04-13T07:55:20.000Z</time>
      </trkpt>
      <trkpt lat="50.10097" lon="3.62153">
        <ele>142.6852722168</ele>
        <time>2014-04-13T07:55:23.000Z</time>
      </trkpt>
      <trkpt lat="50.10098" lon="3.62167">
        <ele>142.25080871582</ele>
        <time>2014-04-13T07:55:25.000Z</time>
      </trkpt>
      <trkpt lat="50.101" lon="3.62181">
        <ele>141.60063171387</ele>
        <time>2014-04-13T07:55:27.000Z</time>
      </trkpt>
      <trkpt lat="50.10099" lon="3.62195">
        <ele>140.36250305176</ele>
        <time>2014-04-13T07:55:29.000Z</time>
      </trkpt>
      <trkpt lat="50.10098" lon="3.62218">
        <ele>138.44900512695</ele>
        <time>2014-04-13T07:55:32.000Z</time>
      </trkpt>
      <trkpt lat="50.10096" lon="3.6223">
        <ele>136.72229003906</ele>
        <time>2014-04-13T07:55:34.000Z</time>
      </trkpt>
      <trkpt lat="50.10096" lon="3.62251">
        <ele>135.14108276367</ele>
        <time>2014-04-13T07:55:37.000Z</time>
      </trkpt>
      <trkpt lat="50.10102" lon="3.62263">
        <ele>133.88854980469</ele>
        <time>2014-04-13T07:55:39.000Z</time>
      </trkpt>
      <trkpt lat="50.1011" lon="3.6228">
        <ele>132.61026000977</ele>
        <time>2014-04-13T07:55:42.000Z</time>
      </trkpt>
      <trkpt lat="50.10122" lon="3.62302">
        <ele>132.87844848633</ele>
        <time>2014-04-13T07:55:45.000Z</time>
      </trkpt>
      <trkpt lat="50.10134" lon="3.62324">
        <ele>132.88468933105</ele>
        <time>2014-04-13T07:55:48.000Z</time>
      </trkpt>
      <trkpt lat="50.10141" lon="3.62339">
        <ele>133.0843963623</ele>
        <time>2014-04-13T07:55:50.000Z</time>
      </trkpt>
      <trkpt lat="50.10154" lon="3.62359">
        <ele>133.4545135498</ele>
        <time>2014-04-13T07:55:53.000Z</time>
      </trkpt>
      <trkpt lat="50.10167" lon="3.62374">
        <ele>134.39440917969</ele>
        <time>2014-04-13T07:55:56.000Z</time>
      </trkpt>
      <trkpt lat="50.10178" lon="3.62394">
        <ele>134.46603393555</ele>
        <time>2014-04-13T07:55:59.000Z</time>
      </trkpt>
      <trkpt lat="50.1019" lon="3.62417">
        <ele>134.4994354248</ele>
        <time>2014-04-13T07:56:02.000Z</time>
      </trkpt>
      <trkpt lat="50.102" lon="3.62438">
        <ele>134.53984069824</ele>
        <time>2014-04-13T07:56:05.000Z</time>
      </trkpt>
      <trkpt lat="50.1021" lon="3.62457">
        <ele>134.37869262695</ele>
        <time>2014-04-13T07:56:08.000Z</time>
      </trkpt>
      <trkpt lat="50.10222" lon="3.62477">
        <ele>134.32971191406</ele>
        <time>2014-04-13T07:56:11.000Z</time>
      </trkpt>
      <trkpt lat="50.10232" lon="3.62496">
        <ele>134.53646850586</ele>
        <time>2014-04-13T07:56:14.000Z</time>
      </trkpt>
      <trkpt lat="50.1024" lon="3.62509">
        <ele>134.93278503418</ele>
        <time>2014-04-13T07:56:16.000Z</time>
      </trkpt>
      <trkpt lat="50.10249" lon="3.62527">
        <ele>135.23234558105</ele>
        <time>2014-04-13T07:56:19.000Z</time>
      </trkpt>
      <trkpt lat="50.10255" lon="3.62539">
        <ele>135.6029510498</ele>
        <time>2014-04-13T07:56:21.000Z</time>
      </trkpt>
      <trkpt lat="50.10266" lon="3.62556">
        <ele>135.71926879883</ele>
        <time>2014-04-13T07:56:24.000Z</time>
      </trkpt>
      <trkpt lat="50.10272" lon="3.62568">
        <ele>135.54084777832</ele>
        <time>2014-04-13T07:56:26.000Z</time>
      </trkpt>
      <trkpt lat="50.10281" lon="3.62583">
        <ele>135.24502563477</ele>
        <time>2014-04-13T07:56:29.000Z</time>
      </trkpt>
      <trkpt lat="50.10287" lon="3.62596">
        <ele>135.31030273438</ele>
        <time>2014-04-13T07:56:31.000Z</time>
      </trkpt>
      <trkpt lat="50.10298" lon="3.62613">
        <ele>135.50981140137</ele>
        <time>2014-04-13T07:56:34.000Z</time>
      </trkpt>
      <trkpt lat="50.10306" lon="3.62624">
        <ele>135.7985534668</ele>
        <time>2014-04-13T07:56:36.000Z</time>
      </trkpt>
      <trkpt lat="50.10313" lon="3.62634">
        <ele>136.26225280762</ele>
        <time>2014-04-13T07:56:38.000Z</time>
      </trkpt>
      <trkpt lat="50.10326" lon="3.62647">
        <ele>137.09558105469</ele>
        <time>2014-04-13T07:56:41.000Z</time>
      </trkpt>
      <trkpt lat="50.10334" lon="3.62657">
        <ele>137.91218566895</ele>
        <time>2014-04-13T07:56:43.000Z</time>
      </trkpt>
      <trkpt lat="50.10345" lon="3.62668">
        <ele>138.46574401855</ele>
        <time>2014-04-13T07:56:46.000Z</time>
      </trkpt>
      <trkpt lat="50.10363" lon="3.6267">
        <ele>139.00326538086</ele>
        <time>2014-04-13T07:56:49.000Z</time>
      </trkpt>
      <trkpt lat="50.10374" lon="3.62659">
        <ele>139.74662780762</ele>
        <time>2014-04-13T07:56:52.000Z</time>
      </trkpt>
      <trkpt lat="50.10381" lon="3.62651">
        <ele>140.48416137695</ele>
        <time>2014-04-13T07:56:54.000Z</time>
      </trkpt>
      <trkpt lat="50.10394" lon="3.62637">
        <ele>140.8990020752</ele>
        <time>2014-04-13T07:56:57.000Z</time>
      </trkpt>
      <trkpt lat="50.10401" lon="3.62629">
        <ele>141.17892456055</ele>
        <time>2014-04-13T07:56:59.000Z</time>
      </trkpt>
      <trkpt lat="50.10409" lon="3.62621">
        <ele>141.46780395508</ele>
        <time>2014-04-13T07:57:01.000Z</time>
      </trkpt>
      <trkpt lat="50.1042" lon="3.62609">
        <ele>141.44657897949</ele>
        <time>2014-04-13T07:57:04.000Z</time>
      </trkpt>
      <trkpt lat="50.10429" lon="3.62599">
        <ele>141.23693847656</ele>
        <time>2014-04-13T07:57:06.000Z</time>
      </trkpt>
      <trkpt lat="50.10437" lon="3.6259">
        <ele>140.98831176758</ele>
        <time>2014-04-13T07:57:08.000Z</time>
      </trkpt>
      <trkpt lat="50.1045" lon="3.62577">
        <ele>140.38166809082</ele>
        <time>2014-04-13T07:57:11.000Z</time>
      </trkpt>
      <trkpt lat="50.10458" lon="3.62568">
        <ele>139.80041503906</ele>
        <time>2014-04-13T07:57:13.000Z</time>
      </trkpt>
      <trkpt lat="50.10471" lon="3.62556">
        <ele>138.80126953125</ele>
        <time>2014-04-13T07:57:16.000Z</time>
      </trkpt>
      <trkpt lat="50.10483" lon="3.62542">
        <ele>137.7543182373</ele>
        <time>2014-04-13T07:57:19.000Z</time>
      </trkpt>
      <trkpt lat="50.10491" lon="3.62534">
        <ele>137.15412902832</ele>
        <time>2014-04-13T07:57:21.000Z</time>
      </trkpt>
      <trkpt lat="50.10501" lon="3.62523">
        <ele>136.61457824707</ele>
        <time>2014-04-13T07:57:23.000Z</time>
      </trkpt>
      <trkpt lat="50.10516" lon="3.62507">
        <ele>135.76681518555</ele>
        <time>2014-04-13T07:57:26.000Z</time>
      </trkpt>
      <trkpt lat="50.10528" lon="3.62494">
        <ele>135.84460449219</ele>
        <time>2014-04-13T07:57:29.000Z</time>
      </trkpt>
      <trkpt lat="50.1054" lon="3.6248">
        <ele>136.57186889648</ele>
        <time>2014-04-13T07:57:32.000Z</time>
      </trkpt>
      <trkpt lat="50.10553" lon="3.62464">
        <ele>137.02375793457</ele>
        <time>2014-04-13T07:57:35.000Z</time>
      </trkpt>
      <trkpt lat="50.1056" lon="3.62452">
        <ele>138.25891113281</ele>
        <time>2014-04-13T07:57:37.000Z</time>
      </trkpt>
      <trkpt lat="50.10569" lon="3.62437">
        <ele>139.81278991699</ele>
        <time>2014-04-13T07:57:39.000Z</time>
      </trkpt>
      <trkpt lat="50.10579" lon="3.6242">
        <ele>141.19331359863</ele>
        <time>2014-04-13T07:57:42.000Z</time>
      </trkpt>
      <trkpt lat="50.10589" lon="3.62401">
        <ele>141.10005187988</ele>
        <time>2014-04-13T07:57:45.000Z</time>
      </trkpt>
      <trkpt lat="50.10598" lon="3.62383">
        <ele>141.14767456055</ele>
        <time>2014-04-13T07:57:48.000Z</time>
      </trkpt>
      <trkpt lat="50.10608" lon="3.62364">
        <ele>140.69766235352</ele>
        <time>2014-04-13T07:57:51.000Z</time>
      </trkpt>
      <trkpt lat="50.10614" lon="3.62353">
        <ele>139.87680053711</ele>
        <time>2014-04-13T07:57:53.000Z</time>
      </trkpt>
      <trkpt lat="50.1062" lon="3.62341">
        <ele>138.83630371094</ele>
        <time>2014-04-13T07:57:55.000Z</time>
      </trkpt>
      <trkpt lat="50.10629" lon="3.62324">
        <ele>138.76052856445</ele>
        <time>2014-04-13T07:57:58.000Z</time>
      </trkpt>
      <trkpt lat="50.10638" lon="3.62306">
        <ele>138.54342651367</ele>
        <time>2014-04-13T07:58:01.000Z</time>
      </trkpt>
      <trkpt lat="50.10645" lon="3.62294">
        <ele>139.16911315918</ele>
        <time>2014-04-13T07:58:03.000Z</time>
      </trkpt>
      <trkpt lat="50.10652" lon="3.62281">
        <ele>139.82783508301</ele>
        <time>2014-04-13T07:58:06.000Z</time>
      </trkpt>
      <trkpt lat="50.10661" lon="3.62263">
        <ele>139.79043579102</ele>
        <time>2014-04-13T07:58:09.000Z</time>
      </trkpt>
      <trkpt lat="50.10665" lon="3.62256">
        <ele>140.58515930176</ele>
        <time>2014-04-13T07:58:11.000Z</time>
      </trkpt>
      <trkpt lat="50.10672" lon="3.62243">
        <ele>141.85427856445</ele>
        <time>2014-04-13T07:58:14.000Z</time>
      </trkpt>
      <trkpt lat="50.10676" lon="3.62236">
        <ele>142.57524108887</ele>
        <time>2014-04-13T07:58:16.000Z</time>
      </trkpt>
      <trkpt lat="50.1068" lon="3.62227">
        <ele>143.95935058594</ele>
        <time>2014-04-13T07:58:18.000Z</time>
      </trkpt>
      <trkpt lat="50.10688" lon="3.62213">
        <ele>144.71977233887</ele>
        <time>2014-04-13T07:58:21.000Z</time>
      </trkpt>
      <trkpt lat="50.10693" lon="3.62203">
        <ele>144.85855102539</ele>
        <time>2014-04-13T07:58:23.000Z</time>
      </trkpt>
      <trkpt lat="50.10699" lon="3.62191">
        <ele>144.93757629395</ele>
        <time>2014-04-13T07:58:25.000Z</time>
      </trkpt>
      <trkpt lat="50.10708" lon="3.62175">
        <ele>144.65463256836</ele>
        <time>2014-04-13T07:58:28.000Z</time>
      </trkpt>
      <trkpt lat="50.10716" lon="3.6216">
        <ele>143.6653137207</ele>
        <time>2014-04-13T07:58:31.000Z</time>
      </trkpt>
      <trkpt lat="50.1072" lon="3.62153">
        <ele>144.30953979492</ele>
        <time>2014-04-13T07:58:33.000Z</time>
      </trkpt>
      <trkpt lat="50.10735" lon="3.62145">
        <ele>145.1890411377</ele>
        <time>2014-04-13T07:58:36.000Z</time>
      </trkpt>
      <trkpt lat="50.10744" lon="3.62158">
        <ele>146.0583190918</ele>
        <time>2014-04-13T07:58:39.000Z</time>
      </trkpt>
      <trkpt lat="50.1075" lon="3.62166">
        <ele>147.38847351074</ele>
        <time>2014-04-13T07:58:41.000Z</time>
      </trkpt>
      <trkpt lat="50.10759" lon="3.62178">
        <ele>148.99348449707</ele>
        <time>2014-04-13T07:58:44.000Z</time>
      </trkpt>
      <trkpt lat="50.10765" lon="3.62186">
        <ele>149.95381164551</ele>
        <time>2014-04-13T07:58:46.000Z</time>
      </trkpt>
      <trkpt lat="50.10774" lon="3.62198">
        <ele>149.99743652344</ele>
        <time>2014-04-13T07:58:49.000Z</time>
      </trkpt>
      <trkpt lat="50.10778" lon="3.62204">
        <ele>149.88948059082</ele>
        <time>2014-04-13T07:58:51.000Z</time>
      </trkpt>
      <trkpt lat="50.10782" lon="3.62208">
        <ele>148.49443054199</ele>
        <time>2014-04-13T07:58:53.000Z</time>
      </trkpt>
      <trkpt lat="50.1079" lon="3.62219">
        <ele>146.86502075195</ele>
        <time>2014-04-13T07:58:56.000Z</time>
      </trkpt>
      <trkpt lat="50.10798" lon="3.62227">
        <ele>145.26168823242</ele>
        <time>2014-04-13T07:58:58.000Z</time>
      </trkpt>
      <trkpt lat="50.10806" lon="3.62232">
        <ele>143.49630737305</ele>
        <time>2014-04-13T07:59:01.000Z</time>
      </trkpt>
      <trkpt lat="50.10814" lon="3.62235">
        <ele>141.86494445801</ele>
        <time>2014-04-13T07:59:03.000Z</time>
      </trkpt>
      <trkpt lat="50.10831" lon="3.62238">
        <ele>140.93313598633</ele>
        <time>2014-04-13T07:59:06.000Z</time>
      </trkpt>
      <trkpt lat="50.1084" lon="3.62239">
        <ele>140.36215209961</ele>
        <time>2014-04-13T07:59:08.000Z</time>
      </trkpt>
      <trkpt lat="50.10855" lon="3.6224">
        <ele>139.92289733887</ele>
        <time>2014-04-13T07:59:11.000Z</time>
      </trkpt>
      <trkpt lat="50.10865" lon="3.6224">
        <ele>139.98086547852</ele>
        <time>2014-04-13T07:59:13.000Z</time>
      </trkpt>
      <trkpt lat="50.10881" lon="3.62241">
        <ele>139.9720916748</ele>
        <time>2014-04-13T07:59:16.000Z</time>
      </trkpt>
      <trkpt lat="50.10897" lon="3.62242">
        <ele>140.90116882324</ele>
        <time>2014-04-13T07:59:19.000Z</time>
      </trkpt>
      <trkpt lat="50.10916" lon="3.62242">
        <ele>141.3020324707</ele>
        <time>2014-04-13T07:59:22.000Z</time>
      </trkpt>
      <trkpt lat="50.10926" lon="3.62242">
        <ele>141.89286804199</ele>
        <time>2014-04-13T07:59:24.000Z</time>
      </trkpt>
      <trkpt lat="50.10945" lon="3.62261">
        <ele>142.66059875488</ele>
        <time>2014-04-13T07:59:27.000Z</time>
      </trkpt>
      <trkpt lat="50.10963" lon="3.62262">
        <ele>141.86117553711</ele>
        <time>2014-04-13T07:59:30.000Z</time>
      </trkpt>
      <trkpt lat="50.10976" lon="3.6226">
        <ele>140.61666870117</ele>
        <time>2014-04-13T07:59:32.000Z</time>
      </trkpt>
      <trkpt lat="50.10993" lon="3.62257">
        <ele>139.17414855957</ele>
        <time>2014-04-13T07:59:35.000Z</time>
      </trkpt>
      <trkpt lat="50.11003" lon="3.62258">
        <ele>137.04170227051</ele>
        <time>2014-04-13T07:59:37.000Z</time>
      </trkpt>
      <trkpt lat="50.11015" lon="3.62254">
        <ele>134.91304016113</ele>
        <time>2014-04-13T07:59:40.000Z</time>
      </trkpt>
      <trkpt lat="50.11016" lon="3.62237">
        <ele>134.28044128418</ele>
        <time>2014-04-13T07:59:43.000Z</time>
      </trkpt>
      <trkpt lat="50.11015" lon="3.62225">
        <ele>133.30026245117</ele>
        <time>2014-04-13T07:59:45.000Z</time>
      </trkpt>
      <trkpt lat="50.1102" lon="3.62217">
        <ele>132.3134765625</ele>
        <time>2014-04-13T07:59:47.000Z</time>
      </trkpt>
      <trkpt lat="50.11027" lon="3.62216">
        <ele>132.42092895508</ele>
        <time>2014-04-13T07:59:49.000Z</time>
      </trkpt>
      <trkpt lat="50.11037" lon="3.6222">
        <ele>132.84634399414</ele>
        <time>2014-04-13T07:59:52.000Z</time>
      </trkpt>
      <trkpt lat="50.11044" lon="3.62227">
        <ele>133.02616882324</ele>
        <time>2014-04-13T07:59:55.000Z</time>
      </trkpt>
      <trkpt lat="50.11049" lon="3.62233">
        <ele>133.37239074707</ele>
        <time>2014-04-13T07:59:57.000Z</time>
      </trkpt>
      <trkpt lat="50.11057" lon="3.62247">
        <ele>133.55349731445</ele>
        <time>2014-04-13T08:00:00.000Z</time>
      </trkpt>
      <trkpt lat="50.1106" lon="3.62259">
        <ele>133.55941772461</ele>
        <time>2014-04-13T08:00:02.000Z</time>
      </trkpt>
      <trkpt lat="50.1106" lon="3.62276">
        <ele>132.8168182373</ele>
        <time>2014-04-13T08:00:05.000Z</time>
      </trkpt>
      <trkpt lat="50.11058" lon="3.62288">
        <ele>132.28649902344</ele>
        <time>2014-04-13T08:00:07.000Z</time>
      </trkpt>
      <trkpt lat="50.11057" lon="3.62307">
        <ele>131.77255249023</ele>
        <time>2014-04-13T08:00:10.000Z</time>
      </trkpt>
      <trkpt lat="50.11056" lon="3.62317">
        <ele>132.06286621094</ele>
        <time>2014-04-13T08:00:12.000Z</time>
      </trkpt>
      <trkpt lat="50.11052" lon="3.62331">
        <ele>131.72843933105</ele>
        <time>2014-04-13T08:00:15.000Z</time>
      </trkpt>
      <trkpt lat="50.11049" lon="3.62341">
        <ele>131.31185913086</ele>
        <time>2014-04-13T08:00:17.000Z</time>
      </trkpt>
      <trkpt lat="50.11045" lon="3.62356">
        <ele>130.76872253418</ele>
        <time>2014-04-13T08:00:20.000Z</time>
      </trkpt>
      <trkpt lat="50.11044" lon="3.62374">
        <ele>129.62280273438</ele>
        <time>2014-04-13T08:00:23.000Z</time>
      </trkpt>
      <trkpt lat="50.11042" lon="3.62385">
        <ele>128.00239562988</ele>
        <time>2014-04-13T08:00:25.000Z</time>
      </trkpt>
      <trkpt lat="50.11039" lon="3.62402">
        <ele>126.37092590332</ele>
        <time>2014-04-13T08:00:28.000Z</time>
      </trkpt>
      <trkpt lat="50.11038" lon="3.62415">
        <ele>124.97961425781</ele>
        <time>2014-04-13T08:00:30.000Z</time>
      </trkpt>
      <trkpt lat="50.11036" lon="3.62429">
        <ele>123.6611328125</ele>
        <time>2014-04-13T08:00:32.000Z</time>
      </trkpt>
      <trkpt lat="50.11035" lon="3.62449">
        <ele>123.35219573975</ele>
        <time>2014-04-13T08:00:35.000Z</time>
      </trkpt>
      <trkpt lat="50.11035" lon="3.62467">
        <ele>123.5244140625</ele>
        <time>2014-04-13T08:00:38.000Z</time>
      </trkpt>
      <trkpt lat="50.11032" lon="3.62484">
        <ele>124.31843566895</ele>
        <time>2014-04-13T08:00:41.000Z</time>
      </trkpt>
      <trkpt lat="50.11029" lon="3.62499">
        <ele>125.1923828125</ele>
        <time>2014-04-13T08:00:43.000Z</time>
      </trkpt>
      <trkpt lat="50.11026" lon="3.62514">
        <ele>125.97409820557</ele>
        <time>2014-04-13T08:00:45.000Z</time>
      </trkpt>
      <trkpt lat="50.11022" lon="3.62534">
        <ele>126.9107208252</ele>
        <time>2014-04-13T08:00:48.000Z</time>
      </trkpt>
      <trkpt lat="50.1102" lon="3.62555">
        <ele>127.59831237793</ele>
        <time>2014-04-13T08:00:51.000Z</time>
      </trkpt>
      <trkpt lat="50.11018" lon="3.62575">
        <ele>128.28092956543</ele>
        <time>2014-04-13T08:00:54.000Z</time>
      </trkpt>
      <trkpt lat="50.11011" lon="3.62595">
        <ele>129.04684448242</ele>
        <time>2014-04-13T08:00:57.000Z</time>
      </trkpt>
      <trkpt lat="50.11009" lon="3.62609">
        <ele>130.16653442383</ele>
        <time>2014-04-13T08:00:59.000Z</time>
      </trkpt>
      <trkpt lat="50.11" lon="3.62627">
        <ele>130.37455749512</ele>
        <time>2014-04-13T08:01:02.000Z</time>
      </trkpt>
      <trkpt lat="50.11" lon="3.62641">
        <ele>130.75561523438</ele>
        <time>2014-04-13T08:01:04.000Z</time>
      </trkpt>
      <trkpt lat="50.10997" lon="3.62659">
        <ele>131.1468963623</ele>
        <time>2014-04-13T08:01:06.000Z</time>
      </trkpt>
      <trkpt lat="50.10994" lon="3.62679">
        <ele>131.9673614502</ele>
        <time>2014-04-13T08:01:09.000Z</time>
      </trkpt>
      <trkpt lat="50.10994" lon="3.62702">
        <ele>132.1051940918</ele>
        <time>2014-04-13T08:01:12.000Z</time>
      </trkpt>
      <trkpt lat="50.10995" lon="3.62711">
        <ele>132.63565063477</ele>
        <time>2014-04-13T08:01:14.000Z</time>
      </trkpt>
      <trkpt lat="50.11" lon="3.62725">
        <ele>132.53581237793</ele>
        <time>2014-04-13T08:01:17.000Z</time>
      </trkpt>
      <trkpt lat="50.11004" lon="3.62734">
        <ele>131.94058227539</ele>
        <time>2014-04-13T08:01:20.000Z</time>
      </trkpt>
      <trkpt lat="50.11007" lon="3.62745">
        <ele>131.75712585449</ele>
        <time>2014-04-13T08:01:23.000Z</time>
      </trkpt>
      <trkpt lat="50.11009" lon="3.62762">
        <ele>132.00732421875</ele>
        <time>2014-04-13T08:01:26.000Z</time>
      </trkpt>
      <trkpt lat="50.11014" lon="3.62782">
        <ele>133.48454284668</ele>
        <time>2014-04-13T08:01:29.000Z</time>
      </trkpt>
      <trkpt lat="50.11018" lon="3.62793">
        <ele>135.47567749023</ele>
        <time>2014-04-13T08:01:31.000Z</time>
      </trkpt>
      <trkpt lat="50.11023" lon="3.62806">
        <ele>137.11196899414</ele>
        <time>2014-04-13T08:01:33.000Z</time>
      </trkpt>
      <trkpt lat="50.11027" lon="3.62818">
        <ele>138.06896972656</ele>
        <time>2014-04-13T08:01:35.000Z</time>
      </trkpt>
      <trkpt lat="50.11033" lon="3.62836">
        <ele>138.76599121094</ele>
        <time>2014-04-13T08:01:38.000Z</time>
      </trkpt>
      <trkpt lat="50.11036" lon="3.62851">
        <ele>138.7445526123</ele>
        <time>2014-04-13T08:01:41.000Z</time>
      </trkpt>
      <trkpt lat="50.11038" lon="3.62869">
        <ele>138.49496459961</ele>
        <time>2014-04-13T08:01:44.000Z</time>
      </trkpt>
      <trkpt lat="50.11036" lon="3.62888">
        <ele>138.73466491699</ele>
        <time>2014-04-13T08:01:47.000Z</time>
      </trkpt>
      <trkpt lat="50.11032" lon="3.62909">
        <ele>138.8811340332</ele>
        <time>2014-04-13T08:01:50.000Z</time>
      </trkpt>
      <trkpt lat="50.11026" lon="3.6293">
        <ele>138.66909790039</ele>
        <time>2014-04-13T08:01:53.000Z</time>
      </trkpt>
      <trkpt lat="50.11022" lon="3.62944">
        <ele>137.74308776855</ele>
        <time>2014-04-13T08:01:55.000Z</time>
      </trkpt>
      <trkpt lat="50.11018" lon="3.62958">
        <ele>137.15180969238</ele>
        <time>2014-04-13T08:01:57.000Z</time>
      </trkpt>
      <trkpt lat="50.11013" lon="3.62976">
        <ele>136.7555847168</ele>
        <time>2014-04-13T08:02:00.000Z</time>
      </trkpt>
      <trkpt lat="50.1101" lon="3.62989">
        <ele>135.9638671875</ele>
        <time>2014-04-13T08:02:02.000Z</time>
      </trkpt>
      <trkpt lat="50.11007" lon="3.63009">
        <ele>135.04875183105</ele>
        <time>2014-04-13T08:02:05.000Z</time>
      </trkpt>
      <trkpt lat="50.11003" lon="3.63028">
        <ele>134.44429016113</ele>
        <time>2014-04-13T08:02:08.000Z</time>
      </trkpt>
      <trkpt lat="50.11" lon="3.6304">
        <ele>134.22917175293</ele>
        <time>2014-04-13T08:02:10.000Z</time>
      </trkpt>
      <trkpt lat="50.10999" lon="3.63053">
        <ele>133.78437805176</ele>
        <time>2014-04-13T08:02:12.000Z</time>
      </trkpt>
      <trkpt lat="50.10996" lon="3.63072">
        <ele>133.486328125</ele>
        <time>2014-04-13T08:02:15.000Z</time>
      </trkpt>
      <trkpt lat="50.10995" lon="3.63086">
        <ele>133.6015625</ele>
        <time>2014-04-13T08:02:17.000Z</time>
      </trkpt>
      <trkpt lat="50.10995" lon="3.63106">
        <ele>133.56726074219</ele>
        <time>2014-04-13T08:02:20.000Z</time>
      </trkpt>
      <trkpt lat="50.10996" lon="3.63127">
        <ele>132.85391235352</ele>
        <time>2014-04-13T08:02:23.000Z</time>
      </trkpt>
      <trkpt lat="50.10997" lon="3.63142">
        <ele>132.22927856445</ele>
        <time>2014-04-13T08:02:25.000Z</time>
      </trkpt>
      <trkpt lat="50.10997" lon="3.63173">
        <ele>131.3620300293</ele>
        <time>2014-04-13T08:02:28.000Z</time>
      </trkpt>
      <trkpt lat="50.10995" lon="3.63187">
        <ele>130.32136535645</ele>
        <time>2014-04-13T08:02:30.000Z</time>
      </trkpt>
      <trkpt lat="50.10996" lon="3.63206">
        <ele>129.47671508789</ele>
        <time>2014-04-13T08:02:33.000Z</time>
      </trkpt>
      <trkpt lat="50.10998" lon="3.63217">
        <ele>129.25631713867</ele>
        <time>2014-04-13T08:02:35.000Z</time>
      </trkpt>
      <trkpt lat="50.11002" lon="3.63239">
        <ele>128.63107299805</ele>
        <time>2014-04-13T08:02:38.000Z</time>
      </trkpt>
      <trkpt lat="50.11001" lon="3.63266">
        <ele>128.18594360352</ele>
        <time>2014-04-13T08:02:41.000Z</time>
      </trkpt>
      <trkpt lat="50.11006" lon="3.63283">
        <ele>128.09902954102</ele>
        <time>2014-04-13T08:02:44.000Z</time>
      </trkpt>
      <trkpt lat="50.11013" lon="3.63299">
        <ele>128.10458374023</ele>
        <time>2014-04-13T08:02:47.000Z</time>
      </trkpt>
      <trkpt lat="50.11017" lon="3.6332">
        <ele>127.8916015625</ele>
        <time>2014-04-13T08:02:50.000Z</time>
      </trkpt>
      <trkpt lat="50.11021" lon="3.63331">
        <ele>128.24662780762</ele>
        <time>2014-04-13T08:02:52.000Z</time>
      </trkpt>
      <trkpt lat="50.11025" lon="3.63341">
        <ele>129.16677856445</ele>
        <time>2014-04-13T08:02:54.000Z</time>
      </trkpt>
      <trkpt lat="50.11028" lon="3.63348">
        <ele>130.55453491211</ele>
        <time>2014-04-13T08:02:56.000Z</time>
      </trkpt>
      <trkpt lat="50.1103" lon="3.63355">
        <ele>131.96212768555</ele>
        <time>2014-04-13T08:02:58.000Z</time>
      </trkpt>
      <trkpt lat="50.11036" lon="3.63367">
        <ele>133.27090454102</ele>
        <time>2014-04-13T08:03:01.000Z</time>
      </trkpt>
      <trkpt lat="50.11044" lon="3.63384">
        <ele>134.75761413574</ele>
        <time>2014-04-13T08:03:04.000Z</time>
      </trkpt>
      <trkpt lat="50.1105" lon="3.63396">
        <ele>135.5966796875</ele>
        <time>2014-04-13T08:03:06.000Z</time>
      </trkpt>
      <trkpt lat="50.11056" lon="3.63407">
        <ele>136.04423522949</ele>
        <time>2014-04-13T08:03:08.000Z</time>
      </trkpt>
      <trkpt lat="50.11061" lon="3.63417">
        <ele>136.11013793945</ele>
        <time>2014-04-13T08:03:10.000Z</time>
      </trkpt>
      <trkpt lat="50.11069" lon="3.63432">
        <ele>136.47766113281</ele>
        <time>2014-04-13T08:03:13.000Z</time>
      </trkpt>
      <trkpt lat="50.11074" lon="3.63442">
        <ele>137.14921569824</ele>
        <time>2014-04-13T08:03:15.000Z</time>
      </trkpt>
      <trkpt lat="50.11079" lon="3.63452">
        <ele>137.66777038574</ele>
        <time>2014-04-13T08:03:17.000Z</time>
      </trkpt>
      <trkpt lat="50.11086" lon="3.63468">
        <ele>138.1123046875</ele>
        <time>2014-04-13T08:03:20.000Z</time>
      </trkpt>
      <trkpt lat="50.11092" lon="3.63484">
        <ele>138.59977722168</ele>
        <time>2014-04-13T08:03:23.000Z</time>
      </trkpt>
      <trkpt lat="50.11094" lon="3.63502">
        <ele>138.64228820801</ele>
        <time>2014-04-13T08:03:26.000Z</time>
      </trkpt>
      <trkpt lat="50.11094" lon="3.63515">
        <ele>137.81900024414</ele>
        <time>2014-04-13T08:03:28.000Z</time>
      </trkpt>
      <trkpt lat="50.11093" lon="3.63535">
        <ele>137.32096862793</ele>
        <time>2014-04-13T08:03:31.000Z</time>
      </trkpt>
      <trkpt lat="50.11093" lon="3.63548">
        <ele>136.60510253906</ele>
        <time>2014-04-13T08:03:33.000Z</time>
      </trkpt>
      <trkpt lat="50.11092" lon="3.63561">
        <ele>136.36978149414</ele>
        <time>2014-04-13T08:03:35.000Z</time>
      </trkpt>
      <trkpt lat="50.11089" lon="3.63572">
        <ele>136.22038269043</ele>
        <time>2014-04-13T08:03:37.000Z</time>
      </trkpt>
      <trkpt lat="50.1109" lon="3.63584">
        <ele>136.20146179199</ele>
        <time>2014-04-13T08:03:40.000Z</time>
      </trkpt>
      <trkpt lat="50.11091" lon="3.63592">
        <ele>136.73291015625</ele>
        <time>2014-04-13T08:03:42.000Z</time>
      </trkpt>
      <trkpt lat="50.11092" lon="3.63603">
        <ele>137.73616027832</ele>
        <time>2014-04-13T08:03:44.000Z</time>
      </trkpt>
      <trkpt lat="50.1109" lon="3.63617">
        <ele>137.9955291748</ele>
        <time>2014-04-13T08:03:46.000Z</time>
      </trkpt>
      <trkpt lat="50.11095" lon="3.63634">
        <ele>138.29898071289</ele>
        <time>2014-04-13T08:03:49.000Z</time>
      </trkpt>
      <trkpt lat="50.11102" lon="3.63647">
        <ele>138.10762023926</ele>
        <time>2014-04-13T08:03:52.000Z</time>
      </trkpt>
      <trkpt lat="50.11107" lon="3.63659">
        <ele>137.69245910645</ele>
        <time>2014-04-13T08:03:54.000Z</time>
      </trkpt>
      <trkpt lat="50.11111" lon="3.6367">
        <ele>137.25512695312</ele>
        <time>2014-04-13T08:03:56.000Z</time>
      </trkpt>
      <trkpt lat="50.11115" lon="3.63681">
        <ele>136.28398132324</ele>
        <time>2014-04-13T08:03:58.000Z</time>
      </trkpt>
      <trkpt lat="50.11118" lon="3.6369">
        <ele>135.86019897461</ele>
        <time>2014-04-13T08:04:00.000Z</time>
      </trkpt>
      <trkpt lat="50.11124" lon="3.63705">
        <ele>136.08500671387</ele>
        <time>2014-04-13T08:04:03.000Z</time>
      </trkpt>
      <trkpt lat="50.11129" lon="3.63713">
        <ele>136.68176269531</ele>
        <time>2014-04-13T08:04:05.000Z</time>
      </trkpt>
      <trkpt lat="50.11134" lon="3.6373">
        <ele>137.2562713623</ele>
        <time>2014-04-13T08:04:08.000Z</time>
      </trkpt>
      <trkpt lat="50.1114" lon="3.63777">
        <ele>138.58497619629</ele>
        <time>2014-04-13T08:04:16.000Z</time>
      </trkpt>
      <trkpt lat="50.11121" lon="3.63796">
        <ele>140.62763977051</ele>
        <time>2014-04-13T08:04:20.000Z</time>
      </trkpt>
      <trkpt lat="50.11115" lon="3.63801">
        <ele>141.90487670898</ele>
        <time>2014-04-13T08:04:23.000Z</time>
      </trkpt>
      <trkpt lat="50.11113" lon="3.63804">
        <ele>142.89770507812</ele>
        <time>2014-04-13T08:04:25.000Z</time>
      </trkpt>
      <trkpt lat="50.1111" lon="3.6381">
        <ele>143.7444152832</ele>
        <time>2014-04-13T08:04:27.000Z</time>
      </trkpt>
      <trkpt lat="50.11105" lon="3.63817">
        <ele>144.81442260742</ele>
        <time>2014-04-13T08:04:30.000Z</time>
      </trkpt>
      <trkpt lat="50.111" lon="3.63821">
        <ele>144.79760742188</ele>
        <time>2014-04-13T08:04:33.000Z</time>
      </trkpt>
      <trkpt lat="50.111" lon="3.63821">
        <ele>144.79760742188</ele>
        <time>2014-04-13T08:04:43.000Z</time>
      </trkpt>
      <trkpt lat="50.111" lon="3.63816">
        <ele>144.59117126465</ele>
        <time>2014-04-13T08:04:59.000Z</time>
      </trkpt>
      <trkpt lat="50.11099" lon="3.63817">
        <ele>143.99234008789</ele>
        <time>2014-04-13T08:05:01.000Z</time>
      </trkpt>
      <trkpt lat="50.11098" lon="3.63819">
        <ele>143.98696899414</ele>
        <time>2014-04-13T08:05:04.000Z</time>
      </trkpt>
      <trkpt lat="50.11098" lon="3.63819">
        <ele>143.98696899414</ele>
        <time>2014-04-13T08:05:14.000Z</time>
      </trkpt>
      <trkpt lat="50.11098" lon="3.63821">
        <ele>143.93324279785</ele>
        <time>2014-04-13T08:05:14.000Z</time>
      </trkpt>
      <trkpt lat="50.11098" lon="3.63825">
        <ele>143.80416870117</ele>
        <time>2014-04-13T08:05:16.000Z</time>
      </trkpt>
      <trkpt lat="50.11095" lon="3.63831">
        <ele>143.86747741699</ele>
        <time>2014-04-13T08:05:19.000Z</time>
      </trkpt>
      <trkpt lat="50.11091" lon="3.63832">
        <ele>144.09971618652</ele>
        <time>2014-04-13T08:05:21.000Z</time>
      </trkpt>
      <trkpt lat="50.11084" lon="3.63832">
        <ele>143.37777709961</ele>
        <time>2014-04-13T08:05:24.000Z</time>
      </trkpt>
      <trkpt lat="50.11077" lon="3.63829">
        <ele>142.33096313477</ele>
        <time>2014-04-13T08:05:26.000Z</time>
      </trkpt>
      <trkpt lat="50.11071" lon="3.63826">
        <ele>140.50212097168</ele>
        <time>2014-04-13T08:05:28.000Z</time>
      </trkpt>
      <trkpt lat="50.11065" lon="3.63824">
        <ele>138.85659790039</ele>
        <time>2014-04-13T08:05:30.000Z</time>
      </trkpt>
      <trkpt lat="50.11051" lon="3.6382">
        <ele>136.70018005371</ele>
        <time>2014-04-13T08:05:33.000Z</time>
      </trkpt>
      <trkpt lat="50.11036" lon="3.63817">
        <ele>134.50758361816</ele>
        <time>2014-04-13T08:05:36.000Z</time>
      </trkpt>
      <trkpt lat="50.11019" lon="3.63813">
        <ele>132.40939331055</ele>
        <time>2014-04-13T08:05:39.000Z</time>
      </trkpt>
      <trkpt lat="50.11" lon="3.63815">
        <ele>131.17465209961</ele>
        <time>2014-04-13T08:05:42.000Z</time>
      </trkpt>
      <trkpt lat="50.10986" lon="3.63818">
        <ele>130.38507080078</ele>
        <time>2014-04-13T08:05:45.000Z</time>
      </trkpt>
      <trkpt lat="50.10981" lon="3.63832">
        <ele>130.13302612305</ele>
        <time>2014-04-13T08:05:48.000Z</time>
      </trkpt>
      <trkpt lat="50.1098" lon="3.63846">
        <ele>130.48406982422</ele>
        <time>2014-04-13T08:05:50.000Z</time>
      </trkpt>
      <trkpt lat="50.1098" lon="3.63864">
        <ele>131.28929138184</ele>
        <time>2014-04-13T08:05:53.000Z</time>
      </trkpt>
      <trkpt lat="50.10983" lon="3.63876">
        <ele>132.25839233398</ele>
        <time>2014-04-13T08:05:55.000Z</time>
      </trkpt>
      <trkpt lat="50.10988" lon="3.63891">
        <ele>133.37268066406</ele>
        <time>2014-04-13T08:05:58.000Z</time>
      </trkpt>
      <trkpt lat="50.10994" lon="3.63905">
        <ele>133.97134399414</ele>
        <time>2014-04-13T08:06:01.000Z</time>
      </trkpt>
      <trkpt lat="50.10998" lon="3.63915">
        <ele>133.87445068359</ele>
        <time>2014-04-13T08:06:03.000Z</time>
      </trkpt>
      <trkpt lat="50.11004" lon="3.6393">
        <ele>133.27351379395</ele>
        <time>2014-04-13T08:06:06.000Z</time>
      </trkpt>
      <trkpt lat="50.11009" lon="3.6394">
        <ele>132.42004394531</ele>
        <time>2014-04-13T08:06:08.000Z</time>
      </trkpt>
      <trkpt lat="50.11014" lon="3.6395">
        <ele>131.89901733398</ele>
        <time>2014-04-13T08:06:10.000Z</time>
      </trkpt>
      <trkpt lat="50.11021" lon="3.63966">
        <ele>132.23466491699</ele>
        <time>2014-04-13T08:06:13.000Z</time>
      </trkpt>
      <trkpt lat="50.11024" lon="3.63976">
        <ele>132.96815490723</ele>
        <time>2014-04-13T08:06:15.000Z</time>
      </trkpt>
      <trkpt lat="50.11028" lon="3.63984">
        <ele>133.40936279297</ele>
        <time>2014-04-13T08:06:17.000Z</time>
      </trkpt>
      <trkpt lat="50.11032" lon="3.63996">
        <ele>133.58712768555</ele>
        <time>2014-04-13T08:06:20.000Z</time>
      </trkpt>
      <trkpt lat="50.11036" lon="3.64007">
        <ele>133.34268188477</ele>
        <time>2014-04-13T08:06:23.000Z</time>
      </trkpt>
      <trkpt lat="50.11038" lon="3.64015">
        <ele>132.67291259766</ele>
        <time>2014-04-13T08:06:25.000Z</time>
      </trkpt>
      <trkpt lat="50.11044" lon="3.64032">
        <ele>131.77998352051</ele>
        <time>2014-04-13T08:06:28.000Z</time>
      </trkpt>
      <trkpt lat="50.11049" lon="3.64048">
        <ele>131.37348937988</ele>
        <time>2014-04-13T08:06:31.000Z</time>
      </trkpt>
      <trkpt lat="50.11053" lon="3.64062">
        <ele>131.0655670166</ele>
        <time>2014-04-13T08:06:34.000Z</time>
      </trkpt>
      <trkpt lat="50.11056" lon="3.64069">
        <ele>130.59725952148</ele>
        <time>2014-04-13T08:06:36.000Z</time>
      </trkpt>
      <trkpt lat="50.1106" lon="3.64076">
        <ele>130.27313232422</ele>
        <time>2014-04-13T08:06:39.000Z</time>
      </trkpt>
      <trkpt lat="50.1106" lon="3.64076">
        <ele>130.10719299316</ele>
        <time>2014-04-13T08:06:41.000Z</time>
      </trkpt>
      <trkpt lat="50.1106" lon="3.64076">
        <ele>130.10719299316</ele>
        <time>2014-04-13T08:06:51.000Z</time>
      </trkpt>
      <trkpt lat="50.11058" lon="3.6407">
        <ele>130.32528686523</ele>
        <time>2014-04-13T08:07:48.000Z</time>
      </trkpt>
      <trkpt lat="50.11058" lon="3.6407">
        <ele>130.32528686523</ele>
        <time>2014-04-13T08:07:58.000Z</time>
      </trkpt>
      <trkpt lat="50.11057" lon="3.64071">
        <ele>131.08288574219</ele>
        <time>2014-04-13T08:08:42.000Z</time>
      </trkpt>
      <trkpt lat="50.11057" lon="3.64071">
        <ele>131.08288574219</ele>
        <time>2014-04-13T08:08:52.000Z</time>
      </trkpt>
      <trkpt lat="50.11058" lon="3.64069">
        <ele>131.60586547852</ele>
        <time>2014-04-13T08:09:21.000Z</time>
      </trkpt>
      <trkpt lat="50.11059" lon="3.64077">
        <ele>132.28411865234</ele>
        <time>2014-04-13T08:09:24.000Z</time>
      </trkpt>
      <trkpt lat="50.11063" lon="3.64095">
        <ele>132.79220581055</ele>
        <time>2014-04-13T08:09:27.000Z</time>
      </trkpt>
      <trkpt lat="50.11068" lon="3.64113">
        <ele>132.69218444824</ele>
        <time>2014-04-13T08:09:30.000Z</time>
      </trkpt>
      <trkpt lat="50.11074" lon="3.64131">
        <ele>131.66575622559</ele>
        <time>2014-04-13T08:09:33.000Z</time>
      </trkpt>
      <trkpt lat="50.11079" lon="3.64148">
        <ele>131.01126098633</ele>
        <time>2014-04-13T08:09:36.000Z</time>
      </trkpt>
      <trkpt lat="50.11084" lon="3.64166">
        <ele>129.7135925293</ele>
        <time>2014-04-13T08:09:39.000Z</time>
      </trkpt>
      <trkpt lat="50.1109" lon="3.64184">
        <ele>128.44911193848</ele>
        <time>2014-04-13T08:09:42.000Z</time>
      </trkpt>
      <trkpt lat="50.11095" lon="3.64203">
        <ele>127.46806335449</ele>
        <time>2014-04-13T08:09:45.000Z</time>
      </trkpt>
      <trkpt lat="50.11099" lon="3.64217">
        <ele>127.28092956543</ele>
        <time>2014-04-13T08:09:47.000Z</time>
      </trkpt>
      <trkpt lat="50.11107" lon="3.6424">
        <ele>127.09031677246</ele>
        <time>2014-04-13T08:09:50.000Z</time>
      </trkpt>
      <trkpt lat="50.11112" lon="3.64255">
        <ele>126.91268157959</ele>
        <time>2014-04-13T08:09:52.000Z</time>
      </trkpt>
      <trkpt lat="50.11119" lon="3.64277">
        <ele>127.65374755859</ele>
        <time>2014-04-13T08:09:55.000Z</time>
      </trkpt>
      <trkpt lat="50.11124" lon="3.64293">
        <ele>128.47505187988</ele>
        <time>2014-04-13T08:09:57.000Z</time>
      </trkpt>
      <trkpt lat="50.11132" lon="3.64315">
        <ele>128.65512084961</ele>
        <time>2014-04-13T08:10:00.000Z</time>
      </trkpt>
      <trkpt lat="50.11137" lon="3.64331">
        <ele>129.12084960938</ele>
        <time>2014-04-13T08:10:02.000Z</time>
      </trkpt>
      <trkpt lat="50.11142" lon="3.64344">
        <ele>130.08117675781</ele>
        <time>2014-04-13T08:10:04.000Z</time>
      </trkpt>
      <trkpt lat="50.1115" lon="3.64365">
        <ele>130.16273498535</ele>
        <time>2014-04-13T08:10:07.000Z</time>
      </trkpt>
      <trkpt lat="50.11156" lon="3.64381">
        <ele>129.56875610352</ele>
        <time>2014-04-13T08:10:09.000Z</time>
      </trkpt>
      <trkpt lat="50.11163" lon="3.64403">
        <ele>128.7141418457</ele>
        <time>2014-04-13T08:10:12.000Z</time>
      </trkpt>
      <trkpt lat="50.1117" lon="3.64425">
        <ele>127.12758636475</ele>
        <time>2014-04-13T08:10:15.000Z</time>
      </trkpt>
      <trkpt lat="50.11175" lon="3.64439">
        <ele>125.47226715088</ele>
        <time>2014-04-13T08:10:17.000Z</time>
      </trkpt>
      <trkpt lat="50.11182" lon="3.64462">
        <ele>123.99877929688</ele>
        <time>2014-04-13T08:10:20.000Z</time>
      </trkpt>
      <trkpt lat="50.11187" lon="3.64479">
        <ele>123.15142822266</ele>
        <time>2014-04-13T08:10:22.000Z</time>
      </trkpt>
      <trkpt lat="50.11192" lon="3.64495">
        <ele>122.924659729</ele>
        <time>2014-04-13T08:10:24.000Z</time>
      </trkpt>
      <trkpt lat="50.11196" lon="3.64512">
        <ele>122.97975921631</ele>
        <time>2014-04-13T08:10:26.000Z</time>
      </trkpt>
      <trkpt lat="50.112" lon="3.64527">
        <ele>123.07597351074</ele>
        <time>2014-04-13T08:10:28.000Z</time>
      </trkpt>
      <trkpt lat="50.11205" lon="3.64544">
        <ele>123.03401184082</ele>
        <time>2014-04-13T08:10:30.000Z</time>
      </trkpt>
      <trkpt lat="50.11212" lon="3.64568">
        <ele>122.9294052124</ele>
        <time>2014-04-13T08:10:33.000Z</time>
      </trkpt>
      <trkpt lat="50.11216" lon="3.64584">
        <ele>122.50750732422</ele>
        <time>2014-04-13T08:10:35.000Z</time>
      </trkpt>
      <trkpt lat="50.11223" lon="3.64609">
        <ele>122.46368408203</ele>
        <time>2014-04-13T08:10:38.000Z</time>
      </trkpt>
      <trkpt lat="50.11228" lon="3.64624">
        <ele>122.29597473145</ele>
        <time>2014-04-13T08:10:40.000Z</time>
      </trkpt>
      <trkpt lat="50.11235" lon="3.64648">
        <ele>122.18611907959</ele>
        <time>2014-04-13T08:10:43.000Z</time>
      </trkpt>
      <trkpt lat="50.1124" lon="3.64662">
        <ele>122.14040374756</ele>
        <time>2014-04-13T08:10:45.000Z</time>
      </trkpt>
      <trkpt lat="50.11246" lon="3.64678">
        <ele>122.34515380859</ele>
        <time>2014-04-13T08:10:48.000Z</time>
      </trkpt>
      <trkpt lat="50.11256" lon="3.64679">
        <ele>121.97222900391</ele>
        <time>2014-04-13T08:10:51.000Z</time>
      </trkpt>
      <trkpt lat="50.11261" lon="3.64671">
        <ele>121.50453186035</ele>
        <time>2014-04-13T08:10:53.000Z</time>
      </trkpt>
      <trkpt lat="50.11268" lon="3.6466">
        <ele>121.00315856934</ele>
        <time>2014-04-13T08:10:56.000Z</time>
      </trkpt>
      <trkpt lat="50.11272" lon="3.64653">
        <ele>120.59494781494</ele>
        <time>2014-04-13T08:10:58.000Z</time>
      </trkpt>
      <trkpt lat="50.11279" lon="3.64643">
        <ele>120.45115661621</ele>
        <time>2014-04-13T08:11:01.000Z</time>
      </trkpt>
      <trkpt lat="50.11283" lon="3.64635">
        <ele>121.03330993652</ele>
        <time>2014-04-13T08:11:03.000Z</time>
      </trkpt>
      <trkpt lat="50.11287" lon="3.64622">
        <ele>122.05606842041</ele>
        <time>2014-04-13T08:11:06.000Z</time>
      </trkpt>
      <trkpt lat="50.11284" lon="3.64612">
        <ele>123.36267089844</ele>
        <time>2014-04-13T08:11:08.000Z</time>
      </trkpt>
      <trkpt lat="50.11277" lon="3.64599">
        <ele>125.5216293335</ele>
        <time>2014-04-13T08:11:11.000Z</time>
      </trkpt>
      <trkpt lat="50.11271" lon="3.64586">
        <ele>127.39072418213</ele>
        <time>2014-04-13T08:11:14.000Z</time>
      </trkpt>
      <trkpt lat="50.11263" lon="3.64571">
        <ele>129.10563659668</ele>
        <time>2014-04-13T08:11:17.000Z</time>
      </trkpt>
      <trkpt lat="50.11259" lon="3.64561">
        <ele>130.11183166504</ele>
        <time>2014-04-13T08:11:19.000Z</time>
      </trkpt>
      <trkpt lat="50.11255" lon="3.64547">
        <ele>131.51652526855</ele>
        <time>2014-04-13T08:11:22.000Z</time>
      </trkpt>
      <trkpt lat="50.11252" lon="3.64537">
        <ele>131.63735961914</ele>
        <time>2014-04-13T08:11:24.000Z</time>
      </trkpt>
      <trkpt lat="50.1125" lon="3.64528">
        <ele>131.47239685059</ele>
        <time>2014-04-13T08:11:26.000Z</time>
      </trkpt>
      <trkpt lat="50.11246" lon="3.64518">
        <ele>131.54629516602</ele>
        <time>2014-04-13T08:11:28.000Z</time>
      </trkpt>
      <trkpt lat="50.11238" lon="3.64503">
        <ele>131.8684387207</ele>
        <time>2014-04-13T08:11:31.000Z</time>
      </trkpt>
      <trkpt lat="50.11231" lon="3.64487">
        <ele>132.1675567627</ele>
        <time>2014-04-13T08:11:34.000Z</time>
      </trkpt>
      <trkpt lat="50.11224" lon="3.64473">
        <ele>133.31993103027</ele>
        <time>2014-04-13T08:11:37.000Z</time>
      </trkpt>
      <trkpt lat="50.11217" lon="3.64458">
        <ele>134.73648071289</ele>
        <time>2014-04-13T08:11:40.000Z</time>
      </trkpt>
      <trkpt lat="50.11213" lon="3.64448">
        <ele>135.6882019043</ele>
        <time>2014-04-13T08:11:42.000Z</time>
      </trkpt>
      <trkpt lat="50.11207" lon="3.64432">
        <ele>136.21075439453</ele>
        <time>2014-04-13T08:11:45.000Z</time>
      </trkpt>
      <trkpt lat="50.11202" lon="3.64423">
        <ele>136.72660827637</ele>
        <time>2014-04-13T08:11:47.000Z</time>
      </trkpt>
      <trkpt lat="50.11196" lon="3.64409">
        <ele>136.78016662598</ele>
        <time>2014-04-13T08:11:50.000Z</time>
      </trkpt>
      <trkpt lat="50.11197" lon="3.64396">
        <ele>136.65098571777</ele>
        <time>2014-04-13T08:11:52.000Z</time>
      </trkpt>
      <trkpt lat="50.11205" lon="3.6438">
        <ele>136.25729370117</ele>
        <time>2014-04-13T08:11:55.000Z</time>
      </trkpt>
      <trkpt lat="50.11217" lon="3.64374">
        <ele>136.27291870117</ele>
        <time>2014-04-13T08:11:58.000Z</time>
      </trkpt>
      <trkpt lat="50.11225" lon="3.64372">
        <ele>135.58380126953</ele>
        <time>2014-04-13T08:12:00.000Z</time>
      </trkpt>
      <trkpt lat="50.11235" lon="3.64369">
        <ele>134.09558105469</ele>
        <time>2014-04-13T08:12:03.000Z</time>
      </trkpt>
      <trkpt lat="50.11241" lon="3.64367">
        <ele>132.60549926758</ele>
        <time>2014-04-13T08:12:05.000Z</time>
      </trkpt>
      <trkpt lat="50.11246" lon="3.64366">
        <ele>131.66467285156</ele>
        <time>2014-04-13T08:12:07.000Z</time>
      </trkpt>
      <trkpt lat="50.11257" lon="3.64366">
        <ele>130.72219848633</ele>
        <time>2014-04-13T08:12:10.000Z</time>
      </trkpt>
      <trkpt lat="50.11268" lon="3.64362">
        <ele>130.6307220459</ele>
        <time>2014-04-13T08:12:13.000Z</time>
      </trkpt>
      <trkpt lat="50.11275" lon="3.64359">
        <ele>131.30517578125</ele>
        <time>2014-04-13T08:12:15.000Z</time>
      </trkpt>
      <trkpt lat="50.11286" lon="3.64356">
        <ele>132.7472076416</ele>
        <time>2014-04-13T08:12:18.000Z</time>
      </trkpt>
      <trkpt lat="50.11295" lon="3.64353">
        <ele>134.30166625977</ele>
        <time>2014-04-13T08:12:21.000Z</time>
      </trkpt>
      <trkpt lat="50.11303" lon="3.64353">
        <ele>135.91650390625</ele>
        <time>2014-04-13T08:12:24.000Z</time>
      </trkpt>
      <trkpt lat="50.11312" lon="3.64352">
        <ele>136.72994995117</ele>
        <time>2014-04-13T08:12:27.000Z</time>
      </trkpt>
      <trkpt lat="50.11318" lon="3.6435">
        <ele>136.90330505371</ele>
        <time>2014-04-13T08:12:29.000Z</time>
      </trkpt>
      <trkpt lat="50.11325" lon="3.64348">
        <ele>136.35977172852</ele>
        <time>2014-04-13T08:12:31.000Z</time>
      </trkpt>
      <trkpt lat="50.11338" lon="3.64346">
        <ele>135.06506347656</ele>
        <time>2014-04-13T08:12:34.000Z</time>
      </trkpt>
      <trkpt lat="50.11346" lon="3.64343">
        <ele>134.17938232422</ele>
        <time>2014-04-13T08:12:36.000Z</time>
      </trkpt>
      <trkpt lat="50.11352" lon="3.64341">
        <ele>133.21806335449</ele>
        <time>2014-04-13T08:12:38.000Z</time>
      </trkpt>
      <trkpt lat="50.11361" lon="3.64341">
        <ele>133.03578186035</ele>
        <time>2014-04-13T08:12:41.000Z</time>
      </trkpt>
      <trkpt lat="50.11371" lon="3.64343">
        <ele>132.91256713867</ele>
        <time>2014-04-13T08:12:44.000Z</time>
      </trkpt>
      <trkpt lat="50.11378" lon="3.64342">
        <ele>133.26802062988</ele>
        <time>2014-04-13T08:12:46.000Z</time>
      </trkpt>
      <trkpt lat="50.11385" lon="3.64341">
        <ele>133.76988220215</ele>
        <time>2014-04-13T08:12:48.000Z</time>
      </trkpt>
      <trkpt lat="50.11396" lon="3.64339">
        <ele>134.95596313477</ele>
        <time>2014-04-13T08:12:51.000Z</time>
      </trkpt>
      <trkpt lat="50.11406" lon="3.64338">
        <ele>135.64315795898</ele>
        <time>2014-04-13T08:12:53.000Z</time>
      </trkpt>
      <trkpt lat="50.11426" lon="3.64333">
        <ele>136.28092956543</ele>
        <time>2014-04-13T08:12:56.000Z</time>
      </trkpt>
      <trkpt lat="50.11434" lon="3.64331">
        <ele>136.66456604004</ele>
        <time>2014-04-13T08:12:58.000Z</time>
      </trkpt>
      <trkpt lat="50.1145" lon="3.64328">
        <ele>136.69323730469</ele>
        <time>2014-04-13T08:13:01.000Z</time>
      </trkpt>
      <trkpt lat="50.11459" lon="3.64327">
        <ele>136.14141845703</ele>
        <time>2014-04-13T08:13:03.000Z</time>
      </trkpt>
      <trkpt lat="50.11472" lon="3.64325">
        <ele>135.94027709961</ele>
        <time>2014-04-13T08:13:06.000Z</time>
      </trkpt>
      <trkpt lat="50.11484" lon="3.64323">
        <ele>136.80709838867</ele>
        <time>2014-04-13T08:13:09.000Z</time>
      </trkpt>
      <trkpt lat="50.11489" lon="3.64319">
        <ele>138.42425537109</ele>
        <time>2014-04-13T08:13:11.000Z</time>
      </trkpt>
      <trkpt lat="50.11496" lon="3.64318">
        <ele>139.96998596191</ele>
        <time>2014-04-13T08:13:13.000Z</time>
      </trkpt>
      <trkpt lat="50.11502" lon="3.64316">
        <ele>141.48155212402</ele>
        <time>2014-04-13T08:13:15.000Z</time>
      </trkpt>
      <trkpt lat="50.11508" lon="3.64314">
        <ele>142.80844116211</ele>
        <time>2014-04-13T08:13:17.000Z</time>
      </trkpt>
      <trkpt lat="50.11517" lon="3.6431">
        <ele>142.5930480957</ele>
        <time>2014-04-13T08:13:20.000Z</time>
      </trkpt>
      <trkpt lat="50.11523" lon="3.64312">
        <ele>142.22685241699</ele>
        <time>2014-04-13T08:13:22.000Z</time>
      </trkpt>
      <trkpt lat="50.11531" lon="3.64312">
        <ele>141.65196228027</ele>
        <time>2014-04-13T08:13:25.000Z</time>
      </trkpt>
      <trkpt lat="50.11538" lon="3.64311">
        <ele>141.05654907227</ele>
        <time>2014-04-13T08:13:27.000Z</time>
      </trkpt>
      <trkpt lat="50.11544" lon="3.6431">
        <ele>140.86517333984</ele>
        <time>2014-04-13T08:13:29.000Z</time>
      </trkpt>
      <trkpt lat="50.11551" lon="3.64309">
        <ele>141.45394897461</ele>
        <time>2014-04-13T08:13:31.000Z</time>
      </trkpt>
      <trkpt lat="50.1156" lon="3.64305">
        <ele>141.24716186523</ele>
        <time>2014-04-13T08:13:34.000Z</time>
      </trkpt>
      <trkpt lat="50.1157" lon="3.64307">
        <ele>141.33285522461</ele>
        <time>2014-04-13T08:13:37.000Z</time>
      </trkpt>
      <trkpt lat="50.11576" lon="3.64306">
        <ele>141.70590209961</ele>
        <time>2014-04-13T08:13:39.000Z</time>
      </trkpt>
      <trkpt lat="50.11584" lon="3.64303">
        <ele>142.18176269531</ele>
        <time>2014-04-13T08:13:42.000Z</time>
      </trkpt>
      <trkpt lat="50.11589" lon="3.64301">
        <ele>142.69358825684</ele>
        <time>2014-04-13T08:13:44.000Z</time>
      </trkpt>
      <trkpt lat="50.11597" lon="3.64297">
        <ele>143.26943969727</ele>
        <time>2014-04-13T08:13:47.000Z</time>
      </trkpt>
      <trkpt lat="50.11606" lon="3.64297">
        <ele>144.09284973145</ele>
        <time>2014-04-13T08:13:50.000Z</time>
      </trkpt>
      <trkpt lat="50.11616" lon="3.64296">
        <ele>145.0354309082</ele>
        <time>2014-04-13T08:13:53.000Z</time>
      </trkpt>
      <trkpt lat="50.11622" lon="3.64297">
        <ele>145.42770385742</ele>
        <time>2014-04-13T08:13:55.000Z</time>
      </trkpt>
      <trkpt lat="50.11631" lon="3.64297">
        <ele>145.74154663086</ele>
        <time>2014-04-13T08:13:58.000Z</time>
      </trkpt>
      <trkpt lat="50.11637" lon="3.64296">
        <ele>146.38185119629</ele>
        <time>2014-04-13T08:14:00.000Z</time>
      </trkpt>
      <trkpt lat="50.11642" lon="3.64297">
        <ele>146.6710357666</ele>
        <time>2014-04-13T08:14:02.000Z</time>
      </trkpt>
      <trkpt lat="50.11651" lon="3.64296">
        <ele>147.07090759277</ele>
        <time>2014-04-13T08:14:05.000Z</time>
      </trkpt>
      <trkpt lat="50.11655" lon="3.64292">
        <ele>147.88006591797</ele>
        <time>2014-04-13T08:14:07.000Z</time>
      </trkpt>
      <trkpt lat="50.11664" lon="3.64287">
        <ele>148.17306518555</ele>
        <time>2014-04-13T08:14:10.000Z</time>
      </trkpt>
      <trkpt lat="50.11669" lon="3.64282">
        <ele>147.85357666016</ele>
        <time>2014-04-13T08:14:12.000Z</time>
      </trkpt>
      <trkpt lat="50.11674" lon="3.64277">
        <ele>147.23245239258</ele>
        <time>2014-04-13T08:14:14.000Z</time>
      </trkpt>
      <trkpt lat="50.11679" lon="3.6427">
        <ele>146.08581542969</ele>
        <time>2014-04-13T08:14:17.000Z</time>
      </trkpt>
      <trkpt lat="50.11681" lon="3.64262">
        <ele>144.39505004883</ele>
        <time>2014-04-13T08:14:20.000Z</time>
      </trkpt>
      <trkpt lat="50.1168" lon="3.64253">
        <ele>142.97122192383</ele>
        <time>2014-04-13T08:14:23.000Z</time>
      </trkpt>
      <trkpt lat="50.1168" lon="3.64248">
        <ele>142.30256652832</ele>
        <time>2014-04-13T08:14:25.000Z</time>
      </trkpt>
      <trkpt lat="50.11679" lon="3.64243">
        <ele>141.9211730957</ele>
        <time>2014-04-13T08:14:27.000Z</time>
      </trkpt>
      <trkpt lat="50.11679" lon="3.64238">
        <ele>141.96211242676</ele>
        <time>2014-04-13T08:14:29.000Z</time>
      </trkpt>
      <trkpt lat="50.11679" lon="3.64229">
        <ele>142.33451843262</ele>
        <time>2014-04-13T08:14:32.000Z</time>
      </trkpt>
      <trkpt lat="50.11679" lon="3.64222">
        <ele>142.64395141602</ele>
        <time>2014-04-13T08:14:34.000Z</time>
      </trkpt>
      <trkpt lat="50.11679" lon="3.64211">
        <ele>142.8786315918</ele>
        <time>2014-04-13T08:14:37.000Z</time>
      </trkpt>
      <trkpt lat="50.11679" lon="3.64206">
        <ele>143.65278625488</ele>
        <time>2014-04-13T08:14:39.000Z</time>
      </trkpt>
      <trkpt lat="50.11679" lon="3.64196">
        <ele>144.41073608398</ele>
        <time>2014-04-13T08:14:42.000Z</time>
      </trkpt>
      <trkpt lat="50.11679" lon="3.64183">
        <ele>144.47732543945</ele>
        <time>2014-04-13T08:14:45.000Z</time>
      </trkpt>
      <trkpt lat="50.11679" lon="3.64174">
        <ele>144.97062683105</ele>
        <time>2014-04-13T08:14:47.000Z</time>
      </trkpt>
      <trkpt lat="50.11678" lon="3.64161">
        <ele>145.40690612793</ele>
        <time>2014-04-13T08:14:50.000Z</time>
      </trkpt>
      <trkpt lat="50.11676" lon="3.64152">
        <ele>145.41369628906</ele>
        <time>2014-04-13T08:14:53.000Z</time>
      </trkpt>
      <trkpt lat="50.11673" lon="3.6414">
        <ele>145.19314575195</ele>
        <time>2014-04-13T08:14:56.000Z</time>
      </trkpt>
      <trkpt lat="50.11673" lon="3.64133">
        <ele>145.72940063477</ele>
        <time>2014-04-13T08:14:58.000Z</time>
      </trkpt>
      <trkpt lat="50.11672" lon="3.64121">
        <ele>145.85800170898</ele>
        <time>2014-04-13T08:15:01.000Z</time>
      </trkpt>
      <trkpt lat="50.11672" lon="3.64111">
        <ele>145.88784790039</ele>
        <time>2014-04-13T08:15:03.000Z</time>
      </trkpt>
      <trkpt lat="50.11671" lon="3.64089">
        <ele>145.72163391113</ele>
        <time>2014-04-13T08:15:06.000Z</time>
      </trkpt>
      <trkpt lat="50.1167" lon="3.64075">
        <ele>145.50836181641</ele>
        <time>2014-04-13T08:15:08.000Z</time>
      </trkpt>
      <trkpt lat="50.11668" lon="3.64046">
        <ele>145.33715820312</ele>
        <time>2014-04-13T08:15:11.000Z</time>
      </trkpt>
      <trkpt lat="50.1167" lon="3.6403">
        <ele>145.27323913574</ele>
        <time>2014-04-13T08:15:13.000Z</time>
      </trkpt>
      <trkpt lat="50.1167" lon="3.64014">
        <ele>144.64739990234</ele>
        <time>2014-04-13T08:15:15.000Z</time>
      </trkpt>
      <trkpt lat="50.11667" lon="3.63995">
        <ele>143.8258972168</ele>
        <time>2014-04-13T08:15:18.000Z</time>
      </trkpt>
      <trkpt lat="50.11665" lon="3.63983">
        <ele>143.25598144531</ele>
        <time>2014-04-13T08:15:20.000Z</time>
      </trkpt>
      <trkpt lat="50.11664" lon="3.63972">
        <ele>142.56881713867</ele>
        <time>2014-04-13T08:15:22.000Z</time>
      </trkpt>
      <trkpt lat="50.11662" lon="3.63953">
        <ele>142.0924987793</ele>
        <time>2014-04-13T08:15:25.000Z</time>
      </trkpt>
      <trkpt lat="50.11661" lon="3.63933">
        <ele>142.09672546387</ele>
        <time>2014-04-13T08:15:28.000Z</time>
      </trkpt>
      <trkpt lat="50.11665" lon="3.63916">
        <ele>142.40333557129</ele>
        <time>2014-04-13T08:15:31.000Z</time>
      </trkpt>
      <trkpt lat="50.11675" lon="3.63905">
        <ele>142.01779174805</ele>
        <time>2014-04-13T08:15:34.000Z</time>
      </trkpt>
      <trkpt lat="50.11682" lon="3.63898">
        <ele>141.39505004883</ele>
        <time>2014-04-13T08:15:36.000Z</time>
      </trkpt>
      <trkpt lat="50.11688" lon="3.6389">
        <ele>140.67024230957</ele>
        <time>2014-04-13T08:15:38.000Z</time>
      </trkpt>
      <trkpt lat="50.11694" lon="3.63882">
        <ele>140.25595092773</ele>
        <time>2014-04-13T08:15:40.000Z</time>
      </trkpt>
      <trkpt lat="50.11705" lon="3.63868">
        <ele>139.53536987305</ele>
        <time>2014-04-13T08:15:43.000Z</time>
      </trkpt>
      <trkpt lat="50.11713" lon="3.63857">
        <ele>139.28344726562</ele>
        <time>2014-04-13T08:15:45.000Z</time>
      </trkpt>
      <trkpt lat="50.11726" lon="3.63842">
        <ele>139.16993713379</ele>
        <time>2014-04-13T08:15:48.000Z</time>
      </trkpt>
      <trkpt lat="50.11738" lon="3.6383">
        <ele>139.57650756836</ele>
        <time>2014-04-13T08:15:51.000Z</time>
      </trkpt>
      <trkpt lat="50.11744" lon="3.63823">
        <ele>139.98043823242</ele>
        <time>2014-04-13T08:15:53.000Z</time>
      </trkpt>
      <trkpt lat="50.11752" lon="3.63812">
        <ele>140.31582641602</ele>
        <time>2014-04-13T08:15:56.000Z</time>
      </trkpt>
      <trkpt lat="50.11757" lon="3.63806">
        <ele>141.11776733398</ele>
        <time>2014-04-13T08:15:58.000Z</time>
      </trkpt>
      <trkpt lat="50.11766" lon="3.63805">
        <ele>142.61291503906</ele>
        <time>2014-04-13T08:16:01.000Z</time>
      </trkpt>
      <trkpt lat="50.11772" lon="3.63808">
        <ele>144.00825500488</ele>
        <time>2014-04-13T08:16:03.000Z</time>
      </trkpt>
      <trkpt lat="50.11781" lon="3.63816">
        <ele>144.82218933105</ele>
        <time>2014-04-13T08:16:06.000Z</time>
      </trkpt>
      <trkpt lat="50.11785" lon="3.63825">
        <ele>145.91342163086</ele>
        <time>2014-04-13T08:16:08.000Z</time>
      </trkpt>
      <trkpt lat="50.11792" lon="3.63838">
        <ele>146.14819335938</ele>
        <time>2014-04-13T08:16:11.000Z</time>
      </trkpt>
      <trkpt lat="50.118" lon="3.6385">
        <ele>145.6496887207</ele>
        <time>2014-04-13T08:16:14.000Z</time>
      </trkpt>
      <trkpt lat="50.11804" lon="3.6386">
        <ele>144.77563476562</ele>
        <time>2014-04-13T08:16:17.000Z</time>
      </trkpt>
      <trkpt lat="50.11812" lon="3.63867">
        <ele>144.17422485352</ele>
        <time>2014-04-13T08:16:20.000Z</time>
      </trkpt>
      <trkpt lat="50.1182" lon="3.63871">
        <ele>144.21835327148</ele>
        <time>2014-04-13T08:16:23.000Z</time>
      </trkpt>
      <trkpt lat="50.11824" lon="3.63877">
        <ele>144.72357177734</ele>
        <time>2014-04-13T08:16:25.000Z</time>
      </trkpt>
      <trkpt lat="50.11825" lon="3.6389">
        <ele>145.48004150391</ele>
        <time>2014-04-13T08:16:28.000Z</time>
      </trkpt>
      <trkpt lat="50.11827" lon="3.63903">
        <ele>146.76103210449</ele>
        <time>2014-04-13T08:16:31.000Z</time>
      </trkpt>
      <trkpt lat="50.11832" lon="3.63915">
        <ele>148.28549194336</ele>
        <time>2014-04-13T08:16:34.000Z</time>
      </trkpt>
      <trkpt lat="50.11841" lon="3.63928">
        <ele>149.42343139648</ele>
        <time>2014-04-13T08:16:37.000Z</time>
      </trkpt>
      <trkpt lat="50.1185" lon="3.63946">
        <ele>148.98379516602</ele>
        <time>2014-04-13T08:16:40.000Z</time>
      </trkpt>
      <trkpt lat="50.11855" lon="3.63963">
        <ele>148.02072143555</ele>
        <time>2014-04-13T08:16:43.000Z</time>
      </trkpt>
      <trkpt lat="50.11858" lon="3.63979">
        <ele>146.07502746582</ele>
        <time>2014-04-13T08:16:46.000Z</time>
      </trkpt>
      <trkpt lat="50.11864" lon="3.63991">
        <ele>144.41235351562</ele>
        <time>2014-04-13T08:16:48.000Z</time>
      </trkpt>
      <trkpt lat="50.11884" lon="3.64009">
        <ele>142.13108825684</ele>
        <time>2014-04-13T08:16:51.000Z</time>
      </trkpt>
      <trkpt lat="50.11892" lon="3.64012">
        <ele>141.66397094727</ele>
        <time>2014-04-13T08:16:53.000Z</time>
      </trkpt>
      <trkpt lat="50.11902" lon="3.64006">
        <ele>141.72296142578</ele>
        <time>2014-04-13T08:16:56.000Z</time>
      </trkpt>
      <trkpt lat="50.11909" lon="3.63997">
        <ele>142.63528442383</ele>
        <time>2014-04-13T08:16:58.000Z</time>
      </trkpt>
      <trkpt lat="50.1192" lon="3.63986">
        <ele>143.18592834473</ele>
        <time>2014-04-13T08:17:01.000Z</time>
      </trkpt>
      <trkpt lat="50.11931" lon="3.63982">
        <ele>143.84156799316</ele>
        <time>2014-04-13T08:17:03.000Z</time>
      </trkpt>
      <trkpt lat="50.11945" lon="3.63972">
        <ele>143.53689575195</ele>
        <time>2014-04-13T08:17:06.000Z</time>
      </trkpt>
      <trkpt lat="50.11952" lon="3.63965">
        <ele>143.37071228027</ele>
        <time>2014-04-13T08:17:08.000Z</time>
      </trkpt>
      <trkpt lat="50.11966" lon="3.63963">
        <ele>142.68786621094</ele>
        <time>2014-04-13T08:17:11.000Z</time>
      </trkpt>
      <trkpt lat="50.11974" lon="3.63957">
        <ele>141.64974975586</ele>
        <time>2014-04-13T08:17:13.000Z</time>
      </trkpt>
      <trkpt lat="50.11982" lon="3.63951">
        <ele>140.4596862793</ele>
        <time>2014-04-13T08:17:15.000Z</time>
      </trkpt>
      <trkpt lat="50.11997" lon="3.63941">
        <ele>139.38134765625</ele>
        <time>2014-04-13T08:17:18.000Z</time>
      </trkpt>
      <trkpt lat="50.12006" lon="3.63937">
        <ele>137.99655151367</ele>
        <time>2014-04-13T08:17:21.000Z</time>
      </trkpt>
      <trkpt lat="50.12012" lon="3.63935">
        <ele>136.7615814209</ele>
        <time>2014-04-13T08:17:23.000Z</time>
      </trkpt>
      <trkpt lat="50.12019" lon="3.63931">
        <ele>135.78225708008</ele>
        <time>2014-04-13T08:17:26.000Z</time>
      </trkpt>
      <trkpt lat="50.12021" lon="3.63925">
        <ele>135.36721801758</ele>
        <time>2014-04-13T08:17:28.000Z</time>
      </trkpt>
      <trkpt lat="50.12024" lon="3.63919">
        <ele>135.55953979492</ele>
        <time>2014-04-13T08:17:30.000Z</time>
      </trkpt>
      <trkpt lat="50.12026" lon="3.63913">
        <ele>135.90879821777</ele>
        <time>2014-04-13T08:17:32.000Z</time>
      </trkpt>
      <trkpt lat="50.1203" lon="3.63905">
        <ele>136.58299255371</ele>
        <time>2014-04-13T08:17:35.000Z</time>
      </trkpt>
      <trkpt lat="50.12034" lon="3.63899">
        <ele>137.55331420898</ele>
        <time>2014-04-13T08:17:37.000Z</time>
      </trkpt>
      <trkpt lat="50.12042" lon="3.63892">
        <ele>138.4449005127</ele>
        <time>2014-04-13T08:17:40.000Z</time>
      </trkpt>
      <trkpt lat="50.12048" lon="3.63887">
        <ele>138.55184936523</ele>
        <time>2014-04-13T08:17:42.000Z</time>
      </trkpt>
      <trkpt lat="50.12053" lon="3.63882">
        <ele>138.13069152832</ele>
        <time>2014-04-13T08:17:44.000Z</time>
      </trkpt>
      <trkpt lat="50.12062" lon="3.63873">
        <ele>138.27766418457</ele>
        <time>2014-04-13T08:17:47.000Z</time>
      </trkpt>
      <trkpt lat="50.12074" lon="3.63869">
        <ele>138.88386535645</ele>
        <time>2014-04-13T08:17:50.000Z</time>
      </trkpt>
      <trkpt lat="50.12085" lon="3.63861">
        <ele>138.96583557129</ele>
        <time>2014-04-13T08:17:53.000Z</time>
      </trkpt>
      <trkpt lat="50.1209" lon="3.63851">
        <ele>139.85472106934</ele>
        <time>2014-04-13T08:17:55.000Z</time>
      </trkpt>
      <trkpt lat="50.12098" lon="3.63836">
        <ele>140.76820373535</ele>
        <time>2014-04-13T08:17:58.000Z</time>
      </trkpt>
      <trkpt lat="50.12102" lon="3.63828">
        <ele>140.49114990234</ele>
        <time>2014-04-13T08:18:00.000Z</time>
      </trkpt>
      <trkpt lat="50.12107" lon="3.63813">
        <ele>138.8518371582</ele>
        <time>2014-04-13T08:18:03.000Z</time>
      </trkpt>
      <trkpt lat="50.12113" lon="3.638">
        <ele>137.52450561523</ele>
        <time>2014-04-13T08:18:06.000Z</time>
      </trkpt>
      <trkpt lat="50.12116" lon="3.63787">
        <ele>135.7686920166</ele>
        <time>2014-04-13T08:18:09.000Z</time>
      </trkpt>
      <trkpt lat="50.1212" lon="3.63779">
        <ele>134.20143127441</ele>
        <time>2014-04-13T08:18:11.000Z</time>
      </trkpt>
      <trkpt lat="50.12126" lon="3.63765">
        <ele>132.76112365723</ele>
        <time>2014-04-13T08:18:14.000Z</time>
      </trkpt>
      <trkpt lat="50.12128" lon="3.63755">
        <ele>132.27430725098</ele>
        <time>2014-04-13T08:18:16.000Z</time>
      </trkpt>
      <trkpt lat="50.12131" lon="3.63748">
        <ele>131.85760498047</ele>
        <time>2014-04-13T08:18:18.000Z</time>
      </trkpt>
      <trkpt lat="50.12133" lon="3.63738">
        <ele>131.74880981445</ele>
        <time>2014-04-13T08:18:21.000Z</time>
      </trkpt>
      <trkpt lat="50.12134" lon="3.63725">
        <ele>132.79231262207</ele>
        <time>2014-04-13T08:18:24.000Z</time>
      </trkpt>
      <trkpt lat="50.1214" lon="3.63707">
        <ele>133.22485351562</ele>
        <time>2014-04-13T08:18:27.000Z</time>
      </trkpt>
      <trkpt lat="50.12142" lon="3.6369">
        <ele>133.58338928223</ele>
        <time>2014-04-13T08:18:30.000Z</time>
      </trkpt>
      <trkpt lat="50.12144" lon="3.63679">
        <ele>134.13198852539</ele>
        <time>2014-04-13T08:18:32.000Z</time>
      </trkpt>
      <trkpt lat="50.1215" lon="3.63667">
        <ele>135.1766204834</ele>
        <time>2014-04-13T08:18:35.000Z</time>
      </trkpt>
      <trkpt lat="50.12152" lon="3.63657">
        <ele>135.55111694336</ele>
        <time>2014-04-13T08:18:37.000Z</time>
      </trkpt>
      <trkpt lat="50.12157" lon="3.63644">
        <ele>136.79611206055</ele>
        <time>2014-04-13T08:18:40.000Z</time>
      </trkpt>
      <trkpt lat="50.12163" lon="3.63631">
        <ele>138.36605834961</ele>
        <time>2014-04-13T08:18:43.000Z</time>
      </trkpt>
      <trkpt lat="50.12167" lon="3.63623">
        <ele>139.83799743652</ele>
        <time>2014-04-13T08:18:45.000Z</time>
      </trkpt>
      <trkpt lat="50.1217" lon="3.63612">
        <ele>140.21084594727</ele>
        <time>2014-04-13T08:18:47.000Z</time>
      </trkpt>
      <trkpt lat="50.12172" lon="3.63594">
        <ele>139.52365112305</ele>
        <time>2014-04-13T08:18:50.000Z</time>
      </trkpt>
      <trkpt lat="50.12175" lon="3.63577">
        <ele>139.44387817383</ele>
        <time>2014-04-13T08:18:53.000Z</time>
      </trkpt>
      <trkpt lat="50.1218" lon="3.63562">
        <ele>139.22911071777</ele>
        <time>2014-04-13T08:18:56.000Z</time>
      </trkpt>
      <trkpt lat="50.12185" lon="3.63553">
        <ele>139.27980041504</ele>
        <time>2014-04-13T08:18:58.000Z</time>
      </trkpt>
      <trkpt lat="50.12189" lon="3.63546">
        <ele>140.35787963867</ele>
        <time>2014-04-13T08:19:00.000Z</time>
      </trkpt>
      <trkpt lat="50.12196" lon="3.63536">
        <ele>142.05484008789</ele>
        <time>2014-04-13T08:19:03.000Z</time>
      </trkpt>
      <trkpt lat="50.12201" lon="3.63528">
        <ele>143.36953735352</ele>
        <time>2014-04-13T08:19:05.000Z</time>
      </trkpt>
      <trkpt lat="50.12207" lon="3.63516">
        <ele>143.83534240723</ele>
        <time>2014-04-13T08:19:08.000Z</time>
      </trkpt>
      <trkpt lat="50.12212" lon="3.63504">
        <ele>143.25563049316</ele>
        <time>2014-04-13T08:19:11.000Z</time>
      </trkpt>
      <trkpt lat="50.12217" lon="3.63497">
        <ele>142.36093139648</ele>
        <time>2014-04-13T08:19:13.000Z</time>
      </trkpt>
      <trkpt lat="50.12223" lon="3.63485">
        <ele>141.97627258301</ele>
        <time>2014-04-13T08:19:16.000Z</time>
      </trkpt>
      <trkpt lat="50.12228" lon="3.63473">
        <ele>142.42094421387</ele>
        <time>2014-04-13T08:19:19.000Z</time>
      </trkpt>
      <trkpt lat="50.12233" lon="3.63466">
        <ele>142.58808898926</ele>
        <time>2014-04-13T08:19:21.000Z</time>
      </trkpt>
      <trkpt lat="50.12238" lon="3.63459">
        <ele>143.66111755371</ele>
        <time>2014-04-13T08:19:23.000Z</time>
      </trkpt>
      <trkpt lat="50.1224" lon="3.63451">
        <ele>144.71925354004</ele>
        <time>2014-04-13T08:19:25.000Z</time>
      </trkpt>
      <trkpt lat="50.12243" lon="3.63443">
        <ele>145.72296142578</ele>
        <time>2014-04-13T08:19:28.000Z</time>
      </trkpt>
      <trkpt lat="50.12246" lon="3.63439">
        <ele>145.81210327148</ele>
        <time>2014-04-13T08:19:30.000Z</time>
      </trkpt>
      <trkpt lat="50.12253" lon="3.6343">
        <ele>146.16247558594</ele>
        <time>2014-04-13T08:19:33.000Z</time>
      </trkpt>
      <trkpt lat="50.12258" lon="3.63423">
        <ele>146.64987182617</ele>
        <time>2014-04-13T08:19:35.000Z</time>
      </trkpt>
      <trkpt lat="50.12265" lon="3.63412">
        <ele>147.00534057617</ele>
        <time>2014-04-13T08:19:38.000Z</time>
      </trkpt>
      <trkpt lat="50.12269" lon="3.63406">
        <ele>146.63850402832</ele>
        <time>2014-04-13T08:19:40.000Z</time>
      </trkpt>
      <trkpt lat="50.12276" lon="3.63396">
        <ele>146.74836730957</ele>
        <time>2014-04-13T08:19:43.000Z</time>
      </trkpt>
      <trkpt lat="50.12281" lon="3.63387">
        <ele>146.96194458008</ele>
        <time>2014-04-13T08:19:45.000Z</time>
      </trkpt>
      <trkpt lat="50.12286" lon="3.6337">
        <ele>146.02369689941</ele>
        <time>2014-04-13T08:19:48.000Z</time>
      </trkpt>
      <trkpt lat="50.12291" lon="3.63353">
        <ele>144.87342834473</ele>
        <time>2014-04-13T08:19:51.000Z</time>
      </trkpt>
      <trkpt lat="50.12294" lon="3.63342">
        <ele>144.0700378418</ele>
        <time>2014-04-13T08:19:53.000Z</time>
      </trkpt>
      <trkpt lat="50.12296" lon="3.63325">
        <ele>142.49607849121</ele>
        <time>2014-04-13T08:19:56.000Z</time>
      </trkpt>
      <trkpt lat="50.12295" lon="3.63313">
        <ele>141.23626708984</ele>
        <time>2014-04-13T08:19:58.000Z</time>
      </trkpt>
      <trkpt lat="50.1229" lon="3.63298">
        <ele>141.30557250977</ele>
        <time>2014-04-13T08:20:01.000Z</time>
      </trkpt>
      <trkpt lat="50.12284" lon="3.63285">
        <ele>141.86575317383</ele>
        <time>2014-04-13T08:20:04.000Z</time>
      </trkpt>
      <trkpt lat="50.12277" lon="3.63272">
        <ele>142.6714630127</ele>
        <time>2014-04-13T08:20:07.000Z</time>
      </trkpt>
      <trkpt lat="50.12269" lon="3.63261">
        <ele>143.88296508789</ele>
        <time>2014-04-13T08:20:10.000Z</time>
      </trkpt>
      <trkpt lat="50.12264" lon="3.63253">
        <ele>145.40167236328</ele>
        <time>2014-04-13T08:20:12.000Z</time>
      </trkpt>
      <trkpt lat="50.12258" lon="3.63241">
        <ele>146.03500366211</ele>
        <time>2014-04-13T08:20:15.000Z</time>
      </trkpt>
      <trkpt lat="50.12254" lon="3.63234">
        <ele>146.26022338867</ele>
        <time>2014-04-13T08:20:17.000Z</time>
      </trkpt>
      <trkpt lat="50.12246" lon="3.63226">
        <ele>146.18882751465</ele>
        <time>2014-04-13T08:20:20.000Z</time>
      </trkpt>
      <trkpt lat="50.12239" lon="3.63218">
        <ele>145.5306854248</ele>
        <time>2014-04-13T08:20:23.000Z</time>
      </trkpt>
      <trkpt lat="50.12233" lon="3.6321">
        <ele>144.62145996094</ele>
        <time>2014-04-13T08:20:25.000Z</time>
      </trkpt>
      <trkpt lat="50.12228" lon="3.63202">
        <ele>144.33576965332</ele>
        <time>2014-04-13T08:20:27.000Z</time>
      </trkpt>
      <trkpt lat="50.12221" lon="3.6319">
        <ele>144.37634277344</ele>
        <time>2014-04-13T08:20:30.000Z</time>
      </trkpt>
      <trkpt lat="50.12216" lon="3.63182">
        <ele>144.42979431152</ele>
        <time>2014-04-13T08:20:32.000Z</time>
      </trkpt>
      <trkpt lat="50.12209" lon="3.63169">
        <ele>144.72074890137</ele>
        <time>2014-04-13T08:20:35.000Z</time>
      </trkpt>
      <trkpt lat="50.12204" lon="3.6316">
        <ele>145.11874389648</ele>
        <time>2014-04-13T08:20:37.000Z</time>
      </trkpt>
      <trkpt lat="50.12201" lon="3.63145">
        <ele>145.4306640625</ele>
        <time>2014-04-13T08:20:40.000Z</time>
      </trkpt>
      <trkpt lat="50.12206" lon="3.6313">
        <ele>145.18173217773</ele>
        <time>2014-04-13T08:20:43.000Z</time>
      </trkpt>
      <trkpt lat="50.12212" lon="3.63124">
        <ele>144.93295288086</ele>
        <time>2014-04-13T08:20:45.000Z</time>
      </trkpt>
      <trkpt lat="50.12218" lon="3.63118">
        <ele>144.79570007324</ele>
        <time>2014-04-13T08:20:47.000Z</time>
      </trkpt>
      <trkpt lat="50.12227" lon="3.6311">
        <ele>144.75114440918</ele>
        <time>2014-04-13T08:20:50.000Z</time>
      </trkpt>
      <trkpt lat="50.12235" lon="3.63101">
        <ele>144.22410583496</ele>
        <time>2014-04-13T08:20:53.000Z</time>
      </trkpt>
      <trkpt lat="50.12242" lon="3.63097">
        <ele>144.08346557617</ele>
        <time>2014-04-13T08:20:55.000Z</time>
      </trkpt>
      <trkpt lat="50.12249" lon="3.63098">
        <ele>144.02203369141</ele>
        <time>2014-04-13T08:20:57.000Z</time>
      </trkpt>
      <trkpt lat="50.12257" lon="3.631">
        <ele>143.85562133789</ele>
        <time>2014-04-13T08:20:59.000Z</time>
      </trkpt>
      <trkpt lat="50.12268" lon="3.63107">
        <ele>142.81886291504</ele>
        <time>2014-04-13T08:21:02.000Z</time>
      </trkpt>
      <trkpt lat="50.12275" lon="3.6311">
        <ele>142.54183959961</ele>
        <time>2014-04-13T08:21:04.000Z</time>
      </trkpt>
      <trkpt lat="50.12281" lon="3.63113">
        <ele>142.25645446777</ele>
        <time>2014-04-13T08:21:06.000Z</time>
      </trkpt>
      <trkpt lat="50.1229" lon="3.63117">
        <ele>141.53273010254</ele>
        <time>2014-04-13T08:21:09.000Z</time>
      </trkpt>
      <trkpt lat="50.123" lon="3.63123">
        <ele>140.7166595459</ele>
        <time>2014-04-13T08:21:12.000Z</time>
      </trkpt>
      <trkpt lat="50.12307" lon="3.63125">
        <ele>140.59280395508</ele>
        <time>2014-04-13T08:21:14.000Z</time>
      </trkpt>
      <trkpt lat="50.12317" lon="3.63129">
        <ele>140.0746307373</ele>
        <time>2014-04-13T08:21:17.000Z</time>
      </trkpt>
      <trkpt lat="50.12326" lon="3.63132">
        <ele>139.78511047363</ele>
        <time>2014-04-13T08:21:20.000Z</time>
      </trkpt>
      <trkpt lat="50.12333" lon="3.63135">
        <ele>140.05923461914</ele>
        <time>2014-04-13T08:21:22.000Z</time>
      </trkpt>
      <trkpt lat="50.1234" lon="3.63137">
        <ele>140.0157623291</ele>
        <time>2014-04-13T08:21:24.000Z</time>
      </trkpt>
      <trkpt lat="50.1235" lon="3.6314">
        <ele>140.32174682617</ele>
        <time>2014-04-13T08:21:27.000Z</time>
      </trkpt>
      <trkpt lat="50.12359" lon="3.63144">
        <ele>140.60232543945</ele>
        <time>2014-04-13T08:21:30.000Z</time>
      </trkpt>
      <trkpt lat="50.1237" lon="3.63147">
        <ele>140.63600158691</ele>
        <time>2014-04-13T08:21:33.000Z</time>
      </trkpt>
      <trkpt lat="50.12379" lon="3.63151">
        <ele>140.61141967773</ele>
        <time>2014-04-13T08:21:36.000Z</time>
      </trkpt>
      <trkpt lat="50.12385" lon="3.63153">
        <ele>141.1160736084</ele>
        <time>2014-04-13T08:21:38.000Z</time>
      </trkpt>
      <trkpt lat="50.12391" lon="3.63151">
        <ele>141.09423828125</ele>
        <time>2014-04-13T08:21:40.000Z</time>
      </trkpt>
      <trkpt lat="50.12397" lon="3.63148">
        <ele>141.3224029541</ele>
        <time>2014-04-13T08:21:42.000Z</time>
      </trkpt>
      <trkpt lat="50.12406" lon="3.6314">
        <ele>141.58190917969</ele>
        <time>2014-04-13T08:21:45.000Z</time>
      </trkpt>
      <trkpt lat="50.12411" lon="3.63134">
        <ele>141.69111633301</ele>
        <time>2014-04-13T08:21:47.000Z</time>
      </trkpt>
      <trkpt lat="50.12418" lon="3.6313">
        <ele>141.92333984375</ele>
        <time>2014-04-13T08:21:49.000Z</time>
      </trkpt>
      <trkpt lat="50.12425" lon="3.63125">
        <ele>142.32229614258</ele>
        <time>2014-04-13T08:21:51.000Z</time>
      </trkpt>
      <trkpt lat="50.12436" lon="3.63121">
        <ele>142.4497833252</ele>
        <time>2014-04-13T08:21:54.000Z</time>
      </trkpt>
      <trkpt lat="50.12446" lon="3.63115">
        <ele>142.49087524414</ele>
        <time>2014-04-13T08:21:57.000Z</time>
      </trkpt>
      <trkpt lat="50.12453" lon="3.6311">
        <ele>142.80781555176</ele>
        <time>2014-04-13T08:21:59.000Z</time>
      </trkpt>
      <trkpt lat="50.12463" lon="3.63101">
        <ele>143.00378417969</ele>
        <time>2014-04-13T08:22:02.000Z</time>
      </trkpt>
      <trkpt lat="50.12474" lon="3.63094">
        <ele>142.78359985352</ele>
        <time>2014-04-13T08:22:05.000Z</time>
      </trkpt>
      <trkpt lat="50.12482" lon="3.63088">
        <ele>142.58084106445</ele>
        <time>2014-04-13T08:22:07.000Z</time>
      </trkpt>
      <trkpt lat="50.12495" lon="3.63082">
        <ele>142.71577453613</ele>
        <time>2014-04-13T08:22:09.000Z</time>
      </trkpt>
      <trkpt lat="50.12502" lon="3.63075">
        <ele>142.48080444336</ele>
        <time>2014-04-13T08:22:11.000Z</time>
      </trkpt>
      <trkpt lat="50.12513" lon="3.6306">
        <ele>141.85678100586</ele>
        <time>2014-04-13T08:22:14.000Z</time>
      </trkpt>
      <trkpt lat="50.1252" lon="3.63052">
        <ele>141.97952270508</ele>
        <time>2014-04-13T08:22:16.000Z</time>
      </trkpt>
      <trkpt lat="50.12526" lon="3.63044">
        <ele>142.3434753418</ele>
        <time>2014-04-13T08:22:18.000Z</time>
      </trkpt>
      <trkpt lat="50.12537" lon="3.63033">
        <ele>142.0637512207</ele>
        <time>2014-04-13T08:22:21.000Z</time>
      </trkpt>
      <trkpt lat="50.12541" lon="3.6302">
        <ele>141.47283935547</ele>
        <time>2014-04-13T08:22:23.000Z</time>
      </trkpt>
      <trkpt lat="50.12546" lon="3.63002">
        <ele>140.42906188965</ele>
        <time>2014-04-13T08:22:26.000Z</time>
      </trkpt>
      <trkpt lat="50.12549" lon="3.6299">
        <ele>139.50782775879</ele>
        <time>2014-04-13T08:22:29.000Z</time>
      </trkpt>
      <trkpt lat="50.12551" lon="3.62984">
        <ele>138.60090637207</ele>
        <time>2014-04-13T08:22:31.000Z</time>
      </trkpt>
      <trkpt lat="50.12553" lon="3.62975">
        <ele>138.15200805664</ele>
        <time>2014-04-13T08:22:34.000Z</time>
      </trkpt>
      <trkpt lat="50.12555" lon="3.62968">
        <ele>138.31327819824</ele>
        <time>2014-04-13T08:22:36.000Z</time>
      </trkpt>
      <trkpt lat="50.12556" lon="3.6296">
        <ele>139.05825805664</ele>
        <time>2014-04-13T08:22:38.000Z</time>
      </trkpt>
      <trkpt lat="50.12557" lon="3.62948">
        <ele>139.62939453125</ele>
        <time>2014-04-13T08:22:41.000Z</time>
      </trkpt>
      <trkpt lat="50.12556" lon="3.62941">
        <ele>140.48641967773</ele>
        <time>2014-04-13T08:22:43.000Z</time>
      </trkpt>
      <trkpt lat="50.12556" lon="3.6293">
        <ele>141.21926879883</ele>
        <time>2014-04-13T08:22:46.000Z</time>
      </trkpt>
      <trkpt lat="50.12558" lon="3.62922">
        <ele>141.29782104492</ele>
        <time>2014-04-13T08:22:48.000Z</time>
      </trkpt>
      <trkpt lat="50.12563" lon="3.6291">
        <ele>141.20718383789</ele>
        <time>2014-04-13T08:22:51.000Z</time>
      </trkpt>
      <trkpt lat="50.12568" lon="3.62903">
        <ele>140.88261413574</ele>
        <time>2014-04-13T08:22:53.000Z</time>
      </trkpt>
      <trkpt lat="50.12573" lon="3.62899">
        <ele>140.25907897949</ele>
        <time>2014-04-13T08:22:55.000Z</time>
      </trkpt>
      <trkpt lat="50.12583" lon="3.629">
        <ele>139.95257568359</ele>
        <time>2014-04-13T08:22:58.000Z</time>
      </trkpt>
      <trkpt lat="50.12589" lon="3.62903">
        <ele>140.25770568848</ele>
        <time>2014-04-13T08:23:00.000Z</time>
      </trkpt>
      <trkpt lat="50.12597" lon="3.6291">
        <ele>141.15296936035</ele>
        <time>2014-04-13T08:23:03.000Z</time>
      </trkpt>
      <trkpt lat="50.12605" lon="3.6292">
        <ele>142.40203857422</ele>
        <time>2014-04-13T08:23:06.000Z</time>
      </trkpt>
      <trkpt lat="50.12611" lon="3.62928">
        <ele>143.55784606934</ele>
        <time>2014-04-13T08:23:08.000Z</time>
      </trkpt>
      <trkpt lat="50.12621" lon="3.6294">
        <ele>144.40007019043</ele>
        <time>2014-04-13T08:23:11.000Z</time>
      </trkpt>
      <trkpt lat="50.12631" lon="3.62952">
        <ele>145.24905395508</ele>
        <time>2014-04-13T08:23:14.000Z</time>
      </trkpt>
      <trkpt lat="50.12638" lon="3.6296">
        <ele>145.62205505371</ele>
        <time>2014-04-13T08:23:16.000Z</time>
      </trkpt>
      <trkpt lat="50.12645" lon="3.62967">
        <ele>145.41459655762</ele>
        <time>2014-04-13T08:23:18.000Z</time>
      </trkpt>
      <trkpt lat="50.12656" lon="3.62971">
        <ele>145.38171386719</ele>
        <time>2014-04-13T08:23:21.000Z</time>
      </trkpt>
      <trkpt lat="50.12663" lon="3.62968">
        <ele>145.51681518555</ele>
        <time>2014-04-13T08:23:23.000Z</time>
      </trkpt>
      <trkpt lat="50.12672" lon="3.62962">
        <ele>145.60995483398</ele>
        <time>2014-04-13T08:23:26.000Z</time>
      </trkpt>
      <trkpt lat="50.12678" lon="3.6296">
        <ele>145.9387512207</ele>
        <time>2014-04-13T08:23:28.000Z</time>
      </trkpt>
      <trkpt lat="50.12684" lon="3.62956">
        <ele>146.53967285156</ele>
        <time>2014-04-13T08:23:30.000Z</time>
      </trkpt>
      <trkpt lat="50.12692" lon="3.62948">
        <ele>147.11067199707</ele>
        <time>2014-04-13T08:23:33.000Z</time>
      </trkpt>
      <trkpt lat="50.12698" lon="3.62942">
        <ele>147.83145141602</ele>
        <time>2014-04-13T08:23:35.000Z</time>
      </trkpt>
      <trkpt lat="50.12703" lon="3.62935">
        <ele>148.57034301758</ele>
        <time>2014-04-13T08:23:37.000Z</time>
      </trkpt>
      <trkpt lat="50.12708" lon="3.62922">
        <ele>149.53979492188</ele>
        <time>2014-04-13T08:23:40.000Z</time>
      </trkpt>
      <trkpt lat="50.12712" lon="3.62913">
        <ele>150.52528381348</ele>
        <time>2014-04-13T08:23:42.000Z</time>
      </trkpt>
      <trkpt lat="50.12717" lon="3.62901">
        <ele>151.32717895508</ele>
        <time>2014-04-13T08:23:45.000Z</time>
      </trkpt>
      <trkpt lat="50.12717" lon="3.62886">
        <ele>151.84840393066</ele>
        <time>2014-04-13T08:23:48.000Z</time>
      </trkpt>
      <trkpt lat="50.12715" lon="3.62877">
        <ele>151.88720703125</ele>
        <time>2014-04-13T08:23:50.000Z</time>
      </trkpt>
      <trkpt lat="50.12714" lon="3.62862">
        <ele>151.6921081543</ele>
        <time>2014-04-13T08:23:53.000Z</time>
      </trkpt>
      <trkpt lat="50.12713" lon="3.62847">
        <ele>151.30380249023</ele>
        <time>2014-04-13T08:23:56.000Z</time>
      </trkpt>
      <trkpt lat="50.12712" lon="3.62837">
        <ele>151.19338989258</ele>
        <time>2014-04-13T08:23:58.000Z</time>
      </trkpt>
      <trkpt lat="50.12713" lon="3.62827">
        <ele>150.93704223633</ele>
        <time>2014-04-13T08:24:00.000Z</time>
      </trkpt>
      <trkpt lat="50.12714" lon="3.62812">
        <ele>150.92514038086</ele>
        <time>2014-04-13T08:24:03.000Z</time>
      </trkpt>
      <trkpt lat="50.12717" lon="3.62798">
        <ele>150.81645202637</ele>
        <time>2014-04-13T08:24:06.000Z</time>
      </trkpt>
      <trkpt lat="50.12719" lon="3.62789">
        <ele>150.22415161133</ele>
        <time>2014-04-13T08:24:08.000Z</time>
      </trkpt>
      <trkpt lat="50.12723" lon="3.62776">
        <ele>149.42347717285</ele>
        <time>2014-04-13T08:24:11.000Z</time>
      </trkpt>
      <trkpt lat="50.12725" lon="3.62767">
        <ele>148.85855102539</ele>
        <time>2014-04-13T08:24:13.000Z</time>
      </trkpt>
      <trkpt lat="50.12728" lon="3.6276">
        <ele>148.41641235352</ele>
        <time>2014-04-13T08:24:15.000Z</time>
      </trkpt>
      <trkpt lat="50.12735" lon="3.62752">
        <ele>147.89935302734</ele>
        <time>2014-04-13T08:24:18.000Z</time>
      </trkpt>
      <trkpt lat="50.12739" lon="3.62745">
        <ele>147.94833374023</ele>
        <time>2014-04-13T08:24:20.000Z</time>
      </trkpt>
      <trkpt lat="50.12744" lon="3.62733">
        <ele>148.65628051758</ele>
        <time>2014-04-13T08:24:23.000Z</time>
      </trkpt>
      <trkpt lat="50.12748" lon="3.62724">
        <ele>149.30270385742</ele>
        <time>2014-04-13T08:24:25.000Z</time>
      </trkpt>
      <trkpt lat="50.12751" lon="3.62713">
        <ele>150.49472045898</ele>
        <time>2014-04-13T08:24:27.000Z</time>
      </trkpt>
      <trkpt lat="50.12753" lon="3.62695">
        <ele>151.42098999023</ele>
        <time>2014-04-13T08:24:30.000Z</time>
      </trkpt>
      <trkpt lat="50.12755" lon="3.62681">
        <ele>151.65620422363</ele>
        <time>2014-04-13T08:24:32.000Z</time>
      </trkpt>
      <trkpt lat="50.12758" lon="3.6266">
        <ele>151.55610656738</ele>
        <time>2014-04-13T08:24:35.000Z</time>
      </trkpt>
      <trkpt lat="50.12756" lon="3.62644">
        <ele>150.44790649414</ele>
        <time>2014-04-13T08:24:38.000Z</time>
      </trkpt>
      <trkpt lat="50.12751" lon="3.62636">
        <ele>148.97973632812</ele>
        <time>2014-04-13T08:24:40.000Z</time>
      </trkpt>
      <trkpt lat="50.12744" lon="3.62629">
        <ele>148.58462524414</ele>
        <time>2014-04-13T08:24:42.000Z</time>
      </trkpt>
      <trkpt lat="50.12737" lon="3.62623">
        <ele>149.12698364258</ele>
        <time>2014-04-13T08:24:44.000Z</time>
      </trkpt>
      <trkpt lat="50.12729" lon="3.62612">
        <ele>149.36744689941</ele>
        <time>2014-04-13T08:24:47.000Z</time>
      </trkpt>
      <trkpt lat="50.12725" lon="3.62595">
        <ele>151.16815185547</ele>
        <time>2014-04-13T08:24:50.000Z</time>
      </trkpt>
      <trkpt lat="50.12722" lon="3.62576">
        <ele>152.71633911133</ele>
        <time>2014-04-13T08:24:53.000Z</time>
      </trkpt>
      <trkpt lat="50.12719" lon="3.62558">
        <ele>154.36935424805</ele>
        <time>2014-04-13T08:24:56.000Z</time>
      </trkpt>
      <trkpt lat="50.12716" lon="3.62546">
        <ele>155.00424194336</ele>
        <time>2014-04-13T08:24:58.000Z</time>
      </trkpt>
      <trkpt lat="50.12718" lon="3.62527">
        <ele>155.10247802734</ele>
        <time>2014-04-13T08:25:01.000Z</time>
      </trkpt>
      <trkpt lat="50.12719" lon="3.62515">
        <ele>154.68472290039</ele>
        <time>2014-04-13T08:25:03.000Z</time>
      </trkpt>
      <trkpt lat="50.1272" lon="3.62502">
        <ele>153.60693359375</ele>
        <time>2014-04-13T08:25:05.000Z</time>
      </trkpt>
      <trkpt lat="50.1272" lon="3.62481">
        <ele>152.07843017578</ele>
        <time>2014-04-13T08:25:08.000Z</time>
      </trkpt>
      <trkpt lat="50.12723" lon="3.62468">
        <ele>150.95994567871</ele>
        <time>2014-04-13T08:25:10.000Z</time>
      </trkpt>
      <trkpt lat="50.12724" lon="3.62455">
        <ele>150.7287902832</ele>
        <time>2014-04-13T08:25:12.000Z</time>
      </trkpt>
      <trkpt lat="50.12725" lon="3.62438">
        <ele>150.66865539551</ele>
        <time>2014-04-13T08:25:15.000Z</time>
      </trkpt>
      <trkpt lat="50.12731" lon="3.62423">
        <ele>151.44412231445</ele>
        <time>2014-04-13T08:25:18.000Z</time>
      </trkpt>
      <trkpt lat="50.12734" lon="3.62414">
        <ele>151.7154083252</ele>
        <time>2014-04-13T08:25:20.000Z</time>
      </trkpt>
      <trkpt lat="50.12737" lon="3.62397">
        <ele>152.66841125488</ele>
        <time>2014-04-13T08:25:23.000Z</time>
      </trkpt>
      <trkpt lat="50.1274" lon="3.62379">
        <ele>153.55839538574</ele>
        <time>2014-04-13T08:25:26.000Z</time>
      </trkpt>
      <trkpt lat="50.12741" lon="3.62369">
        <ele>154.23277282715</ele>
        <time>2014-04-13T08:25:28.000Z</time>
      </trkpt>
      <trkpt lat="50.12743" lon="3.62358">
        <ele>154.9055480957</ele>
        <time>2014-04-13T08:25:30.000Z</time>
      </trkpt>
      <trkpt lat="50.12745" lon="3.62341">
        <ele>155.41732788086</ele>
        <time>2014-04-13T08:25:33.000Z</time>
      </trkpt>
      <trkpt lat="50.12749" lon="3.6232">
        <ele>155.59375</ele>
        <time>2014-04-13T08:25:36.000Z</time>
      </trkpt>
      <trkpt lat="50.12751" lon="3.62307">
        <ele>155.7725982666</ele>
        <time>2014-04-13T08:25:38.000Z</time>
      </trkpt>
      <trkpt lat="50.12754" lon="3.62294">
        <ele>156.50425720215</ele>
        <time>2014-04-13T08:25:40.000Z</time>
      </trkpt>
      <trkpt lat="50.12756" lon="3.62277">
        <ele>157.10055541992</ele>
        <time>2014-04-13T08:25:43.000Z</time>
      </trkpt>
      <trkpt lat="50.12758" lon="3.62261">
        <ele>157.29647827148</ele>
        <time>2014-04-13T08:25:46.000Z</time>
      </trkpt>
      <trkpt lat="50.1276" lon="3.62249">
        <ele>157.10154724121</ele>
        <time>2014-04-13T08:25:48.000Z</time>
      </trkpt>
      <trkpt lat="50.12763" lon="3.62232">
        <ele>156.57968139648</ele>
        <time>2014-04-13T08:25:51.000Z</time>
      </trkpt>
      <trkpt lat="50.12766" lon="3.6222">
        <ele>155.76957702637</ele>
        <time>2014-04-13T08:25:53.000Z</time>
      </trkpt>
      <trkpt lat="50.12769" lon="3.62204">
        <ele>154.98449707031</ele>
        <time>2014-04-13T08:25:56.000Z</time>
      </trkpt>
      <trkpt lat="50.12771" lon="3.62194">
        <ele>154.67074584961</ele>
        <time>2014-04-13T08:25:58.000Z</time>
      </trkpt>
      <trkpt lat="50.12773" lon="3.62185">
        <ele>155.14077758789</ele>
        <time>2014-04-13T08:26:00.000Z</time>
      </trkpt>
      <trkpt lat="50.12776" lon="3.62179">
        <ele>155.89273071289</ele>
        <time>2014-04-13T08:26:02.000Z</time>
      </trkpt>
      <trkpt lat="50.12777" lon="3.62165">
        <ele>156.17373657227</ele>
        <time>2014-04-13T08:26:05.000Z</time>
      </trkpt>
      <trkpt lat="50.1278" lon="3.62154">
        <ele>156.38858032227</ele>
        <time>2014-04-13T08:26:07.000Z</time>
      </trkpt>
      <trkpt lat="50.12784" lon="3.6214">
        <ele>157.22579956055</ele>
        <time>2014-04-13T08:26:10.000Z</time>
      </trkpt>
      <trkpt lat="50.12786" lon="3.62125">
        <ele>158.12664794922</ele>
        <time>2014-04-13T08:26:13.000Z</time>
      </trkpt>
      <trkpt lat="50.12788" lon="3.62115">
        <ele>158.58665466309</ele>
        <time>2014-04-13T08:26:15.000Z</time>
      </trkpt>
      <trkpt lat="50.12789" lon="3.621">
        <ele>159.31381225586</ele>
        <time>2014-04-13T08:26:18.000Z</time>
      </trkpt>
      <trkpt lat="50.12791" lon="3.62084">
        <ele>159.9831237793</ele>
        <time>2014-04-13T08:26:21.000Z</time>
      </trkpt>
      <trkpt lat="50.12793" lon="3.62073">
        <ele>160.46675109863</ele>
        <time>2014-04-13T08:26:23.000Z</time>
      </trkpt>
      <trkpt lat="50.12797" lon="3.62057">
        <ele>160.59814453125</ele>
        <time>2014-04-13T08:26:26.000Z</time>
      </trkpt>
      <trkpt lat="50.12798" lon="3.62045">
        <ele>160.99690246582</ele>
        <time>2014-04-13T08:26:29.000Z</time>
      </trkpt>
      <trkpt lat="50.128" lon="3.62034">
        <ele>160.38998413086</ele>
        <time>2014-04-13T08:26:32.000Z</time>
      </trkpt>
      <trkpt lat="50.12804" lon="3.6202">
        <ele>159.64312744141</ele>
        <time>2014-04-13T08:26:35.000Z</time>
      </trkpt>
      <trkpt lat="50.12806" lon="3.62009">
        <ele>158.72160339355</ele>
        <time>2014-04-13T08:26:37.000Z</time>
      </trkpt>
      <trkpt lat="50.12811" lon="3.61991">
        <ele>157.88259887695</ele>
        <time>2014-04-13T08:26:40.000Z</time>
      </trkpt>
      <trkpt lat="50.12813" lon="3.61976">
        <ele>156.57141113281</ele>
        <time>2014-04-13T08:26:43.000Z</time>
      </trkpt>
      <trkpt lat="50.12815" lon="3.61965">
        <ele>156.3850402832</ele>
        <time>2014-04-13T08:26:46.000Z</time>
      </trkpt>
      <trkpt lat="50.12815" lon="3.61957">
        <ele>156.42655944824</ele>
        <time>2014-04-13T08:26:48.000Z</time>
      </trkpt>
      <trkpt lat="50.12819" lon="3.61941">
        <ele>156.48348999023</ele>
        <time>2014-04-13T08:26:51.000Z</time>
      </trkpt>
      <trkpt lat="50.12823" lon="3.61924">
        <ele>155.85583496094</ele>
        <time>2014-04-13T08:26:54.000Z</time>
      </trkpt>
      <trkpt lat="50.12825" lon="3.61912">
        <ele>155.2614440918</ele>
        <time>2014-04-13T08:26:56.000Z</time>
      </trkpt>
      <trkpt lat="50.12827" lon="3.619">
        <ele>155.30488586426</ele>
        <time>2014-04-13T08:26:58.000Z</time>
      </trkpt>
      <trkpt lat="50.1283" lon="3.61888">
        <ele>155.86045837402</ele>
        <time>2014-04-13T08:27:00.000Z</time>
      </trkpt>
      <trkpt lat="50.12831" lon="3.61877">
        <ele>156.32479858398</ele>
        <time>2014-04-13T08:27:02.000Z</time>
      </trkpt>
      <trkpt lat="50.12833" lon="3.61859">
        <ele>156.90875244141</ele>
        <time>2014-04-13T08:27:05.000Z</time>
      </trkpt>
      <trkpt lat="50.12833" lon="3.61846">
        <ele>157.55760192871</ele>
        <time>2014-04-13T08:27:07.000Z</time>
      </trkpt>
      <trkpt lat="50.12832" lon="3.61828">
        <ele>157.12265014648</ele>
        <time>2014-04-13T08:27:10.000Z</time>
      </trkpt>
      <trkpt lat="50.12833" lon="3.61816">
        <ele>155.97235107422</ele>
        <time>2014-04-13T08:27:12.000Z</time>
      </trkpt>
      <trkpt lat="50.12833" lon="3.61798">
        <ele>154.70164489746</ele>
        <time>2014-04-13T08:27:15.000Z</time>
      </trkpt>
      <trkpt lat="50.12833" lon="3.6178">
        <ele>153.88467407227</ele>
        <time>2014-04-13T08:27:18.000Z</time>
      </trkpt>
      <trkpt lat="50.12834" lon="3.61763">
        <ele>153.30781555176</ele>
        <time>2014-04-13T08:27:21.000Z</time>
      </trkpt>
      <trkpt lat="50.12835" lon="3.61751">
        <ele>152.94329833984</ele>
        <time>2014-04-13T08:27:23.000Z</time>
      </trkpt>
      <trkpt lat="50.12837" lon="3.61735">
        <ele>153.12977600098</ele>
        <time>2014-04-13T08:27:26.000Z</time>
      </trkpt>
      <trkpt lat="50.1284" lon="3.61723">
        <ele>153.20246887207</ele>
        <time>2014-04-13T08:27:28.000Z</time>
      </trkpt>
      <trkpt lat="50.12843" lon="3.61706">
        <ele>153.05685424805</ele>
        <time>2014-04-13T08:27:31.000Z</time>
      </trkpt>
      <trkpt lat="50.12844" lon="3.61695">
        <ele>152.8179473877</ele>
        <time>2014-04-13T08:27:33.000Z</time>
      </trkpt>
      <trkpt lat="50.12846" lon="3.61683">
        <ele>152.90606689453</ele>
        <time>2014-04-13T08:27:35.000Z</time>
      </trkpt>
      <trkpt lat="50.12849" lon="3.61672">
        <ele>152.60270690918</ele>
        <time>2014-04-13T08:27:37.000Z</time>
      </trkpt>
      <trkpt lat="50.12851" lon="3.6166">
        <ele>152.32792663574</ele>
        <time>2014-04-13T08:27:39.000Z</time>
      </trkpt>
      <trkpt lat="50.12855" lon="3.61632">
        <ele>152.65776062012</ele>
        <time>2014-04-13T08:27:42.000Z</time>
      </trkpt>
      <trkpt lat="50.12857" lon="3.61622">
        <ele>152.73280334473</ele>
        <time>2014-04-13T08:27:44.000Z</time>
      </trkpt>
      <trkpt lat="50.12858" lon="3.61606">
        <ele>152.35885620117</ele>
        <time>2014-04-13T08:27:47.000Z</time>
      </trkpt>
      <trkpt lat="50.12859" lon="3.61592">
        <ele>151.94467163086</ele>
        <time>2014-04-13T08:27:50.000Z</time>
      </trkpt>
      <trkpt lat="50.12859" lon="3.61583">
        <ele>151.8874206543</ele>
        <time>2014-04-13T08:27:52.000Z</time>
      </trkpt>
      <trkpt lat="50.12862" lon="3.61556">
        <ele>151.18423461914</ele>
        <time>2014-04-13T08:28:00.000Z</time>
      </trkpt>
      <trkpt lat="50.12864" lon="3.61553">
        <ele>151.20001220703</ele>
        <time>2014-04-13T08:28:03.000Z</time>
      </trkpt>
      <trkpt lat="50.12863" lon="3.61556">
        <ele>151.2453918457</ele>
        <time>2014-04-13T08:28:06.000Z</time>
      </trkpt>
      <trkpt lat="50.12863" lon="3.61556">
        <ele>151.2453918457</ele>
        <time>2014-04-13T08:28:16.000Z</time>
      </trkpt>
      <trkpt lat="50.12861" lon="3.61554">
        <ele>151.28291320801</ele>
        <time>2014-04-13T08:28:18.000Z</time>
      </trkpt>
      <trkpt lat="50.1286" lon="3.61554">
        <ele>151.63668823242</ele>
        <time>2014-04-13T08:28:21.000Z</time>
      </trkpt>
      <trkpt lat="50.1286" lon="3.61554">
        <ele>151.63668823242</ele>
        <time>2014-04-13T08:28:31.000Z</time>
      </trkpt>
      <trkpt lat="50.12861" lon="3.61552">
        <ele>151.69860839844</ele>
        <time>2014-04-13T08:28:52.000Z</time>
      </trkpt>
      <trkpt lat="50.12862" lon="3.61551">
        <ele>151.3490447998</ele>
        <time>2014-04-13T08:28:55.000Z</time>
      </trkpt>
      <trkpt lat="50.12862" lon="3.61551">
        <ele>151.3490447998</ele>
        <time>2014-04-13T08:29:05.000Z</time>
      </trkpt>
      <trkpt lat="50.12863" lon="3.6155">
        <ele>150.76748657227</ele>
        <time>2014-04-13T08:29:29.000Z</time>
      </trkpt>
      <trkpt lat="50.12863" lon="3.6155">
        <ele>150.76748657227</ele>
        <time>2014-04-13T08:29:39.000Z</time>
      </trkpt>
      <trkpt lat="50.12862" lon="3.61551">
        <ele>151.16494750977</ele>
        <time>2014-04-13T08:31:54.000Z</time>
      </trkpt>
      <trkpt lat="50.12862" lon="3.61554">
        <ele>150.66958618164</ele>
        <time>2014-04-13T08:32:01.000Z</time>
      </trkpt>
      <trkpt lat="50.12862" lon="3.61555">
        <ele>150.93966674805</ele>
        <time>2014-04-13T08:32:03.000Z</time>
      </trkpt>
      <trkpt lat="50.12863" lon="3.61553">
        <ele>151.37605285645</ele>
        <time>2014-04-13T08:32:10.000Z</time>
      </trkpt>
      <trkpt lat="50.12862" lon="3.6155">
        <ele>152.45672607422</ele>
        <time>2014-04-13T08:32:15.000Z</time>
      </trkpt>
      <trkpt lat="50.12862" lon="3.61543">
        <ele>152.68756103516</ele>
        <time>2014-04-13T08:32:18.000Z</time>
      </trkpt>
      <trkpt lat="50.12862" lon="3.61532">
        <ele>153.65902709961</ele>
        <time>2014-04-13T08:32:21.000Z</time>
      </trkpt>
      <trkpt lat="50.12863" lon="3.61521">
        <ele>154.80825805664</ele>
        <time>2014-04-13T08:32:24.000Z</time>
      </trkpt>
      <trkpt lat="50.12866" lon="3.61509">
        <ele>155.5983581543</ele>
        <time>2014-04-13T08:32:27.000Z</time>
      </trkpt>
      <trkpt lat="50.12871" lon="3.61499">
        <ele>156.25024414062</ele>
        <time>2014-04-13T08:32:30.000Z</time>
      </trkpt>
      <trkpt lat="50.12875" lon="3.61485">
        <ele>157.09155273438</ele>
        <time>2014-04-13T08:32:33.000Z</time>
      </trkpt>
      <trkpt lat="50.1288" lon="3.61472">
        <ele>157.41134643555</ele>
        <time>2014-04-13T08:32:35.000Z</time>
      </trkpt>
      <trkpt lat="50.12889" lon="3.61449">
        <ele>157.23731994629</ele>
        <time>2014-04-13T08:32:38.000Z</time>
      </trkpt>
      <trkpt lat="50.12896" lon="3.6144">
        <ele>157.24453735352</ele>
        <time>2014-04-13T08:32:40.000Z</time>
      </trkpt>
      <trkpt lat="50.12907" lon="3.61422">
        <ele>156.36045837402</ele>
        <time>2014-04-13T08:32:43.000Z</time>
      </trkpt>
      <trkpt lat="50.12917" lon="3.61405">
        <ele>155.44493103027</ele>
        <time>2014-04-13T08:32:46.000Z</time>
      </trkpt>
      <trkpt lat="50.12923" lon="3.61396">
        <ele>154.81184387207</ele>
        <time>2014-04-13T08:32:48.000Z</time>
      </trkpt>
      <trkpt lat="50.12926" lon="3.61388">
        <ele>154.01080322266</ele>
        <time>2014-04-13T08:32:50.000Z</time>
      </trkpt>
      <trkpt lat="50.1293" lon="3.61382">
        <ele>153.28958129883</ele>
        <time>2014-04-13T08:32:53.000Z</time>
      </trkpt>
      <trkpt lat="50.12937" lon="3.61374">
        <ele>153.15969848633</ele>
        <time>2014-04-13T08:32:56.000Z</time>
      </trkpt>
      <trkpt lat="50.12944" lon="3.61366">
        <ele>153.42910766602</ele>
        <time>2014-04-13T08:32:59.000Z</time>
      </trkpt>
      <trkpt lat="50.12948" lon="3.61358">
        <ele>153.71670532227</ele>
        <time>2014-04-13T08:33:01.000Z</time>
      </trkpt>
      <trkpt lat="50.12952" lon="3.61351">
        <ele>154.48890686035</ele>
        <time>2014-04-13T08:33:03.000Z</time>
      </trkpt>
      <trkpt lat="50.12959" lon="3.6134">
        <ele>154.80335998535</ele>
        <time>2014-04-13T08:33:06.000Z</time>
      </trkpt>
      <trkpt lat="50.12964" lon="3.61333">
        <ele>155.45791625977</ele>
        <time>2014-04-13T08:33:08.000Z</time>
      </trkpt>
      <trkpt lat="50.12967" lon="3.61327">
        <ele>156.21231079102</ele>
        <time>2014-04-13T08:33:10.000Z</time>
      </trkpt>
      <trkpt lat="50.12967" lon="3.61322">
        <ele>156.69003295898</ele>
        <time>2014-04-13T08:33:12.000Z</time>
      </trkpt>
      <trkpt lat="50.12968" lon="3.6132">
        <ele>157.14224243164</ele>
        <time>2014-04-13T08:33:15.000Z</time>
      </trkpt>
      <trkpt lat="50.12971" lon="3.61315">
        <ele>158.11013793945</ele>
        <time>2014-04-13T08:33:18.000Z</time>
      </trkpt>
      <trkpt lat="50.12976" lon="3.61309">
        <ele>158.65060424805</ele>
        <time>2014-04-13T08:33:21.000Z</time>
      </trkpt>
      <trkpt lat="50.12985" lon="3.613">
        <ele>158.59576416016</ele>
        <time>2014-04-13T08:33:24.000Z</time>
      </trkpt>
      <trkpt lat="50.12991" lon="3.61291">
        <ele>158.5061340332</ele>
        <time>2014-04-13T08:33:26.000Z</time>
      </trkpt>
      <trkpt lat="50.12997" lon="3.61282">
        <ele>157.53895568848</ele>
        <time>2014-04-13T08:33:28.000Z</time>
      </trkpt>
      <trkpt lat="50.13004" lon="3.61272">
        <ele>156.90518188477</ele>
        <time>2014-04-13T08:33:30.000Z</time>
      </trkpt>
      <trkpt lat="50.13017" lon="3.61258">
        <ele>156.42837524414</ele>
        <time>2014-04-13T08:33:33.000Z</time>
      </trkpt>
      <trkpt lat="50.13025" lon="3.61244">
        <ele>155.81204223633</ele>
        <time>2014-04-13T08:33:36.000Z</time>
      </trkpt>
      <trkpt lat="50.13026" lon="3.61235">
        <ele>155.15286254883</ele>
        <time>2014-04-13T08:33:38.000Z</time>
      </trkpt>
      <trkpt lat="50.13028" lon="3.6123">
        <ele>155.49841308594</ele>
        <time>2014-04-13T08:33:41.000Z</time>
      </trkpt>
      <trkpt lat="50.1303" lon="3.61228">
        <ele>155.40338134766</ele>
        <time>2014-04-13T08:33:43.000Z</time>
      </trkpt>
      <trkpt lat="50.13031" lon="3.61226">
        <ele>155.34507751465</ele>
        <time>2014-04-13T08:33:46.000Z</time>
      </trkpt>
      <trkpt lat="50.13032" lon="3.61223">
        <ele>155.01625061035</ele>
        <time>2014-04-13T08:33:48.000Z</time>
      </trkpt>
      <trkpt lat="50.13034" lon="3.61219">
        <ele>155.11224365234</ele>
        <time>2014-04-13T08:33:51.000Z</time>
      </trkpt>
      <trkpt lat="50.13035" lon="3.61214">
        <ele>154.85147094727</ele>
        <time>2014-04-13T08:33:53.000Z</time>
      </trkpt>
      <trkpt lat="50.13037" lon="3.61209">
        <ele>154.29824829102</ele>
        <time>2014-04-13T08:33:56.000Z</time>
      </trkpt>
      <trkpt lat="50.13038" lon="3.61208">
        <ele>154.16259765625</ele>
        <time>2014-04-13T08:33:58.000Z</time>
      </trkpt>
      <trkpt lat="50.13039" lon="3.61205">
        <ele>154.52993774414</ele>
        <time>2014-04-13T08:34:01.000Z</time>
      </trkpt>
      <trkpt lat="50.13041" lon="3.61202">
        <ele>155.01347351074</ele>
        <time>2014-04-13T08:34:04.000Z</time>
      </trkpt>
      <trkpt lat="50.13046" lon="3.61195">
        <ele>155.23248291016</ele>
        <time>2014-04-13T08:34:07.000Z</time>
      </trkpt>
      <trkpt lat="50.13047" lon="3.61187">
        <ele>155.16117858887</ele>
        <time>2014-04-13T08:34:10.000Z</time>
      </trkpt>
      <trkpt lat="50.13045" lon="3.61181">
        <ele>154.82373046875</ele>
        <time>2014-04-13T08:34:12.000Z</time>
      </trkpt>
      <trkpt lat="50.13041" lon="3.61173">
        <ele>154.04428100586</ele>
        <time>2014-04-13T08:34:15.000Z</time>
      </trkpt>
      <trkpt lat="50.1304" lon="3.61166">
        <ele>152.64923095703</ele>
        <time>2014-04-13T08:34:17.000Z</time>
      </trkpt>
      <trkpt lat="50.13038" lon="3.61157">
        <ele>151.5334777832</ele>
        <time>2014-04-13T08:34:19.000Z</time>
      </trkpt>
      <trkpt lat="50.13034" lon="3.61144">
        <ele>151.00946044922</ele>
        <time>2014-04-13T08:34:22.000Z</time>
      </trkpt>
      <trkpt lat="50.1303" lon="3.61132">
        <ele>150.44830322266</ele>
        <time>2014-04-13T08:34:25.000Z</time>
      </trkpt>
      <trkpt lat="50.13027" lon="3.6112">
        <ele>150.1884765625</ele>
        <time>2014-04-13T08:34:28.000Z</time>
      </trkpt>
      <trkpt lat="50.13024" lon="3.61111">
        <ele>150.40843200684</ele>
        <time>2014-04-13T08:34:30.000Z</time>
      </trkpt>
      <trkpt lat="50.13021" lon="3.61102">
        <ele>150.54432678223</ele>
        <time>2014-04-13T08:34:32.000Z</time>
      </trkpt>
      <trkpt lat="50.13016" lon="3.61088">
        <ele>150.80644226074</ele>
        <time>2014-04-13T08:34:35.000Z</time>
      </trkpt>
      <trkpt lat="50.13011" lon="3.61075">
        <ele>150.57479858398</ele>
        <time>2014-04-13T08:34:37.000Z</time>
      </trkpt>
      <trkpt lat="50.13005" lon="3.61058">
        <ele>151.16781616211</ele>
        <time>2014-04-13T08:34:40.000Z</time>
      </trkpt>
      <trkpt lat="50.13" lon="3.61049">
        <ele>151.7342376709</ele>
        <time>2014-04-13T08:34:42.000Z</time>
      </trkpt>
      <trkpt lat="50.12994" lon="3.61033">
        <ele>152.4821472168</ele>
        <time>2014-04-13T08:34:45.000Z</time>
      </trkpt>
      <trkpt lat="50.12991" lon="3.61022">
        <ele>153.3701171875</ele>
        <time>2014-04-13T08:34:47.000Z</time>
      </trkpt>
      <trkpt lat="50.12986" lon="3.61004">
        <ele>154.3595123291</ele>
        <time>2014-04-13T08:34:50.000Z</time>
      </trkpt>
      <trkpt lat="50.12982" lon="3.60984">
        <ele>154.12300109863</ele>
        <time>2014-04-13T08:34:53.000Z</time>
      </trkpt>
      <trkpt lat="50.12975" lon="3.6096">
        <ele>153.74272155762</ele>
        <time>2014-04-13T08:34:56.000Z</time>
      </trkpt>
      <trkpt lat="50.12971" lon="3.60952">
        <ele>152.53091430664</ele>
        <time>2014-04-13T08:34:58.000Z</time>
      </trkpt>
      <trkpt lat="50.12967" lon="3.60941">
        <ele>151.32752990723</ele>
        <time>2014-04-13T08:35:01.000Z</time>
      </trkpt>
      <trkpt lat="50.1296" lon="3.60932">
        <ele>150.52127075195</ele>
        <time>2014-04-13T08:35:03.000Z</time>
      </trkpt>
      <trkpt lat="50.12956" lon="3.60917">
        <ele>149.8342590332</ele>
        <time>2014-04-13T08:35:05.000Z</time>
      </trkpt>
      <trkpt lat="50.12953" lon="3.60904">
        <ele>148.34710693359</ele>
        <time>2014-04-13T08:35:07.000Z</time>
      </trkpt>
      <trkpt lat="50.1295" lon="3.60892">
        <ele>147.53462219238</ele>
        <time>2014-04-13T08:35:09.000Z</time>
      </trkpt>
      <trkpt lat="50.12944" lon="3.60874">
        <ele>146.69044494629</ele>
        <time>2014-04-13T08:35:12.000Z</time>
      </trkpt>
      <trkpt lat="50.12939" lon="3.60863">
        <ele>145.50579833984</ele>
        <time>2014-04-13T08:35:14.000Z</time>
      </trkpt>
      <trkpt lat="50.12931" lon="3.60843">
        <ele>144.52082824707</ele>
        <time>2014-04-13T08:35:17.000Z</time>
      </trkpt>
      <trkpt lat="50.12924" lon="3.60826">
        <ele>144.90133666992</ele>
        <time>2014-04-13T08:35:19.000Z</time>
      </trkpt>
      <trkpt lat="50.12915" lon="3.60807">
        <ele>145.1037902832</ele>
        <time>2014-04-13T08:35:22.000Z</time>
      </trkpt>
      <trkpt lat="50.12906" lon="3.60791">
        <ele>144.96054077148</ele>
        <time>2014-04-13T08:35:25.000Z</time>
      </trkpt>
      <trkpt lat="50.129" lon="3.60782">
        <ele>144.10844421387</ele>
        <time>2014-04-13T08:35:27.000Z</time>
      </trkpt>
      <trkpt lat="50.12893" lon="3.60766">
        <ele>143.70846557617</ele>
        <time>2014-04-13T08:35:30.000Z</time>
      </trkpt>
      <trkpt lat="50.12891" lon="3.60754">
        <ele>142.88204956055</ele>
        <time>2014-04-13T08:35:32.000Z</time>
      </trkpt>
      <trkpt lat="50.12881" lon="3.6074">
        <ele>142.61868286133</ele>
        <time>2014-04-13T08:35:35.000Z</time>
      </trkpt>
      <trkpt lat="50.12869" lon="3.6072">
        <ele>142.13343811035</ele>
        <time>2014-04-13T08:35:38.000Z</time>
      </trkpt>
      <trkpt lat="50.12862" lon="3.60704">
        <ele>142.78663635254</ele>
        <time>2014-04-13T08:35:40.000Z</time>
      </trkpt>
      <trkpt lat="50.12854" lon="3.60683">
        <ele>142.79971313477</ele>
        <time>2014-04-13T08:35:43.000Z</time>
      </trkpt>
      <trkpt lat="50.12846" lon="3.60673">
        <ele>142.265625</ele>
        <time>2014-04-13T08:35:45.000Z</time>
      </trkpt>
      <trkpt lat="50.1283" lon="3.60671">
        <ele>141.46299743652</ele>
        <time>2014-04-13T08:35:48.000Z</time>
      </trkpt>
      <trkpt lat="50.12821" lon="3.60674">
        <ele>141.19059753418</ele>
        <time>2014-04-13T08:35:51.000Z</time>
      </trkpt>
      <trkpt lat="50.1281" lon="3.60679">
        <ele>140.63571166992</ele>
        <time>2014-04-13T08:35:54.000Z</time>
      </trkpt>
      <trkpt lat="50.12804" lon="3.60681">
        <ele>140.92518615723</ele>
        <time>2014-04-13T08:35:56.000Z</time>
      </trkpt>
      <trkpt lat="50.12794" lon="3.60685">
        <ele>141.87631225586</ele>
        <time>2014-04-13T08:35:59.000Z</time>
      </trkpt>
      <trkpt lat="50.12783" lon="3.60689">
        <ele>142.95793151855</ele>
        <time>2014-04-13T08:36:02.000Z</time>
      </trkpt>
      <trkpt lat="50.12775" lon="3.60692">
        <ele>144.1067199707</ele>
        <time>2014-04-13T08:36:04.000Z</time>
      </trkpt>
      <trkpt lat="50.12765" lon="3.60696">
        <ele>145.59701538086</ele>
        <time>2014-04-13T08:36:07.000Z</time>
      </trkpt>
      <trkpt lat="50.12759" lon="3.60699">
        <ele>146.41052246094</ele>
        <time>2014-04-13T08:36:09.000Z</time>
      </trkpt>
      <trkpt lat="50.12755" lon="3.607">
        <ele>147.02604675293</ele>
        <time>2014-04-13T08:36:12.000Z</time>
      </trkpt>
      <trkpt lat="50.12756" lon="3.607">
        <ele>147.51577758789</ele>
        <time>2014-04-13T08:36:15.000Z</time>
      </trkpt>
      <trkpt lat="50.12755" lon="3.607">
        <ele>147.53172302246</ele>
        <time>2014-04-13T08:36:19.000Z</time>
      </trkpt>
      <trkpt lat="50.12754" lon="3.607">
        <ele>146.69723510742</ele>
        <time>2014-04-13T08:36:23.000Z</time>
      </trkpt>
      <trkpt lat="50.12752" lon="3.60701">
        <ele>144.94415283203</ele>
        <time>2014-04-13T08:36:29.000Z</time>
      </trkpt>
      <trkpt lat="50.12751" lon="3.60702">
        <ele>142.98533630371</ele>
        <time>2014-04-13T08:36:32.000Z</time>
      </trkpt>
      <trkpt lat="50.1275" lon="3.60702">
        <ele>140.75640869141</ele>
        <time>2014-04-13T08:36:35.000Z</time>
      </trkpt>
      <trkpt lat="50.12749" lon="3.607">
        <ele>138.89910888672</ele>
        <time>2014-04-13T08:36:43.000Z</time>
      </trkpt>
      <trkpt lat="50.1275" lon="3.607">
        <ele>138.11714172363</ele>
        <time>2014-04-13T08:36:46.000Z</time>
      </trkpt>
      <trkpt lat="50.12749" lon="3.607">
        <ele>138.5241394043</ele>
        <time>2014-04-13T08:36:50.000Z</time>
      </trkpt>
      <trkpt lat="50.12748" lon="3.60701">
        <ele>139.88041687012</ele>
        <time>2014-04-13T08:36:53.000Z</time>
      </trkpt>
      <trkpt lat="50.12748" lon="3.60699">
        <ele>142.32382202148</ele>
        <time>2014-04-13T08:36:59.000Z</time>
      </trkpt>
      <trkpt lat="50.12748" lon="3.60702">
        <ele>144.80581665039</ele>
        <time>2014-04-13T08:37:06.000Z</time>
      </trkpt>
      <trkpt lat="50.12748" lon="3.60704">
        <ele>146.25033569336</ele>
        <time>2014-04-13T08:37:08.000Z</time>
      </trkpt>
      <trkpt lat="50.12748" lon="3.60708">
        <ele>146.83340454102</ele>
        <time>2014-04-13T08:37:11.000Z</time>
      </trkpt>
      <trkpt lat="50.12749" lon="3.60709">
        <ele>146.9200592041</ele>
        <time>2014-04-13T08:37:13.000Z</time>
      </trkpt>
      <trkpt lat="50.1275" lon="3.6071">
        <ele>146.10317993164</ele>
        <time>2014-04-13T08:37:17.000Z</time>
      </trkpt>
      <trkpt lat="50.12753" lon="3.60709">
        <ele>144.74108886719</ele>
        <time>2014-04-13T08:37:20.000Z</time>
      </trkpt>
      <trkpt lat="50.12753" lon="3.60709">
        <ele>144.74108886719</ele>
        <time>2014-04-13T08:37:40.000Z</time>
      </trkpt>
      <trkpt lat="50.12752" lon="3.60713">
        <ele>143.77655029297</ele>
        <time>2014-04-13T08:37:44.000Z</time>
      </trkpt>
      <trkpt lat="50.12751" lon="3.60714">
        <ele>144.45317077637</ele>
        <time>2014-04-13T08:37:58.000Z</time>
      </trkpt>
      <trkpt lat="50.1275" lon="3.60713">
        <ele>145.61735534668</ele>
        <time>2014-04-13T08:38:03.000Z</time>
      </trkpt>
      <trkpt lat="50.12748" lon="3.60714">
        <ele>146.62001037598</ele>
        <time>2014-04-13T08:38:23.000Z</time>
      </trkpt>
      <trkpt lat="50.12747" lon="3.60714">
        <ele>148.19688415527</ele>
        <time>2014-04-13T08:38:30.000Z</time>
      </trkpt>
      <trkpt lat="50.12745" lon="3.60712">
        <ele>149.97291564941</ele>
        <time>2014-04-13T08:38:33.000Z</time>
      </trkpt>
      <trkpt lat="50.12745" lon="3.60711">
        <ele>151.20146179199</ele>
        <time>2014-04-13T08:38:35.000Z</time>
      </trkpt>
      <trkpt lat="50.12745" lon="3.60713">
        <ele>151.67471313477</ele>
        <time>2014-04-13T08:38:43.000Z</time>
      </trkpt>
      <trkpt lat="50.12745" lon="3.60714">
        <ele>152.17837524414</ele>
        <time>2014-04-13T08:38:45.000Z</time>
      </trkpt>
      <trkpt lat="50.12746" lon="3.6072">
        <ele>152.01638793945</ele>
        <time>2014-04-13T08:38:59.000Z</time>
      </trkpt>
      <trkpt lat="50.12746" lon="3.60718">
        <ele>152.42539978027</ele>
        <time>2014-04-13T08:39:03.000Z</time>
      </trkpt>
      <trkpt lat="50.12748" lon="3.60719">
        <ele>151.4729309082</ele>
        <time>2014-04-13T08:39:06.000Z</time>
      </trkpt>
      <trkpt lat="50.12755" lon="3.60703">
        <ele>150.12524414062</ele>
        <time>2014-04-13T08:48:28.000Z</time>
      </trkpt>
      <trkpt lat="50.12756" lon="3.60701">
        <ele>147.72671508789</ele>
        <time>2014-04-13T08:48:31.000Z</time>
      </trkpt>
      <trkpt lat="50.1276" lon="3.60699">
        <ele>146.59823608398</ele>
        <time>2014-04-13T08:48:34.000Z</time>
      </trkpt>
      <trkpt lat="50.12763" lon="3.60693">
        <ele>145.07034301758</ele>
        <time>2014-04-13T08:48:36.000Z</time>
      </trkpt>
      <trkpt lat="50.12766" lon="3.60688">
        <ele>144.56442260742</ele>
        <time>2014-04-13T08:48:38.000Z</time>
      </trkpt>
      <trkpt lat="50.1277" lon="3.60678">
        <ele>144.70388793945</ele>
        <time>2014-04-13T08:48:41.000Z</time>
      </trkpt>
      <trkpt lat="50.12771" lon="3.6067">
        <ele>146.06988525391</ele>
        <time>2014-04-13T08:48:43.000Z</time>
      </trkpt>
      <trkpt lat="50.12769" lon="3.60659">
        <ele>146.85140991211</ele>
        <time>2014-04-13T08:48:46.000Z</time>
      </trkpt>
      <trkpt lat="50.12766" lon="3.60651">
        <ele>147.49229431152</ele>
        <time>2014-04-13T08:48:48.000Z</time>
      </trkpt>
      <trkpt lat="50.12759" lon="3.60637">
        <ele>148.25169372559</ele>
        <time>2014-04-13T08:48:51.000Z</time>
      </trkpt>
      <trkpt lat="50.12755" lon="3.60629">
        <ele>149.4221496582</ele>
        <time>2014-04-13T08:48:53.000Z</time>
      </trkpt>
      <trkpt lat="50.12748" lon="3.60619">
        <ele>150.9250793457</ele>
        <time>2014-04-13T08:48:56.000Z</time>
      </trkpt>
      <trkpt lat="50.1274" lon="3.60613">
        <ele>152.5008392334</ele>
        <time>2014-04-13T08:48:59.000Z</time>
      </trkpt>
      <trkpt lat="50.12732" lon="3.6061">
        <ele>154.4559173584</ele>
        <time>2014-04-13T08:49:02.000Z</time>
      </trkpt>
      <trkpt lat="50.12729" lon="3.60606">
        <ele>156.73503112793</ele>
        <time>2014-04-13T08:49:04.000Z</time>
      </trkpt>
      <trkpt lat="50.12729" lon="3.60604">
        <ele>158.18661499023</ele>
        <time>2014-04-13T08:49:06.000Z</time>
      </trkpt>
      <trkpt lat="50.12728" lon="3.60599">
        <ele>158.96862792969</ele>
        <time>2014-04-13T08:49:08.000Z</time>
      </trkpt>
      <trkpt lat="50.12725" lon="3.60594">
        <ele>159.44058227539</ele>
        <time>2014-04-13T08:49:10.000Z</time>
      </trkpt>
      <trkpt lat="50.12721" lon="3.6059">
        <ele>159.42811584473</ele>
        <time>2014-04-13T08:49:12.000Z</time>
      </trkpt>
      <trkpt lat="50.12713" lon="3.60584">
        <ele>159.0357208252</ele>
        <time>2014-04-13T08:49:15.000Z</time>
      </trkpt>
      <trkpt lat="50.12708" lon="3.6058">
        <ele>158.16694641113</ele>
        <time>2014-04-13T08:49:17.000Z</time>
      </trkpt>
      <trkpt lat="50.12701" lon="3.60575">
        <ele>157.3681640625</ele>
        <time>2014-04-13T08:49:19.000Z</time>
      </trkpt>
      <trkpt lat="50.12696" lon="3.60566">
        <ele>156.66613769531</ele>
        <time>2014-04-13T08:49:21.000Z</time>
      </trkpt>
      <trkpt lat="50.12699" lon="3.60549">
        <ele>155.47769165039</ele>
        <time>2014-04-13T08:49:24.000Z</time>
      </trkpt>
      <trkpt lat="50.12699" lon="3.60534">
        <ele>154.8127746582</ele>
        <time>2014-04-13T08:49:27.000Z</time>
      </trkpt>
      <trkpt lat="50.12693" lon="3.6052">
        <ele>154.72984313965</ele>
        <time>2014-04-13T08:49:30.000Z</time>
      </trkpt>
      <trkpt lat="50.12686" lon="3.60508">
        <ele>154.94711303711</ele>
        <time>2014-04-13T08:49:33.000Z</time>
      </trkpt>
      <trkpt lat="50.1268" lon="3.60497">
        <ele>155.54252624512</ele>
        <time>2014-04-13T08:49:36.000Z</time>
      </trkpt>
      <trkpt lat="50.12674" lon="3.60493">
        <ele>157.21591186523</ele>
        <time>2014-04-13T08:49:39.000Z</time>
      </trkpt>
      <trkpt lat="50.12666" lon="3.60484">
        <ele>157.30308532715</ele>
        <time>2014-04-13T08:49:42.000Z</time>
      </trkpt>
      <trkpt lat="50.12661" lon="3.60476">
        <ele>157.20054626465</ele>
        <time>2014-04-13T08:49:44.000Z</time>
      </trkpt>
      <trkpt lat="50.12652" lon="3.60465">
        <ele>156.59802246094</ele>
        <time>2014-04-13T08:49:47.000Z</time>
      </trkpt>
      <trkpt lat="50.12645" lon="3.60453">
        <ele>155.34576416016</ele>
        <time>2014-04-13T08:49:50.000Z</time>
      </trkpt>
      <trkpt lat="50.1264" lon="3.60443">
        <ele>153.17205810547</ele>
        <time>2014-04-13T08:49:52.000Z</time>
      </trkpt>
      <trkpt lat="50.12635" lon="3.60436">
        <ele>152.32914733887</ele>
        <time>2014-04-13T08:49:54.000Z</time>
      </trkpt>
      <trkpt lat="50.12627" lon="3.60422">
        <ele>151.3763885498</ele>
        <time>2014-04-13T08:49:57.000Z</time>
      </trkpt>
      <trkpt lat="50.12622" lon="3.60414">
        <ele>151.40217590332</ele>
        <time>2014-04-13T08:49:59.000Z</time>
      </trkpt>
      <trkpt lat="50.12614" lon="3.60401">
        <ele>151.5710144043</ele>
        <time>2014-04-13T08:50:02.000Z</time>
      </trkpt>
      <trkpt lat="50.12605" lon="3.60384">
        <ele>152.59658813477</ele>
        <time>2014-04-13T08:50:05.000Z</time>
      </trkpt>
      <trkpt lat="50.12599" lon="3.60375">
        <ele>153.87905883789</ele>
        <time>2014-04-13T08:50:07.000Z</time>
      </trkpt>
      <trkpt lat="50.12594" lon="3.60359">
        <ele>155.96176147461</ele>
        <time>2014-04-13T08:50:10.000Z</time>
      </trkpt>
      <trkpt lat="50.12598" lon="3.6034">
        <ele>157.49308776855</ele>
        <time>2014-04-13T08:50:13.000Z</time>
      </trkpt>
      <trkpt lat="50.12599" lon="3.60327">
        <ele>158.5347442627</ele>
        <time>2014-04-13T08:50:15.000Z</time>
      </trkpt>
      <trkpt lat="50.126" lon="3.60315">
        <ele>159.19673156738</ele>
        <time>2014-04-13T08:50:17.000Z</time>
      </trkpt>
      <trkpt lat="50.12602" lon="3.60298">
        <ele>159.02450561523</ele>
        <time>2014-04-13T08:50:20.000Z</time>
      </trkpt>
      <trkpt lat="50.12605" lon="3.60279">
        <ele>158.5422668457</ele>
        <time>2014-04-13T08:50:23.000Z</time>
      </trkpt>
      <trkpt lat="50.12606" lon="3.60261">
        <ele>158.00619506836</ele>
        <time>2014-04-13T08:50:26.000Z</time>
      </trkpt>
      <trkpt lat="50.12606" lon="3.60249">
        <ele>158.53024291992</ele>
        <time>2014-04-13T08:50:28.000Z</time>
      </trkpt>
      <trkpt lat="50.12608" lon="3.60238">
        <ele>158.56454467773</ele>
        <time>2014-04-13T08:50:30.000Z</time>
      </trkpt>
      <trkpt lat="50.12609" lon="3.60223">
        <ele>158.61250305176</ele>
        <time>2014-04-13T08:50:33.000Z</time>
      </trkpt>
      <trkpt lat="50.12608" lon="3.60218">
        <ele>158.66889953613</ele>
        <time>2014-04-13T08:50:35.000Z</time>
      </trkpt>
      <trkpt lat="50.12605" lon="3.60209">
        <ele>158.16510009766</ele>
        <time>2014-04-13T08:50:38.000Z</time>
      </trkpt>
      <trkpt lat="50.12609" lon="3.60201">
        <ele>157.22354125977</ele>
        <time>2014-04-13T08:50:41.000Z</time>
      </trkpt>
      <trkpt lat="50.12611" lon="3.60196">
        <ele>156.41075134277</ele>
        <time>2014-04-13T08:50:43.000Z</time>
      </trkpt>
      <trkpt lat="50.12613" lon="3.60189">
        <ele>155.49504089355</ele>
        <time>2014-04-13T08:50:46.000Z</time>
      </trkpt>
      <trkpt lat="50.12616" lon="3.60179">
        <ele>154.88954162598</ele>
        <time>2014-04-13T08:50:49.000Z</time>
      </trkpt>
      <trkpt lat="50.12622" lon="3.60168">
        <ele>154.74992370605</ele>
        <time>2014-04-13T08:50:52.000Z</time>
      </trkpt>
      <trkpt lat="50.12627" lon="3.60155">
        <ele>154.41458129883</ele>
        <time>2014-04-13T08:50:55.000Z</time>
      </trkpt>
      <trkpt lat="50.12633" lon="3.60141">
        <ele>154.53070068359</ele>
        <time>2014-04-13T08:50:58.000Z</time>
      </trkpt>
      <trkpt lat="50.12639" lon="3.60129">
        <ele>154.9123840332</ele>
        <time>2014-04-13T08:51:01.000Z</time>
      </trkpt>
      <trkpt lat="50.12642" lon="3.60121">
        <ele>154.78979492188</ele>
        <time>2014-04-13T08:51:03.000Z</time>
      </trkpt>
      <trkpt lat="50.12642" lon="3.60113">
        <ele>154.58102416992</ele>
        <time>2014-04-13T08:51:05.000Z</time>
      </trkpt>
      <trkpt lat="50.12641" lon="3.60103">
        <ele>153.5581817627</ele>
        <time>2014-04-13T08:51:08.000Z</time>
      </trkpt>
      <trkpt lat="50.12637" lon="3.60094">
        <ele>152.72462463379</ele>
        <time>2014-04-13T08:51:10.000Z</time>
      </trkpt>
      <trkpt lat="50.1263" lon="3.60079">
        <ele>152.18397521973</ele>
        <time>2014-04-13T08:51:13.000Z</time>
      </trkpt>
      <trkpt lat="50.12625" lon="3.60069">
        <ele>152.30444335938</ele>
        <time>2014-04-13T08:51:15.000Z</time>
      </trkpt>
      <trkpt lat="50.12617" lon="3.60064">
        <ele>152.63516235352</ele>
        <time>2014-04-13T08:51:18.000Z</time>
      </trkpt>
      <trkpt lat="50.12612" lon="3.6007">
        <ele>153.81573486328</ele>
        <time>2014-04-13T08:51:20.000Z</time>
      </trkpt>
      <trkpt lat="50.12605" lon="3.60083">
        <ele>154.58340454102</ele>
        <time>2014-04-13T08:51:23.000Z</time>
      </trkpt>
      <trkpt lat="50.12598" lon="3.60093">
        <ele>156.24031066895</ele>
        <time>2014-04-13T08:51:26.000Z</time>
      </trkpt>
      <trkpt lat="50.12595" lon="3.60101">
        <ele>157.42265319824</ele>
        <time>2014-04-13T08:51:29.000Z</time>
      </trkpt>
      <trkpt lat="50.12592" lon="3.60106">
        <ele>158.28945922852</ele>
        <time>2014-04-13T08:51:31.000Z</time>
      </trkpt>
      <trkpt lat="50.12587" lon="3.60108">
        <ele>159.13989257812</ele>
        <time>2014-04-13T08:51:33.000Z</time>
      </trkpt>
      <trkpt lat="50.12577" lon="3.60106">
        <ele>159.58427429199</ele>
        <time>2014-04-13T08:51:36.000Z</time>
      </trkpt>
      <trkpt lat="50.12568" lon="3.60105">
        <ele>159.7914276123</ele>
        <time>2014-04-13T08:51:39.000Z</time>
      </trkpt>
      <trkpt lat="50.12556" lon="3.60099">
        <ele>159.74826049805</ele>
        <time>2014-04-13T08:51:42.000Z</time>
      </trkpt>
      <trkpt lat="50.12539" lon="3.60094">
        <ele>159.43440246582</ele>
        <time>2014-04-13T08:51:45.000Z</time>
      </trkpt>
      <trkpt lat="50.12531" lon="3.60091">
        <ele>159.40113830566</ele>
        <time>2014-04-13T08:51:47.000Z</time>
      </trkpt>
      <trkpt lat="50.12518" lon="3.60081">
        <ele>159.48510742188</ele>
        <time>2014-04-13T08:51:50.000Z</time>
      </trkpt>
      <trkpt lat="50.12511" lon="3.60075">
        <ele>157.86875915527</ele>
        <time>2014-04-13T08:51:52.000Z</time>
      </trkpt>
      <trkpt lat="50.12503" lon="3.60075">
        <ele>155.97618103027</ele>
        <time>2014-04-13T08:51:55.000Z</time>
      </trkpt>
      <trkpt lat="50.12495" lon="3.60083">
        <ele>154.57484436035</ele>
        <time>2014-04-13T08:51:58.000Z</time>
      </trkpt>
      <trkpt lat="50.1249" lon="3.60089">
        <ele>153.27671813965</ele>
        <time>2014-04-13T08:52:00.000Z</time>
      </trkpt>
      <trkpt lat="50.12482" lon="3.60097">
        <ele>151.71646118164</ele>
        <time>2014-04-13T08:52:03.000Z</time>
      </trkpt>
      <trkpt lat="50.12476" lon="3.60103">
        <ele>150.64183044434</ele>
        <time>2014-04-13T08:52:05.000Z</time>
      </trkpt>
      <trkpt lat="50.1247" lon="3.60108">
        <ele>150.08293151855</ele>
        <time>2014-04-13T08:52:07.000Z</time>
      </trkpt>
      <trkpt lat="50.12463" lon="3.60117">
        <ele>149.93981933594</ele>
        <time>2014-04-13T08:52:10.000Z</time>
      </trkpt>
      <trkpt lat="50.1246" lon="3.60123">
        <ele>149.72277832031</ele>
        <time>2014-04-13T08:52:12.000Z</time>
      </trkpt>
      <trkpt lat="50.12457" lon="3.60129">
        <ele>150.8244934082</ele>
        <time>2014-04-13T08:52:15.000Z</time>
      </trkpt>
      <trkpt lat="50.12453" lon="3.60133">
        <ele>152.20788574219</ele>
        <time>2014-04-13T08:52:18.000Z</time>
      </trkpt>
      <trkpt lat="50.12449" lon="3.60135">
        <ele>153.18728637695</ele>
        <time>2014-04-13T08:52:20.000Z</time>
      </trkpt>
      <trkpt lat="50.12449" lon="3.60137">
        <ele>153.99726867676</ele>
        <time>2014-04-13T08:52:22.000Z</time>
      </trkpt>
      <trkpt lat="50.12448" lon="3.6014">
        <ele>154.50863647461</ele>
        <time>2014-04-13T08:52:24.000Z</time>
      </trkpt>
      <trkpt lat="50.12442" lon="3.60146">
        <ele>154.48670959473</ele>
        <time>2014-04-13T08:52:27.000Z</time>
      </trkpt>
      <trkpt lat="50.12436" lon="3.60152">
        <ele>154.12603759766</ele>
        <time>2014-04-13T08:52:29.000Z</time>
      </trkpt>
      <trkpt lat="50.1243" lon="3.60156">
        <ele>154.29412841797</ele>
        <time>2014-04-13T08:52:31.000Z</time>
      </trkpt>
      <trkpt lat="50.12424" lon="3.60161">
        <ele>154.49917602539</ele>
        <time>2014-04-13T08:52:33.000Z</time>
      </trkpt>
      <trkpt lat="50.12416" lon="3.60169">
        <ele>154.94845581055</ele>
        <time>2014-04-13T08:52:36.000Z</time>
      </trkpt>
      <trkpt lat="50.12411" lon="3.60173">
        <ele>155.27917480469</ele>
        <time>2014-04-13T08:52:38.000Z</time>
      </trkpt>
      <trkpt lat="50.12405" lon="3.60172">
        <ele>155.79443359375</ele>
        <time>2014-04-13T08:52:40.000Z</time>
      </trkpt>
      <trkpt lat="50.12398" lon="3.6016">
        <ele>155.17697143555</ele>
        <time>2014-04-13T08:52:43.000Z</time>
      </trkpt>
      <trkpt lat="50.12388" lon="3.60142">
        <ele>154.25479125977</ele>
        <time>2014-04-13T08:52:46.000Z</time>
      </trkpt>
      <trkpt lat="50.12374" lon="3.60118">
        <ele>152.53756713867</ele>
        <time>2014-04-13T08:52:49.000Z</time>
      </trkpt>
      <trkpt lat="50.12365" lon="3.60099">
        <ele>150.46051025391</ele>
        <time>2014-04-13T08:52:52.000Z</time>
      </trkpt>
      <trkpt lat="50.12355" lon="3.60085">
        <ele>148.84716796875</ele>
        <time>2014-04-13T08:52:54.000Z</time>
      </trkpt>
      <trkpt lat="50.12345" lon="3.60062">
        <ele>147.79669189453</ele>
        <time>2014-04-13T08:52:57.000Z</time>
      </trkpt>
      <trkpt lat="50.12338" lon="3.60046">
        <ele>147.32559204102</ele>
        <time>2014-04-13T08:53:00.000Z</time>
      </trkpt>
      <trkpt lat="50.12333" lon="3.60036">
        <ele>147.30288696289</ele>
        <time>2014-04-13T08:53:02.000Z</time>
      </trkpt>
      <trkpt lat="50.12326" lon="3.60022">
        <ele>147.93103027344</ele>
        <time>2014-04-13T08:53:05.000Z</time>
      </trkpt>
      <trkpt lat="50.12318" lon="3.60005">
        <ele>148.75729370117</ele>
        <time>2014-04-13T08:53:08.000Z</time>
      </trkpt>
      <trkpt lat="50.1231" lon="3.59992">
        <ele>150.15451049805</ele>
        <time>2014-04-13T08:53:11.000Z</time>
      </trkpt>
      <trkpt lat="50.12304" lon="3.59981">
        <ele>150.44479370117</ele>
        <time>2014-04-13T08:53:13.000Z</time>
      </trkpt>
      <trkpt lat="50.123" lon="3.59971">
        <ele>150.97659301758</ele>
        <time>2014-04-13T08:53:15.000Z</time>
      </trkpt>
      <trkpt lat="50.12293" lon="3.59954">
        <ele>151.05252075195</ele>
        <time>2014-04-13T08:53:18.000Z</time>
      </trkpt>
      <trkpt lat="50.12285" lon="3.59941">
        <ele>151.16610717773</ele>
        <time>2014-04-13T08:53:21.000Z</time>
      </trkpt>
      <trkpt lat="50.12281" lon="3.5993">
        <ele>150.72024536133</ele>
        <time>2014-04-13T08:53:23.000Z</time>
      </trkpt>
      <trkpt lat="50.12276" lon="3.5992">
        <ele>151.03829956055</ele>
        <time>2014-04-13T08:53:25.000Z</time>
      </trkpt>
      <trkpt lat="50.12269" lon="3.59905">
        <ele>151.28424072266</ele>
        <time>2014-04-13T08:53:28.000Z</time>
      </trkpt>
      <trkpt lat="50.12264" lon="3.59895">
        <ele>152.13473510742</ele>
        <time>2014-04-13T08:53:30.000Z</time>
      </trkpt>
      <trkpt lat="50.12255" lon="3.5988">
        <ele>152.25721740723</ele>
        <time>2014-04-13T08:53:33.000Z</time>
      </trkpt>
      <trkpt lat="50.12251" lon="3.5987">
        <ele>152.63040161133</ele>
        <time>2014-04-13T08:53:35.000Z</time>
      </trkpt>
      <trkpt lat="50.12246" lon="3.59862">
        <ele>152.97210693359</ele>
        <time>2014-04-13T08:53:37.000Z</time>
      </trkpt>
      <trkpt lat="50.12238" lon="3.5985">
        <ele>153.29878234863</ele>
        <time>2014-04-13T08:53:40.000Z</time>
      </trkpt>
      <trkpt lat="50.1223" lon="3.59838">
        <ele>153.00018310547</ele>
        <time>2014-04-13T08:53:43.000Z</time>
      </trkpt>
      <trkpt lat="50.12225" lon="3.59829">
        <ele>152.59562683105</ele>
        <time>2014-04-13T08:53:45.000Z</time>
      </trkpt>
      <trkpt lat="50.12218" lon="3.59812">
        <ele>151.52600097656</ele>
        <time>2014-04-13T08:53:48.000Z</time>
      </trkpt>
      <trkpt lat="50.12213" lon="3.598">
        <ele>150.73382568359</ele>
        <time>2014-04-13T08:53:50.000Z</time>
      </trkpt>
      <trkpt lat="50.12206" lon="3.59785">
        <ele>149.70808410645</ele>
        <time>2014-04-13T08:53:53.000Z</time>
      </trkpt>
      <trkpt lat="50.12201" lon="3.59773">
        <ele>149.09167480469</ele>
        <time>2014-04-13T08:53:55.000Z</time>
      </trkpt>
      <trkpt lat="50.12194" lon="3.59757">
        <ele>149.26864624023</ele>
        <time>2014-04-13T08:53:58.000Z</time>
      </trkpt>
      <trkpt lat="50.12188" lon="3.59741">
        <ele>150.29620361328</ele>
        <time>2014-04-13T08:54:01.000Z</time>
      </trkpt>
      <trkpt lat="50.12183" lon="3.5973">
        <ele>150.89630126953</ele>
        <time>2014-04-13T08:54:03.000Z</time>
      </trkpt>
      <trkpt lat="50.12178" lon="3.5972">
        <ele>151.63246154785</ele>
        <time>2014-04-13T08:54:05.000Z</time>
      </trkpt>
      <trkpt lat="50.1217" lon="3.59703">
        <ele>152.08889770508</ele>
        <time>2014-04-13T08:54:08.000Z</time>
      </trkpt>
      <trkpt lat="50.12166" lon="3.59693">
        <ele>151.87442016602</ele>
        <time>2014-04-13T08:54:10.000Z</time>
      </trkpt>
      <trkpt lat="50.12157" lon="3.59681">
        <ele>151.89237976074</ele>
        <time>2014-04-13T08:54:13.000Z</time>
      </trkpt>
      <trkpt lat="50.12153" lon="3.59671">
        <ele>151.57580566406</ele>
        <time>2014-04-13T08:54:15.000Z</time>
      </trkpt>
      <trkpt lat="50.12146" lon="3.59657">
        <ele>151.59216308594</ele>
        <time>2014-04-13T08:54:18.000Z</time>
      </trkpt>
      <trkpt lat="50.12139" lon="3.59643">
        <ele>152.21658325195</ele>
        <time>2014-04-13T08:54:21.000Z</time>
      </trkpt>
      <trkpt lat="50.1212" lon="3.59604">
        <ele>154.53088378906</ele>
        <time>2014-04-13T08:54:30.000Z</time>
      </trkpt>
      <trkpt lat="50.12115" lon="3.59589">
        <ele>154.7176361084</ele>
        <time>2014-04-13T08:54:32.000Z</time>
      </trkpt>
      <trkpt lat="50.12112" lon="3.59577">
        <ele>154.46078491211</ele>
        <time>2014-04-13T08:54:34.000Z</time>
      </trkpt>
      <trkpt lat="50.12104" lon="3.5956">
        <ele>153.86967468262</ele>
        <time>2014-04-13T08:54:37.000Z</time>
      </trkpt>
      <trkpt lat="50.12096" lon="3.59542">
        <ele>152.05899047852</ele>
        <time>2014-04-13T08:54:40.000Z</time>
      </trkpt>
      <trkpt lat="50.12082" lon="3.59521">
        <ele>148.56761169434</ele>
        <time>2014-04-13T08:54:43.000Z</time>
      </trkpt>
      <trkpt lat="50.12076" lon="3.59507">
        <ele>146.09286499023</ele>
        <time>2014-04-13T08:54:46.000Z</time>
      </trkpt>
      <trkpt lat="50.12072" lon="3.59497">
        <ele>144.47946166992</ele>
        <time>2014-04-13T08:54:48.000Z</time>
      </trkpt>
      <trkpt lat="50.12064" lon="3.59481">
        <ele>143.60551452637</ele>
        <time>2014-04-13T08:54:51.000Z</time>
      </trkpt>
      <trkpt lat="50.12053" lon="3.59471">
        <ele>143.29879760742</ele>
        <time>2014-04-13T08:54:54.000Z</time>
      </trkpt>
      <trkpt lat="50.12041" lon="3.59462">
        <ele>143.3465423584</ele>
        <time>2014-04-13T08:54:58.000Z</time>
      </trkpt>
      <trkpt lat="50.12021" lon="3.59456">
        <ele>143.98062133789</ele>
        <time>2014-04-13T08:55:01.000Z</time>
      </trkpt>
      <trkpt lat="50.12008" lon="3.5945">
        <ele>144.63723754883</ele>
        <time>2014-04-13T08:55:04.000Z</time>
      </trkpt>
      <trkpt lat="50.1199" lon="3.59443">
        <ele>144.76156616211</ele>
        <time>2014-04-13T08:55:07.000Z</time>
      </trkpt>
      <trkpt lat="50.1198" lon="3.59436">
        <ele>145.00341796875</ele>
        <time>2014-04-13T08:55:09.000Z</time>
      </trkpt>
      <trkpt lat="50.11969" lon="3.59426">
        <ele>145.65957641602</ele>
        <time>2014-04-13T08:55:12.000Z</time>
      </trkpt>
      <trkpt lat="50.11968" lon="3.59413">
        <ele>145.70805358887</ele>
        <time>2014-04-13T08:55:14.000Z</time>
      </trkpt>
      <trkpt lat="50.11971" lon="3.594">
        <ele>145.3254699707</ele>
        <time>2014-04-13T08:55:16.000Z</time>
      </trkpt>
      <trkpt lat="50.11981" lon="3.59391">
        <ele>144.35501098633</ele>
        <time>2014-04-13T08:55:19.000Z</time>
      </trkpt>
      <trkpt lat="50.11995" lon="3.59381">
        <ele>142.79321289062</ele>
        <time>2014-04-13T08:55:22.000Z</time>
      </trkpt>
      <trkpt lat="50.12007" lon="3.59371">
        <ele>140.36924743652</ele>
        <time>2014-04-13T08:55:25.000Z</time>
      </trkpt>
      <trkpt lat="50.12018" lon="3.5936">
        <ele>138.94540405273</ele>
        <time>2014-04-13T08:55:28.000Z</time>
      </trkpt>
      <trkpt lat="50.12028" lon="3.59354">
        <ele>137.58961486816</ele>
        <time>2014-04-13T08:55:30.000Z</time>
      </trkpt>
      <trkpt lat="50.12038" lon="3.59348">
        <ele>136.07229614258</ele>
        <time>2014-04-13T08:55:32.000Z</time>
      </trkpt>
      <trkpt lat="50.12052" lon="3.59341">
        <ele>135.23483276367</ele>
        <time>2014-04-13T08:55:35.000Z</time>
      </trkpt>
      <trkpt lat="50.12061" lon="3.59333">
        <ele>134.28327941895</ele>
        <time>2014-04-13T08:55:37.000Z</time>
      </trkpt>
      <trkpt lat="50.12074" lon="3.59321">
        <ele>133.80870056152</ele>
        <time>2014-04-13T08:55:40.000Z</time>
      </trkpt>
      <trkpt lat="50.12083" lon="3.59312">
        <ele>133.34069824219</ele>
        <time>2014-04-13T08:55:42.000Z</time>
      </trkpt>
      <trkpt lat="50.12095" lon="3.59301">
        <ele>133.28408813477</ele>
        <time>2014-04-13T08:55:45.000Z</time>
      </trkpt>
      <trkpt lat="50.12104" lon="3.59291">
        <ele>132.87474060059</ele>
        <time>2014-04-13T08:55:47.000Z</time>
      </trkpt>
      <trkpt lat="50.12114" lon="3.59283">
        <ele>131.91133117676</ele>
        <time>2014-04-13T08:55:49.000Z</time>
      </trkpt>
      <trkpt lat="50.12122" lon="3.59275">
        <ele>130.3542175293</ele>
        <time>2014-04-13T08:55:51.000Z</time>
      </trkpt>
      <trkpt lat="50.12129" lon="3.59268">
        <ele>129.46960449219</ele>
        <time>2014-04-13T08:55:53.000Z</time>
      </trkpt>
      <trkpt lat="50.12141" lon="3.59255">
        <ele>129.03797912598</ele>
        <time>2014-04-13T08:55:56.000Z</time>
      </trkpt>
      <trkpt lat="50.12153" lon="3.59242">
        <ele>129.24702453613</ele>
        <time>2014-04-13T08:55:59.000Z</time>
      </trkpt>
      <trkpt lat="50.12166" lon="3.59226">
        <ele>130.74304199219</ele>
        <time>2014-04-13T08:56:02.000Z</time>
      </trkpt>
      <trkpt lat="50.12179" lon="3.59213">
        <ele>132.43206787109</ele>
        <time>2014-04-13T08:56:05.000Z</time>
      </trkpt>
      <trkpt lat="50.12187" lon="3.59203">
        <ele>133.84963989258</ele>
        <time>2014-04-13T08:56:07.000Z</time>
      </trkpt>
      <trkpt lat="50.12196" lon="3.59191">
        <ele>135.15475463867</ele>
        <time>2014-04-13T08:56:09.000Z</time>
      </trkpt>
      <trkpt lat="50.12208" lon="3.59172">
        <ele>136.13455200195</ele>
        <time>2014-04-13T08:56:12.000Z</time>
      </trkpt>
      <trkpt lat="50.12216" lon="3.59158">
        <ele>136.83082580566</ele>
        <time>2014-04-13T08:56:14.000Z</time>
      </trkpt>
      <trkpt lat="50.12228" lon="3.59142">
        <ele>136.90592956543</ele>
        <time>2014-04-13T08:56:17.000Z</time>
      </trkpt>
      <trkpt lat="50.12239" lon="3.59124">
        <ele>136.99307250977</ele>
        <time>2014-04-13T08:56:20.000Z</time>
      </trkpt>
      <trkpt lat="50.12248" lon="3.59103">
        <ele>137.03775024414</ele>
        <time>2014-04-13T08:56:23.000Z</time>
      </trkpt>
      <trkpt lat="50.12244" lon="3.59074">
        <ele>136.34103393555</ele>
        <time>2014-04-13T08:56:26.000Z</time>
      </trkpt>
      <trkpt lat="50.12241" lon="3.59053">
        <ele>135.89260864258</ele>
        <time>2014-04-13T08:56:28.000Z</time>
      </trkpt>
      <trkpt lat="50.12235" lon="3.59023">
        <ele>135.84274291992</ele>
        <time>2014-04-13T08:56:31.000Z</time>
      </trkpt>
      <trkpt lat="50.12231" lon="3.59001">
        <ele>135.4814453125</ele>
        <time>2014-04-13T08:56:33.000Z</time>
      </trkpt>
      <trkpt lat="50.12227" lon="3.58974">
        <ele>134.88244628906</ele>
        <time>2014-04-13T08:56:36.000Z</time>
      </trkpt>
      <trkpt lat="50.12223" lon="3.58953">
        <ele>134.81332397461</ele>
        <time>2014-04-13T08:56:38.000Z</time>
      </trkpt>
      <trkpt lat="50.12217" lon="3.58917">
        <ele>134.05830383301</ele>
        <time>2014-04-13T08:56:41.000Z</time>
      </trkpt>
      <trkpt lat="50.12212" lon="3.58895">
        <ele>132.94085693359</ele>
        <time>2014-04-13T08:56:43.000Z</time>
      </trkpt>
      <trkpt lat="50.12205" lon="3.58862">
        <ele>131.37831115723</ele>
        <time>2014-04-13T08:56:46.000Z</time>
      </trkpt>
      <trkpt lat="50.12197" lon="3.5883">
        <ele>130.21646118164</ele>
        <time>2014-04-13T08:56:49.000Z</time>
      </trkpt>
      <trkpt lat="50.12191" lon="3.58808">
        <ele>129.2452545166</ele>
        <time>2014-04-13T08:56:51.000Z</time>
      </trkpt>
      <trkpt lat="50.12182" lon="3.58775">
        <ele>128.59812927246</ele>
        <time>2014-04-13T08:56:54.000Z</time>
      </trkpt>
      <trkpt lat="50.12175" lon="3.58752">
        <ele>128.16033935547</ele>
        <time>2014-04-13T08:56:56.000Z</time>
      </trkpt>
      <trkpt lat="50.12165" lon="3.58716">
        <ele>128.12484741211</ele>
        <time>2014-04-13T08:56:59.000Z</time>
      </trkpt>
      <trkpt lat="50.12159" lon="3.58695">
        <ele>127.76462554932</ele>
        <time>2014-04-13T08:57:01.000Z</time>
      </trkpt>
      <trkpt lat="50.12153" lon="3.58673">
        <ele>127.66677093506</ele>
        <time>2014-04-13T08:57:03.000Z</time>
      </trkpt>
      <trkpt lat="50.12144" lon="3.58642">
        <ele>127.79277038574</ele>
        <time>2014-04-13T08:57:06.000Z</time>
      </trkpt>
      <trkpt lat="50.12147" lon="3.58616">
        <ele>128.21231079102</ele>
        <time>2014-04-13T08:57:08.000Z</time>
      </trkpt>
      <trkpt lat="50.12138" lon="3.58585">
        <ele>129.06143188477</ele>
        <time>2014-04-13T08:57:11.000Z</time>
      </trkpt>
      <trkpt lat="50.12133" lon="3.58566">
        <ele>130.17465209961</ele>
        <time>2014-04-13T08:57:13.000Z</time>
      </trkpt>
      <trkpt lat="50.12124" lon="3.58537">
        <ele>131.24383544922</ele>
        <time>2014-04-13T08:57:16.000Z</time>
      </trkpt>
      <trkpt lat="50.12115" lon="3.58508">
        <ele>131.97538757324</ele>
        <time>2014-04-13T08:57:19.000Z</time>
      </trkpt>
      <trkpt lat="50.12109" lon="3.58489">
        <ele>132.58023071289</ele>
        <time>2014-04-13T08:57:21.000Z</time>
      </trkpt>
      <trkpt lat="50.12101" lon="3.5846">
        <ele>132.77236938477</ele>
        <time>2014-04-13T08:57:24.000Z</time>
      </trkpt>
      <trkpt lat="50.12096" lon="3.58441">
        <ele>132.6854095459</ele>
        <time>2014-04-13T08:57:26.000Z</time>
      </trkpt>
      <trkpt lat="50.12088" lon="3.58412">
        <ele>132.3053894043</ele>
        <time>2014-04-13T08:57:29.000Z</time>
      </trkpt>
      <trkpt lat="50.12081" lon="3.58381">
        <ele>131.90878295898</ele>
        <time>2014-04-13T08:57:32.000Z</time>
      </trkpt>
      <trkpt lat="50.12075" lon="3.5835">
        <ele>131.02017211914</ele>
        <time>2014-04-13T08:57:35.000Z</time>
      </trkpt>
      <trkpt lat="50.12066" lon="3.58322">
        <ele>130.53102111816</ele>
        <time>2014-04-13T08:57:38.000Z</time>
      </trkpt>
      <trkpt lat="50.1206" lon="3.58303">
        <ele>130.42669677734</ele>
        <time>2014-04-13T08:57:40.000Z</time>
      </trkpt>
      <trkpt lat="50.12054" lon="3.58286">
        <ele>130.1315612793</ele>
        <time>2014-04-13T08:57:42.000Z</time>
      </trkpt>
      <trkpt lat="50.12046" lon="3.58259">
        <ele>130.36915588379</ele>
        <time>2014-04-13T08:57:45.000Z</time>
      </trkpt>
      <trkpt lat="50.12037" lon="3.58231">
        <ele>131.21450805664</ele>
        <time>2014-04-13T08:57:48.000Z</time>
      </trkpt>
      <trkpt lat="50.12033" lon="3.58214">
        <ele>132.09494018555</ele>
        <time>2014-04-13T08:57:50.000Z</time>
      </trkpt>
      <trkpt lat="50.12026" lon="3.58188">
        <ele>133.03768920898</ele>
        <time>2014-04-13T08:57:53.000Z</time>
      </trkpt>
      <trkpt lat="50.12019" lon="3.58154">
        <ele>134.13052368164</ele>
        <time>2014-04-13T08:57:56.000Z</time>
      </trkpt>
      <trkpt lat="50.12015" lon="3.58135">
        <ele>135.14451599121</ele>
        <time>2014-04-13T08:57:58.000Z</time>
      </trkpt>
      <trkpt lat="50.12007" lon="3.58108">
        <ele>135.69821166992</ele>
        <time>2014-04-13T08:58:01.000Z</time>
      </trkpt>
      <trkpt lat="50.12" lon="3.58081">
        <ele>135.88410949707</ele>
        <time>2014-04-13T08:58:04.000Z</time>
      </trkpt>
      <trkpt lat="50.11992" lon="3.58056">
        <ele>135.61236572266</ele>
        <time>2014-04-13T08:58:07.000Z</time>
      </trkpt>
      <trkpt lat="50.11986" lon="3.58028">
        <ele>134.81056213379</ele>
        <time>2014-04-13T08:58:10.000Z</time>
      </trkpt>
      <trkpt lat="50.1198" lon="3.58012">
        <ele>133.99816894531</ele>
        <time>2014-04-13T08:58:12.000Z</time>
      </trkpt>
      <trkpt lat="50.11971" lon="3.57987">
        <ele>133.46710205078</ele>
        <time>2014-04-13T08:58:15.000Z</time>
      </trkpt>
      <trkpt lat="50.11962" lon="3.57963">
        <ele>132.8038482666</ele>
        <time>2014-04-13T08:58:18.000Z</time>
      </trkpt>
      <trkpt lat="50.11956" lon="3.57944">
        <ele>132.06527709961</ele>
        <time>2014-04-13T08:58:20.000Z</time>
      </trkpt>
      <trkpt lat="50.11948" lon="3.5792">
        <ele>131.75413513184</ele>
        <time>2014-04-13T08:58:23.000Z</time>
      </trkpt>
      <trkpt lat="50.11942" lon="3.57904">
        <ele>131.09211730957</ele>
        <time>2014-04-13T08:58:25.000Z</time>
      </trkpt>
      <trkpt lat="50.11934" lon="3.57888">
        <ele>130.13453674316</ele>
        <time>2014-04-13T08:58:27.000Z</time>
      </trkpt>
      <trkpt lat="50.11923" lon="3.57864">
        <ele>129.48364257812</ele>
        <time>2014-04-13T08:58:30.000Z</time>
      </trkpt>
      <trkpt lat="50.11917" lon="3.57848">
        <ele>129.13760375977</ele>
        <time>2014-04-13T08:58:32.000Z</time>
      </trkpt>
      <trkpt lat="50.11913" lon="3.57832">
        <ele>128.4107208252</ele>
        <time>2014-04-13T08:58:34.000Z</time>
      </trkpt>
      <trkpt lat="50.11906" lon="3.57808">
        <ele>127.79621887207</ele>
        <time>2014-04-13T08:58:37.000Z</time>
      </trkpt>
      <trkpt lat="50.11898" lon="3.57783">
        <ele>127.76770019531</ele>
        <time>2014-04-13T08:58:40.000Z</time>
      </trkpt>
      <trkpt lat="50.1189" lon="3.57764">
        <ele>127.60971832275</ele>
        <time>2014-04-13T08:58:43.000Z</time>
      </trkpt>
      <trkpt lat="50.11885" lon="3.57747">
        <ele>127.17208099365</ele>
        <time>2014-04-13T08:58:45.000Z</time>
      </trkpt>
      <trkpt lat="50.11879" lon="3.5773">
        <ele>127.12480163574</ele>
        <time>2014-04-13T08:58:47.000Z</time>
      </trkpt>
      <trkpt lat="50.11871" lon="3.577">
        <ele>126.90830230713</ele>
        <time>2014-04-13T08:58:50.000Z</time>
      </trkpt>
      <trkpt lat="50.11865" lon="3.57676">
        <ele>126.48819732666</ele>
        <time>2014-04-13T08:58:52.000Z</time>
      </trkpt>
      <trkpt lat="50.11859" lon="3.57657">
        <ele>125.792137146</ele>
        <time>2014-04-13T08:58:54.000Z</time>
      </trkpt>
      <trkpt lat="50.11848" lon="3.57623">
        <ele>125.25492095947</ele>
        <time>2014-04-13T08:58:57.000Z</time>
      </trkpt>
      <trkpt lat="50.11843" lon="3.57604">
        <ele>125.3504486084</ele>
        <time>2014-04-13T08:58:59.000Z</time>
      </trkpt>
      <trkpt lat="50.11813" lon="3.57513">
        <ele>123.3360824585</ele>
        <time>2014-04-13T08:59:08.000Z</time>
      </trkpt>
      <trkpt lat="50.118" lon="3.57501">
        <ele>122.52404785156</ele>
        <time>2014-04-13T08:59:10.000Z</time>
      </trkpt>
      <trkpt lat="50.11789" lon="3.57494">
        <ele>122.22005462646</ele>
        <time>2014-04-13T08:59:12.000Z</time>
      </trkpt>
      <trkpt lat="50.11767" lon="3.5749">
        <ele>121.75764465332</ele>
        <time>2014-04-13T08:59:15.000Z</time>
      </trkpt>
      <trkpt lat="50.11757" lon="3.5748">
        <ele>120.380859375</ele>
        <time>2014-04-13T08:59:17.000Z</time>
      </trkpt>
      <trkpt lat="50.11757" lon="3.57444">
        <ele>121.43925476074</ele>
        <time>2014-04-13T08:59:20.000Z</time>
      </trkpt>
      <trkpt lat="50.11762" lon="3.57416">
        <ele>121.63647460938</ele>
        <time>2014-04-13T08:59:23.000Z</time>
      </trkpt>
      <trkpt lat="50.11765" lon="3.57397">
        <ele>121.66506195068</ele>
        <time>2014-04-13T08:59:25.000Z</time>
      </trkpt>
      <trkpt lat="50.1177" lon="3.57374">
        <ele>121.64942932129</ele>
        <time>2014-04-13T08:59:28.000Z</time>
      </trkpt>
      <trkpt lat="50.11776" lon="3.57347">
        <ele>121.88694000244</ele>
        <time>2014-04-13T08:59:31.000Z</time>
      </trkpt>
      <trkpt lat="50.1178" lon="3.57327">
        <ele>122.09600830078</ele>
        <time>2014-04-13T08:59:33.000Z</time>
      </trkpt>
      <trkpt lat="50.11786" lon="3.573">
        <ele>121.71838378906</ele>
        <time>2014-04-13T08:59:36.000Z</time>
      </trkpt>
      <trkpt lat="50.11789" lon="3.57279">
        <ele>121.29862976074</ele>
        <time>2014-04-13T08:59:38.000Z</time>
      </trkpt>
      <trkpt lat="50.11795" lon="3.57251">
        <ele>120.4612197876</ele>
        <time>2014-04-13T08:59:41.000Z</time>
      </trkpt>
      <trkpt lat="50.11799" lon="3.57234">
        <ele>119.18758392334</ele>
        <time>2014-04-13T08:59:43.000Z</time>
      </trkpt>
      <trkpt lat="50.11803" lon="3.57217">
        <ele>117.41429138184</ele>
        <time>2014-04-13T08:59:45.000Z</time>
      </trkpt>
      <trkpt lat="50.11806" lon="3.57199">
        <ele>115.55155181885</ele>
        <time>2014-04-13T08:59:47.000Z</time>
      </trkpt>
      <trkpt lat="50.1181" lon="3.57181">
        <ele>113.52909851074</ele>
        <time>2014-04-13T08:59:49.000Z</time>
      </trkpt>
      <trkpt lat="50.11817" lon="3.57148">
        <ele>112.88326263428</ele>
        <time>2014-04-13T08:59:52.000Z</time>
      </trkpt>
      <trkpt lat="50.11822" lon="3.57127">
        <ele>112.56694030762</ele>
        <time>2014-04-13T08:59:54.000Z</time>
      </trkpt>
      <trkpt lat="50.11826" lon="3.57106">
        <ele>112.8627166748</ele>
        <time>2014-04-13T08:59:56.000Z</time>
      </trkpt>
      <trkpt lat="50.11831" lon="3.57087">
        <ele>113.22734069824</ele>
        <time>2014-04-13T08:59:58.000Z</time>
      </trkpt>
      <trkpt lat="50.11837" lon="3.57058">
        <ele>113.32210540771</ele>
        <time>2014-04-13T09:00:01.000Z</time>
      </trkpt>
      <trkpt lat="50.11842" lon="3.57036">
        <ele>112.48691558838</ele>
        <time>2014-04-13T09:00:03.000Z</time>
      </trkpt>
      <trkpt lat="50.1185" lon="3.57008">
        <ele>111.52138519287</ele>
        <time>2014-04-13T09:00:06.000Z</time>
      </trkpt>
      <trkpt lat="50.11854" lon="3.5699">
        <ele>110.81768798828</ele>
        <time>2014-04-13T09:00:08.000Z</time>
      </trkpt>
      <trkpt lat="50.1186" lon="3.56971">
        <ele>110.52496337891</ele>
        <time>2014-04-13T09:00:10.000Z</time>
      </trkpt>
      <trkpt lat="50.11864" lon="3.56956">
        <ele>110.03205871582</ele>
        <time>2014-04-13T09:00:12.000Z</time>
      </trkpt>
      <trkpt lat="50.11872" lon="3.56928">
        <ele>109.69521331787</ele>
        <time>2014-04-13T09:00:15.000Z</time>
      </trkpt>
      <trkpt lat="50.11881" lon="3.56903">
        <ele>109.40232849121</ele>
        <time>2014-04-13T09:00:18.000Z</time>
      </trkpt>
      <trkpt lat="50.11886" lon="3.56891">
        <ele>108.73177337646</ele>
        <time>2014-04-13T09:00:21.000Z</time>
      </trkpt>
      <trkpt lat="50.11909" lon="3.56841">
        <ele>107.63722229004</ele>
        <time>2014-04-13T09:00:26.000Z</time>
      </trkpt>
      <trkpt lat="50.11921" lon="3.56816">
        <ele>107.7615814209</ele>
        <time>2014-04-13T09:00:29.000Z</time>
      </trkpt>
      <trkpt lat="50.11928" lon="3.56802">
        <ele>107.94058990479</ele>
        <time>2014-04-13T09:00:31.000Z</time>
      </trkpt>
      <trkpt lat="50.11939" lon="3.5678">
        <ele>108.4239730835</ele>
        <time>2014-04-13T09:00:34.000Z</time>
      </trkpt>
      <trkpt lat="50.1195" lon="3.56758">
        <ele>108.21870422363</ele>
        <time>2014-04-13T09:00:37.000Z</time>
      </trkpt>
      <trkpt lat="50.11959" lon="3.56741">
        <ele>107.95153808594</ele>
        <time>2014-04-13T09:00:39.000Z</time>
      </trkpt>
      <trkpt lat="50.11969" lon="3.56719">
        <ele>107.07856750488</ele>
        <time>2014-04-13T09:00:42.000Z</time>
      </trkpt>
      <trkpt lat="50.11977" lon="3.56702">
        <ele>106.0710067749</ele>
        <time>2014-04-13T09:00:44.000Z</time>
      </trkpt>
      <trkpt lat="50.11988" lon="3.56677">
        <ele>104.55130767822</ele>
        <time>2014-04-13T09:00:47.000Z</time>
      </trkpt>
      <trkpt lat="50.11995" lon="3.56661">
        <ele>103.2112197876</ele>
        <time>2014-04-13T09:00:49.000Z</time>
      </trkpt>
      <trkpt lat="50.12005" lon="3.56634">
        <ele>101.96527099609</ele>
        <time>2014-04-13T09:00:52.000Z</time>
      </trkpt>
      <trkpt lat="50.12017" lon="3.56605">
        <ele>100.86418151855</ele>
        <time>2014-04-13T09:00:55.000Z</time>
      </trkpt>
      <trkpt lat="50.12028" lon="3.56574">
        <ele>99.564292907715</ele>
        <time>2014-04-13T09:00:58.000Z</time>
      </trkpt>
      <trkpt lat="50.12036" lon="3.56555">
        <ele>98.657943725586</ele>
        <time>2014-04-13T09:01:00.000Z</time>
      </trkpt>
      <trkpt lat="50.12049" lon="3.56527">
        <ele>98.050193786621</ele>
        <time>2014-04-13T09:01:03.000Z</time>
      </trkpt>
      <trkpt lat="50.12061" lon="3.56503">
        <ele>97.393882751465</ele>
        <time>2014-04-13T09:01:06.000Z</time>
      </trkpt>
      <trkpt lat="50.12068" lon="3.56487">
        <ele>96.547752380371</ele>
        <time>2014-04-13T09:01:08.000Z</time>
      </trkpt>
      <trkpt lat="50.12078" lon="3.5646">
        <ele>96.13591003418</ele>
        <time>2014-04-13T09:01:11.000Z</time>
      </trkpt>
      <trkpt lat="50.12086" lon="3.56432">
        <ele>95.30313873291</ele>
        <time>2014-04-13T09:01:14.000Z</time>
      </trkpt>
      <trkpt lat="50.12098" lon="3.56403">
        <ele>93.814468383789</ele>
        <time>2014-04-13T09:01:17.000Z</time>
      </trkpt>
      <trkpt lat="50.12103" lon="3.56365">
        <ele>92.23811340332</ele>
        <time>2014-04-13T09:01:20.000Z</time>
      </trkpt>
      <trkpt lat="50.12111" lon="3.56327">
        <ele>90.554832458496</ele>
        <time>2014-04-13T09:01:23.000Z</time>
      </trkpt>
      <trkpt lat="50.12122" lon="3.5629">
        <ele>88.706298828125</ele>
        <time>2014-04-13T09:01:26.000Z</time>
      </trkpt>
      <trkpt lat="50.12131" lon="3.56266">
        <ele>87.302963256836</ele>
        <time>2014-04-13T09:01:28.000Z</time>
      </trkpt>
      <trkpt lat="50.12143" lon="3.56229">
        <ele>86.339584350586</ele>
        <time>2014-04-13T09:01:31.000Z</time>
      </trkpt>
      <trkpt lat="50.12153" lon="3.56188">
        <ele>85.644638061523</ele>
        <time>2014-04-13T09:01:34.000Z</time>
      </trkpt>
      <trkpt lat="50.12157" lon="3.56164">
        <ele>85.318870544434</ele>
        <time>2014-04-13T09:01:36.000Z</time>
      </trkpt>
      <trkpt lat="50.12164" lon="3.56122">
        <ele>84.612258911133</ele>
        <time>2014-04-13T09:01:39.000Z</time>
      </trkpt>
      <trkpt lat="50.12169" lon="3.56085">
        <ele>83.907005310059</ele>
        <time>2014-04-13T09:01:42.000Z</time>
      </trkpt>
      <trkpt lat="50.12173" lon="3.56048">
        <ele>83.179298400879</ele>
        <time>2014-04-13T09:01:45.000Z</time>
      </trkpt>
      <trkpt lat="50.12177" lon="3.56012">
        <ele>82.684730529785</ele>
        <time>2014-04-13T09:01:48.000Z</time>
      </trkpt>
      <trkpt lat="50.1218" lon="3.55993">
        <ele>82.306076049805</ele>
        <time>2014-04-13T09:01:50.000Z</time>
      </trkpt>
      <trkpt lat="50.12181" lon="3.55964">
        <ele>82.475631713867</ele>
        <time>2014-04-13T09:01:53.000Z</time>
      </trkpt>
      <trkpt lat="50.12181" lon="3.55944">
        <ele>82.450218200684</ele>
        <time>2014-04-13T09:01:55.000Z</time>
      </trkpt>
      <trkpt lat="50.1218" lon="3.55918">
        <ele>82.668701171875</ele>
        <time>2014-04-13T09:01:58.000Z</time>
      </trkpt>
      <trkpt lat="50.12177" lon="3.55886">
        <ele>82.358657836914</ele>
        <time>2014-04-13T09:02:01.000Z</time>
      </trkpt>
      <trkpt lat="50.12177" lon="3.55859">
        <ele>82.106735229492</ele>
        <time>2014-04-13T09:02:04.000Z</time>
      </trkpt>
      <trkpt lat="50.1218" lon="3.55842">
        <ele>81.823974609375</ele>
        <time>2014-04-13T09:02:06.000Z</time>
      </trkpt>
      <trkpt lat="50.12184" lon="3.55818">
        <ele>81.802589416504</ele>
        <time>2014-04-13T09:02:09.000Z</time>
      </trkpt>
      <trkpt lat="50.12187" lon="3.55801">
        <ele>81.637351989746</ele>
        <time>2014-04-13T09:02:11.000Z</time>
      </trkpt>
      <trkpt lat="50.12191" lon="3.5578">
        <ele>81.921936035156</ele>
        <time>2014-04-13T09:02:14.000Z</time>
      </trkpt>
      <trkpt lat="50.12193" lon="3.55756">
        <ele>81.76651763916</ele>
        <time>2014-04-13T09:02:17.000Z</time>
      </trkpt>
      <trkpt lat="50.12193" lon="3.55737">
        <ele>81.992088317871</ele>
        <time>2014-04-13T09:02:19.000Z</time>
      </trkpt>
      <trkpt lat="50.12191" lon="3.55721">
        <ele>83.224227905273</ele>
        <time>2014-04-13T09:02:22.000Z</time>
      </trkpt>
      <trkpt lat="50.12188" lon="3.55692">
        <ele>84.481300354004</ele>
        <time>2014-04-13T09:02:25.000Z</time>
      </trkpt>
      <trkpt lat="50.12186" lon="3.5568">
        <ele>85.076293945312</ele>
        <time>2014-04-13T09:02:27.000Z</time>
      </trkpt>
      <trkpt lat="50.12183" lon="3.55657">
        <ele>86.174072265625</ele>
        <time>2014-04-13T09:02:30.000Z</time>
      </trkpt>
      <trkpt lat="50.12179" lon="3.55634">
        <ele>86.91015625</ele>
        <time>2014-04-13T09:02:33.000Z</time>
      </trkpt>
      <trkpt lat="50.12176" lon="3.55614">
        <ele>86.523216247559</ele>
        <time>2014-04-13T09:02:36.000Z</time>
      </trkpt>
      <trkpt lat="50.12173" lon="3.55601">
        <ele>86.12272644043</ele>
        <time>2014-04-13T09:02:39.000Z</time>
      </trkpt>
      <trkpt lat="50.12181" lon="3.55593">
        <ele>86.301330566406</ele>
        <time>2014-04-13T09:02:42.000Z</time>
      </trkpt>
      <trkpt lat="50.12183" lon="3.55603">
        <ele>86.617881774902</ele>
        <time>2014-04-13T09:02:45.000Z</time>
      </trkpt>
      <trkpt lat="50.12186" lon="3.55606">
        <ele>86.852783203125</ele>
        <time>2014-04-13T09:02:47.000Z</time>
      </trkpt>
      <trkpt lat="50.12198" lon="3.55619">
        <ele>87.459732055664</ele>
        <time>2014-04-13T09:02:51.000Z</time>
      </trkpt>
      <trkpt lat="50.12202" lon="3.55635">
        <ele>88.298568725586</ele>
        <time>2014-04-13T09:02:54.000Z</time>
      </trkpt>
      <trkpt lat="50.12206" lon="3.55643">
        <ele>89.106079101562</ele>
        <time>2014-04-13T09:02:56.000Z</time>
      </trkpt>
      <trkpt lat="50.12211" lon="3.5565">
        <ele>89.44367980957</ele>
        <time>2014-04-13T09:02:58.000Z</time>
      </trkpt>
      <trkpt lat="50.12218" lon="3.55659">
        <ele>89.69172668457</ele>
        <time>2014-04-13T09:03:01.000Z</time>
      </trkpt>
      <trkpt lat="50.12222" lon="3.55665">
        <ele>89.761962890625</ele>
        <time>2014-04-13T09:03:03.000Z</time>
      </trkpt>
      <trkpt lat="50.12231" lon="3.55672">
        <ele>90.03776550293</ele>
        <time>2014-04-13T09:03:06.000Z</time>
      </trkpt>
      <trkpt lat="50.12236" lon="3.55676">
        <ele>90.221824645996</ele>
        <time>2014-04-13T09:03:08.000Z</time>
      </trkpt>
      <trkpt lat="50.12241" lon="3.55679">
        <ele>90.172729492188</ele>
        <time>2014-04-13T09:03:10.000Z</time>
      </trkpt>
      <trkpt lat="50.12247" lon="3.55683">
        <ele>90.1826171875</ele>
        <time>2014-04-13T09:03:12.000Z</time>
      </trkpt>
      <trkpt lat="50.12255" lon="3.55689">
        <ele>89.845642089844</ele>
        <time>2014-04-13T09:03:15.000Z</time>
      </trkpt>
      <trkpt lat="50.12262" lon="3.55694">
        <ele>89.105453491211</ele>
        <time>2014-04-13T09:03:18.000Z</time>
      </trkpt>
      <trkpt lat="50.1227" lon="3.55698">
        <ele>88.514419555664</ele>
        <time>2014-04-13T09:03:21.000Z</time>
      </trkpt>
      <trkpt lat="50.12278" lon="3.55701">
        <ele>88.447860717773</ele>
        <time>2014-04-13T09:03:24.000Z</time>
      </trkpt>
      <trkpt lat="50.12286" lon="3.55697">
        <ele>88.63956451416</ele>
        <time>2014-04-13T09:03:27.000Z</time>
      </trkpt>
      <trkpt lat="50.12293" lon="3.55701">
        <ele>88.815246582031</ele>
        <time>2014-04-13T09:03:30.000Z</time>
      </trkpt>
      <trkpt lat="50.12299" lon="3.55705">
        <ele>89.694458007812</ele>
        <time>2014-04-13T09:03:33.000Z</time>
      </trkpt>
      <trkpt lat="50.12305" lon="3.55709">
        <ele>90.851356506348</ele>
        <time>2014-04-13T09:03:36.000Z</time>
      </trkpt>
      <trkpt lat="50.12311" lon="3.55712">
        <ele>91.889610290527</ele>
        <time>2014-04-13T09:03:39.000Z</time>
      </trkpt>
      <trkpt lat="50.12317" lon="3.55716">
        <ele>92.304580688477</ele>
        <time>2014-04-13T09:03:42.000Z</time>
      </trkpt>
      <trkpt lat="50.12323" lon="3.5572">
        <ele>93.382141113281</ele>
        <time>2014-04-13T09:03:45.000Z</time>
      </trkpt>
      <trkpt lat="50.1233" lon="3.55725">
        <ele>94.15096282959</ele>
        <time>2014-04-13T09:03:48.000Z</time>
      </trkpt>
      <trkpt lat="50.12334" lon="3.55728">
        <ele>94.663124084473</ele>
        <time>2014-04-13T09:03:50.000Z</time>
      </trkpt>
      <trkpt lat="50.12338" lon="3.5573">
        <ele>95.112121582031</ele>
        <time>2014-04-13T09:03:53.000Z</time>
      </trkpt>
      <trkpt lat="50.12342" lon="3.55734">
        <ele>96.051902770996</ele>
        <time>2014-04-13T09:03:55.000Z</time>
      </trkpt>
      <trkpt lat="50.12346" lon="3.5574">
        <ele>96.551498413086</ele>
        <time>2014-04-13T09:03:57.000Z</time>
      </trkpt>
      <trkpt lat="50.12351" lon="3.55746">
        <ele>96.694114685059</ele>
        <time>2014-04-13T09:04:00.000Z</time>
      </trkpt>
      <trkpt lat="50.12355" lon="3.55752">
        <ele>97.395362854004</ele>
        <time>2014-04-13T09:04:03.000Z</time>
      </trkpt>
      <trkpt lat="50.12358" lon="3.55756">
        <ele>97.837646484375</ele>
        <time>2014-04-13T09:04:05.000Z</time>
      </trkpt>
      <trkpt lat="50.12362" lon="3.55761">
        <ele>97.795120239258</ele>
        <time>2014-04-13T09:04:08.000Z</time>
      </trkpt>
      <trkpt lat="50.12365" lon="3.55766">
        <ele>97.95964050293</ele>
        <time>2014-04-13T09:04:10.000Z</time>
      </trkpt>
      <trkpt lat="50.1237" lon="3.55772">
        <ele>98.207786560059</ele>
        <time>2014-04-13T09:04:13.000Z</time>
      </trkpt>
      <trkpt lat="50.12375" lon="3.55778">
        <ele>98.288864135742</ele>
        <time>2014-04-13T09:04:16.000Z</time>
      </trkpt>
      <trkpt lat="50.12379" lon="3.55782">
        <ele>98.623901367188</ele>
        <time>2014-04-13T09:04:18.000Z</time>
      </trkpt>
      <trkpt lat="50.12385" lon="3.55789">
        <ele>99.767807006836</ele>
        <time>2014-04-13T09:04:21.000Z</time>
      </trkpt>
      <trkpt lat="50.12389" lon="3.55794">
        <ele>100.49853515625</ele>
        <time>2014-04-13T09:04:23.000Z</time>
      </trkpt>
      <trkpt lat="50.12395" lon="3.558">
        <ele>101.81932067871</ele>
        <time>2014-04-13T09:04:26.000Z</time>
      </trkpt>
      <trkpt lat="50.12401" lon="3.55807">
        <ele>103.03365325928</ele>
        <time>2014-04-13T09:04:29.000Z</time>
      </trkpt>
      <trkpt lat="50.12405" lon="3.5581">
        <ele>104.13285064697</ele>
        <time>2014-04-13T09:04:31.000Z</time>
      </trkpt>
      <trkpt lat="50.12413" lon="3.55817">
        <ele>105.00050354004</ele>
        <time>2014-04-13T09:04:34.000Z</time>
      </trkpt>
      <trkpt lat="50.12419" lon="3.55822">
        <ele>105.74499511719</ele>
        <time>2014-04-13T09:04:37.000Z</time>
      </trkpt>
      <trkpt lat="50.12424" lon="3.55826">
        <ele>106.13298034668</ele>
        <time>2014-04-13T09:04:39.000Z</time>
      </trkpt>
      <trkpt lat="50.12431" lon="3.55832">
        <ele>106.71492767334</ele>
        <time>2014-04-13T09:04:42.000Z</time>
      </trkpt>
      <trkpt lat="50.12438" lon="3.55836">
        <ele>107.72835540771</ele>
        <time>2014-04-13T09:04:45.000Z</time>
      </trkpt>
      <trkpt lat="50.12442" lon="3.55839">
        <ele>108.54754638672</ele>
        <time>2014-04-13T09:04:47.000Z</time>
      </trkpt>
      <trkpt lat="50.12449" lon="3.55844">
        <ele>109.60792541504</ele>
        <time>2014-04-13T09:04:50.000Z</time>
      </trkpt>
      <trkpt lat="50.12454" lon="3.55847">
        <ele>110.28813171387</ele>
        <time>2014-04-13T09:04:52.000Z</time>
      </trkpt>
      <trkpt lat="50.12461" lon="3.55852">
        <ele>110.28764343262</ele>
        <time>2014-04-13T09:04:55.000Z</time>
      </trkpt>
      <trkpt lat="50.12469" lon="3.55857">
        <ele>109.79472351074</ele>
        <time>2014-04-13T09:04:58.000Z</time>
      </trkpt>
      <trkpt lat="50.12476" lon="3.55862">
        <ele>109.35368347168</ele>
        <time>2014-04-13T09:05:01.000Z</time>
      </trkpt>
      <trkpt lat="50.12482" lon="3.55866">
        <ele>108.98123931885</ele>
        <time>2014-04-13T09:05:03.000Z</time>
      </trkpt>
      <trkpt lat="50.12487" lon="3.55869">
        <ele>108.95881652832</ele>
        <time>2014-04-13T09:05:05.000Z</time>
      </trkpt>
      <trkpt lat="50.12494" lon="3.55875">
        <ele>109.2495880127</ele>
        <time>2014-04-13T09:05:08.000Z</time>
      </trkpt>
      <trkpt lat="50.125" lon="3.55881">
        <ele>109.92932128906</ele>
        <time>2014-04-13T09:05:11.000Z</time>
      </trkpt>
      <trkpt lat="50.12506" lon="3.55886">
        <ele>110.66249847412</ele>
        <time>2014-04-13T09:05:14.000Z</time>
      </trkpt>
      <trkpt lat="50.1251" lon="3.5589">
        <ele>111.8254776001</ele>
        <time>2014-04-13T09:05:16.000Z</time>
      </trkpt>
      <trkpt lat="50.12517" lon="3.55896">
        <ele>112.90621185303</ele>
        <time>2014-04-13T09:05:19.000Z</time>
      </trkpt>
      <trkpt lat="50.12524" lon="3.55903">
        <ele>113.45774841309</ele>
        <time>2014-04-13T09:05:22.000Z</time>
      </trkpt>
      <trkpt lat="50.12529" lon="3.55908">
        <ele>113.71446228027</ele>
        <time>2014-04-13T09:05:24.000Z</time>
      </trkpt>
      <trkpt lat="50.12534" lon="3.55912">
        <ele>113.8913192749</ele>
        <time>2014-04-13T09:05:26.000Z</time>
      </trkpt>
      <trkpt lat="50.12541" lon="3.55919">
        <ele>113.93282318115</ele>
        <time>2014-04-13T09:05:29.000Z</time>
      </trkpt>
      <trkpt lat="50.12548" lon="3.55927">
        <ele>113.87253570557</ele>
        <time>2014-04-13T09:05:32.000Z</time>
      </trkpt>
      <trkpt lat="50.12553" lon="3.55931">
        <ele>114.08436584473</ele>
        <time>2014-04-13T09:05:34.000Z</time>
      </trkpt>
      <trkpt lat="50.12561" lon="3.55939">
        <ele>114.02104187012</ele>
        <time>2014-04-13T09:05:37.000Z</time>
      </trkpt>
      <trkpt lat="50.12568" lon="3.55946">
        <ele>114.27709960938</ele>
        <time>2014-04-13T09:05:40.000Z</time>
      </trkpt>
      <trkpt lat="50.12572" lon="3.5595">
        <ele>114.5246963501</ele>
        <time>2014-04-13T09:05:42.000Z</time>
      </trkpt>
      <trkpt lat="50.12577" lon="3.55955">
        <ele>114.65989685059</ele>
        <time>2014-04-13T09:05:44.000Z</time>
      </trkpt>
      <trkpt lat="50.12584" lon="3.55962">
        <ele>114.94068908691</ele>
        <time>2014-04-13T09:05:47.000Z</time>
      </trkpt>
      <trkpt lat="50.12591" lon="3.55969">
        <ele>115.73915863037</ele>
        <time>2014-04-13T09:05:50.000Z</time>
      </trkpt>
      <trkpt lat="50.12598" lon="3.55975">
        <ele>115.75183105469</ele>
        <time>2014-04-13T09:05:53.000Z</time>
      </trkpt>
      <trkpt lat="50.12606" lon="3.55982">
        <ele>115.78440856934</ele>
        <time>2014-04-13T09:05:56.000Z</time>
      </trkpt>
      <trkpt lat="50.12614" lon="3.55988">
        <ele>115.96461486816</ele>
        <time>2014-04-13T09:05:59.000Z</time>
      </trkpt>
      <trkpt lat="50.12619" lon="3.55992">
        <ele>116.08347320557</ele>
        <time>2014-04-13T09:06:01.000Z</time>
      </trkpt>
      <trkpt lat="50.12624" lon="3.55996">
        <ele>115.96716308594</ele>
        <time>2014-04-13T09:06:03.000Z</time>
      </trkpt>
      <trkpt lat="50.12631" lon="3.56002">
        <ele>116.10697937012</ele>
        <time>2014-04-13T09:06:06.000Z</time>
      </trkpt>
      <trkpt lat="50.12636" lon="3.56006">
        <ele>115.92303466797</ele>
        <time>2014-04-13T09:06:08.000Z</time>
      </trkpt>
      <trkpt lat="50.12643" lon="3.56012">
        <ele>115.80158996582</ele>
        <time>2014-04-13T09:06:11.000Z</time>
      </trkpt>
      <trkpt lat="50.1265" lon="3.56018">
        <ele>115.89292144775</ele>
        <time>2014-04-13T09:06:14.000Z</time>
      </trkpt>
      <trkpt lat="50.12658" lon="3.56024">
        <ele>116.17408752441</ele>
        <time>2014-04-13T09:06:17.000Z</time>
      </trkpt>
      <trkpt lat="50.12665" lon="3.5603">
        <ele>116.94826507568</ele>
        <time>2014-04-13T09:06:20.000Z</time>
      </trkpt>
      <trkpt lat="50.12673" lon="3.56037">
        <ele>118.03868103027</ele>
        <time>2014-04-13T09:06:23.000Z</time>
      </trkpt>
      <trkpt lat="50.12681" lon="3.56043">
        <ele>119.14337158203</ele>
        <time>2014-04-13T09:06:26.000Z</time>
      </trkpt>
      <trkpt lat="50.12688" lon="3.5604">
        <ele>119.47587585449</ele>
        <time>2014-04-13T09:06:28.000Z</time>
      </trkpt>
      <trkpt lat="50.12695" lon="3.56046">
        <ele>119.694480896</ele>
        <time>2014-04-13T09:06:31.000Z</time>
      </trkpt>
      <trkpt lat="50.12699" lon="3.56051">
        <ele>119.63078308105</ele>
        <time>2014-04-13T09:06:33.000Z</time>
      </trkpt>
      <trkpt lat="50.12706" lon="3.56057">
        <ele>119.36374664307</ele>
        <time>2014-04-13T09:06:36.000Z</time>
      </trkpt>
      <trkpt lat="50.12712" lon="3.56062">
        <ele>118.79418945312</ele>
        <time>2014-04-13T09:06:38.000Z</time>
      </trkpt>
      <trkpt lat="50.12717" lon="3.56067">
        <ele>118.79396057129</ele>
        <time>2014-04-13T09:06:41.000Z</time>
      </trkpt>
      <trkpt lat="50.12725" lon="3.56075">
        <ele>118.47308349609</ele>
        <time>2014-04-13T09:06:43.000Z</time>
      </trkpt>
      <trkpt lat="50.12731" lon="3.56079">
        <ele>118.34309387207</ele>
        <time>2014-04-13T09:06:45.000Z</time>
      </trkpt>
      <trkpt lat="50.1274" lon="3.56086">
        <ele>117.99672698975</ele>
        <time>2014-04-13T09:06:48.000Z</time>
      </trkpt>
      <trkpt lat="50.12745" lon="3.56092">
        <ele>117.41933441162</ele>
        <time>2014-04-13T09:06:50.000Z</time>
      </trkpt>
      <trkpt lat="50.12755" lon="3.561">
        <ele>117.01866149902</ele>
        <time>2014-04-13T09:06:53.000Z</time>
      </trkpt>
      <trkpt lat="50.12766" lon="3.5611">
        <ele>117.1575088501</ele>
        <time>2014-04-13T09:06:56.000Z</time>
      </trkpt>
      <trkpt lat="50.12773" lon="3.56116">
        <ele>117.35860443115</ele>
        <time>2014-04-13T09:06:58.000Z</time>
      </trkpt>
      <trkpt lat="50.12784" lon="3.56124">
        <ele>117.92645263672</ele>
        <time>2014-04-13T09:07:01.000Z</time>
      </trkpt>
      <trkpt lat="50.12791" lon="3.56131">
        <ele>118.94508361816</ele>
        <time>2014-04-13T09:07:03.000Z</time>
      </trkpt>
      <trkpt lat="50.12801" lon="3.56141">
        <ele>119.51069641113</ele>
        <time>2014-04-13T09:07:06.000Z</time>
      </trkpt>
      <trkpt lat="50.1281" lon="3.56151">
        <ele>119.81034088135</ele>
        <time>2014-04-13T09:07:09.000Z</time>
      </trkpt>
      <trkpt lat="50.12816" lon="3.56158">
        <ele>119.89412689209</ele>
        <time>2014-04-13T09:07:11.000Z</time>
      </trkpt>
      <trkpt lat="50.12825" lon="3.56168">
        <ele>119.67794036865</ele>
        <time>2014-04-13T09:07:14.000Z</time>
      </trkpt>
      <trkpt lat="50.1283" lon="3.56175">
        <ele>119.50665283203</ele>
        <time>2014-04-13T09:07:16.000Z</time>
      </trkpt>
      <trkpt lat="50.12836" lon="3.56183">
        <ele>119.64388275146</ele>
        <time>2014-04-13T09:07:18.000Z</time>
      </trkpt>
      <trkpt lat="50.12846" lon="3.56194">
        <ele>119.91662597656</ele>
        <time>2014-04-13T09:07:21.000Z</time>
      </trkpt>
      <trkpt lat="50.12854" lon="3.56205">
        <ele>119.85642242432</ele>
        <time>2014-04-13T09:07:24.000Z</time>
      </trkpt>
      <trkpt lat="50.1286" lon="3.56213">
        <ele>120.04581451416</ele>
        <time>2014-04-13T09:07:26.000Z</time>
      </trkpt>
      <trkpt lat="50.12868" lon="3.56225">
        <ele>120.26456451416</ele>
        <time>2014-04-13T09:07:29.000Z</time>
      </trkpt>
      <trkpt lat="50.12874" lon="3.56232">
        <ele>120.46852111816</ele>
        <time>2014-04-13T09:07:31.000Z</time>
      </trkpt>
      <trkpt lat="50.12883" lon="3.56244">
        <ele>119.74182128906</ele>
        <time>2014-04-13T09:07:34.000Z</time>
      </trkpt>
      <trkpt lat="50.12888" lon="3.56253">
        <ele>118.74871826172</ele>
        <time>2014-04-13T09:07:36.000Z</time>
      </trkpt>
      <trkpt lat="50.12896" lon="3.56266">
        <ele>117.834815979</ele>
        <time>2014-04-13T09:07:39.000Z</time>
      </trkpt>
      <trkpt lat="50.12904" lon="3.56279">
        <ele>116.80108642578</ele>
        <time>2014-04-13T09:07:42.000Z</time>
      </trkpt>
      <trkpt lat="50.1291" lon="3.56288">
        <ele>115.8782119751</ele>
        <time>2014-04-13T09:07:44.000Z</time>
      </trkpt>
      <trkpt lat="50.12919" lon="3.563">
        <ele>115.66203308105</ele>
        <time>2014-04-13T09:07:47.000Z</time>
      </trkpt>
      <trkpt lat="50.12924" lon="3.56308">
        <ele>115.86608886719</ele>
        <time>2014-04-13T09:07:49.000Z</time>
      </trkpt>
      <trkpt lat="50.12932" lon="3.56319">
        <ele>115.59769439697</ele>
        <time>2014-04-13T09:07:52.000Z</time>
      </trkpt>
      <trkpt lat="50.12938" lon="3.56327">
        <ele>115.78969573975</ele>
        <time>2014-04-13T09:07:54.000Z</time>
      </trkpt>
      <trkpt lat="50.12945" lon="3.56338">
        <ele>116.86492919922</ele>
        <time>2014-04-13T09:07:57.000Z</time>
      </trkpt>
      <trkpt lat="50.12954" lon="3.56349">
        <ele>118.7474822998</ele>
        <time>2014-04-13T09:08:00.000Z</time>
      </trkpt>
      <trkpt lat="50.12963" lon="3.56361">
        <ele>121.2508392334</ele>
        <time>2014-04-13T09:08:03.000Z</time>
      </trkpt>
      <trkpt lat="50.12969" lon="3.5637">
        <ele>124.10678863525</ele>
        <time>2014-04-13T09:08:05.000Z</time>
      </trkpt>
      <trkpt lat="50.12975" lon="3.56377">
        <ele>126.75045013428</ele>
        <time>2014-04-13T09:08:07.000Z</time>
      </trkpt>
      <trkpt lat="50.12983" lon="3.56389">
        <ele>128.47146606445</ele>
        <time>2014-04-13T09:08:10.000Z</time>
      </trkpt>
      <trkpt lat="50.12988" lon="3.56397">
        <ele>129.37319946289</ele>
        <time>2014-04-13T09:08:12.000Z</time>
      </trkpt>
      <trkpt lat="50.12996" lon="3.56409">
        <ele>130.02708435059</ele>
        <time>2014-04-13T09:08:15.000Z</time>
      </trkpt>
      <trkpt lat="50.13002" lon="3.56417">
        <ele>130.55659484863</ele>
        <time>2014-04-13T09:08:17.000Z</time>
      </trkpt>
      <trkpt lat="50.13012" lon="3.56427">
        <ele>131.13787841797</ele>
        <time>2014-04-13T09:08:20.000Z</time>
      </trkpt>
      <trkpt lat="50.13023" lon="3.5644">
        <ele>131.45941162109</ele>
        <time>2014-04-13T09:08:23.000Z</time>
      </trkpt>
      <trkpt lat="50.13033" lon="3.56452">
        <ele>131.24012756348</ele>
        <time>2014-04-13T09:08:26.000Z</time>
      </trkpt>
      <trkpt lat="50.13045" lon="3.5646">
        <ele>131.12254333496</ele>
        <time>2014-04-13T09:08:29.000Z</time>
      </trkpt>
      <trkpt lat="50.13052" lon="3.56466">
        <ele>131.05603027344</ele>
        <time>2014-04-13T09:08:31.000Z</time>
      </trkpt>
      <trkpt lat="50.1306" lon="3.56471">
        <ele>130.51692199707</ele>
        <time>2014-04-13T09:08:33.000Z</time>
      </trkpt>
      <trkpt lat="50.13072" lon="3.56477">
        <ele>130.2561340332</ele>
        <time>2014-04-13T09:08:36.000Z</time>
      </trkpt>
      <trkpt lat="50.1308" lon="3.5648">
        <ele>130.59837341309</ele>
        <time>2014-04-13T09:08:38.000Z</time>
      </trkpt>
      <trkpt lat="50.13092" lon="3.56485">
        <ele>130.49638366699</ele>
        <time>2014-04-13T09:08:41.000Z</time>
      </trkpt>
      <trkpt lat="50.13101" lon="3.56488">
        <ele>130.29446411133</ele>
        <time>2014-04-13T09:08:43.000Z</time>
      </trkpt>
      <trkpt lat="50.13113" lon="3.5649">
        <ele>130.78897094727</ele>
        <time>2014-04-13T09:08:46.000Z</time>
      </trkpt>
      <trkpt lat="50.13124" lon="3.56489">
        <ele>131.07864379883</ele>
        <time>2014-04-13T09:08:49.000Z</time>
      </trkpt>
      <trkpt lat="50.13135" lon="3.56492">
        <ele>131.67343139648</ele>
        <time>2014-04-13T09:08:52.000Z</time>
      </trkpt>
      <trkpt lat="50.13142" lon="3.56493">
        <ele>132.2639465332</ele>
        <time>2014-04-13T09:08:54.000Z</time>
      </trkpt>
      <trkpt lat="50.1315" lon="3.56494">
        <ele>133.07469177246</ele>
        <time>2014-04-13T09:08:56.000Z</time>
      </trkpt>
      <trkpt lat="50.13161" lon="3.56495">
        <ele>133.07925415039</ele>
        <time>2014-04-13T09:08:59.000Z</time>
      </trkpt>
      <trkpt lat="50.13173" lon="3.56498">
        <ele>133.01759338379</ele>
        <time>2014-04-13T09:09:02.000Z</time>
      </trkpt>
      <trkpt lat="50.13184" lon="3.56501">
        <ele>132.75308227539</ele>
        <time>2014-04-13T09:09:05.000Z</time>
      </trkpt>
      <trkpt lat="50.13195" lon="3.56504">
        <ele>132.50205993652</ele>
        <time>2014-04-13T09:09:08.000Z</time>
      </trkpt>
      <trkpt lat="50.13203" lon="3.56507">
        <ele>131.86184692383</ele>
        <time>2014-04-13T09:09:10.000Z</time>
      </trkpt>
      <trkpt lat="50.1321" lon="3.56509">
        <ele>131.44139099121</ele>
        <time>2014-04-13T09:09:12.000Z</time>
      </trkpt>
      <trkpt lat="50.13221" lon="3.5651">
        <ele>131.36116027832</ele>
        <time>2014-04-13T09:09:15.000Z</time>
      </trkpt>
      <trkpt lat="50.13232" lon="3.56512">
        <ele>131.31982421875</ele>
        <time>2014-04-13T09:09:18.000Z</time>
      </trkpt>
      <trkpt lat="50.13242" lon="3.56512">
        <ele>130.85612487793</ele>
        <time>2014-04-13T09:09:21.000Z</time>
      </trkpt>
      <trkpt lat="50.13253" lon="3.56511">
        <ele>130.36654663086</ele>
        <time>2014-04-13T09:09:24.000Z</time>
      </trkpt>
      <trkpt lat="50.13259" lon="3.5651">
        <ele>129.79653930664</ele>
        <time>2014-04-13T09:09:26.000Z</time>
      </trkpt>
      <trkpt lat="50.13264" lon="3.5651">
        <ele>129.43814086914</ele>
        <time>2014-04-13T09:09:28.000Z</time>
      </trkpt>
      <trkpt lat="50.13271" lon="3.56509">
        <ele>128.94004821777</ele>
        <time>2014-04-13T09:09:30.000Z</time>
      </trkpt>
      <trkpt lat="50.13277" lon="3.56509">
        <ele>128.85791015625</ele>
        <time>2014-04-13T09:09:32.000Z</time>
      </trkpt>
      <trkpt lat="50.13287" lon="3.56507">
        <ele>128.86094665527</ele>
        <time>2014-04-13T09:09:35.000Z</time>
      </trkpt>
      <trkpt lat="50.13293" lon="3.56506">
        <ele>129.08056640625</ele>
        <time>2014-04-13T09:09:37.000Z</time>
      </trkpt>
      <trkpt lat="50.13305" lon="3.56506">
        <ele>129.10488891602</ele>
        <time>2014-04-13T09:09:40.000Z</time>
      </trkpt>
      <trkpt lat="50.13316" lon="3.56507">
        <ele>128.96546936035</ele>
        <time>2014-04-13T09:09:43.000Z</time>
      </trkpt>
      <trkpt lat="50.13327" lon="3.56511">
        <ele>129.0295715332</ele>
        <time>2014-04-13T09:09:46.000Z</time>
      </trkpt>
      <trkpt lat="50.1334" lon="3.56517">
        <ele>129.6393737793</ele>
        <time>2014-04-13T09:09:49.000Z</time>
      </trkpt>
      <trkpt lat="50.13352" lon="3.56525">
        <ele>129.95199584961</ele>
        <time>2014-04-13T09:09:52.000Z</time>
      </trkpt>
      <trkpt lat="50.13367" lon="3.56534">
        <ele>130.16221618652</ele>
        <time>2014-04-13T09:09:55.000Z</time>
      </trkpt>
      <trkpt lat="50.13377" lon="3.56541">
        <ele>130.02445983887</ele>
        <time>2014-04-13T09:09:57.000Z</time>
      </trkpt>
      <trkpt lat="50.1339" lon="3.56552">
        <ele>129.87771606445</ele>
        <time>2014-04-13T09:10:00.000Z</time>
      </trkpt>
      <trkpt lat="50.13399" lon="3.56559">
        <ele>128.92658996582</ele>
        <time>2014-04-13T09:10:02.000Z</time>
      </trkpt>
      <trkpt lat="50.13414" lon="3.56571">
        <ele>128.30589294434</ele>
        <time>2014-04-13T09:10:05.000Z</time>
      </trkpt>
      <trkpt lat="50.13422" lon="3.56576">
        <ele>127.79541015625</ele>
        <time>2014-04-13T09:10:07.000Z</time>
      </trkpt>
      <trkpt lat="50.13434" lon="3.56585">
        <ele>128.06564331055</ele>
        <time>2014-04-13T09:10:10.000Z</time>
      </trkpt>
      <trkpt lat="50.13441" lon="3.56592">
        <ele>127.88963317871</ele>
        <time>2014-04-13T09:10:12.000Z</time>
      </trkpt>
      <trkpt lat="50.13449" lon="3.56597">
        <ele>127.96018218994</ele>
        <time>2014-04-13T09:10:14.000Z</time>
      </trkpt>
      <trkpt lat="50.13457" lon="3.56604">
        <ele>127.89572906494</ele>
        <time>2014-04-13T09:10:16.000Z</time>
      </trkpt>
      <trkpt lat="50.13471" lon="3.56613">
        <ele>127.64198303223</ele>
        <time>2014-04-13T09:10:19.000Z</time>
      </trkpt>
      <trkpt lat="50.13481" lon="3.56618">
        <ele>127.13014221191</ele>
        <time>2014-04-13T09:10:21.000Z</time>
      </trkpt>
      <trkpt lat="50.13496" lon="3.56627">
        <ele>126.84838867188</ele>
        <time>2014-04-13T09:10:24.000Z</time>
      </trkpt>
      <trkpt lat="50.13505" lon="3.56634">
        <ele>126.68910980225</ele>
        <time>2014-04-13T09:10:26.000Z</time>
      </trkpt>
      <trkpt lat="50.13519" lon="3.56641">
        <ele>127.00538635254</ele>
        <time>2014-04-13T09:10:29.000Z</time>
      </trkpt>
      <trkpt lat="50.13533" lon="3.56643">
        <ele>127.05360412598</ele>
        <time>2014-04-13T09:10:32.000Z</time>
      </trkpt>
      <trkpt lat="50.13546" lon="3.56642">
        <ele>126.98777770996</ele>
        <time>2014-04-13T09:10:35.000Z</time>
      </trkpt>
      <trkpt lat="50.13561" lon="3.56642">
        <ele>127.69874572754</ele>
        <time>2014-04-13T09:10:38.000Z</time>
      </trkpt>
      <trkpt lat="50.13577" lon="3.56642">
        <ele>128.53211975098</ele>
        <time>2014-04-13T09:10:41.000Z</time>
      </trkpt>
      <trkpt lat="50.13593" lon="3.56643">
        <ele>129.1519317627</ele>
        <time>2014-04-13T09:10:44.000Z</time>
      </trkpt>
      <trkpt lat="50.13604" lon="3.56641">
        <ele>130.07611083984</ele>
        <time>2014-04-13T09:10:46.000Z</time>
      </trkpt>
      <trkpt lat="50.13612" lon="3.56643">
        <ele>130.84240722656</ele>
        <time>2014-04-13T09:10:48.000Z</time>
      </trkpt>
      <trkpt lat="50.13613" lon="3.56658">
        <ele>130.80056762695</ele>
        <time>2014-04-13T09:10:51.000Z</time>
      </trkpt>
      <trkpt lat="50.13604" lon="3.56672">
        <ele>131.07905578613</ele>
        <time>2014-04-13T09:10:54.000Z</time>
      </trkpt>
      <trkpt lat="50.13595" lon="3.5669">
        <ele>130.91229248047</ele>
        <time>2014-04-13T09:10:57.000Z</time>
      </trkpt>
      <trkpt lat="50.13589" lon="3.56705">
        <ele>130.72102355957</ele>
        <time>2014-04-13T09:10:59.000Z</time>
      </trkpt>
      <trkpt lat="50.13582" lon="3.56722">
        <ele>130.88705444336</ele>
        <time>2014-04-13T09:11:02.000Z</time>
      </trkpt>
      <trkpt lat="50.13578" lon="3.56734">
        <ele>131.11764526367</ele>
        <time>2014-04-13T09:11:04.000Z</time>
      </trkpt>
      <trkpt lat="50.13574" lon="3.56744">
        <ele>131.11273193359</ele>
        <time>2014-04-13T09:11:06.000Z</time>
      </trkpt>
      <trkpt lat="50.13577" lon="3.56763">
        <ele>131.06176757812</ele>
        <time>2014-04-13T09:11:09.000Z</time>
      </trkpt>
      <trkpt lat="50.13589" lon="3.56778">
        <ele>131.16963195801</ele>
        <time>2014-04-13T09:11:12.000Z</time>
      </trkpt>
      <trkpt lat="50.13596" lon="3.56787">
        <ele>130.9089050293</ele>
        <time>2014-04-13T09:11:14.000Z</time>
      </trkpt>
      <trkpt lat="50.13609" lon="3.568">
        <ele>130.86920166016</ele>
        <time>2014-04-13T09:11:17.000Z</time>
      </trkpt>
      <trkpt lat="50.1362" lon="3.56806">
        <ele>131.0964050293</ele>
        <time>2014-04-13T09:11:19.000Z</time>
      </trkpt>
      <trkpt lat="50.13636" lon="3.56815">
        <ele>131.58605957031</ele>
        <time>2014-04-13T09:11:22.000Z</time>
      </trkpt>
      <trkpt lat="50.13651" lon="3.56819">
        <ele>131.98782348633</ele>
        <time>2014-04-13T09:11:25.000Z</time>
      </trkpt>
      <trkpt lat="50.13668" lon="3.56823">
        <ele>132.19161987305</ele>
        <time>2014-04-13T09:11:28.000Z</time>
      </trkpt>
      <trkpt lat="50.13679" lon="3.56824">
        <ele>132.13006591797</ele>
        <time>2014-04-13T09:11:30.000Z</time>
      </trkpt>
      <trkpt lat="50.13696" lon="3.56826">
        <ele>131.80490112305</ele>
        <time>2014-04-13T09:11:33.000Z</time>
      </trkpt>
      <trkpt lat="50.13705" lon="3.56829">
        <ele>131.38244628906</ele>
        <time>2014-04-13T09:11:35.000Z</time>
      </trkpt>
      <trkpt lat="50.13714" lon="3.56826">
        <ele>130.87817382812</ele>
        <time>2014-04-13T09:11:37.000Z</time>
      </trkpt>
      <trkpt lat="50.13723" lon="3.56823">
        <ele>131.02108764648</ele>
        <time>2014-04-13T09:11:39.000Z</time>
      </trkpt>
      <trkpt lat="50.13751" lon="3.56797">
        <ele>132.03713989258</ele>
        <time>2014-04-13T09:11:48.000Z</time>
      </trkpt>
      <trkpt lat="50.13769" lon="3.56768">
        <ele>131.49227905273</ele>
        <time>2014-04-13T09:11:51.000Z</time>
      </trkpt>
      <trkpt lat="50.13778" lon="3.56751">
        <ele>130.74548339844</ele>
        <time>2014-04-13T09:11:54.000Z</time>
      </trkpt>
      <trkpt lat="50.13786" lon="3.56736">
        <ele>129.94132995605</ele>
        <time>2014-04-13T09:11:57.000Z</time>
      </trkpt>
      <trkpt lat="50.13791" lon="3.56728">
        <ele>129.17192077637</ele>
        <time>2014-04-13T09:11:59.000Z</time>
      </trkpt>
      <trkpt lat="50.13797" lon="3.56727">
        <ele>127.65928649902</ele>
        <time>2014-04-13T09:12:02.000Z</time>
      </trkpt>
      <trkpt lat="50.13804" lon="3.56737">
        <ele>127.79040527344</ele>
        <time>2014-04-13T09:12:05.000Z</time>
      </trkpt>
      <trkpt lat="50.1381" lon="3.56746">
        <ele>128.24473571777</ele>
        <time>2014-04-13T09:12:07.000Z</time>
      </trkpt>
      <trkpt lat="50.13815" lon="3.56755">
        <ele>128.53335571289</ele>
        <time>2014-04-13T09:12:09.000Z</time>
      </trkpt>
      <trkpt lat="50.13821" lon="3.56763">
        <ele>128.56913757324</ele>
        <time>2014-04-13T09:12:11.000Z</time>
      </trkpt>
      <trkpt lat="50.13828" lon="3.56771">
        <ele>128.33724975586</ele>
        <time>2014-04-13T09:12:13.000Z</time>
      </trkpt>
      <trkpt lat="50.13839" lon="3.56769">
        <ele>128.25706481934</ele>
        <time>2014-04-13T09:12:16.000Z</time>
      </trkpt>
      <trkpt lat="50.13844" lon="3.56756">
        <ele>128.39056396484</ele>
        <time>2014-04-13T09:12:18.000Z</time>
      </trkpt>
      <trkpt lat="50.1385" lon="3.5674">
        <ele>128.62716674805</ele>
        <time>2014-04-13T09:12:21.000Z</time>
      </trkpt>
      <trkpt lat="50.13853" lon="3.5673">
        <ele>128.71096801758</ele>
        <time>2014-04-13T09:12:24.000Z</time>
      </trkpt>
      <trkpt lat="50.13853" lon="3.56729">
        <ele>128.98458862305</ele>
        <time>2014-04-13T09:12:26.000Z</time>
      </trkpt>
      <trkpt lat="50.13853" lon="3.56729">
        <ele>128.98458862305</ele>
        <time>2014-04-13T09:12:36.000Z</time>
      </trkpt>
      <trkpt lat="50.13854" lon="3.56729">
        <ele>128.64234924316</ele>
        <time>2014-04-13T09:12:56.000Z</time>
      </trkpt>
      <trkpt lat="50.13855" lon="3.56728">
        <ele>127.90354919434</ele>
        <time>2014-04-13T09:13:02.000Z</time>
      </trkpt>
      <trkpt lat="50.13856" lon="3.56725">
        <ele>127.32359313965</ele>
        <time>2014-04-13T09:13:05.000Z</time>
      </trkpt>
      <trkpt lat="50.13857" lon="3.56722">
        <ele>126.79588317871</ele>
        <time>2014-04-13T09:13:07.000Z</time>
      </trkpt>
      <trkpt lat="50.13861" lon="3.56712">
        <ele>126.33433532715</ele>
        <time>2014-04-13T09:13:10.000Z</time>
      </trkpt>
      <trkpt lat="50.13864" lon="3.56704">
        <ele>126.07851409912</ele>
        <time>2014-04-13T09:13:12.000Z</time>
      </trkpt>
      <trkpt lat="50.13867" lon="3.56691">
        <ele>125.71655273438</ele>
        <time>2014-04-13T09:13:15.000Z</time>
      </trkpt>
      <trkpt lat="50.13872" lon="3.56677">
        <ele>125.49031066895</ele>
        <time>2014-04-13T09:13:18.000Z</time>
      </trkpt>
      <trkpt lat="50.13876" lon="3.56667">
        <ele>125.50135803223</ele>
        <time>2014-04-13T09:13:20.000Z</time>
      </trkpt>
      <trkpt lat="50.13881" lon="3.56657">
        <ele>125.06663513184</ele>
        <time>2014-04-13T09:13:22.000Z</time>
      </trkpt>
      <trkpt lat="50.13888" lon="3.56643">
        <ele>124.7603302002</ele>
        <time>2014-04-13T09:13:25.000Z</time>
      </trkpt>
      <trkpt lat="50.13892" lon="3.56634">
        <ele>124.65866851807</ele>
        <time>2014-04-13T09:13:27.000Z</time>
      </trkpt>
      <trkpt lat="50.13896" lon="3.56624">
        <ele>124.10874938965</ele>
        <time>2014-04-13T09:13:29.000Z</time>
      </trkpt>
      <trkpt lat="50.13904" lon="3.56611">
        <ele>123.69081115723</ele>
        <time>2014-04-13T09:13:32.000Z</time>
      </trkpt>
      <trkpt lat="50.13911" lon="3.56611">
        <ele>123.46905517578</ele>
        <time>2014-04-13T09:13:34.000Z</time>
      </trkpt>
      <trkpt lat="50.13917" lon="3.56617">
        <ele>123.26887512207</ele>
        <time>2014-04-13T09:13:36.000Z</time>
      </trkpt>
      <trkpt lat="50.13927" lon="3.56626">
        <ele>122.94311523438</ele>
        <time>2014-04-13T09:13:39.000Z</time>
      </trkpt>
      <trkpt lat="50.13933" lon="3.56632">
        <ele>122.93167877197</ele>
        <time>2014-04-13T09:13:41.000Z</time>
      </trkpt>
      <trkpt lat="50.13942" lon="3.56641">
        <ele>123.05043792725</ele>
        <time>2014-04-13T09:13:44.000Z</time>
      </trkpt>
      <trkpt lat="50.1395" lon="3.56657">
        <ele>123.81286621094</ele>
        <time>2014-04-13T09:13:47.000Z</time>
      </trkpt>
      <trkpt lat="50.13958" lon="3.56671">
        <ele>124.60892486572</ele>
        <time>2014-04-13T09:13:50.000Z</time>
      </trkpt>
      <trkpt lat="50.13964" lon="3.56681">
        <ele>125.35530853271</ele>
        <time>2014-04-13T09:13:52.000Z</time>
      </trkpt>
      <trkpt lat="50.13969" lon="3.56689">
        <ele>125.55818939209</ele>
        <time>2014-04-13T09:13:54.000Z</time>
      </trkpt>
      <trkpt lat="50.13978" lon="3.56701">
        <ele>125.24633789062</ele>
        <time>2014-04-13T09:13:57.000Z</time>
      </trkpt>
      <trkpt lat="50.13985" lon="3.56708">
        <ele>124.39616394043</ele>
        <time>2014-04-13T09:13:59.000Z</time>
      </trkpt>
      <trkpt lat="50.13994" lon="3.56721">
        <ele>123.63777160645</ele>
        <time>2014-04-13T09:14:02.000Z</time>
      </trkpt>
      <trkpt lat="50.14005" lon="3.56732">
        <ele>123.23154449463</ele>
        <time>2014-04-13T09:14:05.000Z</time>
      </trkpt>
      <trkpt lat="50.14014" lon="3.56745">
        <ele>123.251121521</ele>
        <time>2014-04-13T09:14:08.000Z</time>
      </trkpt>
      <trkpt lat="50.14021" lon="3.56753">
        <ele>123.35548400879</ele>
        <time>2014-04-13T09:14:10.000Z</time>
      </trkpt>
      <trkpt lat="50.1403" lon="3.56764">
        <ele>123.50337982178</ele>
        <time>2014-04-13T09:14:13.000Z</time>
      </trkpt>
      <trkpt lat="50.14039" lon="3.56775">
        <ele>123.93792724609</ele>
        <time>2014-04-13T09:14:16.000Z</time>
      </trkpt>
      <trkpt lat="50.14045" lon="3.56782">
        <ele>124.0990447998</ele>
        <time>2014-04-13T09:14:18.000Z</time>
      </trkpt>
      <trkpt lat="50.14055" lon="3.56793">
        <ele>124.11952972412</ele>
        <time>2014-04-13T09:14:21.000Z</time>
      </trkpt>
      <trkpt lat="50.14064" lon="3.56804">
        <ele>124.2481842041</ele>
        <time>2014-04-13T09:14:24.000Z</time>
      </trkpt>
      <trkpt lat="50.14071" lon="3.5681">
        <ele>124.58583831787</ele>
        <time>2014-04-13T09:14:26.000Z</time>
      </trkpt>
      <trkpt lat="50.14079" lon="3.56818">
        <ele>124.87457275391</ele>
        <time>2014-04-13T09:14:29.000Z</time>
      </trkpt>
      <trkpt lat="50.14084" lon="3.56816">
        <ele>125.41593933105</ele>
        <time>2014-04-13T09:14:31.000Z</time>
      </trkpt>
      <trkpt lat="50.14088" lon="3.56807">
        <ele>126.25090026855</ele>
        <time>2014-04-13T09:14:33.000Z</time>
      </trkpt>
      <trkpt lat="50.14093" lon="3.56785">
        <ele>127.25759124756</ele>
        <time>2014-04-13T09:14:36.000Z</time>
      </trkpt>
      <trkpt lat="50.14101" lon="3.56762">
        <ele>128.23849487305</ele>
        <time>2014-04-13T09:14:39.000Z</time>
      </trkpt>
      <trkpt lat="50.14107" lon="3.56749">
        <ele>128.63235473633</ele>
        <time>2014-04-13T09:14:41.000Z</time>
      </trkpt>
      <trkpt lat="50.14114" lon="3.56736">
        <ele>128.58056640625</ele>
        <time>2014-04-13T09:14:43.000Z</time>
      </trkpt>
      <trkpt lat="50.14119" lon="3.5672">
        <ele>128.3923034668</ele>
        <time>2014-04-13T09:14:45.000Z</time>
      </trkpt>
      <trkpt lat="50.14126" lon="3.56699">
        <ele>128.1374206543</ele>
        <time>2014-04-13T09:14:48.000Z</time>
      </trkpt>
      <trkpt lat="50.14132" lon="3.56685">
        <ele>126.60988616943</ele>
        <time>2014-04-13T09:14:50.000Z</time>
      </trkpt>
      <trkpt lat="50.1414" lon="3.56658">
        <ele>125.09146881104</ele>
        <time>2014-04-13T09:14:53.000Z</time>
      </trkpt>
      <trkpt lat="50.14149" lon="3.56633">
        <ele>123.85852050781</ele>
        <time>2014-04-13T09:14:56.000Z</time>
      </trkpt>
      <trkpt lat="50.14157" lon="3.56606">
        <ele>122.66044616699</ele>
        <time>2014-04-13T09:14:59.000Z</time>
      </trkpt>
      <trkpt lat="50.14163" lon="3.56585">
        <ele>121.33744812012</ele>
        <time>2014-04-13T09:15:01.000Z</time>
      </trkpt>
      <trkpt lat="50.14172" lon="3.56554">
        <ele>120.85792541504</ele>
        <time>2014-04-13T09:15:04.000Z</time>
      </trkpt>
      <trkpt lat="50.14181" lon="3.56523">
        <ele>120.49230957031</ele>
        <time>2014-04-13T09:15:07.000Z</time>
      </trkpt>
      <trkpt lat="50.14188" lon="3.56503">
        <ele>119.93165588379</ele>
        <time>2014-04-13T09:15:09.000Z</time>
      </trkpt>
      <trkpt lat="50.14199" lon="3.56472">
        <ele>119.72194671631</ele>
        <time>2014-04-13T09:15:12.000Z</time>
      </trkpt>
      <trkpt lat="50.14213" lon="3.56443">
        <ele>119.40161132812</ele>
        <time>2014-04-13T09:15:15.000Z</time>
      </trkpt>
      <trkpt lat="50.14224" lon="3.56413">
        <ele>119.22924804688</ele>
        <time>2014-04-13T09:15:18.000Z</time>
      </trkpt>
      <trkpt lat="50.14237" lon="3.56382">
        <ele>118.87496185303</ele>
        <time>2014-04-13T09:15:21.000Z</time>
      </trkpt>
      <trkpt lat="50.1425" lon="3.56347">
        <ele>118.39737701416</ele>
        <time>2014-04-13T09:15:24.000Z</time>
      </trkpt>
      <trkpt lat="50.14258" lon="3.56324">
        <ele>117.6946182251</ele>
        <time>2014-04-13T09:15:26.000Z</time>
      </trkpt>
      <trkpt lat="50.1427" lon="3.5629">
        <ele>117.07498931885</ele>
        <time>2014-04-13T09:15:29.000Z</time>
      </trkpt>
      <trkpt lat="50.14283" lon="3.56255">
        <ele>116.62155914307</ele>
        <time>2014-04-13T09:15:32.000Z</time>
      </trkpt>
      <trkpt lat="50.14292" lon="3.56234">
        <ele>116.40529632568</ele>
        <time>2014-04-13T09:15:34.000Z</time>
      </trkpt>
      <trkpt lat="50.14302" lon="3.56213">
        <ele>116.88426208496</ele>
        <time>2014-04-13T09:15:36.000Z</time>
      </trkpt>
      <trkpt lat="50.14312" lon="3.56189">
        <ele>116.78812408447</ele>
        <time>2014-04-13T09:15:39.000Z</time>
      </trkpt>
      <trkpt lat="50.14321" lon="3.56175">
        <ele>116.56378173828</ele>
        <time>2014-04-13T09:15:41.000Z</time>
      </trkpt>
      <trkpt lat="50.14331" lon="3.56161">
        <ele>116.2716293335</ele>
        <time>2014-04-13T09:15:43.000Z</time>
      </trkpt>
      <trkpt lat="50.14343" lon="3.56139">
        <ele>115.98515319824</ele>
        <time>2014-04-13T09:15:46.000Z</time>
      </trkpt>
      <trkpt lat="50.14349" lon="3.56126">
        <ele>115.33351135254</ele>
        <time>2014-04-13T09:15:48.000Z</time>
      </trkpt>
      <trkpt lat="50.14359" lon="3.56106">
        <ele>115.16184997559</ele>
        <time>2014-04-13T09:15:51.000Z</time>
      </trkpt>
      <trkpt lat="50.1437" lon="3.56085">
        <ele>115.35823059082</ele>
        <time>2014-04-13T09:15:54.000Z</time>
      </trkpt>
      <trkpt lat="50.14375" lon="3.56069">
        <ele>116.04154205322</ele>
        <time>2014-04-13T09:15:56.000Z</time>
      </trkpt>
      <trkpt lat="50.14378" lon="3.56055">
        <ele>117.00288391113</ele>
        <time>2014-04-13T09:15:58.000Z</time>
      </trkpt>
      <trkpt lat="50.14381" lon="3.56035">
        <ele>117.80075836182</ele>
        <time>2014-04-13T09:16:01.000Z</time>
      </trkpt>
      <trkpt lat="50.14384" lon="3.5602">
        <ele>118.64896392822</ele>
        <time>2014-04-13T09:16:03.000Z</time>
      </trkpt>
      <trkpt lat="50.14387" lon="3.56007">
        <ele>119.60725402832</ele>
        <time>2014-04-13T09:16:05.000Z</time>
      </trkpt>
      <trkpt lat="50.14392" lon="3.55992">
        <ele>120.15521240234</ele>
        <time>2014-04-13T09:16:08.000Z</time>
      </trkpt>
      <trkpt lat="50.14397" lon="3.55983">
        <ele>119.96766662598</ele>
        <time>2014-04-13T09:16:10.000Z</time>
      </trkpt>
      <trkpt lat="50.14401" lon="3.55972">
        <ele>119.40748596191</ele>
        <time>2014-04-13T09:16:12.000Z</time>
      </trkpt>
      <trkpt lat="50.14405" lon="3.55957">
        <ele>119.21504211426</ele>
        <time>2014-04-13T09:16:14.000Z</time>
      </trkpt>
      <trkpt lat="50.14414" lon="3.55938">
        <ele>118.45444488525</ele>
        <time>2014-04-13T09:16:17.000Z</time>
      </trkpt>
      <trkpt lat="50.1442" lon="3.55925">
        <ele>117.63339996338</ele>
        <time>2014-04-13T09:16:19.000Z</time>
      </trkpt>
      <trkpt lat="50.14426" lon="3.55902">
        <ele>117.30849456787</ele>
        <time>2014-04-13T09:16:22.000Z</time>
      </trkpt>
      <trkpt lat="50.14431" lon="3.55887">
        <ele>117.49487304688</ele>
        <time>2014-04-13T09:16:24.000Z</time>
      </trkpt>
      <trkpt lat="50.14435" lon="3.55864">
        <ele>117.10243988037</ele>
        <time>2014-04-13T09:16:27.000Z</time>
      </trkpt>
      <trkpt lat="50.1444" lon="3.55849">
        <ele>117.03251647949</ele>
        <time>2014-04-13T09:16:29.000Z</time>
      </trkpt>
      <trkpt lat="50.14444" lon="3.55836">
        <ele>117.41963195801</ele>
        <time>2014-04-13T09:16:31.000Z</time>
      </trkpt>
      <trkpt lat="50.14452" lon="3.55819">
        <ele>117.87309265137</ele>
        <time>2014-04-13T09:16:34.000Z</time>
      </trkpt>
      <trkpt lat="50.14457" lon="3.55798">
        <ele>118.68493652344</ele>
        <time>2014-04-13T09:16:37.000Z</time>
      </trkpt>
      <trkpt lat="50.14462" lon="3.55782">
        <ele>119.81762695312</ele>
        <time>2014-04-13T09:16:39.000Z</time>
      </trkpt>
      <trkpt lat="50.14469" lon="3.55758">
        <ele>121.30986022949</ele>
        <time>2014-04-13T09:16:42.000Z</time>
      </trkpt>
      <trkpt lat="50.1447" lon="3.55739">
        <ele>122.18927001953</ele>
        <time>2014-04-13T09:16:45.000Z</time>
      </trkpt>
      <trkpt lat="50.14475" lon="3.55721">
        <ele>123.08518218994</ele>
        <time>2014-04-13T09:16:47.000Z</time>
      </trkpt>
      <trkpt lat="50.1448" lon="3.55699">
        <ele>123.74333190918</ele>
        <time>2014-04-13T09:16:50.000Z</time>
      </trkpt>
      <trkpt lat="50.14484" lon="3.55683">
        <ele>124.33100891113</ele>
        <time>2014-04-13T09:16:53.000Z</time>
      </trkpt>
      <trkpt lat="50.14484" lon="3.55668">
        <ele>124.09693908691</ele>
        <time>2014-04-13T09:16:55.000Z</time>
      </trkpt>
      <trkpt lat="50.14485" lon="3.5566">
        <ele>124.18538665771</ele>
        <time>2014-04-13T09:16:57.000Z</time>
      </trkpt>
      <trkpt lat="50.14491" lon="3.55639">
        <ele>123.59832763672</ele>
        <time>2014-04-13T09:17:00.000Z</time>
      </trkpt>
      <trkpt lat="50.14494" lon="3.55627">
        <ele>122.9369354248</ele>
        <time>2014-04-13T09:17:02.000Z</time>
      </trkpt>
      <trkpt lat="50.145" lon="3.55609">
        <ele>122.45680236816</ele>
        <time>2014-04-13T09:17:05.000Z</time>
      </trkpt>
      <trkpt lat="50.14504" lon="3.55596">
        <ele>122.21325683594</ele>
        <time>2014-04-13T09:17:07.000Z</time>
      </trkpt>
      <trkpt lat="50.14507" lon="3.55579">
        <ele>121.87965393066</ele>
        <time>2014-04-13T09:17:10.000Z</time>
      </trkpt>
      <trkpt lat="50.14509" lon="3.55568">
        <ele>121.94323730469</ele>
        <time>2014-04-13T09:17:12.000Z</time>
      </trkpt>
      <trkpt lat="50.14513" lon="3.55553">
        <ele>122.48612213135</ele>
        <time>2014-04-13T09:17:15.000Z</time>
      </trkpt>
      <trkpt lat="50.14515" lon="3.55544">
        <ele>122.44020080566</ele>
        <time>2014-04-13T09:17:17.000Z</time>
      </trkpt>
      <trkpt lat="50.14518" lon="3.5553">
        <ele>122.5216217041</ele>
        <time>2014-04-13T09:17:20.000Z</time>
      </trkpt>
      <trkpt lat="50.14519" lon="3.5552">
        <ele>122.35298156738</ele>
        <time>2014-04-13T09:17:22.000Z</time>
      </trkpt>
      <trkpt lat="50.14522" lon="3.55505">
        <ele>122.52523040771</ele>
        <time>2014-04-13T09:17:25.000Z</time>
      </trkpt>
      <trkpt lat="50.14525" lon="3.55488">
        <ele>122.09275817871</ele>
        <time>2014-04-13T09:17:28.000Z</time>
      </trkpt>
      <trkpt lat="50.14528" lon="3.5547">
        <ele>121.80293273926</ele>
        <time>2014-04-13T09:17:31.000Z</time>
      </trkpt>
      <trkpt lat="50.14532" lon="3.55449">
        <ele>121.21077728271</ele>
        <time>2014-04-13T09:17:34.000Z</time>
      </trkpt>
      <trkpt lat="50.14534" lon="3.55436">
        <ele>121.14949035645</ele>
        <time>2014-04-13T09:17:36.000Z</time>
      </trkpt>
      <trkpt lat="50.14538" lon="3.55415">
        <ele>120.71262359619</ele>
        <time>2014-04-13T09:17:39.000Z</time>
      </trkpt>
      <trkpt lat="50.1454" lon="3.554">
        <ele>120.46340179443</ele>
        <time>2014-04-13T09:17:41.000Z</time>
      </trkpt>
      <trkpt lat="50.14545" lon="3.55379">
        <ele>120.42333984375</ele>
        <time>2014-04-13T09:17:44.000Z</time>
      </trkpt>
      <trkpt lat="50.14548" lon="3.55366">
        <ele>119.83085632324</ele>
        <time>2014-04-13T09:17:46.000Z</time>
      </trkpt>
      <trkpt lat="50.14554" lon="3.55347">
        <ele>118.99714660645</ele>
        <time>2014-04-13T09:17:49.000Z</time>
      </trkpt>
      <trkpt lat="50.14557" lon="3.55334">
        <ele>118.28666687012</ele>
        <time>2014-04-13T09:17:51.000Z</time>
      </trkpt>
      <trkpt lat="50.1456" lon="3.55312">
        <ele>117.34948730469</ele>
        <time>2014-04-13T09:17:54.000Z</time>
      </trkpt>
      <trkpt lat="50.14566" lon="3.55293">
        <ele>116.24184417725</ele>
        <time>2014-04-13T09:17:56.000Z</time>
      </trkpt>
      <trkpt lat="50.14571" lon="3.55271">
        <ele>115.72654724121</ele>
        <time>2014-04-13T09:17:59.000Z</time>
      </trkpt>
      <trkpt lat="50.14577" lon="3.55246">
        <ele>115.12406921387</ele>
        <time>2014-04-13T09:18:02.000Z</time>
      </trkpt>
      <trkpt lat="50.14581" lon="3.55223">
        <ele>114.39131164551</ele>
        <time>2014-04-13T09:18:05.000Z</time>
      </trkpt>
      <trkpt lat="50.14585" lon="3.55199">
        <ele>113.84658050537</ele>
        <time>2014-04-13T09:18:08.000Z</time>
      </trkpt>
      <trkpt lat="50.1459" lon="3.55176">
        <ele>113.60076904297</ele>
        <time>2014-04-13T09:18:11.000Z</time>
      </trkpt>
      <trkpt lat="50.14594" lon="3.55153">
        <ele>113.79905700684</ele>
        <time>2014-04-13T09:18:14.000Z</time>
      </trkpt>
      <trkpt lat="50.14598" lon="3.55131">
        <ele>114.27268981934</ele>
        <time>2014-04-13T09:18:17.000Z</time>
      </trkpt>
      <trkpt lat="50.14602" lon="3.55115">
        <ele>114.70224761963</ele>
        <time>2014-04-13T09:18:19.000Z</time>
      </trkpt>
      <trkpt lat="50.14605" lon="3.55091">
        <ele>115.2201385498</ele>
        <time>2014-04-13T09:18:22.000Z</time>
      </trkpt>
      <trkpt lat="50.14609" lon="3.55076">
        <ele>115.18497467041</ele>
        <time>2014-04-13T09:18:24.000Z</time>
      </trkpt>
      <trkpt lat="50.14612" lon="3.55061">
        <ele>114.68033599854</ele>
        <time>2014-04-13T09:18:26.000Z</time>
      </trkpt>
      <trkpt lat="50.14615" lon="3.55042">
        <ele>114.03175354004</ele>
        <time>2014-04-13T09:18:29.000Z</time>
      </trkpt>
      <trkpt lat="50.1462" lon="3.55019">
        <ele>113.81351470947</ele>
        <time>2014-04-13T09:18:32.000Z</time>
      </trkpt>
      <trkpt lat="50.14623" lon="3.55004">
        <ele>113.66036224365</ele>
        <time>2014-04-13T09:18:34.000Z</time>
      </trkpt>
      <trkpt lat="50.14626" lon="3.54991">
        <ele>113.94471740723</ele>
        <time>2014-04-13T09:18:36.000Z</time>
      </trkpt>
      <trkpt lat="50.14629" lon="3.54969">
        <ele>114.78043365479</ele>
        <time>2014-04-13T09:18:39.000Z</time>
      </trkpt>
      <trkpt lat="50.14633" lon="3.54951">
        <ele>115.44709777832</ele>
        <time>2014-04-13T09:18:42.000Z</time>
      </trkpt>
      <trkpt lat="50.14637" lon="3.54932">
        <ele>116.14125061035</ele>
        <time>2014-04-13T09:18:45.000Z</time>
      </trkpt>
      <trkpt lat="50.1464" lon="3.5492">
        <ele>116.92198181152</ele>
        <time>2014-04-13T09:18:47.000Z</time>
      </trkpt>
      <trkpt lat="50.14643" lon="3.54902">
        <ele>117.47210693359</ele>
        <time>2014-04-13T09:18:50.000Z</time>
      </trkpt>
      <trkpt lat="50.14647" lon="3.54889">
        <ele>118.00727844238</ele>
        <time>2014-04-13T09:18:52.000Z</time>
      </trkpt>
      <trkpt lat="50.14653" lon="3.5487">
        <ele>118.80886077881</ele>
        <time>2014-04-13T09:18:55.000Z</time>
      </trkpt>
      <trkpt lat="50.14656" lon="3.54852">
        <ele>119.15450286865</ele>
        <time>2014-04-13T09:18:58.000Z</time>
      </trkpt>
      <trkpt lat="50.14661" lon="3.54836">
        <ele>118.82360839844</ele>
        <time>2014-04-13T09:19:01.000Z</time>
      </trkpt>
      <trkpt lat="50.14664" lon="3.54818">
        <ele>118.6127166748</ele>
        <time>2014-04-13T09:19:04.000Z</time>
      </trkpt>
      <trkpt lat="50.14667" lon="3.54806">
        <ele>118.23448181152</ele>
        <time>2014-04-13T09:19:06.000Z</time>
      </trkpt>
      <trkpt lat="50.1467" lon="3.54786">
        <ele>117.69747161865</ele>
        <time>2014-04-13T09:19:09.000Z</time>
      </trkpt>
      <trkpt lat="50.14672" lon="3.54774">
        <ele>117.31624603271</ele>
        <time>2014-04-13T09:19:11.000Z</time>
      </trkpt>
      <trkpt lat="50.14676" lon="3.54757">
        <ele>117.62520599365</ele>
        <time>2014-04-13T09:19:14.000Z</time>
      </trkpt>
      <trkpt lat="50.1468" lon="3.54741">
        <ele>117.2684173584</ele>
        <time>2014-04-13T09:19:17.000Z</time>
      </trkpt>
      <trkpt lat="50.14685" lon="3.54725">
        <ele>116.8151473999</ele>
        <time>2014-04-13T09:19:20.000Z</time>
      </trkpt>
      <trkpt lat="50.1469" lon="3.54709">
        <ele>116.25455474854</ele>
        <time>2014-04-13T09:19:23.000Z</time>
      </trkpt>
      <trkpt lat="50.14694" lon="3.54693">
        <ele>115.87943267822</ele>
        <time>2014-04-13T09:19:26.000Z</time>
      </trkpt>
      <trkpt lat="50.14698" lon="3.54676">
        <ele>115.1869354248</ele>
        <time>2014-04-13T09:19:29.000Z</time>
      </trkpt>
      <trkpt lat="50.14699" lon="3.54666">
        <ele>115.10495758057</ele>
        <time>2014-04-13T09:19:31.000Z</time>
      </trkpt>
      <trkpt lat="50.14701" lon="3.54655">
        <ele>114.9815826416</ele>
        <time>2014-04-13T09:19:33.000Z</time>
      </trkpt>
      <trkpt lat="50.14704" lon="3.5464">
        <ele>115.24174499512</ele>
        <time>2014-04-13T09:19:36.000Z</time>
      </trkpt>
      <trkpt lat="50.14706" lon="3.5463">
        <ele>115.82761383057</ele>
        <time>2014-04-13T09:19:38.000Z</time>
      </trkpt>
      <trkpt lat="50.14709" lon="3.54614">
        <ele>116.35646057129</ele>
        <time>2014-04-13T09:19:41.000Z</time>
      </trkpt>
      <trkpt lat="50.14712" lon="3.54605">
        <ele>116.7582244873</ele>
        <time>2014-04-13T09:19:43.000Z</time>
      </trkpt>
      <trkpt lat="50.14715" lon="3.54591">
        <ele>117.19830322266</ele>
        <time>2014-04-13T09:19:46.000Z</time>
      </trkpt>
      <trkpt lat="50.14718" lon="3.54576">
        <ele>117.3706817627</ele>
        <time>2014-04-13T09:19:49.000Z</time>
      </trkpt>
      <trkpt lat="50.14719" lon="3.54566">
        <ele>117.28762054443</ele>
        <time>2014-04-13T09:19:51.000Z</time>
      </trkpt>
      <trkpt lat="50.14721" lon="3.54556">
        <ele>117.00728607178</ele>
        <time>2014-04-13T09:19:53.000Z</time>
      </trkpt>
      <trkpt lat="50.14723" lon="3.54546">
        <ele>117.27046966553</ele>
        <time>2014-04-13T09:19:55.000Z</time>
      </trkpt>
      <trkpt lat="50.14725" lon="3.54536">
        <ele>117.67851257324</ele>
        <time>2014-04-13T09:19:57.000Z</time>
      </trkpt>
      <trkpt lat="50.14727" lon="3.54526">
        <ele>118.262550354</ele>
        <time>2014-04-13T09:19:59.000Z</time>
      </trkpt>
      <trkpt lat="50.14728" lon="3.54514">
        <ele>118.32246398926</ele>
        <time>2014-04-13T09:20:02.000Z</time>
      </trkpt>
      <trkpt lat="50.14729" lon="3.54503">
        <ele>118.69876861572</ele>
        <time>2014-04-13T09:20:05.000Z</time>
      </trkpt>
      <trkpt lat="50.14731" lon="3.54491">
        <ele>118.98078918457</ele>
        <time>2014-04-13T09:20:08.000Z</time>
      </trkpt>
      <trkpt lat="50.14733" lon="3.54482">
        <ele>119.2384185791</ele>
        <time>2014-04-13T09:20:10.000Z</time>
      </trkpt>
      <trkpt lat="50.14735" lon="3.54469">
        <ele>119.8302230835</ele>
        <time>2014-04-13T09:20:13.000Z</time>
      </trkpt>
      <trkpt lat="50.14738" lon="3.54456">
        <ele>120.7709197998</ele>
        <time>2014-04-13T09:20:16.000Z</time>
      </trkpt>
      <trkpt lat="50.14741" lon="3.54442">
        <ele>121.78163909912</ele>
        <time>2014-04-13T09:20:19.000Z</time>
      </trkpt>
      <trkpt lat="50.14743" lon="3.54425">
        <ele>122.30009460449</ele>
        <time>2014-04-13T09:20:22.000Z</time>
      </trkpt>
      <trkpt lat="50.14745" lon="3.54414">
        <ele>122.63027191162</ele>
        <time>2014-04-13T09:20:24.000Z</time>
      </trkpt>
      <trkpt lat="50.14749" lon="3.5439">
        <ele>122.30516052246</ele>
        <time>2014-04-13T09:20:27.000Z</time>
      </trkpt>
      <trkpt lat="50.14751" lon="3.54378">
        <ele>122.09953308105</ele>
        <time>2014-04-13T09:20:29.000Z</time>
      </trkpt>
      <trkpt lat="50.14753" lon="3.54362">
        <ele>121.71510314941</ele>
        <time>2014-04-13T09:20:31.000Z</time>
      </trkpt>
      <trkpt lat="50.14756" lon="3.5435">
        <ele>121.58782958984</ele>
        <time>2014-04-13T09:20:33.000Z</time>
      </trkpt>
      <trkpt lat="50.14762" lon="3.54329">
        <ele>121.7952041626</ele>
        <time>2014-04-13T09:20:36.000Z</time>
      </trkpt>
      <trkpt lat="50.14768" lon="3.54309">
        <ele>122.32215881348</ele>
        <time>2014-04-13T09:20:38.000Z</time>
      </trkpt>
      <trkpt lat="50.14774" lon="3.54284">
        <ele>123.08415222168</ele>
        <time>2014-04-13T09:20:41.000Z</time>
      </trkpt>
      <trkpt lat="50.14779" lon="3.54271">
        <ele>124.0068359375</ele>
        <time>2014-04-13T09:20:43.000Z</time>
      </trkpt>
      <trkpt lat="50.14787" lon="3.54246">
        <ele>125.11181640625</ele>
        <time>2014-04-13T09:20:46.000Z</time>
      </trkpt>
      <trkpt lat="50.14795" lon="3.54221">
        <ele>125.93681335449</ele>
        <time>2014-04-13T09:20:49.000Z</time>
      </trkpt>
      <trkpt lat="50.14799" lon="3.54205">
        <ele>126.26298522949</ele>
        <time>2014-04-13T09:20:51.000Z</time>
      </trkpt>
      <trkpt lat="50.14806" lon="3.54176">
        <ele>126.39892578125</ele>
        <time>2014-04-13T09:20:54.000Z</time>
      </trkpt>
      <trkpt lat="50.14814" lon="3.54144">
        <ele>126.6969833374</ele>
        <time>2014-04-13T09:20:57.000Z</time>
      </trkpt>
      <trkpt lat="50.14819" lon="3.54126">
        <ele>126.73793029785</ele>
        <time>2014-04-13T09:20:59.000Z</time>
      </trkpt>
      <trkpt lat="50.1482" lon="3.54112">
        <ele>126.51612854004</ele>
        <time>2014-04-13T09:21:01.000Z</time>
      </trkpt>
      <trkpt lat="50.14808" lon="3.54109">
        <ele>125.59552001953</ele>
        <time>2014-04-13T09:21:04.000Z</time>
      </trkpt>
      <trkpt lat="50.14793" lon="3.54116">
        <ele>124.3275604248</ele>
        <time>2014-04-13T09:21:07.000Z</time>
      </trkpt>
      <trkpt lat="50.14776" lon="3.54121">
        <ele>122.69268798828</ele>
        <time>2014-04-13T09:21:10.000Z</time>
      </trkpt>
      <trkpt lat="50.14758" lon="3.54125">
        <ele>120.84324645996</ele>
        <time>2014-04-13T09:21:13.000Z</time>
      </trkpt>
      <trkpt lat="50.14738" lon="3.54129">
        <ele>118.6255645752</ele>
        <time>2014-04-13T09:21:16.000Z</time>
      </trkpt>
      <trkpt lat="50.14725" lon="3.54132">
        <ele>117.00187683105</ele>
        <time>2014-04-13T09:21:18.000Z</time>
      </trkpt>
      <trkpt lat="50.14713" lon="3.54135">
        <ele>115.35970306396</ele>
        <time>2014-04-13T09:21:20.000Z</time>
      </trkpt>
      <trkpt lat="50.14695" lon="3.54139">
        <ele>114.23030853271</ele>
        <time>2014-04-13T09:21:23.000Z</time>
      </trkpt>
      <trkpt lat="50.14681" lon="3.54142">
        <ele>113.78259277344</ele>
        <time>2014-04-13T09:21:25.000Z</time>
      </trkpt>
      <trkpt lat="50.14666" lon="3.54147">
        <ele>114.25817871094</ele>
        <time>2014-04-13T09:21:28.000Z</time>
      </trkpt>
      <trkpt lat="50.14648" lon="3.54152">
        <ele>115.396484375</ele>
        <time>2014-04-13T09:21:31.000Z</time>
      </trkpt>
      <trkpt lat="50.14637" lon="3.54155">
        <ele>116.71903991699</ele>
        <time>2014-04-13T09:21:33.000Z</time>
      </trkpt>
      <trkpt lat="50.14619" lon="3.54161">
        <ele>117.86262512207</ele>
        <time>2014-04-13T09:21:36.000Z</time>
      </trkpt>
      <trkpt lat="50.14604" lon="3.54165">
        <ele>118.00805664062</ele>
        <time>2014-04-13T09:21:39.000Z</time>
      </trkpt>
      <trkpt lat="50.14592" lon="3.54169">
        <ele>117.13623046875</ele>
        <time>2014-04-13T09:21:41.000Z</time>
      </trkpt>
      <trkpt lat="50.14581" lon="3.54172">
        <ele>116.7791595459</ele>
        <time>2014-04-13T09:21:43.000Z</time>
      </trkpt>
      <trkpt lat="50.14566" lon="3.54176">
        <ele>116.28564453125</ele>
        <time>2014-04-13T09:21:46.000Z</time>
      </trkpt>
      <trkpt lat="50.14551" lon="3.5418">
        <ele>115.74143981934</ele>
        <time>2014-04-13T09:21:49.000Z</time>
      </trkpt>
      <trkpt lat="50.14539" lon="3.54183">
        <ele>115.75382232666</ele>
        <time>2014-04-13T09:21:52.000Z</time>
      </trkpt>
      <trkpt lat="50.14531" lon="3.54185">
        <ele>116.61991882324</ele>
        <time>2014-04-13T09:21:54.000Z</time>
      </trkpt>
      <trkpt lat="50.14518" lon="3.54186">
        <ele>117.00971984863</ele>
        <time>2014-04-13T09:21:57.000Z</time>
      </trkpt>
      <trkpt lat="50.14498" lon="3.54186">
        <ele>117.8924331665</ele>
        <time>2014-04-13T09:22:01.000Z</time>
      </trkpt>
      <trkpt lat="50.14486" lon="3.54185">
        <ele>119.03625488281</ele>
        <time>2014-04-13T09:22:04.000Z</time>
      </trkpt>
      <trkpt lat="50.14474" lon="3.54184">
        <ele>120.08609771729</ele>
        <time>2014-04-13T09:22:07.000Z</time>
      </trkpt>
      <trkpt lat="50.1446" lon="3.54183">
        <ele>121.05554199219</ele>
        <time>2014-04-13T09:22:10.000Z</time>
      </trkpt>
      <trkpt lat="50.1445" lon="3.54182">
        <ele>121.73516845703</ele>
        <time>2014-04-13T09:22:12.000Z</time>
      </trkpt>
      <trkpt lat="50.14434" lon="3.54181">
        <ele>122.64430999756</ele>
        <time>2014-04-13T09:22:15.000Z</time>
      </trkpt>
      <trkpt lat="50.1442" lon="3.5418">
        <ele>123.36783599854</ele>
        <time>2014-04-13T09:22:18.000Z</time>
      </trkpt>
      <trkpt lat="50.1441" lon="3.54179">
        <ele>124.18892669678</ele>
        <time>2014-04-13T09:22:20.000Z</time>
      </trkpt>
      <trkpt lat="50.14397" lon="3.54178">
        <ele>125.1644744873</ele>
        <time>2014-04-13T09:22:23.000Z</time>
      </trkpt>
      <trkpt lat="50.14386" lon="3.54177">
        <ele>126.08573150635</ele>
        <time>2014-04-13T09:22:25.000Z</time>
      </trkpt>
      <trkpt lat="50.14375" lon="3.54176">
        <ele>126.34233093262</ele>
        <time>2014-04-13T09:22:27.000Z</time>
      </trkpt>
      <trkpt lat="50.14359" lon="3.54176">
        <ele>126.23210144043</ele>
        <time>2014-04-13T09:22:30.000Z</time>
      </trkpt>
      <trkpt lat="50.14344" lon="3.54176">
        <ele>126.28828430176</ele>
        <time>2014-04-13T09:22:33.000Z</time>
      </trkpt>
      <trkpt lat="50.1433" lon="3.5418">
        <ele>126.31381988525</ele>
        <time>2014-04-13T09:22:36.000Z</time>
      </trkpt>
      <trkpt lat="50.14321" lon="3.54183">
        <ele>126.37628173828</ele>
        <time>2014-04-13T09:22:38.000Z</time>
      </trkpt>
      <trkpt lat="50.14308" lon="3.54187">
        <ele>126.5736541748</ele>
        <time>2014-04-13T09:22:41.000Z</time>
      </trkpt>
      <trkpt lat="50.14296" lon="3.54192">
        <ele>126.87316894531</ele>
        <time>2014-04-13T09:22:44.000Z</time>
      </trkpt>
      <trkpt lat="50.14281" lon="3.54197">
        <ele>127.19311523438</ele>
        <time>2014-04-13T09:22:47.000Z</time>
      </trkpt>
      <trkpt lat="50.14273" lon="3.54199">
        <ele>127.46502685547</ele>
        <time>2014-04-13T09:22:49.000Z</time>
      </trkpt>
      <trkpt lat="50.14265" lon="3.54202">
        <ele>127.46203613281</ele>
        <time>2014-04-13T09:22:51.000Z</time>
      </trkpt>
      <trkpt lat="50.14253" lon="3.54206">
        <ele>127.70827484131</ele>
        <time>2014-04-13T09:22:54.000Z</time>
      </trkpt>
      <trkpt lat="50.14245" lon="3.54209">
        <ele>127.97801208496</ele>
        <time>2014-04-13T09:22:56.000Z</time>
      </trkpt>
      <trkpt lat="50.14231" lon="3.54211">
        <ele>128.34600830078</ele>
        <time>2014-04-13T09:22:59.000Z</time>
      </trkpt>
      <trkpt lat="50.14216" lon="3.54218">
        <ele>128.35336303711</ele>
        <time>2014-04-13T09:23:02.000Z</time>
      </trkpt>
      <trkpt lat="50.14206" lon="3.54221">
        <ele>128.5609588623</ele>
        <time>2014-04-13T09:23:05.000Z</time>
      </trkpt>
      <trkpt lat="50.14198" lon="3.54226">
        <ele>128.45286560059</ele>
        <time>2014-04-13T09:23:07.000Z</time>
      </trkpt>
      <trkpt lat="50.14186" lon="3.54232">
        <ele>128.5718536377</ele>
        <time>2014-04-13T09:23:10.000Z</time>
      </trkpt>
      <trkpt lat="50.14179" lon="3.54234">
        <ele>128.11572265625</ele>
        <time>2014-04-13T09:23:12.000Z</time>
      </trkpt>
      <trkpt lat="50.14168" lon="3.54235">
        <ele>127.72467041016</ele>
        <time>2014-04-13T09:23:15.000Z</time>
      </trkpt>
      <trkpt lat="50.14159" lon="3.54236">
        <ele>127.65641021729</ele>
        <time>2014-04-13T09:23:18.000Z</time>
      </trkpt>
      <trkpt lat="50.14153" lon="3.54237">
        <ele>127.89344787598</ele>
        <time>2014-04-13T09:23:21.000Z</time>
      </trkpt>
      <trkpt lat="50.14151" lon="3.54237">
        <ele>127.47496032715</ele>
        <time>2014-04-13T09:23:23.000Z</time>
      </trkpt>
      <trkpt lat="50.14146" lon="3.54237">
        <ele>127.32293701172</ele>
        <time>2014-04-13T09:23:26.000Z</time>
      </trkpt>
      <trkpt lat="50.1414" lon="3.54241">
        <ele>127.09106445312</ele>
        <time>2014-04-13T09:23:28.000Z</time>
      </trkpt>
      <trkpt lat="50.1413" lon="3.54244">
        <ele>126.79057312012</ele>
        <time>2014-04-13T09:23:31.000Z</time>
      </trkpt>
      <trkpt lat="50.14119" lon="3.54246">
        <ele>126.3409576416</ele>
        <time>2014-04-13T09:23:34.000Z</time>
      </trkpt>
      <trkpt lat="50.14112" lon="3.54247">
        <ele>126.95262145996</ele>
        <time>2014-04-13T09:23:36.000Z</time>
      </trkpt>
      <trkpt lat="50.14101" lon="3.54249">
        <ele>127.45660400391</ele>
        <time>2014-04-13T09:23:39.000Z</time>
      </trkpt>
      <trkpt lat="50.1409" lon="3.54249">
        <ele>128.65251159668</ele>
        <time>2014-04-13T09:23:42.000Z</time>
      </trkpt>
      <trkpt lat="50.14084" lon="3.54248">
        <ele>130.0602722168</ele>
        <time>2014-04-13T09:23:44.000Z</time>
      </trkpt>
      <trkpt lat="50.14074" lon="3.54247">
        <ele>131.50845336914</ele>
        <time>2014-04-13T09:23:47.000Z</time>
      </trkpt>
      <trkpt lat="50.14063" lon="3.54247">
        <ele>132.48310852051</ele>
        <time>2014-04-13T09:23:50.000Z</time>
      </trkpt>
      <trkpt lat="50.14051" lon="3.54247">
        <ele>133.6226348877</ele>
        <time>2014-04-13T09:23:53.000Z</time>
      </trkpt>
      <trkpt lat="50.14043" lon="3.54247">
        <ele>134.47102355957</ele>
        <time>2014-04-13T09:23:55.000Z</time>
      </trkpt>
      <trkpt lat="50.1403" lon="3.54246">
        <ele>135.13526916504</ele>
        <time>2014-04-13T09:23:58.000Z</time>
      </trkpt>
      <trkpt lat="50.14017" lon="3.54246">
        <ele>135.59034729004</ele>
        <time>2014-04-13T09:24:01.000Z</time>
      </trkpt>
      <trkpt lat="50.14001" lon="3.54251">
        <ele>135.71279907227</ele>
        <time>2014-04-13T09:24:04.000Z</time>
      </trkpt>
      <trkpt lat="50.13989" lon="3.54251">
        <ele>135.79429626465</ele>
        <time>2014-04-13T09:24:07.000Z</time>
      </trkpt>
      <trkpt lat="50.13979" lon="3.54252">
        <ele>135.70504760742</ele>
        <time>2014-04-13T09:24:10.000Z</time>
      </trkpt>
      <trkpt lat="50.13967" lon="3.54251">
        <ele>135.42269897461</ele>
        <time>2014-04-13T09:24:12.000Z</time>
      </trkpt>
      <trkpt lat="50.13955" lon="3.5425">
        <ele>135.09519958496</ele>
        <time>2014-04-13T09:24:15.000Z</time>
      </trkpt>
      <trkpt lat="50.13944" lon="3.5425">
        <ele>135.04835510254</ele>
        <time>2014-04-13T09:24:18.000Z</time>
      </trkpt>
      <trkpt lat="50.13935" lon="3.54251">
        <ele>135.05433654785</ele>
        <time>2014-04-13T09:24:20.000Z</time>
      </trkpt>
      <trkpt lat="50.13922" lon="3.54251">
        <ele>134.92771911621</ele>
        <time>2014-04-13T09:24:23.000Z</time>
      </trkpt>
      <trkpt lat="50.13913" lon="3.5425">
        <ele>134.98043823242</ele>
        <time>2014-04-13T09:24:25.000Z</time>
      </trkpt>
      <trkpt lat="50.13899" lon="3.5425">
        <ele>134.67707824707</ele>
        <time>2014-04-13T09:24:28.000Z</time>
      </trkpt>
      <trkpt lat="50.13889" lon="3.54248">
        <ele>134.11991882324</ele>
        <time>2014-04-13T09:24:30.000Z</time>
      </trkpt>
      <trkpt lat="50.13873" lon="3.54242">
        <ele>133.33944702148</ele>
        <time>2014-04-13T09:24:33.000Z</time>
      </trkpt>
      <trkpt lat="50.13857" lon="3.54237">
        <ele>132.67198181152</ele>
        <time>2014-04-13T09:24:36.000Z</time>
      </trkpt>
      <trkpt lat="50.13846" lon="3.54233">
        <ele>131.99719238281</ele>
        <time>2014-04-13T09:24:38.000Z</time>
      </trkpt>
      <trkpt lat="50.13829" lon="3.54227">
        <ele>131.64242553711</ele>
        <time>2014-04-13T09:24:41.000Z</time>
      </trkpt>
      <trkpt lat="50.13818" lon="3.54224">
        <ele>131.66596984863</ele>
        <time>2014-04-13T09:24:43.000Z</time>
      </trkpt>
      <trkpt lat="50.138" lon="3.54221">
        <ele>131.80944824219</ele>
        <time>2014-04-13T09:24:46.000Z</time>
      </trkpt>
      <trkpt lat="50.13782" lon="3.54222">
        <ele>131.91390991211</ele>
        <time>2014-04-13T09:24:49.000Z</time>
      </trkpt>
      <trkpt lat="50.1377" lon="3.54223">
        <ele>131.81045532227</ele>
        <time>2014-04-13T09:24:51.000Z</time>
      </trkpt>
      <trkpt lat="50.13752" lon="3.54225">
        <ele>131.6623840332</ele>
        <time>2014-04-13T09:24:54.000Z</time>
      </trkpt>
      <trkpt lat="50.13735" lon="3.54229">
        <ele>131.4027557373</ele>
        <time>2014-04-13T09:24:57.000Z</time>
      </trkpt>
      <trkpt lat="50.13724" lon="3.54232">
        <ele>131.59403991699</ele>
        <time>2014-04-13T09:24:59.000Z</time>
      </trkpt>
      <trkpt lat="50.13707" lon="3.54239">
        <ele>131.62310791016</ele>
        <time>2014-04-13T09:25:02.000Z</time>
      </trkpt>
      <trkpt lat="50.13695" lon="3.54244">
        <ele>131.97381591797</ele>
        <time>2014-04-13T09:25:04.000Z</time>
      </trkpt>
      <trkpt lat="50.13684" lon="3.54251">
        <ele>132.75454711914</ele>
        <time>2014-04-13T09:25:06.000Z</time>
      </trkpt>
      <trkpt lat="50.13665" lon="3.54259">
        <ele>133.30516052246</ele>
        <time>2014-04-13T09:25:09.000Z</time>
      </trkpt>
      <trkpt lat="50.13647" lon="3.54267">
        <ele>133.32528686523</ele>
        <time>2014-04-13T09:25:12.000Z</time>
      </trkpt>
      <trkpt lat="50.1363" lon="3.54279">
        <ele>133.07467651367</ele>
        <time>2014-04-13T09:25:15.000Z</time>
      </trkpt>
      <trkpt lat="50.13616" lon="3.54285">
        <ele>132.76612854004</ele>
        <time>2014-04-13T09:25:17.000Z</time>
      </trkpt>
      <trkpt lat="50.13596" lon="3.54297">
        <ele>132.14485168457</ele>
        <time>2014-04-13T09:25:20.000Z</time>
      </trkpt>
      <trkpt lat="50.13577" lon="3.54305">
        <ele>132.13729858398</ele>
        <time>2014-04-13T09:25:23.000Z</time>
      </trkpt>
      <trkpt lat="50.13558" lon="3.54299">
        <ele>131.6716003418</ele>
        <time>2014-04-13T09:25:26.000Z</time>
      </trkpt>
      <trkpt lat="50.13546" lon="3.543">
        <ele>131.17657470703</ele>
        <time>2014-04-13T09:25:28.000Z</time>
      </trkpt>
      <trkpt lat="50.13533" lon="3.54304">
        <ele>130.6805267334</ele>
        <time>2014-04-13T09:25:30.000Z</time>
      </trkpt>
      <trkpt lat="50.13515" lon="3.54305">
        <ele>129.81216430664</ele>
        <time>2014-04-13T09:25:33.000Z</time>
      </trkpt>
      <trkpt lat="50.13494" lon="3.54308">
        <ele>127.95597839355</ele>
        <time>2014-04-13T09:25:36.000Z</time>
      </trkpt>
      <trkpt lat="50.13483" lon="3.54312">
        <ele>126.66861724854</ele>
        <time>2014-04-13T09:25:38.000Z</time>
      </trkpt>
      <trkpt lat="50.13468" lon="3.54317">
        <ele>126.00246429443</ele>
        <time>2014-04-13T09:25:41.000Z</time>
      </trkpt>
      <trkpt lat="50.13457" lon="3.54319">
        <ele>124.78224945068</ele>
        <time>2014-04-13T09:25:43.000Z</time>
      </trkpt>
      <trkpt lat="50.13442" lon="3.54321">
        <ele>124.26731109619</ele>
        <time>2014-04-13T09:25:46.000Z</time>
      </trkpt>
      <trkpt lat="50.13433" lon="3.54321">
        <ele>124.33734130859</ele>
        <time>2014-04-13T09:25:48.000Z</time>
      </trkpt>
      <trkpt lat="50.13419" lon="3.54327">
        <ele>124.67500305176</ele>
        <time>2014-04-13T09:25:51.000Z</time>
      </trkpt>
      <trkpt lat="50.13411" lon="3.54327">
        <ele>125.04386901855</ele>
        <time>2014-04-13T09:25:53.000Z</time>
      </trkpt>
      <trkpt lat="50.13401" lon="3.54331">
        <ele>125.84279632568</ele>
        <time>2014-04-13T09:25:55.000Z</time>
      </trkpt>
      <trkpt lat="50.13391" lon="3.54333">
        <ele>126.48454284668</ele>
        <time>2014-04-13T09:25:57.000Z</time>
      </trkpt>
      <trkpt lat="50.13374" lon="3.54338">
        <ele>127.01220703125</ele>
        <time>2014-04-13T09:26:00.000Z</time>
      </trkpt>
      <trkpt lat="50.13364" lon="3.54339">
        <ele>126.66274261475</ele>
        <time>2014-04-13T09:26:02.000Z</time>
      </trkpt>
      <trkpt lat="50.13348" lon="3.54341">
        <ele>126.45223236084</ele>
        <time>2014-04-13T09:26:05.000Z</time>
      </trkpt>
      <trkpt lat="50.13336" lon="3.54339">
        <ele>126.30450439453</ele>
        <time>2014-04-13T09:26:07.000Z</time>
      </trkpt>
      <trkpt lat="50.13323" lon="3.54327">
        <ele>125.90726470947</ele>
        <time>2014-04-13T09:26:10.000Z</time>
      </trkpt>
      <trkpt lat="50.13314" lon="3.54323">
        <ele>125.77834320068</ele>
        <time>2014-04-13T09:26:12.000Z</time>
      </trkpt>
      <trkpt lat="50.13297" lon="3.54321">
        <ele>126.3706817627</ele>
        <time>2014-04-13T09:26:15.000Z</time>
      </trkpt>
      <trkpt lat="50.13286" lon="3.54318">
        <ele>126.65767669678</ele>
        <time>2014-04-13T09:26:17.000Z</time>
      </trkpt>
      <trkpt lat="50.13271" lon="3.54316">
        <ele>127.1198348999</ele>
        <time>2014-04-13T09:26:20.000Z</time>
      </trkpt>
      <trkpt lat="50.13261" lon="3.54315">
        <ele>127.791847229</ele>
        <time>2014-04-13T09:26:22.000Z</time>
      </trkpt>
      <trkpt lat="50.13245" lon="3.54312">
        <ele>128.28327941895</ele>
        <time>2014-04-13T09:26:25.000Z</time>
      </trkpt>
      <trkpt lat="50.13235" lon="3.54309">
        <ele>128.43075561523</ele>
        <time>2014-04-13T09:26:27.000Z</time>
      </trkpt>
      <trkpt lat="50.13218" lon="3.54313">
        <ele>128.65682983398</ele>
        <time>2014-04-13T09:26:30.000Z</time>
      </trkpt>
      <trkpt lat="50.13204" lon="3.54324">
        <ele>128.29414367676</ele>
        <time>2014-04-13T09:26:33.000Z</time>
      </trkpt>
      <trkpt lat="50.13194" lon="3.54335">
        <ele>127.72827148438</ele>
        <time>2014-04-13T09:26:35.000Z</time>
      </trkpt>
      <trkpt lat="50.13187" lon="3.54345">
        <ele>127.07218170166</ele>
        <time>2014-04-13T09:26:37.000Z</time>
      </trkpt>
      <trkpt lat="50.13179" lon="3.54355">
        <ele>126.72857666016</ele>
        <time>2014-04-13T09:26:39.000Z</time>
      </trkpt>
      <trkpt lat="50.13169" lon="3.54365">
        <ele>126.05033874512</ele>
        <time>2014-04-13T09:26:41.000Z</time>
      </trkpt>
      <trkpt lat="50.13159" lon="3.54379">
        <ele>125.58699035645</ele>
        <time>2014-04-13T09:26:44.000Z</time>
      </trkpt>
      <trkpt lat="50.1315" lon="3.54389">
        <ele>125.44886779785</ele>
        <time>2014-04-13T09:26:46.000Z</time>
      </trkpt>
      <trkpt lat="50.13139" lon="3.54402">
        <ele>125.7915802002</ele>
        <time>2014-04-13T09:26:49.000Z</time>
      </trkpt>
      <trkpt lat="50.13131" lon="3.54412">
        <ele>126.26005554199</ele>
        <time>2014-04-13T09:26:51.000Z</time>
      </trkpt>
      <trkpt lat="50.13118" lon="3.54423">
        <ele>126.85334777832</ele>
        <time>2014-04-13T09:26:54.000Z</time>
      </trkpt>
      <trkpt lat="50.13106" lon="3.54437">
        <ele>127.66313171387</ele>
        <time>2014-04-13T09:26:57.000Z</time>
      </trkpt>
      <trkpt lat="50.13094" lon="3.54449">
        <ele>128.23335266113</ele>
        <time>2014-04-13T09:27:00.000Z</time>
      </trkpt>
      <trkpt lat="50.13087" lon="3.54458">
        <ele>128.16537475586</ele>
        <time>2014-04-13T09:27:02.000Z</time>
      </trkpt>
      <trkpt lat="50.13081" lon="3.54468">
        <ele>127.95455169678</ele>
        <time>2014-04-13T09:27:04.000Z</time>
      </trkpt>
      <trkpt lat="50.13069" lon="3.54482">
        <ele>128.06918334961</ele>
        <time>2014-04-13T09:27:07.000Z</time>
      </trkpt>
      <trkpt lat="50.13061" lon="3.5449">
        <ele>127.87115478516</ele>
        <time>2014-04-13T09:27:09.000Z</time>
      </trkpt>
      <trkpt lat="50.13052" lon="3.54501">
        <ele>127.64036560059</ele>
        <time>2014-04-13T09:27:11.000Z</time>
      </trkpt>
      <trkpt lat="50.1304" lon="3.54516">
        <ele>128.14761352539</ele>
        <time>2014-04-13T09:27:14.000Z</time>
      </trkpt>
      <trkpt lat="50.13028" lon="3.54531">
        <ele>128.43423461914</ele>
        <time>2014-04-13T09:27:17.000Z</time>
      </trkpt>
      <trkpt lat="50.13017" lon="3.54549">
        <ele>128.76480102539</ele>
        <time>2014-04-13T09:27:20.000Z</time>
      </trkpt>
      <trkpt lat="50.13002" lon="3.54569">
        <ele>129.10382080078</ele>
        <time>2014-04-13T09:27:23.000Z</time>
      </trkpt>
      <trkpt lat="50.12988" lon="3.54591">
        <ele>129.48568725586</ele>
        <time>2014-04-13T09:27:26.000Z</time>
      </trkpt>
      <trkpt lat="50.12974" lon="3.54609">
        <ele>129.46728515625</ele>
        <time>2014-04-13T09:27:29.000Z</time>
      </trkpt>
      <trkpt lat="50.12963" lon="3.54621">
        <ele>129.64068603516</ele>
        <time>2014-04-13T09:27:31.000Z</time>
      </trkpt>
      <trkpt lat="50.12944" lon="3.54637">
        <ele>129.1316986084</ele>
        <time>2014-04-13T09:27:34.000Z</time>
      </trkpt>
      <trkpt lat="50.12926" lon="3.54643">
        <ele>128.93734741211</ele>
        <time>2014-04-13T09:27:37.000Z</time>
      </trkpt>
      <trkpt lat="50.12907" lon="3.5464">
        <ele>128.2428894043</ele>
        <time>2014-04-13T09:27:40.000Z</time>
      </trkpt>
      <trkpt lat="50.12896" lon="3.54634">
        <ele>127.59334564209</ele>
        <time>2014-04-13T09:27:42.000Z</time>
      </trkpt>
      <trkpt lat="50.12881" lon="3.54627">
        <ele>127.13403320312</ele>
        <time>2014-04-13T09:27:45.000Z</time>
      </trkpt>
      <trkpt lat="50.12866" lon="3.54619">
        <ele>127.53871917725</ele>
        <time>2014-04-13T09:27:48.000Z</time>
      </trkpt>
      <trkpt lat="50.12856" lon="3.54615">
        <ele>127.80757141113</ele>
        <time>2014-04-13T09:27:50.000Z</time>
      </trkpt>
      <trkpt lat="50.12844" lon="3.54608">
        <ele>128.66741943359</ele>
        <time>2014-04-13T09:27:53.000Z</time>
      </trkpt>
      <trkpt lat="50.12834" lon="3.54602">
        <ele>129.31088256836</ele>
        <time>2014-04-13T09:27:55.000Z</time>
      </trkpt>
      <trkpt lat="50.1282" lon="3.54597">
        <ele>129.95101928711</ele>
        <time>2014-04-13T09:27:58.000Z</time>
      </trkpt>
      <trkpt lat="50.12811" lon="3.54595">
        <ele>130.56938171387</ele>
        <time>2014-04-13T09:28:00.000Z</time>
      </trkpt>
      <trkpt lat="50.12801" lon="3.54591">
        <ele>131.27101135254</ele>
        <time>2014-04-13T09:28:02.000Z</time>
      </trkpt>
      <trkpt lat="50.12792" lon="3.54589">
        <ele>131.95310974121</ele>
        <time>2014-04-13T09:28:04.000Z</time>
      </trkpt>
      <trkpt lat="50.12778" lon="3.54583">
        <ele>132.49549865723</ele>
        <time>2014-04-13T09:28:07.000Z</time>
      </trkpt>
      <trkpt lat="50.12769" lon="3.54581">
        <ele>132.60092163086</ele>
        <time>2014-04-13T09:28:09.000Z</time>
      </trkpt>
      <trkpt lat="50.1276" lon="3.54574">
        <ele>132.421875</ele>
        <time>2014-04-13T09:28:11.000Z</time>
      </trkpt>
      <trkpt lat="50.12744" lon="3.54571">
        <ele>132.02966308594</ele>
        <time>2014-04-13T09:28:14.000Z</time>
      </trkpt>
      <trkpt lat="50.1273" lon="3.54563">
        <ele>131.69149780273</ele>
        <time>2014-04-13T09:28:17.000Z</time>
      </trkpt>
      <trkpt lat="50.1272" lon="3.54558">
        <ele>131.52784729004</ele>
        <time>2014-04-13T09:28:19.000Z</time>
      </trkpt>
      <trkpt lat="50.12705" lon="3.5455">
        <ele>131.58882141113</ele>
        <time>2014-04-13T09:28:22.000Z</time>
      </trkpt>
      <trkpt lat="50.1269" lon="3.5454">
        <ele>131.44093322754</ele>
        <time>2014-04-13T09:28:25.000Z</time>
      </trkpt>
      <trkpt lat="50.12679" lon="3.54536">
        <ele>131.2865447998</ele>
        <time>2014-04-13T09:28:27.000Z</time>
      </trkpt>
      <trkpt lat="50.12669" lon="3.54526">
        <ele>130.45304870605</ele>
        <time>2014-04-13T09:28:29.000Z</time>
      </trkpt>
      <trkpt lat="50.12663" lon="3.54513">
        <ele>129.1820526123</ele>
        <time>2014-04-13T09:28:31.000Z</time>
      </trkpt>
      <trkpt lat="50.12645" lon="3.54505">
        <ele>127.46563720703</ele>
        <time>2014-04-13T09:28:34.000Z</time>
      </trkpt>
      <trkpt lat="50.1263" lon="3.54493">
        <ele>125.68392181396</ele>
        <time>2014-04-13T09:28:37.000Z</time>
      </trkpt>
      <trkpt lat="50.12614" lon="3.54481">
        <ele>123.2688369751</ele>
        <time>2014-04-13T09:28:40.000Z</time>
      </trkpt>
      <trkpt lat="50.12603" lon="3.54471">
        <ele>121.39183044434</ele>
        <time>2014-04-13T09:28:42.000Z</time>
      </trkpt>
      <trkpt lat="50.12587" lon="3.54459">
        <ele>119.55039215088</ele>
        <time>2014-04-13T09:28:45.000Z</time>
      </trkpt>
      <trkpt lat="50.12568" lon="3.54449">
        <ele>117.97788238525</ele>
        <time>2014-04-13T09:28:48.000Z</time>
      </trkpt>
      <trkpt lat="50.12556" lon="3.54441">
        <ele>116.47117614746</ele>
        <time>2014-04-13T09:28:50.000Z</time>
      </trkpt>
      <trkpt lat="50.1254" lon="3.54425">
        <ele>115.42458343506</ele>
        <time>2014-04-13T09:28:53.000Z</time>
      </trkpt>
      <trkpt lat="50.12532" lon="3.54408">
        <ele>114.19038391113</ele>
        <time>2014-04-13T09:28:55.000Z</time>
      </trkpt>
      <trkpt lat="50.12519" lon="3.54381">
        <ele>113.08911132812</ele>
        <time>2014-04-13T09:28:58.000Z</time>
      </trkpt>
      <trkpt lat="50.12506" lon="3.54353">
        <ele>111.93514251709</ele>
        <time>2014-04-13T09:29:01.000Z</time>
      </trkpt>
      <trkpt lat="50.12497" lon="3.54331">
        <ele>110.92032623291</ele>
        <time>2014-04-13T09:29:03.000Z</time>
      </trkpt>
      <trkpt lat="50.12487" lon="3.54309">
        <ele>110.0052947998</ele>
        <time>2014-04-13T09:29:05.000Z</time>
      </trkpt>
      <trkpt lat="50.12473" lon="3.54278">
        <ele>109.4554901123</ele>
        <time>2014-04-13T09:29:08.000Z</time>
      </trkpt>
      <trkpt lat="50.12462" lon="3.54259">
        <ele>109.17124176025</ele>
        <time>2014-04-13T09:29:10.000Z</time>
      </trkpt>
      <trkpt lat="50.12444" lon="3.5424">
        <ele>109.44256591797</ele>
        <time>2014-04-13T09:29:13.000Z</time>
      </trkpt>
      <trkpt lat="50.12421" lon="3.5425">
        <ele>110.6252822876</ele>
        <time>2014-04-13T09:29:16.000Z</time>
      </trkpt>
      <trkpt lat="50.1241" lon="3.54256">
        <ele>110.75866699219</ele>
        <time>2014-04-13T09:29:18.000Z</time>
      </trkpt>
      <trkpt lat="50.1239" lon="3.54273">
        <ele>110.49350738525</ele>
        <time>2014-04-13T09:29:21.000Z</time>
      </trkpt>
      <trkpt lat="50.12376" lon="3.54286">
        <ele>110.52132415771</ele>
        <time>2014-04-13T09:29:23.000Z</time>
      </trkpt>
      <trkpt lat="50.12357" lon="3.54304">
        <ele>110.25743103027</ele>
        <time>2014-04-13T09:29:26.000Z</time>
      </trkpt>
      <trkpt lat="50.12338" lon="3.54322">
        <ele>108.99336242676</ele>
        <time>2014-04-13T09:29:29.000Z</time>
      </trkpt>
      <trkpt lat="50.12318" lon="3.5434">
        <ele>108.26834869385</ele>
        <time>2014-04-13T09:29:32.000Z</time>
      </trkpt>
      <trkpt lat="50.12297" lon="3.5436">
        <ele>107.67275238037</ele>
        <time>2014-04-13T09:29:35.000Z</time>
      </trkpt>
      <trkpt lat="50.12283" lon="3.54373">
        <ele>105.95727539062</ele>
        <time>2014-04-13T09:29:38.000Z</time>
      </trkpt>
      <trkpt lat="50.1228" lon="3.54373">
        <ele>104.28415679932</ele>
        <time>2014-04-13T09:29:41.000Z</time>
      </trkpt>
      <trkpt lat="50.12289" lon="3.54334">
        <ele>102.72127532959</ele>
        <time>2014-04-13T09:29:46.000Z</time>
      </trkpt>
      <trkpt lat="50.12303" lon="3.54321">
        <ele>101.72877502441</ele>
        <time>2014-04-13T09:29:49.000Z</time>
      </trkpt>
      <trkpt lat="50.12312" lon="3.54311">
        <ele>100.66650390625</ele>
        <time>2014-04-13T09:29:51.000Z</time>
      </trkpt>
      <trkpt lat="50.12326" lon="3.54297">
        <ele>100.17742919922</ele>
        <time>2014-04-13T09:29:54.000Z</time>
      </trkpt>
      <trkpt lat="50.12334" lon="3.54289">
        <ele>99.678634643555</ele>
        <time>2014-04-13T09:29:56.000Z</time>
      </trkpt>
      <trkpt lat="50.12349" lon="3.54277">
        <ele>99.148178100586</ele>
        <time>2014-04-13T09:29:59.000Z</time>
      </trkpt>
      <trkpt lat="50.12357" lon="3.54269">
        <ele>98.492324829102</ele>
        <time>2014-04-13T09:30:01.000Z</time>
      </trkpt>
      <trkpt lat="50.12366" lon="3.54262">
        <ele>98.155799865723</ele>
        <time>2014-04-13T09:30:03.000Z</time>
      </trkpt>
      <trkpt lat="50.12378" lon="3.54254">
        <ele>97.43888092041</ele>
        <time>2014-04-13T09:30:06.000Z</time>
      </trkpt>
      <trkpt lat="50.12386" lon="3.54245">
        <ele>96.538803100586</ele>
        <time>2014-04-13T09:30:08.000Z</time>
      </trkpt>
      <trkpt lat="50.12395" lon="3.54238">
        <ele>95.721084594727</ele>
        <time>2014-04-13T09:30:10.000Z</time>
      </trkpt>
      <trkpt lat="50.12408" lon="3.54228">
        <ele>94.448509216309</ele>
        <time>2014-04-13T09:30:13.000Z</time>
      </trkpt>
      <trkpt lat="50.1242" lon="3.54216">
        <ele>92.742782592773</ele>
        <time>2014-04-13T09:30:16.000Z</time>
      </trkpt>
      <trkpt lat="50.12423" lon="3.54201">
        <ele>91.773574829102</ele>
        <time>2014-04-13T09:30:19.000Z</time>
      </trkpt>
      <trkpt lat="50.1242" lon="3.54188">
        <ele>91.670104980469</ele>
        <time>2014-04-13T09:30:21.000Z</time>
      </trkpt>
      <trkpt lat="50.12416" lon="3.54179">
        <ele>90.939865112305</ele>
        <time>2014-04-13T09:30:23.000Z</time>
      </trkpt>
      <trkpt lat="50.12411" lon="3.54169">
        <ele>90.961624145508</ele>
        <time>2014-04-13T09:30:25.000Z</time>
      </trkpt>
      <trkpt lat="50.12406" lon="3.54157">
        <ele>91.360946655273</ele>
        <time>2014-04-13T09:30:28.000Z</time>
      </trkpt>
      <trkpt lat="50.12401" lon="3.54151">
        <ele>92.500595092773</ele>
        <time>2014-04-13T09:30:30.000Z</time>
      </trkpt>
      <trkpt lat="50.12395" lon="3.54143">
        <ele>92.675559997559</ele>
        <time>2014-04-13T09:30:32.000Z</time>
      </trkpt>
      <trkpt lat="50.12379" lon="3.54138">
        <ele>93.911315917969</ele>
        <time>2014-04-13T09:30:35.000Z</time>
      </trkpt>
      <trkpt lat="50.12361" lon="3.54133">
        <ele>94.18327331543</ele>
        <time>2014-04-13T09:30:38.000Z</time>
      </trkpt>
      <trkpt lat="50.12343" lon="3.54128">
        <ele>94.214736938477</ele>
        <time>2014-04-13T09:30:41.000Z</time>
      </trkpt>
      <trkpt lat="50.12323" lon="3.54124">
        <ele>92.804786682129</ele>
        <time>2014-04-13T09:30:44.000Z</time>
      </trkpt>
      <trkpt lat="50.1231" lon="3.54122">
        <ele>91.708877563477</ele>
        <time>2014-04-13T09:30:46.000Z</time>
      </trkpt>
      <trkpt lat="50.12289" lon="3.54114">
        <ele>89.991348266602</ele>
        <time>2014-04-13T09:30:49.000Z</time>
      </trkpt>
      <trkpt lat="50.12266" lon="3.54112">
        <ele>88.962585449219</ele>
        <time>2014-04-13T09:30:52.000Z</time>
      </trkpt>
      <trkpt lat="50.1225" lon="3.54108">
        <ele>87.66064453125</ele>
        <time>2014-04-13T09:30:55.000Z</time>
      </trkpt>
      <trkpt lat="50.12233" lon="3.54113">
        <ele>86.352073669434</ele>
        <time>2014-04-13T09:30:58.000Z</time>
      </trkpt>
      <trkpt lat="50.12219" lon="3.54123">
        <ele>85.042678833008</ele>
        <time>2014-04-13T09:31:01.000Z</time>
      </trkpt>
      <trkpt lat="50.12206" lon="3.54134">
        <ele>83.767433166504</ele>
        <time>2014-04-13T09:31:03.000Z</time>
      </trkpt>
      <trkpt lat="50.12194" lon="3.54144">
        <ele>82.625061035156</ele>
        <time>2014-04-13T09:31:05.000Z</time>
      </trkpt>
      <trkpt lat="50.12178" lon="3.54158">
        <ele>82.152709960938</ele>
        <time>2014-04-13T09:31:08.000Z</time>
      </trkpt>
      <trkpt lat="50.12168" lon="3.54166">
        <ele>81.824180603027</ele>
        <time>2014-04-13T09:31:10.000Z</time>
      </trkpt>
      <trkpt lat="50.12159" lon="3.54174">
        <ele>81.332237243652</ele>
        <time>2014-04-13T09:31:12.000Z</time>
      </trkpt>
      <trkpt lat="50.12145" lon="3.54185">
        <ele>80.732040405273</ele>
        <time>2014-04-13T09:31:14.000Z</time>
      </trkpt>
      <trkpt lat="50.1213" lon="3.54199">
        <ele>80.092590332031</ele>
        <time>2014-04-13T09:31:17.000Z</time>
      </trkpt>
      <trkpt lat="50.12115" lon="3.54213">
        <ele>79.486351013184</ele>
        <time>2014-04-13T09:31:20.000Z</time>
      </trkpt>
      <trkpt lat="50.12107" lon="3.54221">
        <ele>79.707664489746</ele>
        <time>2014-04-13T09:31:23.000Z</time>
      </trkpt>
      <trkpt lat="50.121" lon="3.54228">
        <ele>80.232192993164</ele>
        <time>2014-04-13T09:31:26.000Z</time>
      </trkpt>
      <trkpt lat="50.12096" lon="3.54232">
        <ele>80.74959564209</ele>
        <time>2014-04-13T09:31:28.000Z</time>
      </trkpt>
      <trkpt lat="50.12069" lon="3.54234">
        <ele>81.673667907715</ele>
        <time>2014-04-13T09:31:32.000Z</time>
      </trkpt>
      <trkpt lat="50.12052" lon="3.54229">
        <ele>82.343162536621</ele>
        <time>2014-04-13T09:31:35.000Z</time>
      </trkpt>
      <trkpt lat="50.12031" lon="3.54227">
        <ele>82.973220825195</ele>
        <time>2014-04-13T09:31:38.000Z</time>
      </trkpt>
      <trkpt lat="50.12021" lon="3.54216">
        <ele>83.569236755371</ele>
        <time>2014-04-13T09:31:40.000Z</time>
      </trkpt>
      <trkpt lat="50.12004" lon="3.54199">
        <ele>84.073348999023</ele>
        <time>2014-04-13T09:31:43.000Z</time>
      </trkpt>
      <trkpt lat="50.11993" lon="3.54182">
        <ele>83.83260345459</ele>
        <time>2014-04-13T09:31:45.000Z</time>
      </trkpt>
      <trkpt lat="50.11979" lon="3.54161">
        <ele>83.640724182129</ele>
        <time>2014-04-13T09:31:48.000Z</time>
      </trkpt>
      <trkpt lat="50.11966" lon="3.5414">
        <ele>82.846237182617</ele>
        <time>2014-04-13T09:31:51.000Z</time>
      </trkpt>
      <trkpt lat="50.11958" lon="3.54126">
        <ele>81.608200073242</ele>
        <time>2014-04-13T09:31:53.000Z</time>
      </trkpt>
      <trkpt lat="50.11949" lon="3.54112">
        <ele>80.872718811035</ele>
        <time>2014-04-13T09:31:55.000Z</time>
      </trkpt>
      <trkpt lat="50.11941" lon="3.54099">
        <ele>80.273414611816</ele>
        <time>2014-04-13T09:31:57.000Z</time>
      </trkpt>
      <trkpt lat="50.11933" lon="3.54086">
        <ele>79.176254272461</ele>
        <time>2014-04-13T09:31:59.000Z</time>
      </trkpt>
      <trkpt lat="50.11926" lon="3.54075">
        <ele>78.8232421875</ele>
        <time>2014-04-13T09:32:01.000Z</time>
      </trkpt>
      <trkpt lat="50.11914" lon="3.54078">
        <ele>78.977699279785</ele>
        <time>2014-04-13T09:32:03.000Z</time>
      </trkpt>
      <trkpt lat="50.119" lon="3.54082">
        <ele>79.559364318848</ele>
        <time>2014-04-13T09:32:06.000Z</time>
      </trkpt>
      <trkpt lat="50.11868" lon="3.54096">
        <ele>79.316429138184</ele>
        <time>2014-04-13T09:32:10.000Z</time>
      </trkpt>
      <trkpt lat="50.11853" lon="3.541">
        <ele>79.990432739258</ele>
        <time>2014-04-13T09:32:13.000Z</time>
      </trkpt>
      <trkpt lat="50.11834" lon="3.54108">
        <ele>80.147422790527</ele>
        <time>2014-04-13T09:32:16.000Z</time>
      </trkpt>
      <trkpt lat="50.11823" lon="3.54114">
        <ele>80.511825561523</ele>
        <time>2014-04-13T09:32:18.000Z</time>
      </trkpt>
      <trkpt lat="50.11806" lon="3.54118">
        <ele>80.671310424805</ele>
        <time>2014-04-13T09:32:21.000Z</time>
      </trkpt>
      <trkpt lat="50.11794" lon="3.54121">
        <ele>82.071670532227</ele>
        <time>2014-04-13T09:32:23.000Z</time>
      </trkpt>
      <trkpt lat="50.11783" lon="3.54126">
        <ele>83.007858276367</ele>
        <time>2014-04-13T09:32:25.000Z</time>
      </trkpt>
      <trkpt lat="50.11775" lon="3.54128">
        <ele>84.360084533691</ele>
        <time>2014-04-13T09:32:28.000Z</time>
      </trkpt>
      <trkpt lat="50.11775" lon="3.54128">
        <ele>84.360084533691</ele>
        <time>2014-04-13T09:32:31.000Z</time>
      </trkpt>
    </trkseg>
  </trk>
</gpx>